<?xml version='1.0' encoding='UTF-8'?><gpx version="1.1" creator="JPX - https://github.com/jenetics/jpx" xmlns="http://www.topografix.com/GPX/1/1"><trk><trkseg><trkpt lat="44.7020509" lon="8.4862812"><ele>321.0</ele><time>2026-04-04T08:40:51.529Z</time></trkpt><trkpt lat="44.7019769" lon="8.4862717"><ele>321.0</ele><time>2026-04-04T08:40:52.536Z</time></trkpt><trkpt lat="44.701822" lon="8.4861685"><ele>321.0</ele><time>2026-04-04T08:40:54.516Z</time></trkpt><trkpt lat="44.7016644" lon="8.4860845"><ele>321.0</ele><time>2026-04-04T08:40:56.518Z</time></trkpt><trkpt lat="44.7015786" lon="8.4860725"><ele>317.0</ele><time>2026-04-04T08:40:57.507Z</time></trkpt><trkpt lat="44.7014887" lon="8.4860765"><ele>313.0</ele><time>2026-04-04T08:40:58.507Z</time></trkpt><trkpt lat="44.7014028" lon="8.4860883"><ele>309.0</ele><time>2026-04-04T08:40:59.514Z</time></trkpt><trkpt lat="44.7013251" lon="8.4860933"><ele>305.0</ele><time>2026-04-04T08:41:00.514Z</time></trkpt><trkpt lat="44.7012569" lon="8.4860898"><ele>301.0</ele><time>2026-04-04T08:41:01.516Z</time></trkpt><trkpt lat="44.7011968" lon="8.4860388"><ele>297.0</ele><time>2026-04-04T08:41:02.519Z</time></trkpt><trkpt lat="44.7011437" lon="8.4859368"><ele>297.0</ele><time>2026-04-04T08:41:03.518Z</time></trkpt><trkpt lat="44.701098" lon="8.4858163"><ele>297.0</ele><time>2026-04-04T08:41:04.513Z</time></trkpt><trkpt lat="44.701057" lon="8.4856869"><ele>297.0</ele><time>2026-04-04T08:41:05.513Z</time></trkpt><trkpt lat="44.701013" lon="8.4855618"><ele>297.0</ele><time>2026-04-04T08:41:06.518Z</time></trkpt><trkpt lat="44.7009721" lon="8.4854509"><ele>297.0</ele><time>2026-04-04T08:41:07.512Z</time></trkpt><trkpt lat="44.7009215" lon="8.4853611"><ele>296.6</ele><time>2026-04-04T08:41:08.506Z</time></trkpt><trkpt lat="44.7008415" lon="8.4852987"><ele>296.2</ele><time>2026-04-04T08:41:09.51Z</time></trkpt><trkpt lat="44.7007398" lon="8.4852578"><ele>295.8</ele><time>2026-04-04T08:41:10.514Z</time></trkpt><trkpt lat="44.7006325" lon="8.4852276"><ele>295.4</ele><time>2026-04-04T08:41:11.518Z</time></trkpt><trkpt lat="44.7005295" lon="8.4851989"><ele>295.0</ele><time>2026-04-04T08:41:12.506Z</time></trkpt><trkpt lat="44.7004458" lon="8.4851524"><ele>295.0</ele><time>2026-04-04T08:41:13.512Z</time></trkpt><trkpt lat="44.700367" lon="8.4850868"><ele>295.0</ele><time>2026-04-04T08:41:14.506Z</time></trkpt><trkpt lat="44.7002883" lon="8.4849837"><ele>295.0</ele><time>2026-04-04T08:41:15.509Z</time></trkpt><trkpt lat="44.7001437" lon="8.4847492"><ele>295.0</ele><time>2026-04-04T08:41:17.505Z</time></trkpt><trkpt lat="44.700085" lon="8.4846422"><ele>294.0</ele><time>2026-04-04T08:41:18.515Z</time></trkpt><trkpt lat="44.7000295" lon="8.4845646"><ele>293.0</ele><time>2026-04-04T08:41:19.521Z</time></trkpt><trkpt lat="44.699963" lon="8.4845292"><ele>292.0</ele><time>2026-04-04T08:41:20.521Z</time></trkpt><trkpt lat="44.6998845" lon="8.4845276"><ele>291.0</ele><time>2026-04-04T08:41:21.512Z</time></trkpt><trkpt lat="44.6997973" lon="8.4845749"><ele>290.0</ele><time>2026-04-04T08:41:22.514Z</time></trkpt><trkpt lat="44.6996992" lon="8.4846459"><ele>289.0</ele><time>2026-04-04T08:41:23.518Z</time></trkpt><trkpt lat="44.6995873" lon="8.4847209"><ele>294.75</ele><time>2026-04-04T08:41:24.505Z</time></trkpt><trkpt lat="44.6994648" lon="8.4847697"><ele>300.5</ele><time>2026-04-04T08:41:25.513Z</time></trkpt><trkpt lat="44.6993387" lon="8.4847891"><ele>306.25</ele><time>2026-04-04T08:41:26.51Z</time></trkpt><trkpt lat="44.6992092" lon="8.4847909"><ele>312.0</ele><time>2026-04-04T08:41:27.52Z</time></trkpt><trkpt lat="44.6990777" lon="8.4847824"><ele>312.5</ele><time>2026-04-04T08:41:28.509Z</time></trkpt><trkpt lat="44.698955" lon="8.4847627"><ele>313.0</ele><time>2026-04-04T08:41:29.513Z</time></trkpt><trkpt lat="44.6988471" lon="8.4847266"><ele>313.5</ele><time>2026-04-04T08:41:30.509Z</time></trkpt><trkpt lat="44.6987479" lon="8.4846581"><ele>314.0</ele><time>2026-04-04T08:41:31.506Z</time></trkpt><trkpt lat="44.6986615" lon="8.4845498"><ele>310.59999999999997</ele><time>2026-04-04T08:41:32.506Z</time></trkpt><trkpt lat="44.6985887" lon="8.4844471"><ele>307.2</ele><time>2026-04-04T08:41:33.506Z</time></trkpt><trkpt lat="44.6985245" lon="8.4843588"><ele>303.79999999999995</ele><time>2026-04-04T08:41:34.505Z</time></trkpt><trkpt lat="44.6984539" lon="8.4842954"><ele>300.4</ele><time>2026-04-04T08:41:35.507Z</time></trkpt><trkpt lat="44.6983727" lon="8.4842444"><ele>297.0</ele><time>2026-04-04T08:41:36.517Z</time></trkpt><trkpt lat="44.6981647" lon="8.4841449"><ele>297.0</ele><time>2026-04-04T08:41:38.519Z</time></trkpt><trkpt lat="44.6980484" lon="8.4840867"><ele>297.0</ele><time>2026-04-04T08:41:39.508Z</time></trkpt><trkpt lat="44.6979299" lon="8.4840275"><ele>297.0</ele><time>2026-04-04T08:41:40.505Z</time></trkpt><trkpt lat="44.6978154" lon="8.483966"><ele>297.0</ele><time>2026-04-04T08:41:41.518Z</time></trkpt><trkpt lat="44.6977127" lon="8.4838935"><ele>297.8</ele><time>2026-04-04T08:41:42.517Z</time></trkpt><trkpt lat="44.6976207" lon="8.4838015"><ele>298.6</ele><time>2026-04-04T08:41:43.519Z</time></trkpt><trkpt lat="44.6975385" lon="8.4836966"><ele>299.40000000000003</ele><time>2026-04-04T08:41:44.512Z</time></trkpt><trkpt lat="44.6974665" lon="8.4835875"><ele>300.2</ele><time>2026-04-04T08:41:45.507Z</time></trkpt><trkpt lat="44.6973954" lon="8.4834956"><ele>301.0</ele><time>2026-04-04T08:41:46.51Z</time></trkpt><trkpt lat="44.6973185" lon="8.4834375"><ele>299.3333333333333</ele><time>2026-04-04T08:41:47.512Z</time></trkpt><trkpt lat="44.6972378" lon="8.483409"><ele>297.66666666666663</ele><time>2026-04-04T08:41:48.513Z</time></trkpt><trkpt lat="44.6971574" lon="8.4833878"><ele>296.0</ele><time>2026-04-04T08:41:49.513Z</time></trkpt><trkpt lat="44.697078" lon="8.483369"><ele>294.3333333333333</ele><time>2026-04-04T08:41:50.502Z</time></trkpt><trkpt lat="44.697002" lon="8.4833269"><ele>292.6666666666667</ele><time>2026-04-04T08:41:51.516Z</time></trkpt><trkpt lat="44.69693" lon="8.4832499"><ele>291.0</ele><time>2026-04-04T08:41:52.512Z</time></trkpt><trkpt lat="44.6968586" lon="8.4831621"><ele>291.0</ele><time>2026-04-04T08:41:53.518Z</time></trkpt><trkpt lat="44.6967927" lon="8.4830378"><ele>291.0</ele><time>2026-04-04T08:41:54.515Z</time></trkpt><trkpt lat="44.6967276" lon="8.4828933"><ele>291.0</ele><time>2026-04-04T08:41:55.517Z</time></trkpt><trkpt lat="44.6966641" lon="8.482736"><ele>291.0</ele><time>2026-04-04T08:41:56.52Z</time></trkpt><trkpt lat="44.6966024" lon="8.4825768"><ele>291.6666666666667</ele><time>2026-04-04T08:41:57.509Z</time></trkpt><trkpt lat="44.6964833" lon="8.4822668"><ele>292.33333333333337</ele><time>2026-04-04T08:41:59.516Z</time></trkpt><trkpt lat="44.6964231" lon="8.4821215"><ele>293.0</ele><time>2026-04-04T08:42:00.509Z</time></trkpt><trkpt lat="44.6963609" lon="8.4819863"><ele>293.2</ele><time>2026-04-04T08:42:01.513Z</time></trkpt><trkpt lat="44.6962989" lon="8.4818629"><ele>293.4</ele><time>2026-04-04T08:42:02.502Z</time></trkpt><trkpt lat="44.6962396" lon="8.4817541"><ele>293.59999999999997</ele><time>2026-04-04T08:42:03.507Z</time></trkpt><trkpt lat="44.6961842" lon="8.4816577"><ele>293.8</ele><time>2026-04-04T08:42:04.509Z</time></trkpt><trkpt lat="44.6961327" lon="8.4815647"><ele>294.0</ele><time>2026-04-04T08:42:05.507Z</time></trkpt><trkpt lat="44.6960842" lon="8.4814749"><ele>293.1666666666667</ele><time>2026-04-04T08:42:06.504Z</time></trkpt><trkpt lat="44.6960355" lon="8.4813884"><ele>292.3333333333333</ele><time>2026-04-04T08:42:07.511Z</time></trkpt><trkpt lat="44.6959817" lon="8.481304"><ele>291.5</ele><time>2026-04-04T08:42:08.507Z</time></trkpt><trkpt lat="44.6959225" lon="8.4812175"><ele>290.66666666666663</ele><time>2026-04-04T08:42:09.509Z</time></trkpt><trkpt lat="44.6958491" lon="8.4811365"><ele>289.8333333333333</ele><time>2026-04-04T08:42:10.512Z</time></trkpt><trkpt lat="44.695772" lon="8.4810642"><ele>289.0</ele><time>2026-04-04T08:42:11.51Z</time></trkpt><trkpt lat="44.695696" lon="8.4810035"><ele>289.0</ele><time>2026-04-04T08:42:12.514Z</time></trkpt><trkpt lat="44.6956233" lon="8.4809488"><ele>289.0</ele><time>2026-04-04T08:42:13.512Z</time></trkpt><trkpt lat="44.6955503" lon="8.4808928"><ele>289.0</ele><time>2026-04-04T08:42:14.512Z</time></trkpt><trkpt lat="44.6954736" lon="8.4808293"><ele>289.0</ele><time>2026-04-04T08:42:15.512Z</time></trkpt><trkpt lat="44.6953923" lon="8.4807614"><ele>289.0</ele><time>2026-04-04T08:42:16.51Z</time></trkpt><trkpt lat="44.6953076" lon="8.4806988"><ele>289.0</ele><time>2026-04-04T08:42:17.517Z</time></trkpt><trkpt lat="44.6952238" lon="8.4806435"><ele>287.25</ele><time>2026-04-04T08:42:18.517Z</time></trkpt><trkpt lat="44.6950411" lon="8.4805663"><ele>285.5</ele><time>2026-04-04T08:42:20.514Z</time></trkpt><trkpt lat="44.6949393" lon="8.4805352"><ele>283.75</ele><time>2026-04-04T08:42:21.512Z</time></trkpt><trkpt lat="44.6948434" lon="8.4805083"><ele>282.0</ele><time>2026-04-04T08:42:22.51Z</time></trkpt><trkpt lat="44.6947523" lon="8.4804827"><ele>282.0</ele><time>2026-04-04T08:42:23.515Z</time></trkpt><trkpt lat="44.6946647" lon="8.4804602"><ele>282.0</ele><time>2026-04-04T08:42:24.51Z</time></trkpt><trkpt lat="44.6945724" lon="8.48044"><ele>282.0</ele><time>2026-04-04T08:42:25.516Z</time></trkpt><trkpt lat="44.694472" lon="8.4804193"><ele>282.0</ele><time>2026-04-04T08:42:26.513Z</time></trkpt><trkpt lat="44.6943669" lon="8.4803969"><ele>282.0</ele><time>2026-04-04T08:42:27.512Z</time></trkpt><trkpt lat="44.6942611" lon="8.4803742"><ele>282.75</ele><time>2026-04-04T08:42:28.515Z</time></trkpt><trkpt lat="44.694153" lon="8.4803433"><ele>283.5</ele><time>2026-04-04T08:42:29.512Z</time></trkpt><trkpt lat="44.6940423" lon="8.4802959"><ele>284.25</ele><time>2026-04-04T08:42:30.523Z</time></trkpt><trkpt lat="44.6939342" lon="8.4802366"><ele>285.0</ele><time>2026-04-04T08:42:31.518Z</time></trkpt><trkpt lat="44.6938228" lon="8.4801776"><ele>285.0</ele><time>2026-04-04T08:42:32.51Z</time></trkpt><trkpt lat="44.6937051" lon="8.4801288"><ele>285.0</ele><time>2026-04-04T08:42:33.514Z</time></trkpt><trkpt lat="44.6935806" lon="8.4800981"><ele>285.0</ele><time>2026-04-04T08:42:34.519Z</time></trkpt><trkpt lat="44.6934512" lon="8.4800846"><ele>285.0</ele><time>2026-04-04T08:42:35.517Z</time></trkpt><trkpt lat="44.6933177" lon="8.480078"><ele>284.75</ele><time>2026-04-04T08:42:36.518Z</time></trkpt><trkpt lat="44.693183" lon="8.4800733"><ele>284.5</ele><time>2026-04-04T08:42:37.517Z</time></trkpt><trkpt lat="44.6930519" lon="8.4800695"><ele>284.25</ele><time>2026-04-04T08:42:38.522Z</time></trkpt><trkpt lat="44.6929258" lon="8.4800616"><ele>284.0</ele><time>2026-04-04T08:42:39.512Z</time></trkpt><trkpt lat="44.6926828" lon="8.4800326"><ele>284.0</ele><time>2026-04-04T08:42:41.514Z</time></trkpt><trkpt lat="44.6925636" lon="8.4799929"><ele>284.0</ele><time>2026-04-04T08:42:42.513Z</time></trkpt><trkpt lat="44.692444" lon="8.479951"><ele>284.0</ele><time>2026-04-04T08:42:43.512Z</time></trkpt><trkpt lat="44.6923204" lon="8.4798994"><ele>284.0</ele><time>2026-04-04T08:42:44.509Z</time></trkpt><trkpt lat="44.6921914" lon="8.4798403"><ele>284.0</ele><time>2026-04-04T08:42:45.511Z</time></trkpt><trkpt lat="44.6920626" lon="8.4797793"><ele>284.0</ele><time>2026-04-04T08:42:46.52Z</time></trkpt><trkpt lat="44.6919413" lon="8.4797223"><ele>284.0</ele><time>2026-04-04T08:42:47.509Z</time></trkpt><trkpt lat="44.6918331" lon="8.4796456"><ele>284.0</ele><time>2026-04-04T08:42:48.521Z</time></trkpt><trkpt lat="44.6917364" lon="8.4795369"><ele>283.5</ele><time>2026-04-04T08:42:49.516Z</time></trkpt><trkpt lat="44.6916469" lon="8.4793977"><ele>283.0</ele><time>2026-04-04T08:42:50.513Z</time></trkpt><trkpt lat="44.6915606" lon="8.4792358"><ele>282.5</ele><time>2026-04-04T08:42:51.52Z</time></trkpt><trkpt lat="44.6914663" lon="8.4790812"><ele>282.0</ele><time>2026-04-04T08:42:52.52Z</time></trkpt><trkpt lat="44.6913556" lon="8.4789522"><ele>282.0</ele><time>2026-04-04T08:42:53.513Z</time></trkpt><trkpt lat="44.6912327" lon="8.478845"><ele>282.0</ele><time>2026-04-04T08:42:54.512Z</time></trkpt><trkpt lat="44.6910989" lon="8.4787503"><ele>282.0</ele><time>2026-04-04T08:42:55.513Z</time></trkpt><trkpt lat="44.690961" lon="8.4786637"><ele>282.0</ele><time>2026-04-04T08:42:56.517Z</time></trkpt><trkpt lat="44.6908296" lon="8.4785808"><ele>281.0</ele><time>2026-04-04T08:42:57.513Z</time></trkpt><trkpt lat="44.6907049" lon="8.4785032"><ele>280.0</ele><time>2026-04-04T08:42:58.516Z</time></trkpt><trkpt lat="44.6905829" lon="8.4784416"><ele>279.0</ele><time>2026-04-04T08:42:59.516Z</time></trkpt><trkpt lat="44.6904512" lon="8.4784062"><ele>278.0</ele><time>2026-04-04T08:43:00.513Z</time></trkpt><trkpt lat="44.6901392" lon="8.4783884"><ele>278.0</ele><time>2026-04-04T08:43:02.517Z</time></trkpt><trkpt lat="44.6899809" lon="8.478404"><ele>278.0</ele><time>2026-04-04T08:43:03.515Z</time></trkpt><trkpt lat="44.6898408" lon="8.4784063"><ele>278.0</ele><time>2026-04-04T08:43:04.516Z</time></trkpt><trkpt lat="44.6897245" lon="8.4783856"><ele>278.0</ele><time>2026-04-04T08:43:05.515Z</time></trkpt><trkpt lat="44.6896226" lon="8.4783461"><ele>278.0</ele><time>2026-04-04T08:43:06.517Z</time></trkpt><trkpt lat="44.6895228" lon="8.4782958"><ele>278.0</ele><time>2026-04-04T08:43:07.521Z</time></trkpt><trkpt lat="44.6894191" lon="8.4782417"><ele>278.0</ele><time>2026-04-04T08:43:08.515Z</time></trkpt><trkpt lat="44.6893078" lon="8.4781863"><ele>278.0</ele><time>2026-04-04T08:43:09.521Z</time></trkpt><trkpt lat="44.6891886" lon="8.4781312"><ele>278.25</ele><time>2026-04-04T08:43:10.517Z</time></trkpt><trkpt lat="44.6890593" lon="8.4780704"><ele>278.5</ele><time>2026-04-04T08:43:11.517Z</time></trkpt><trkpt lat="44.6889211" lon="8.4780066"><ele>278.75</ele><time>2026-04-04T08:43:12.517Z</time></trkpt><trkpt lat="44.6887805" lon="8.477941"><ele>279.0</ele><time>2026-04-04T08:43:13.514Z</time></trkpt><trkpt lat="44.6886471" lon="8.4778791"><ele>278.25</ele><time>2026-04-04T08:43:14.512Z</time></trkpt><trkpt lat="44.6885259" lon="8.4778214"><ele>277.5</ele><time>2026-04-04T08:43:15.512Z</time></trkpt><trkpt lat="44.6884145" lon="8.477767"><ele>276.75</ele><time>2026-04-04T08:43:16.513Z</time></trkpt><trkpt lat="44.6883171" lon="8.4777128"><ele>276.0</ele><time>2026-04-04T08:43:17.517Z</time></trkpt><trkpt lat="44.6882238" lon="8.4776626"><ele>276.0</ele><time>2026-04-04T08:43:18.516Z</time></trkpt><trkpt lat="44.6881234" lon="8.4776163"><ele>276.0</ele><time>2026-04-04T08:43:19.515Z</time></trkpt><trkpt lat="44.6880169" lon="8.4775692"><ele>276.0</ele><time>2026-04-04T08:43:20.507Z</time></trkpt><trkpt lat="44.6879177" lon="8.4775225"><ele>276.0</ele><time>2026-04-04T08:43:21.514Z</time></trkpt><trkpt lat="44.6877559" lon="8.4774396"><ele>275.3333333333333</ele><time>2026-04-04T08:43:23.52Z</time></trkpt><trkpt lat="44.6876862" lon="8.4774398"><ele>274.6666666666667</ele><time>2026-04-04T08:43:24.512Z</time></trkpt><trkpt lat="44.6876172" lon="8.4774739"><ele>274.0</ele><time>2026-04-04T08:43:25.513Z</time></trkpt><trkpt lat="44.687567" lon="8.4775474"><ele>273.33333333333337</ele><time>2026-04-04T08:43:26.51Z</time></trkpt><trkpt lat="44.6875283" lon="8.4776274"><ele>272.6666666666667</ele><time>2026-04-04T08:43:27.509Z</time></trkpt><trkpt lat="44.6874413" lon="8.4776857"><ele>272.0</ele><time>2026-04-04T08:43:29.517Z</time></trkpt><trkpt lat="44.6873694" lon="8.477626"><ele>272.0</ele><time>2026-04-04T08:43:31.514Z</time></trkpt><trkpt lat="44.6874109" lon="8.4774331"><ele>272.0</ele><time>2026-04-04T08:43:33.514Z</time></trkpt><trkpt lat="44.6874473" lon="8.4773094"><ele>272.0</ele><time>2026-04-04T08:43:34.519Z</time></trkpt><trkpt lat="44.6874811" lon="8.4771737"><ele>272.0</ele><time>2026-04-04T08:43:35.511Z</time></trkpt><trkpt lat="44.6875145" lon="8.4770557"><ele>272.0</ele><time>2026-04-04T08:43:36.511Z</time></trkpt><trkpt lat="44.6875506" lon="8.4769593"><ele>269.4</ele><time>2026-04-04T08:43:37.517Z</time></trkpt><trkpt lat="44.6876119" lon="8.4769293"><ele>266.79999999999995</ele><time>2026-04-04T08:43:38.516Z</time></trkpt><trkpt lat="44.6877206" lon="8.4768957"><ele>264.2</ele><time>2026-04-04T08:43:40.509Z</time></trkpt><trkpt lat="44.6877237" lon="8.4767624"><ele>261.59999999999997</ele><time>2026-04-04T08:43:42.52Z</time></trkpt><trkpt lat="44.6875807" lon="8.4766897"><ele>259.0</ele><time>2026-04-04T08:43:44.508Z</time></trkpt><trkpt lat="44.6874917" lon="8.4767084"><ele>259.0</ele><time>2026-04-04T08:43:45.506Z</time></trkpt><trkpt lat="44.687395" lon="8.4767718"><ele>259.0</ele><time>2026-04-04T08:43:46.517Z</time></trkpt><trkpt lat="44.6872986" lon="8.4768531"><ele>259.0</ele><time>2026-04-04T08:43:47.511Z</time></trkpt><trkpt lat="44.6872031" lon="8.4769457"><ele>259.0</ele><time>2026-04-04T08:43:48.507Z</time></trkpt><trkpt lat="44.687114" lon="8.4770353"><ele>259.0</ele><time>2026-04-04T08:43:49.508Z</time></trkpt><trkpt lat="44.6870232" lon="8.4771124"><ele>259.0</ele><time>2026-04-04T08:43:50.508Z</time></trkpt><trkpt lat="44.6869274" lon="8.4771772"><ele>259.0</ele><time>2026-04-04T08:43:51.505Z</time></trkpt><trkpt lat="44.6868293" lon="8.4772375"><ele>259.0</ele><time>2026-04-04T08:43:52.511Z</time></trkpt><trkpt lat="44.6867306" lon="8.4772782"><ele>259.0</ele><time>2026-04-04T08:43:53.516Z</time></trkpt><trkpt lat="44.6866366" lon="8.4773123"><ele>259.0</ele><time>2026-04-04T08:43:54.511Z</time></trkpt><trkpt lat="44.6865582" lon="8.4773401"><ele>259.0</ele><time>2026-04-04T08:43:55.517Z</time></trkpt><trkpt lat="44.6864852" lon="8.4773734"><ele>259.0</ele><time>2026-04-04T08:43:56.513Z</time></trkpt><trkpt lat="44.6864201" lon="8.4774288"><ele>259.0</ele><time>2026-04-04T08:43:57.517Z</time></trkpt><trkpt lat="44.6863657" lon="8.4775129"><ele>259.0</ele><time>2026-04-04T08:43:58.507Z</time></trkpt><trkpt lat="44.6863083" lon="8.477609"><ele>259.0</ele><time>2026-04-04T08:43:59.515Z</time></trkpt><trkpt lat="44.6862406" lon="8.4776891"><ele>259.0</ele><time>2026-04-04T08:44:00.509Z</time></trkpt><trkpt lat="44.6861615" lon="8.47775"><ele>254.75</ele><time>2026-04-04T08:44:01.513Z</time></trkpt><trkpt lat="44.6860677" lon="8.4777889"><ele>250.5</ele><time>2026-04-04T08:44:02.52Z</time></trkpt><trkpt lat="44.6859539" lon="8.4778021"><ele>246.25</ele><time>2026-04-04T08:44:03.511Z</time></trkpt><trkpt lat="44.6857239" lon="8.4777849"><ele>242.0</ele><time>2026-04-04T08:44:05.514Z</time></trkpt><trkpt lat="44.6856152" lon="8.4777716"><ele>242.0</ele><time>2026-04-04T08:44:06.507Z</time></trkpt><trkpt lat="44.6854964" lon="8.4777558"><ele>242.0</ele><time>2026-04-04T08:44:07.512Z</time></trkpt><trkpt lat="44.6853782" lon="8.4777374"><ele>242.0</ele><time>2026-04-04T08:44:08.522Z</time></trkpt><trkpt lat="44.6852694" lon="8.477717"><ele>242.0</ele><time>2026-04-04T08:44:09.511Z</time></trkpt><trkpt lat="44.6851647" lon="8.4776915"><ele>240.0</ele><time>2026-04-04T08:44:10.515Z</time></trkpt><trkpt lat="44.6850612" lon="8.4776593"><ele>238.0</ele><time>2026-04-04T08:44:11.508Z</time></trkpt><trkpt lat="44.6849524" lon="8.4776162"><ele>236.0</ele><time>2026-04-04T08:44:12.512Z</time></trkpt><trkpt lat="44.6848429" lon="8.4775666"><ele>234.0</ele><time>2026-04-04T08:44:13.513Z</time></trkpt><trkpt lat="44.6847308" lon="8.4774987"><ele>234.0</ele><time>2026-04-04T08:44:14.513Z</time></trkpt><trkpt lat="44.6846174" lon="8.4774269"><ele>234.0</ele><time>2026-04-04T08:44:15.518Z</time></trkpt><trkpt lat="44.6845091" lon="8.4773583"><ele>234.0</ele><time>2026-04-04T08:44:16.517Z</time></trkpt><trkpt lat="44.6844078" lon="8.4772874"><ele>234.0</ele><time>2026-04-04T08:44:17.513Z</time></trkpt><trkpt lat="44.6843117" lon="8.4772126"><ele>232.6</ele><time>2026-04-04T08:44:18.514Z</time></trkpt><trkpt lat="44.6842198" lon="8.4771305"><ele>231.2</ele><time>2026-04-04T08:44:19.518Z</time></trkpt><trkpt lat="44.6841291" lon="8.4770478"><ele>229.79999999999998</ele><time>2026-04-04T08:44:20.517Z</time></trkpt><trkpt lat="44.6840423" lon="8.4769652"><ele>228.39999999999998</ele><time>2026-04-04T08:44:21.505Z</time></trkpt><trkpt lat="44.6839626" lon="8.4768799"><ele>227.0</ele><time>2026-04-04T08:44:22.505Z</time></trkpt><trkpt lat="44.6838915" lon="8.4767831"><ele>227.0</ele><time>2026-04-04T08:44:23.514Z</time></trkpt><trkpt lat="44.6838297" lon="8.4766714"><ele>227.0</ele><time>2026-04-04T08:44:24.515Z</time></trkpt><trkpt lat="44.6837178" lon="8.4764614"><ele>227.0</ele><time>2026-04-04T08:44:26.509Z</time></trkpt><trkpt lat="44.6836394" lon="8.4763726"><ele>227.0</ele><time>2026-04-04T08:44:27.522Z</time></trkpt><trkpt lat="44.6835483" lon="8.4763075"><ele>225.6</ele><time>2026-04-04T08:44:28.51Z</time></trkpt><trkpt lat="44.6834539" lon="8.4762691"><ele>224.2</ele><time>2026-04-04T08:44:29.514Z</time></trkpt><trkpt lat="44.6833631" lon="8.4762672"><ele>222.8</ele><time>2026-04-04T08:44:30.512Z</time></trkpt><trkpt lat="44.6832709" lon="8.4762709"><ele>221.4</ele><time>2026-04-04T08:44:31.513Z</time></trkpt><trkpt lat="44.6831802" lon="8.4762662"><ele>220.0</ele><time>2026-04-04T08:44:32.514Z</time></trkpt><trkpt lat="44.6830986" lon="8.4762401"><ele>219.99999999999997</ele><time>2026-04-04T08:44:33.51Z</time></trkpt><trkpt lat="44.6830213" lon="8.4761923"><ele>220.0</ele><time>2026-04-04T08:44:34.515Z</time></trkpt><trkpt lat="44.682976" lon="8.476105"><ele>220.0</ele><time>2026-04-04T08:44:35.515Z</time></trkpt><trkpt lat="44.6829627" lon="8.4759929"><ele>220.0</ele><time>2026-04-04T08:44:36.523Z</time></trkpt><trkpt lat="44.6829795" lon="8.4758779"><ele>219.99999999999997</ele><time>2026-04-04T08:44:37.507Z</time></trkpt><trkpt lat="44.6829868" lon="8.4757794"><ele>220.0</ele><time>2026-04-04T08:44:38.514Z</time></trkpt><trkpt lat="44.6829081" lon="8.4756746"><ele>219.99999999999997</ele><time>2026-04-04T08:44:40.513Z</time></trkpt><trkpt lat="44.6828443" lon="8.4757074"><ele>220.0</ele><time>2026-04-04T08:44:41.509Z</time></trkpt><trkpt lat="44.6827958" lon="8.4757792"><ele>220.0</ele><time>2026-04-04T08:44:42.504Z</time></trkpt><trkpt lat="44.6827829" lon="8.4758886"><ele>220.0</ele><time>2026-04-04T08:44:43.506Z</time></trkpt><trkpt lat="44.6828014" lon="8.4760247"><ele>219.99999999999997</ele><time>2026-04-04T08:44:44.507Z</time></trkpt><trkpt lat="44.6828475" lon="8.4761692"><ele>220.0</ele><time>2026-04-04T08:44:45.52Z</time></trkpt><trkpt lat="44.6829668" lon="8.4763821"><ele>218.8</ele><time>2026-04-04T08:44:47.509Z</time></trkpt><trkpt lat="44.6830246" lon="8.476464"><ele>217.6</ele><time>2026-04-04T08:44:48.513Z</time></trkpt><trkpt lat="44.6830684" lon="8.4765683"><ele>216.39999999999998</ele><time>2026-04-04T08:44:49.508Z</time></trkpt><trkpt lat="44.6830938" lon="8.4767031"><ele>215.2</ele><time>2026-04-04T08:44:50.517Z</time></trkpt><trkpt lat="44.6831151" lon="8.4768473"><ele>214.0</ele><time>2026-04-04T08:44:51.516Z</time></trkpt><trkpt lat="44.6831435" lon="8.4769747"><ele>213.99999999999997</ele><time>2026-04-04T08:44:52.51Z</time></trkpt><trkpt lat="44.6831772" lon="8.4770815"><ele>214.0</ele><time>2026-04-04T08:44:53.51Z</time></trkpt><trkpt lat="44.6831989" lon="8.4771725"><ele>214.0</ele><time>2026-04-04T08:44:54.511Z</time></trkpt><trkpt lat="44.6831506" lon="8.4772754"><ele>214.0</ele><time>2026-04-04T08:44:56.515Z</time></trkpt><trkpt lat="44.6830751" lon="8.4772469"><ele>213.99999999999997</ele><time>2026-04-04T08:44:58.508Z</time></trkpt><trkpt lat="44.683037" lon="8.477139"><ele>214.0</ele><time>2026-04-04T08:45:00.507Z</time></trkpt><trkpt lat="44.6830232" lon="8.4769592"><ele>214.0</ele><time>2026-04-04T08:45:02.509Z</time></trkpt><trkpt lat="44.6830104" lon="8.4768409"><ele>213.99999999999997</ele><time>2026-04-04T08:45:03.504Z</time></trkpt><trkpt lat="44.6829805" lon="8.4767267"><ele>213.99999999999997</ele><time>2026-04-04T08:45:04.509Z</time></trkpt><trkpt lat="44.6829336" lon="8.4766334"><ele>214.0</ele><time>2026-04-04T08:45:05.51Z</time></trkpt><trkpt lat="44.6828821" lon="8.4765502"><ele>214.0</ele><time>2026-04-04T08:45:06.501Z</time></trkpt><trkpt lat="44.6827647" lon="8.4764015"><ele>210.2</ele><time>2026-04-04T08:45:08.503Z</time></trkpt><trkpt lat="44.6827182" lon="8.4763"><ele>206.39999999999998</ele><time>2026-04-04T08:45:09.504Z</time></trkpt><trkpt lat="44.6826743" lon="8.4761907"><ele>202.6</ele><time>2026-04-04T08:45:10.513Z</time></trkpt><trkpt lat="44.6826229" lon="8.4760826"><ele>198.8</ele><time>2026-04-04T08:45:11.512Z</time></trkpt><trkpt lat="44.6825614" lon="8.4759718"><ele>195.0</ele><time>2026-04-04T08:45:12.509Z</time></trkpt><trkpt lat="44.6824953" lon="8.4758566"><ele>195.0</ele><time>2026-04-04T08:45:13.505Z</time></trkpt><trkpt lat="44.6824302" lon="8.4757401"><ele>195.0</ele><time>2026-04-04T08:45:14.504Z</time></trkpt><trkpt lat="44.6823681" lon="8.4756225"><ele>195.0</ele><time>2026-04-04T08:45:15.505Z</time></trkpt><trkpt lat="44.6823086" lon="8.4755023"><ele>195.0</ele><time>2026-04-04T08:45:16.508Z</time></trkpt><trkpt lat="44.6822477" lon="8.4753805"><ele>195.0</ele><time>2026-04-04T08:45:17.516Z</time></trkpt><trkpt lat="44.6821879" lon="8.4752626"><ele>195.0</ele><time>2026-04-04T08:45:18.515Z</time></trkpt><trkpt lat="44.6821349" lon="8.4751479"><ele>195.0</ele><time>2026-04-04T08:45:19.51Z</time></trkpt><trkpt lat="44.6820936" lon="8.4750289"><ele>195.0</ele><time>2026-04-04T08:45:20.501Z</time></trkpt><trkpt lat="44.6820632" lon="8.4749036"><ele>195.0</ele><time>2026-04-04T08:45:21.512Z</time></trkpt><trkpt lat="44.6820386" lon="8.4747719"><ele>195.0</ele><time>2026-04-04T08:45:22.509Z</time></trkpt><trkpt lat="44.6820115" lon="8.4746292"><ele>191.75</ele><time>2026-04-04T08:45:23.506Z</time></trkpt><trkpt lat="44.6819779" lon="8.474472"><ele>188.5</ele><time>2026-04-04T08:45:24.514Z</time></trkpt><trkpt lat="44.6819372" lon="8.4743044"><ele>185.25</ele><time>2026-04-04T08:45:25.508Z</time></trkpt><trkpt lat="44.6818911" lon="8.474131"><ele>182.0</ele><time>2026-04-04T08:45:26.507Z</time></trkpt><trkpt lat="44.6818438" lon="8.473964"><ele>179.25</ele><time>2026-04-04T08:45:27.508Z</time></trkpt><trkpt lat="44.6817526" lon="8.473665"><ele>176.5</ele><time>2026-04-04T08:45:29.507Z</time></trkpt><trkpt lat="44.6817098" lon="8.4735333"><ele>173.75</ele><time>2026-04-04T08:45:30.504Z</time></trkpt><trkpt lat="44.6816691" lon="8.473421"><ele>171.0</ele><time>2026-04-04T08:45:31.506Z</time></trkpt><trkpt lat="44.6816308" lon="8.4733336"><ele>171.0</ele><time>2026-04-04T08:45:32.511Z</time></trkpt><trkpt lat="44.6815957" lon="8.4732122"><ele>171.0</ele><time>2026-04-04T08:45:34.512Z</time></trkpt><trkpt lat="44.6815934" lon="8.4730931"><ele>171.0</ele><time>2026-04-04T08:45:37.509Z</time></trkpt><trkpt lat="44.681496" lon="8.473026"><ele>171.0</ele><time>2026-04-04T08:45:39.511Z</time></trkpt><trkpt lat="44.6814055" lon="8.4730009"><ele>171.0</ele><time>2026-04-04T08:45:40.515Z</time></trkpt><trkpt lat="44.6812989" lon="8.4729808"><ele>171.0</ele><time>2026-04-04T08:45:41.506Z</time></trkpt><trkpt lat="44.6811891" lon="8.4729587"><ele>171.0</ele><time>2026-04-04T08:45:42.501Z</time></trkpt><trkpt lat="44.6810793" lon="8.4729365"><ele>171.0</ele><time>2026-04-04T08:45:43.509Z</time></trkpt><trkpt lat="44.6809698" lon="8.4729137"><ele>171.0</ele><time>2026-04-04T08:45:44.504Z</time></trkpt><trkpt lat="44.6808672" lon="8.4728928"><ele>171.0</ele><time>2026-04-04T08:45:45.514Z</time></trkpt><trkpt lat="44.6807682" lon="8.4728725"><ele>170.25</ele><time>2026-04-04T08:45:46.515Z</time></trkpt><trkpt lat="44.6806694" lon="8.472851"><ele>169.5</ele><time>2026-04-04T08:45:47.509Z</time></trkpt><trkpt lat="44.6805672" lon="8.4728281"><ele>168.75</ele><time>2026-04-04T08:45:48.511Z</time></trkpt><trkpt lat="44.6803784" lon="8.4727837"><ele>168.0</ele><time>2026-04-04T08:45:50.517Z</time></trkpt><trkpt lat="44.6802947" lon="8.4727632"><ele>168.0</ele><time>2026-04-04T08:45:51.511Z</time></trkpt><trkpt lat="44.6802126" lon="8.4727433"><ele>168.0</ele><time>2026-04-04T08:45:52.509Z</time></trkpt><trkpt lat="44.6801427" lon="8.4727224"><ele>168.0</ele><time>2026-04-04T08:45:53.505Z</time></trkpt><trkpt lat="44.6800529" lon="8.4726929"><ele>168.0</ele><time>2026-04-04T08:45:55.51Z</time></trkpt><trkpt lat="44.6799861" lon="8.472666"><ele>168.0</ele><time>2026-04-04T08:45:57.506Z</time></trkpt><trkpt lat="44.6799081" lon="8.4726319"><ele>168.0</ele><time>2026-04-04T08:46:09.51Z</time></trkpt><trkpt lat="44.6797495" lon="8.4726779"><ele>168.0</ele><time>2026-04-04T08:46:12.512Z</time></trkpt><trkpt lat="44.6796544" lon="8.4726986"><ele>168.0</ele><time>2026-04-04T08:46:13.509Z</time></trkpt><trkpt lat="44.6795424" lon="8.4727189"><ele>168.0</ele><time>2026-04-04T08:46:14.512Z</time></trkpt><trkpt lat="44.6794175" lon="8.4727522"><ele>168.0</ele><time>2026-04-04T08:46:15.517Z</time></trkpt><trkpt lat="44.6792826" lon="8.4728026"><ele>168.25</ele><time>2026-04-04T08:46:16.507Z</time></trkpt><trkpt lat="44.6791574" lon="8.4728577"><ele>168.5</ele><time>2026-04-04T08:46:17.51Z</time></trkpt><trkpt lat="44.6790479" lon="8.4729041"><ele>168.75</ele><time>2026-04-04T08:46:18.509Z</time></trkpt><trkpt lat="44.6789441" lon="8.4729405"><ele>169.0</ele><time>2026-04-04T08:46:19.513Z</time></trkpt><trkpt lat="44.6788465" lon="8.4729643"><ele>169.16666666666669</ele><time>2026-04-04T08:46:20.511Z</time></trkpt><trkpt lat="44.6787573" lon="8.4729738"><ele>169.33333333333334</ele><time>2026-04-04T08:46:21.505Z</time></trkpt><trkpt lat="44.678671" lon="8.4729806"><ele>169.5</ele><time>2026-04-04T08:46:22.509Z</time></trkpt><trkpt lat="44.6785871" lon="8.4729805"><ele>169.66666666666666</ele><time>2026-04-04T08:46:23.509Z</time></trkpt><trkpt lat="44.6785077" lon="8.472977"><ele>169.83333333333331</ele><time>2026-04-04T08:46:24.506Z</time></trkpt><trkpt lat="44.6784426" lon="8.472952"><ele>170.0</ele><time>2026-04-04T08:46:25.505Z</time></trkpt><trkpt lat="44.6783614" lon="8.472905"><ele>170.0</ele><time>2026-04-04T08:46:27.507Z</time></trkpt><trkpt lat="44.6783433" lon="8.4727979"><ele>170.0</ele><time>2026-04-04T08:46:33.509Z</time></trkpt><trkpt lat="44.6784057" lon="8.4725748"><ele>170.0</ele><time>2026-04-04T08:46:36.511Z</time></trkpt><trkpt lat="44.6784283" lon="8.4724847"><ele>170.0</ele><time>2026-04-04T08:46:37.513Z</time></trkpt><trkpt lat="44.6784492" lon="8.4723889"><ele>170.0</ele><time>2026-04-04T08:46:38.514Z</time></trkpt><trkpt lat="44.6784728" lon="8.4722856"><ele>170.0</ele><time>2026-04-04T08:46:39.519Z</time></trkpt><trkpt lat="44.6784979" lon="8.4721899"><ele>170.0</ele><time>2026-04-04T08:46:40.513Z</time></trkpt><trkpt lat="44.6785333" lon="8.4720495"><ele>170.0</ele><time>2026-04-04T08:46:42.505Z</time></trkpt><trkpt lat="44.6785136" lon="8.4719413"><ele>170.0</ele><time>2026-04-04T08:46:46.509Z</time></trkpt><trkpt lat="44.6784231" lon="8.4718768"><ele>170.0</ele><time>2026-04-04T08:46:48.518Z</time></trkpt><trkpt lat="44.6783454" lon="8.4718417"><ele>170.0</ele><time>2026-04-04T08:46:49.513Z</time></trkpt><trkpt lat="44.678252" lon="8.4718026"><ele>169.8</ele><time>2026-04-04T08:46:50.508Z</time></trkpt><trkpt lat="44.6781509" lon="8.4717572"><ele>169.6</ele><time>2026-04-04T08:46:51.51Z</time></trkpt><trkpt lat="44.6780436" lon="8.4717085"><ele>169.39999999999998</ele><time>2026-04-04T08:46:52.513Z</time></trkpt><trkpt lat="44.6779449" lon="8.4716585"><ele>169.2</ele><time>2026-04-04T08:46:53.513Z</time></trkpt><trkpt lat="44.677863" lon="8.4716145"><ele>169.0</ele><time>2026-04-04T08:46:54.512Z</time></trkpt><trkpt lat="44.6777398" lon="8.4715537"><ele>169.0</ele><time>2026-04-04T08:46:57.51Z</time></trkpt><trkpt lat="44.6776563" lon="8.4715235"><ele>169.0</ele><time>2026-04-04T08:47:01.513Z</time></trkpt><trkpt lat="44.6775521" lon="8.4714806"><ele>169.0</ele><time>2026-04-04T08:47:03.508Z</time></trkpt><trkpt lat="44.6774805" lon="8.4714453"><ele>169.0</ele><time>2026-04-04T08:47:04.501Z</time></trkpt><trkpt lat="44.6774073" lon="8.4714102"><ele>169.0</ele><time>2026-04-04T08:47:05.502Z</time></trkpt><trkpt lat="44.6773367" lon="8.4713647"><ele>169.0</ele><time>2026-04-04T08:47:06.507Z</time></trkpt><trkpt lat="44.6772618" lon="8.4713248"><ele>169.0</ele><time>2026-04-04T08:47:07.505Z</time></trkpt><trkpt lat="44.6771895" lon="8.471283"><ele>169.0</ele><time>2026-04-04T08:47:08.506Z</time></trkpt><trkpt lat="44.67712" lon="8.4712392"><ele>169.0</ele><time>2026-04-04T08:47:09.504Z</time></trkpt><trkpt lat="44.6770512" lon="8.4711944"><ele>169.0</ele><time>2026-04-04T08:47:10.515Z</time></trkpt><trkpt lat="44.6769825" lon="8.47115"><ele>169.0</ele><time>2026-04-04T08:47:11.52Z</time></trkpt><trkpt lat="44.6769177" lon="8.4711084"><ele>169.0</ele><time>2026-04-04T08:47:12.506Z</time></trkpt><trkpt lat="44.6768606" lon="8.4710705"><ele>169.0</ele><time>2026-04-04T08:47:13.507Z</time></trkpt><trkpt lat="44.6767765" lon="8.471011"><ele>168.6</ele><time>2026-04-04T08:47:15.511Z</time></trkpt><trkpt lat="44.6766474" lon="8.4709023"><ele>168.2</ele><time>2026-04-04T08:47:20.511Z</time></trkpt><trkpt lat="44.6765925" lon="8.4707988"><ele>167.79999999999998</ele><time>2026-04-04T08:47:23.523Z</time></trkpt><trkpt lat="44.6765074" lon="8.4708268"><ele>167.39999999999998</ele><time>2026-04-04T08:47:26.521Z</time></trkpt><trkpt lat="44.6764713" lon="8.4709051"><ele>167.0</ele><time>2026-04-04T08:47:27.508Z</time></trkpt><trkpt lat="44.6764257" lon="8.4710074"><ele>167.0</ele><time>2026-04-04T08:47:28.509Z</time></trkpt><trkpt lat="44.6763664" lon="8.4711292"><ele>167.0</ele><time>2026-04-04T08:47:29.515Z</time></trkpt><trkpt lat="44.6762988" lon="8.4712629"><ele>167.0</ele><time>2026-04-04T08:47:30.509Z</time></trkpt><trkpt lat="44.6762297" lon="8.4713953"><ele>167.0</ele><time>2026-04-04T08:47:31.512Z</time></trkpt><trkpt lat="44.6761582" lon="8.4715278"><ele>168.0</ele><time>2026-04-04T08:47:32.509Z</time></trkpt><trkpt lat="44.6760904" lon="8.4716549"><ele>169.0</ele><time>2026-04-04T08:47:33.509Z</time></trkpt><trkpt lat="44.6760264" lon="8.4717745"><ele>170.0</ele><time>2026-04-04T08:47:34.511Z</time></trkpt><trkpt lat="44.6759587" lon="8.4719011"><ele>171.0</ele><time>2026-04-04T08:47:35.52Z</time></trkpt><trkpt lat="44.6758871" lon="8.4720339"><ele>171.66666666666666</ele><time>2026-04-04T08:47:36.515Z</time></trkpt><trkpt lat="44.6757355" lon="8.4723135"><ele>172.33333333333331</ele><time>2026-04-04T08:47:38.506Z</time></trkpt><trkpt lat="44.6756587" lon="8.4724493"><ele>173.0</ele><time>2026-04-04T08:47:39.511Z</time></trkpt><trkpt lat="44.6755882" lon="8.4725796"><ele>173.0</ele><time>2026-04-04T08:47:40.509Z</time></trkpt><trkpt lat="44.6755217" lon="8.4727019"><ele>173.0</ele><time>2026-04-04T08:47:41.513Z</time></trkpt><trkpt lat="44.6754582" lon="8.472815"><ele>173.0</ele><time>2026-04-04T08:47:42.508Z</time></trkpt><trkpt lat="44.675397" lon="8.4729225"><ele>173.0</ele><time>2026-04-04T08:47:43.509Z</time></trkpt><trkpt lat="44.6753407" lon="8.4730198"><ele>173.0</ele><time>2026-04-04T08:47:44.525Z</time></trkpt><trkpt lat="44.6752918" lon="8.4731054"><ele>174.8</ele><time>2026-04-04T08:47:45.51Z</time></trkpt><trkpt lat="44.6752532" lon="8.4731784"><ele>176.60000000000002</ele><time>2026-04-04T08:47:46.508Z</time></trkpt><trkpt lat="44.6751825" lon="8.4733207"><ele>178.39999999999998</ele><time>2026-04-04T08:47:48.516Z</time></trkpt><trkpt lat="44.6751278" lon="8.4734215"><ele>180.2</ele><time>2026-04-04T08:47:50.516Z</time></trkpt><trkpt lat="44.6750888" lon="8.4734934"><ele>182.0</ele><time>2026-04-04T08:48:00.534Z</time></trkpt><trkpt lat="44.6749367" lon="8.4735142"><ele>182.0</ele><time>2026-04-04T08:48:08.513Z</time></trkpt><trkpt lat="44.674843" lon="8.4735085"><ele>182.0</ele><time>2026-04-04T08:48:10.512Z</time></trkpt><trkpt lat="44.6747407" lon="8.4734898"><ele>182.0</ele><time>2026-04-04T08:48:12.512Z</time></trkpt><trkpt lat="44.6746694" lon="8.4734748"><ele>182.0</ele><time>2026-04-04T08:48:14.511Z</time></trkpt><trkpt lat="44.6746069" lon="8.4734929"><ele>182.0</ele><time>2026-04-04T08:48:17.514Z</time></trkpt><trkpt lat="44.6745393" lon="8.4734979"><ele>182.0</ele><time>2026-04-04T08:48:19.515Z</time></trkpt><trkpt lat="44.6744927" lon="8.473424"><ele>182.0</ele><time>2026-04-04T08:48:21.515Z</time></trkpt><trkpt lat="44.6745511" lon="8.4731856"><ele>182.0</ele><time>2026-04-04T08:48:23.507Z</time></trkpt><trkpt lat="44.6745797" lon="8.4730818"><ele>182.0</ele><time>2026-04-04T08:48:24.507Z</time></trkpt><trkpt lat="44.6746052" lon="8.4729961"><ele>182.0</ele><time>2026-04-04T08:48:25.507Z</time></trkpt><trkpt lat="44.6746057" lon="8.4728505"><ele>182.0</ele><time>2026-04-04T08:48:27.51Z</time></trkpt><trkpt lat="44.6745121" lon="8.4726886"><ele>182.33333333333331</ele><time>2026-04-04T08:48:29.508Z</time></trkpt><trkpt lat="44.6744585" lon="8.4725928"><ele>182.66666666666666</ele><time>2026-04-04T08:48:30.517Z</time></trkpt><trkpt lat="44.6743991" lon="8.4725136"><ele>183.0</ele><time>2026-04-04T08:48:31.509Z</time></trkpt><trkpt lat="44.6743431" lon="8.472447"><ele>183.33333333333334</ele><time>2026-04-04T08:48:32.511Z</time></trkpt><trkpt lat="44.6742758" lon="8.4723605"><ele>183.66666666666669</ele><time>2026-04-04T08:48:34.511Z</time></trkpt><trkpt lat="44.6743189" lon="8.4722574"><ele>184.0</ele><time>2026-04-04T08:48:36.51Z</time></trkpt><trkpt lat="44.6743825" lon="8.4721329"><ele>183.2</ele><time>2026-04-04T08:48:38.515Z</time></trkpt><trkpt lat="44.674422" lon="8.4720256"><ele>182.39999999999998</ele><time>2026-04-04T08:48:40.513Z</time></trkpt><trkpt lat="44.6744717" lon="8.4719443"><ele>181.6</ele><time>2026-04-04T08:48:43.507Z</time></trkpt><trkpt lat="44.6746322" lon="8.4719076"><ele>180.8</ele><time>2026-04-04T08:48:51.524Z</time></trkpt><trkpt lat="44.6746683" lon="8.4718306"><ele>180.0</ele><time>2026-04-04T08:48:52.51Z</time></trkpt><trkpt lat="44.6747058" lon="8.4717504"><ele>179.8</ele><time>2026-04-04T08:48:53.504Z</time></trkpt><trkpt lat="44.6747376" lon="8.4716723"><ele>179.6</ele><time>2026-04-04T08:48:54.504Z</time></trkpt><trkpt lat="44.6747757" lon="8.4715315"><ele>179.39999999999998</ele><time>2026-04-04T08:48:56.507Z</time></trkpt><trkpt lat="44.6747982" lon="8.4714096"><ele>179.2</ele><time>2026-04-04T08:48:58.505Z</time></trkpt><trkpt lat="44.6748201" lon="8.4712768"><ele>179.0</ele><time>2026-04-04T08:49:00.511Z</time></trkpt><trkpt lat="44.6748288" lon="8.4711101"><ele>178.39999999999998</ele><time>2026-04-04T08:49:02.506Z</time></trkpt><trkpt lat="44.6748192" lon="8.4710212"><ele>177.8</ele><time>2026-04-04T08:49:03.506Z</time></trkpt><trkpt lat="44.6747976" lon="8.4708684"><ele>177.2</ele><time>2026-04-04T08:49:05.512Z</time></trkpt><trkpt lat="44.6746215" lon="8.47075"><ele>176.60000000000002</ele><time>2026-04-04T08:49:09.509Z</time></trkpt><trkpt lat="44.6745507" lon="8.4707389"><ele>176.0</ele><time>2026-04-04T08:49:10.509Z</time></trkpt><trkpt lat="44.6744873" lon="8.4707232"><ele>176.20000000000002</ele><time>2026-04-04T08:49:11.511Z</time></trkpt><trkpt lat="44.674379" lon="8.4706964"><ele>176.4</ele><time>2026-04-04T08:49:13.504Z</time></trkpt><trkpt lat="44.6742846" lon="8.4706821"><ele>176.6</ele><time>2026-04-04T08:49:15.509Z</time></trkpt><trkpt lat="44.674212" lon="8.4706366"><ele>176.8</ele><time>2026-04-04T08:49:18.507Z</time></trkpt><trkpt lat="44.6742162" lon="8.4704883"><ele>177.0</ele><time>2026-04-04T08:49:20.515Z</time></trkpt><trkpt lat="44.6742244" lon="8.470396"><ele>175.8</ele><time>2026-04-04T08:49:21.512Z</time></trkpt><trkpt lat="44.6742346" lon="8.4703076"><ele>174.6</ele><time>2026-04-04T08:49:22.507Z</time></trkpt><trkpt lat="44.6742498" lon="8.4701656"><ele>173.4</ele><time>2026-04-04T08:49:24.505Z</time></trkpt><trkpt lat="44.6742562" lon="8.4700486"><ele>172.20000000000002</ele><time>2026-04-04T08:49:26.511Z</time></trkpt><trkpt lat="44.6740949" lon="8.4698906"><ele>171.0</ele><time>2026-04-04T08:49:31.505Z</time></trkpt><trkpt lat="44.6740224" lon="8.4698781"><ele>171.0</ele><time>2026-04-04T08:49:32.503Z</time></trkpt><trkpt lat="44.6739394" lon="8.4698635"><ele>171.0</ele><time>2026-04-04T08:49:33.509Z</time></trkpt><trkpt lat="44.6738524" lon="8.4698496"><ele>171.0</ele><time>2026-04-04T08:49:34.5Z</time></trkpt><trkpt lat="44.6737722" lon="8.469842"><ele>171.0</ele><time>2026-04-04T08:49:35.506Z</time></trkpt><trkpt lat="44.6736962" lon="8.4698372"><ele>171.0</ele><time>2026-04-04T08:49:36.505Z</time></trkpt><trkpt lat="44.6736274" lon="8.4698258"><ele>171.0</ele><time>2026-04-04T08:49:37.508Z</time></trkpt><trkpt lat="44.6735591" lon="8.469816"><ele>170.20000000000002</ele><time>2026-04-04T08:49:38.513Z</time></trkpt><trkpt lat="44.673489" lon="8.4698032"><ele>169.4</ele><time>2026-04-04T08:49:39.506Z</time></trkpt><trkpt lat="44.6733825" lon="8.4697835"><ele>168.6</ele><time>2026-04-04T08:49:41.509Z</time></trkpt><trkpt lat="44.6733081" lon="8.4696586"><ele>167.8</ele><time>2026-04-04T08:49:53.516Z</time></trkpt><trkpt lat="44.6732017" lon="8.4695107"><ele>167.0</ele><time>2026-04-04T08:49:55.512Z</time></trkpt><trkpt lat="44.6731412" lon="8.4694375"><ele>166.66666666666666</ele><time>2026-04-04T08:49:56.55Z</time></trkpt><trkpt lat="44.6730849" lon="8.4693739"><ele>166.33333333333331</ele><time>2026-04-04T08:49:57.51Z</time></trkpt><trkpt lat="44.6730291" lon="8.4693111"><ele>166.0</ele><time>2026-04-04T08:49:58.514Z</time></trkpt><trkpt lat="44.6729783" lon="8.4692521"><ele>165.66666666666666</ele><time>2026-04-04T08:49:59.519Z</time></trkpt><trkpt lat="44.6728914" lon="8.4691581"><ele>165.33333333333334</ele><time>2026-04-04T08:50:01.51Z</time></trkpt><trkpt lat="44.6728325" lon="8.4690901"><ele>165.0</ele><time>2026-04-04T08:50:03.512Z</time></trkpt><trkpt lat="44.6727874" lon="8.4690237"><ele>164.8</ele><time>2026-04-04T08:50:06.51Z</time></trkpt><trkpt lat="44.6727533" lon="8.4689267"><ele>164.6</ele><time>2026-04-04T08:50:18.532Z</time></trkpt><trkpt lat="44.6726923" lon="8.4687048"><ele>164.39999999999998</ele><time>2026-04-04T08:50:22.518Z</time></trkpt><trkpt lat="44.6725818" lon="8.4686714"><ele>164.2</ele><time>2026-04-04T08:50:24.508Z</time></trkpt><trkpt lat="44.6725076" lon="8.4686644"><ele>164.0</ele><time>2026-04-04T08:50:25.51Z</time></trkpt><trkpt lat="44.6723879" lon="8.4686622"><ele>163.83333333333331</ele><time>2026-04-04T08:50:27.514Z</time></trkpt><trkpt lat="44.6723193" lon="8.4686706"><ele>163.66666666666666</ele><time>2026-04-04T08:50:28.505Z</time></trkpt><trkpt lat="44.6722484" lon="8.4686795"><ele>163.5</ele><time>2026-04-04T08:50:29.516Z</time></trkpt><trkpt lat="44.6721319" lon="8.4686909"><ele>163.33333333333334</ele><time>2026-04-04T08:50:31.513Z</time></trkpt><trkpt lat="44.6720692" lon="8.4687034"><ele>163.16666666666669</ele><time>2026-04-04T08:50:35.525Z</time></trkpt><trkpt lat="44.6719732" lon="8.4687173"><ele>163.0</ele><time>2026-04-04T08:50:37.51Z</time></trkpt><trkpt lat="44.6719087" lon="8.4687226"><ele>163.33333333333334</ele><time>2026-04-04T08:50:38.516Z</time></trkpt><trkpt lat="44.6718326" lon="8.4687217"><ele>163.66666666666669</ele><time>2026-04-04T08:50:39.506Z</time></trkpt><trkpt lat="44.671667" lon="8.468719"><ele>164.0</ele><time>2026-04-04T08:50:41.509Z</time></trkpt><trkpt lat="44.6715986" lon="8.4687132"><ele>164.33333333333334</ele><time>2026-04-04T08:50:42.508Z</time></trkpt><trkpt lat="44.6715327" lon="8.4687054"><ele>164.66666666666666</ele><time>2026-04-04T08:50:43.507Z</time></trkpt><trkpt lat="44.6714625" lon="8.4687016"><ele>165.0</ele><time>2026-04-04T08:50:44.513Z</time></trkpt><trkpt lat="44.6713946" lon="8.468695"><ele>165.0</ele><time>2026-04-04T08:50:45.505Z</time></trkpt><trkpt lat="44.6712802" lon="8.4686847"><ele>165.0</ele><time>2026-04-04T08:50:47.506Z</time></trkpt><trkpt lat="44.6712078" lon="8.4686824"><ele>165.0</ele><time>2026-04-04T08:50:49.514Z</time></trkpt><trkpt lat="44.6711022" lon="8.46878"><ele>165.0</ele><time>2026-04-04T08:51:28.514Z</time></trkpt><trkpt lat="44.6708978" lon="8.4687701"><ele>165.2</ele><time>2026-04-04T08:51:32.505Z</time></trkpt><trkpt lat="44.6708151" lon="8.4687643"><ele>165.4</ele><time>2026-04-04T08:51:33.505Z</time></trkpt><trkpt lat="44.6707245" lon="8.4687565"><ele>165.60000000000002</ele><time>2026-04-04T08:51:34.503Z</time></trkpt><trkpt lat="44.6706209" lon="8.468751"><ele>165.8</ele><time>2026-04-04T08:51:35.505Z</time></trkpt><trkpt lat="44.6705007" lon="8.468748"><ele>166.0</ele><time>2026-04-04T08:51:36.515Z</time></trkpt><trkpt lat="44.6703724" lon="8.4687486"><ele>165.0</ele><time>2026-04-04T08:51:37.498Z</time></trkpt><trkpt lat="44.6702307" lon="8.4687431"><ele>164.0</ele><time>2026-04-04T08:51:38.505Z</time></trkpt><trkpt lat="44.6700904" lon="8.4687365"><ele>163.0</ele><time>2026-04-04T08:51:39.51Z</time></trkpt><trkpt lat="44.6699565" lon="8.4687311"><ele>162.0</ele><time>2026-04-04T08:51:40.508Z</time></trkpt><trkpt lat="44.6698177" lon="8.4687298"><ele>162.0</ele><time>2026-04-04T08:51:41.505Z</time></trkpt><trkpt lat="44.6696851" lon="8.4687322"><ele>162.0</ele><time>2026-04-04T08:51:42.499Z</time></trkpt><trkpt lat="44.6695679" lon="8.4687278"><ele>162.0</ele><time>2026-04-04T08:51:43.505Z</time></trkpt><trkpt lat="44.6694678" lon="8.4687176"><ele>162.0</ele><time>2026-04-04T08:51:44.513Z</time></trkpt><trkpt lat="44.6693689" lon="8.4687061"><ele>162.0</ele><time>2026-04-04T08:51:45.51Z</time></trkpt><trkpt lat="44.6692822" lon="8.4686946"><ele>161.0</ele><time>2026-04-04T08:51:46.505Z</time></trkpt><trkpt lat="44.6692139" lon="8.4686854"><ele>160.0</ele><time>2026-04-04T08:51:47.501Z</time></trkpt><trkpt lat="44.6691153" lon="8.4686713"><ele>159.0</ele><time>2026-04-04T08:51:49.506Z</time></trkpt><trkpt lat="44.6689026" lon="8.4686991"><ele>158.0</ele><time>2026-04-04T08:51:53.508Z</time></trkpt><trkpt lat="44.6688281" lon="8.4686977"><ele>158.0</ele><time>2026-04-04T08:51:54.506Z</time></trkpt><trkpt lat="44.6687463" lon="8.4686968"><ele>158.0</ele><time>2026-04-04T08:51:55.506Z</time></trkpt><trkpt lat="44.6686567" lon="8.4686955"><ele>158.0</ele><time>2026-04-04T08:51:56.508Z</time></trkpt><trkpt lat="44.6685606" lon="8.4686973"><ele>158.0</ele><time>2026-04-04T08:51:57.514Z</time></trkpt><trkpt lat="44.6684507" lon="8.4686991"><ele>158.0</ele><time>2026-04-04T08:51:58.517Z</time></trkpt><trkpt lat="44.6683359" lon="8.4686979"><ele>157.0</ele><time>2026-04-04T08:51:59.512Z</time></trkpt><trkpt lat="44.6682295" lon="8.4686962"><ele>156.0</ele><time>2026-04-04T08:52:00.517Z</time></trkpt><trkpt lat="44.6681365" lon="8.4686959"><ele>155.0</ele><time>2026-04-04T08:52:01.509Z</time></trkpt><trkpt lat="44.6680484" lon="8.4686961"><ele>154.0</ele><time>2026-04-04T08:52:02.514Z</time></trkpt><trkpt lat="44.667954" lon="8.4686982"><ele>153.0</ele><time>2026-04-04T08:52:03.512Z</time></trkpt><trkpt lat="44.6678508" lon="8.4687008"><ele>153.4</ele><time>2026-04-04T08:52:04.509Z</time></trkpt><trkpt lat="44.667751" lon="8.4686998"><ele>153.8</ele><time>2026-04-04T08:52:05.508Z</time></trkpt><trkpt lat="44.6676745" lon="8.4686942"><ele>154.2</ele><time>2026-04-04T08:52:06.513Z</time></trkpt><trkpt lat="44.6675837" lon="8.4686665"><ele>154.6</ele><time>2026-04-04T08:52:08.512Z</time></trkpt><trkpt lat="44.6674783" lon="8.4686211"><ele>155.0</ele><time>2026-04-04T08:52:10.514Z</time></trkpt><trkpt lat="44.6673701" lon="8.4688338"><ele>155.0</ele><time>2026-04-04T08:52:14.507Z</time></trkpt><trkpt lat="44.6673637" lon="8.4689635"><ele>155.0</ele><time>2026-04-04T08:52:15.51Z</time></trkpt><trkpt lat="44.6673442" lon="8.4691074"><ele>155.0</ele><time>2026-04-04T08:52:16.509Z</time></trkpt><trkpt lat="44.66732" lon="8.4692513"><ele>155.0</ele><time>2026-04-04T08:52:17.516Z</time></trkpt><trkpt lat="44.6672931" lon="8.4693914"><ele>155.0</ele><time>2026-04-04T08:52:18.51Z</time></trkpt><trkpt lat="44.6672617" lon="8.4695387"><ele>155.4</ele><time>2026-04-04T08:52:19.511Z</time></trkpt><trkpt lat="44.6672304" lon="8.4696962"><ele>155.8</ele><time>2026-04-04T08:52:20.512Z</time></trkpt><trkpt lat="44.667203" lon="8.4698599"><ele>156.2</ele><time>2026-04-04T08:52:21.514Z</time></trkpt><trkpt lat="44.6671849" lon="8.4700153"><ele>156.6</ele><time>2026-04-04T08:52:22.514Z</time></trkpt><trkpt lat="44.6671787" lon="8.4701529"><ele>157.0</ele><time>2026-04-04T08:52:23.511Z</time></trkpt><trkpt lat="44.6671791" lon="8.4702746"><ele>157.0</ele><time>2026-04-04T08:52:24.511Z</time></trkpt><trkpt lat="44.6671854" lon="8.4703857"><ele>157.0</ele><time>2026-04-04T08:52:25.51Z</time></trkpt><trkpt lat="44.667196" lon="8.4704941"><ele>157.0</ele><time>2026-04-04T08:52:26.514Z</time></trkpt><trkpt lat="44.6672136" lon="8.4705935"><ele>157.0</ele><time>2026-04-04T08:52:27.513Z</time></trkpt><trkpt lat="44.6672592" lon="8.4707447"><ele>157.0</ele><time>2026-04-04T08:52:29.502Z</time></trkpt><trkpt lat="44.6673153" lon="8.4709008"><ele>157.2</ele><time>2026-04-04T08:52:31.512Z</time></trkpt><trkpt lat="44.6674455" lon="8.4710774"><ele>157.39999999999998</ele><time>2026-04-04T08:52:34.511Z</time></trkpt><trkpt lat="44.6674878" lon="8.4711528"><ele>157.60000000000002</ele><time>2026-04-04T08:52:36.514Z</time></trkpt><trkpt lat="44.6675634" lon="8.4712287"><ele>157.8</ele><time>2026-04-04T08:52:40.516Z</time></trkpt><trkpt lat="44.6676551" lon="8.471238"><ele>158.0</ele><time>2026-04-04T08:52:42.508Z</time></trkpt><trkpt lat="44.6677632" lon="8.4712205"><ele>158.42857142857144</ele><time>2026-04-04T08:52:44.516Z</time></trkpt><trkpt lat="44.6678362" lon="8.4712348"><ele>158.85714285714286</ele><time>2026-04-04T08:52:46.525Z</time></trkpt><trkpt lat="44.6678473" lon="8.4713315"><ele>159.28571428571428</ele><time>2026-04-04T08:52:49.517Z</time></trkpt><trkpt lat="44.6678773" lon="8.4714493"><ele>159.71428571428572</ele><time>2026-04-04T09:14:10.508Z</time></trkpt><trkpt lat="44.667878" lon="8.4714381"><ele>160.14285714285714</ele><time>2026-04-04T09:14:20.515Z</time></trkpt><trkpt lat="44.6678865" lon="8.4713201"><ele>160.57142857142858</ele><time>2026-04-04T09:14:22.506Z</time></trkpt><trkpt lat="44.6678674" lon="8.471228"><ele>161.0</ele><time>2026-04-04T09:16:53.481Z</time></trkpt><trkpt lat="44.66802" lon="8.4710248"><ele>161.4</ele><time>2026-04-04T09:17:29.514Z</time></trkpt><trkpt lat="44.6680838" lon="8.4710343"><ele>161.8</ele><time>2026-04-04T09:17:32.516Z</time></trkpt><trkpt lat="44.6681511" lon="8.4710445"><ele>162.20000000000002</ele><time>2026-04-04T09:17:35.513Z</time></trkpt><trkpt lat="44.6682295" lon="8.4710502"><ele>162.60000000000002</ele><time>2026-04-04T09:17:37.51Z</time></trkpt><trkpt lat="44.6683392" lon="8.471062"><ele>163.0</ele><time>2026-04-04T09:17:39.509Z</time></trkpt><trkpt lat="44.6684825" lon="8.4710721"><ele>163.2</ele><time>2026-04-04T09:17:41.511Z</time></trkpt><trkpt lat="44.6686207" lon="8.4710797"><ele>163.4</ele><time>2026-04-04T09:17:43.504Z</time></trkpt><trkpt lat="44.6687367" lon="8.4710841"><ele>163.6</ele><time>2026-04-04T09:17:45.509Z</time></trkpt><trkpt lat="44.6688285" lon="8.4710902"><ele>163.79999999999998</ele><time>2026-04-04T09:17:47.513Z</time></trkpt><trkpt lat="44.6689016" lon="8.4710981"><ele>164.0</ele><time>2026-04-04T09:17:49.516Z</time></trkpt><trkpt lat="44.6689819" lon="8.4711367"><ele>164.0</ele><time>2026-04-04T09:17:51.511Z</time></trkpt><trkpt lat="44.669078" lon="8.4711497"><ele>164.0</ele><time>2026-04-04T09:17:53.511Z</time></trkpt><trkpt lat="44.6691317" lon="8.4710629"><ele>164.0</ele><time>2026-04-04T09:17:55.506Z</time></trkpt><trkpt lat="44.6690854" lon="8.4709703"><ele>164.0</ele><time>2026-04-04T09:17:57.511Z</time></trkpt><trkpt lat="44.668945" lon="8.4709625"><ele>164.0</ele><time>2026-04-04T09:17:59.517Z</time></trkpt><trkpt lat="44.6688415" lon="8.4709696"><ele>164.0</ele><time>2026-04-04T09:18:00.515Z</time></trkpt><trkpt lat="44.6687248" lon="8.4709696"><ele>164.0</ele><time>2026-04-04T09:18:01.505Z</time></trkpt><trkpt lat="44.6686019" lon="8.470968"><ele>164.0</ele><time>2026-04-04T09:18:02.515Z</time></trkpt><trkpt lat="44.668333" lon="8.4709577"><ele>163.75</ele><time>2026-04-04T09:18:04.512Z</time></trkpt><trkpt lat="44.6682062" lon="8.4709552"><ele>163.5</ele><time>2026-04-04T09:18:05.511Z</time></trkpt><trkpt lat="44.6680884" lon="8.4709557"><ele>163.25</ele><time>2026-04-04T09:18:06.512Z</time></trkpt><trkpt lat="44.6679753" lon="8.4709546"><ele>163.0</ele><time>2026-04-04T09:18:07.509Z</time></trkpt><trkpt lat="44.667872" lon="8.470951"><ele>163.0</ele><time>2026-04-04T09:18:08.517Z</time></trkpt><trkpt lat="44.66778" lon="8.4709493"><ele>163.0</ele><time>2026-04-04T09:18:09.513Z</time></trkpt><trkpt lat="44.667698" lon="8.4709416"><ele>163.0</ele><time>2026-04-04T09:18:10.511Z</time></trkpt><trkpt lat="44.667627" lon="8.4709176"><ele>163.0</ele><time>2026-04-04T09:18:11.511Z</time></trkpt><trkpt lat="44.6675674" lon="8.4708689"><ele>163.0</ele><time>2026-04-04T09:18:12.506Z</time></trkpt><trkpt lat="44.6675166" lon="8.4708003"><ele>163.0</ele><time>2026-04-04T09:18:13.504Z</time></trkpt><trkpt lat="44.6674645" lon="8.4707394"><ele>162.16666666666669</ele><time>2026-04-04T09:18:14.505Z</time></trkpt><trkpt lat="44.6674061" lon="8.4707013"><ele>161.33333333333334</ele><time>2026-04-04T09:18:15.504Z</time></trkpt><trkpt lat="44.6673435" lon="8.4706738"><ele>160.5</ele><time>2026-04-04T09:18:16.508Z</time></trkpt><trkpt lat="44.6672863" lon="8.4706317"><ele>159.66666666666666</ele><time>2026-04-04T09:18:17.513Z</time></trkpt><trkpt lat="44.6672089" lon="8.4704896"><ele>158.83333333333331</ele><time>2026-04-04T09:18:19.506Z</time></trkpt><trkpt lat="44.6671984" lon="8.4703868"><ele>158.0</ele><time>2026-04-04T09:18:20.505Z</time></trkpt><trkpt lat="44.6671977" lon="8.4702723"><ele>157.8</ele><time>2026-04-04T09:18:21.509Z</time></trkpt><trkpt lat="44.6672002" lon="8.4701469"><ele>157.60000000000002</ele><time>2026-04-04T09:18:22.51Z</time></trkpt><trkpt lat="44.6672052" lon="8.4700203"><ele>157.39999999999998</ele><time>2026-04-04T09:18:23.512Z</time></trkpt><trkpt lat="44.6672343" lon="8.4697907"><ele>157.2</ele><time>2026-04-04T09:18:25.514Z</time></trkpt><trkpt lat="44.6672579" lon="8.4696883"><ele>157.0</ele><time>2026-04-04T09:18:26.508Z</time></trkpt><trkpt lat="44.6672821" lon="8.4695851"><ele>156.6</ele><time>2026-04-04T09:18:27.507Z</time></trkpt><trkpt lat="44.6673089" lon="8.4694677"><ele>156.2</ele><time>2026-04-04T09:18:28.514Z</time></trkpt><trkpt lat="44.6673411" lon="8.4693406"><ele>155.8</ele><time>2026-04-04T09:18:29.508Z</time></trkpt><trkpt lat="44.6673727" lon="8.4692179"><ele>155.4</ele><time>2026-04-04T09:18:30.505Z</time></trkpt><trkpt lat="44.6674015" lon="8.4691182"><ele>155.0</ele><time>2026-04-04T09:18:31.51Z</time></trkpt><trkpt lat="44.667445" lon="8.4689753"><ele>155.0</ele><time>2026-04-04T09:18:33.517Z</time></trkpt><trkpt lat="44.667503" lon="8.4688381"><ele>155.0</ele><time>2026-04-04T09:18:35.508Z</time></trkpt><trkpt lat="44.6675366" lon="8.4687628"><ele>155.0</ele><time>2026-04-04T09:18:36.507Z</time></trkpt><trkpt lat="44.667546" lon="8.4686201"><ele>155.0</ele><time>2026-04-04T09:18:38.508Z</time></trkpt><trkpt lat="44.6674534" lon="8.4685812"><ele>155.0</ele><time>2026-04-04T09:18:40.508Z</time></trkpt><trkpt lat="44.6673323" lon="8.4686388"><ele>154.0</ele><time>2026-04-04T09:18:42.509Z</time></trkpt><trkpt lat="44.6672718" lon="8.4686699"><ele>153.0</ele><time>2026-04-04T09:18:43.511Z</time></trkpt><trkpt lat="44.6671522" lon="8.4686935"><ele>152.0</ele><time>2026-04-04T09:18:45.513Z</time></trkpt><trkpt lat="44.6670165" lon="8.4686974"><ele>151.0</ele><time>2026-04-04T09:18:47.51Z</time></trkpt><trkpt lat="44.666941" lon="8.4686954"><ele>150.0</ele><time>2026-04-04T09:18:48.51Z</time></trkpt><trkpt lat="44.6668621" lon="8.4686934"><ele>148.66666666666666</ele><time>2026-04-04T09:18:49.514Z</time></trkpt><trkpt lat="44.666776" lon="8.4686928"><ele>147.33333333333334</ele><time>2026-04-04T09:18:50.505Z</time></trkpt><trkpt lat="44.6666841" lon="8.4686913"><ele>146.0</ele><time>2026-04-04T09:18:51.506Z</time></trkpt><trkpt lat="44.6665914" lon="8.4686892"><ele>144.66666666666669</ele><time>2026-04-04T09:18:52.508Z</time></trkpt><trkpt lat="44.666501" lon="8.4686887"><ele>143.33333333333334</ele><time>2026-04-04T09:18:53.508Z</time></trkpt><trkpt lat="44.6664134" lon="8.4686887"><ele>142.0</ele><time>2026-04-04T09:18:54.505Z</time></trkpt><trkpt lat="44.6663257" lon="8.4686873"><ele>142.0</ele><time>2026-04-04T09:18:55.51Z</time></trkpt><trkpt lat="44.6662357" lon="8.4686862"><ele>142.0</ele><time>2026-04-04T09:18:56.509Z</time></trkpt><trkpt lat="44.6661463" lon="8.4686857"><ele>142.0</ele><time>2026-04-04T09:18:57.51Z</time></trkpt><trkpt lat="44.6660588" lon="8.4686859"><ele>142.0</ele><time>2026-04-04T09:18:58.514Z</time></trkpt><trkpt lat="44.6659725" lon="8.4686876"><ele>142.0</ele><time>2026-04-04T09:18:59.521Z</time></trkpt><trkpt lat="44.6658865" lon="8.4686889"><ele>142.0</ele><time>2026-04-04T09:19:00.516Z</time></trkpt><trkpt lat="44.6658008" lon="8.4686887"><ele>143.4</ele><time>2026-04-04T09:19:01.508Z</time></trkpt><trkpt lat="44.6657171" lon="8.4686875"><ele>144.79999999999998</ele><time>2026-04-04T09:19:02.515Z</time></trkpt><trkpt lat="44.6656379" lon="8.4686885"><ele>146.2</ele><time>2026-04-04T09:19:03.517Z</time></trkpt><trkpt lat="44.6655677" lon="8.4686876"><ele>147.6</ele><time>2026-04-04T09:19:04.511Z</time></trkpt><trkpt lat="44.6654489" lon="8.4686888"><ele>149.0</ele><time>2026-04-04T09:19:06.513Z</time></trkpt><trkpt lat="44.6652261" lon="8.4687219"><ele>149.6</ele><time>2026-04-04T09:19:10.516Z</time></trkpt><trkpt lat="44.665155" lon="8.4688413"><ele>150.2</ele><time>2026-04-04T09:19:12.514Z</time></trkpt><trkpt lat="44.6651537" lon="8.4689953"><ele>150.79999999999998</ele><time>2026-04-04T09:19:14.508Z</time></trkpt><trkpt lat="44.6651558" lon="8.4690858"><ele>151.4</ele><time>2026-04-04T09:19:16.513Z</time></trkpt><trkpt lat="44.6651607" lon="8.4692263"><ele>152.0</ele><time>2026-04-04T09:19:19.507Z</time></trkpt><trkpt lat="44.665159" lon="8.4693757"><ele>152.0</ele><time>2026-04-04T09:19:21.517Z</time></trkpt><trkpt lat="44.6651502" lon="8.4695326"><ele>152.0</ele><time>2026-04-04T09:19:23.518Z</time></trkpt><trkpt lat="44.6651516" lon="8.4697238"><ele>152.0</ele><time>2026-04-04T09:19:25.505Z</time></trkpt><trkpt lat="44.6651497" lon="8.4698462"><ele>152.0</ele><time>2026-04-04T09:19:26.519Z</time></trkpt><trkpt lat="44.6651484" lon="8.4699632"><ele>152.0</ele><time>2026-04-04T09:19:27.514Z</time></trkpt><trkpt lat="44.6651477" lon="8.4702085"><ele>151.79999999999998</ele><time>2026-04-04T09:19:29.51Z</time></trkpt><trkpt lat="44.6651476" lon="8.4703294"><ele>151.6</ele><time>2026-04-04T09:19:30.505Z</time></trkpt><trkpt lat="44.6651487" lon="8.470446"><ele>151.39999999999998</ele><time>2026-04-04T09:19:31.512Z</time></trkpt><trkpt lat="44.6651482" lon="8.4705702"><ele>151.2</ele><time>2026-04-04T09:19:32.511Z</time></trkpt><trkpt lat="44.6651479" lon="8.4707062"><ele>151.0</ele><time>2026-04-04T09:19:33.519Z</time></trkpt><trkpt lat="44.6651487" lon="8.4708475"><ele>150.8</ele><time>2026-04-04T09:19:34.52Z</time></trkpt><trkpt lat="44.6651458" lon="8.4709914"><ele>150.6</ele><time>2026-04-04T09:19:35.51Z</time></trkpt><trkpt lat="44.6651429" lon="8.4711375"><ele>150.4</ele><time>2026-04-04T09:19:36.509Z</time></trkpt><trkpt lat="44.6651383" lon="8.4712771"><ele>150.2</ele><time>2026-04-04T09:19:37.511Z</time></trkpt><trkpt lat="44.6651316" lon="8.471404"><ele>150.0</ele><time>2026-04-04T09:19:38.513Z</time></trkpt><trkpt lat="44.665123" lon="8.4715296"><ele>150.0</ele><time>2026-04-04T09:19:39.508Z</time></trkpt><trkpt lat="44.6651114" lon="8.4716572"><ele>150.0</ele><time>2026-04-04T09:19:40.509Z</time></trkpt><trkpt lat="44.6650881" lon="8.4717916"><ele>150.0</ele><time>2026-04-04T09:19:41.507Z</time></trkpt><trkpt lat="44.6650601" lon="8.4719328"><ele>150.0</ele><time>2026-04-04T09:19:42.506Z</time></trkpt><trkpt lat="44.6650259" lon="8.4720816"><ele>150.0</ele><time>2026-04-04T09:19:43.507Z</time></trkpt><trkpt lat="44.6649908" lon="8.4722305"><ele>149.25</ele><time>2026-04-04T09:19:44.507Z</time></trkpt><trkpt lat="44.6649547" lon="8.4723832"><ele>148.5</ele><time>2026-04-04T09:19:45.509Z</time></trkpt><trkpt lat="44.6649138" lon="8.4725377"><ele>147.75</ele><time>2026-04-04T09:19:46.509Z</time></trkpt><trkpt lat="44.6648735" lon="8.4726897"><ele>147.0</ele><time>2026-04-04T09:19:47.508Z</time></trkpt><trkpt lat="44.6648328" lon="8.4728375"><ele>147.0</ele><time>2026-04-04T09:19:48.509Z</time></trkpt><trkpt lat="44.664752" lon="8.4731319"><ele>147.0</ele><time>2026-04-04T09:19:50.51Z</time></trkpt><trkpt lat="44.6647121" lon="8.4732781"><ele>147.0</ele><time>2026-04-04T09:19:51.503Z</time></trkpt><trkpt lat="44.6646732" lon="8.473427"><ele>147.0</ele><time>2026-04-04T09:19:52.506Z</time></trkpt><trkpt lat="44.6646337" lon="8.4735791"><ele>147.0</ele><time>2026-04-04T09:19:53.509Z</time></trkpt><trkpt lat="44.6645939" lon="8.4737306"><ele>147.0</ele><time>2026-04-04T09:19:54.512Z</time></trkpt><trkpt lat="44.6645531" lon="8.4738736"><ele>147.0</ele><time>2026-04-04T09:19:55.511Z</time></trkpt><trkpt lat="44.6645126" lon="8.4740178"><ele>147.0</ele><time>2026-04-04T09:19:56.51Z</time></trkpt><trkpt lat="44.6644737" lon="8.4741655"><ele>147.0</ele><time>2026-04-04T09:19:57.515Z</time></trkpt><trkpt lat="44.6644356" lon="8.4743213"><ele>147.5</ele><time>2026-04-04T09:19:58.507Z</time></trkpt><trkpt lat="44.6643987" lon="8.474481"><ele>148.0</ele><time>2026-04-04T09:19:59.511Z</time></trkpt><trkpt lat="44.6643598" lon="8.4746458"><ele>148.5</ele><time>2026-04-04T09:20:00.512Z</time></trkpt><trkpt lat="44.6643176" lon="8.4748156"><ele>149.0</ele><time>2026-04-04T09:20:01.505Z</time></trkpt><trkpt lat="44.6642768" lon="8.4749839"><ele>149.0</ele><time>2026-04-04T09:20:02.509Z</time></trkpt><trkpt lat="44.6642357" lon="8.4751523"><ele>149.0</ele><time>2026-04-04T09:20:03.516Z</time></trkpt><trkpt lat="44.6641935" lon="8.4753291"><ele>149.0</ele><time>2026-04-04T09:20:04.511Z</time></trkpt><trkpt lat="44.6641456" lon="8.4755249"><ele>149.0</ele><time>2026-04-04T09:20:05.522Z</time></trkpt><trkpt lat="44.6640897" lon="8.4757353"><ele>149.0</ele><time>2026-04-04T09:20:06.516Z</time></trkpt><trkpt lat="44.664028" lon="8.4759569"><ele>149.0</ele><time>2026-04-04T09:20:07.508Z</time></trkpt><trkpt lat="44.6639652" lon="8.4761777"><ele>149.0</ele><time>2026-04-04T09:20:08.511Z</time></trkpt><trkpt lat="44.6639075" lon="8.4763839"><ele>148.33333333333331</ele><time>2026-04-04T09:20:09.508Z</time></trkpt><trkpt lat="44.6638042" lon="8.4767765"><ele>147.66666666666666</ele><time>2026-04-04T09:20:11.512Z</time></trkpt><trkpt lat="44.6637572" lon="8.4769673"><ele>147.0</ele><time>2026-04-04T09:20:12.506Z</time></trkpt><trkpt lat="44.6637202" lon="8.477159"><ele>146.75</ele><time>2026-04-04T09:20:13.508Z</time></trkpt><trkpt lat="44.6637002" lon="8.4773547"><ele>146.5</ele><time>2026-04-04T09:20:14.509Z</time></trkpt><trkpt lat="44.6636961" lon="8.4775571"><ele>146.25</ele><time>2026-04-04T09:20:15.504Z</time></trkpt><trkpt lat="44.6637066" lon="8.4777687"><ele>146.0</ele><time>2026-04-04T09:20:16.511Z</time></trkpt><trkpt lat="44.6637352" lon="8.4779857"><ele>147.33333333333331</ele><time>2026-04-04T09:20:17.511Z</time></trkpt><trkpt lat="44.663783" lon="8.4782033"><ele>148.66666666666666</ele><time>2026-04-04T09:20:18.507Z</time></trkpt><trkpt lat="44.6638512" lon="8.4784198"><ele>150.0</ele><time>2026-04-04T09:20:19.518Z</time></trkpt><trkpt lat="44.6639317" lon="8.4786353"><ele>152.33333333333334</ele><time>2026-04-04T09:20:20.514Z</time></trkpt><trkpt lat="44.66401" lon="8.4788423"><ele>154.66666666666669</ele><time>2026-04-04T09:20:21.51Z</time></trkpt><trkpt lat="44.6640795" lon="8.4790329"><ele>157.0</ele><time>2026-04-04T09:20:22.51Z</time></trkpt><trkpt lat="44.6641443" lon="8.479214"><ele>157.0</ele><time>2026-04-04T09:20:23.504Z</time></trkpt><trkpt lat="44.6642081" lon="8.4793956"><ele>157.0</ele><time>2026-04-04T09:20:24.508Z</time></trkpt><trkpt lat="44.6642713" lon="8.479576"><ele>157.0</ele><time>2026-04-04T09:20:25.504Z</time></trkpt><trkpt lat="44.6643323" lon="8.4797474"><ele>157.0</ele><time>2026-04-04T09:20:26.507Z</time></trkpt><trkpt lat="44.6643866" lon="8.4799027"><ele>157.5</ele><time>2026-04-04T09:20:27.507Z</time></trkpt><trkpt lat="44.6644419" lon="8.4800521"><ele>158.0</ele><time>2026-04-04T09:20:28.505Z</time></trkpt><trkpt lat="44.6645063" lon="8.4801929"><ele>158.5</ele><time>2026-04-04T09:20:29.51Z</time></trkpt><trkpt lat="44.6645892" lon="8.4803131"><ele>159.0</ele><time>2026-04-04T09:20:30.514Z</time></trkpt><trkpt lat="44.664802" lon="8.4804856"><ele>159.0</ele><time>2026-04-04T09:20:32.509Z</time></trkpt><trkpt lat="44.6649129" lon="8.4805718"><ele>159.0</ele><time>2026-04-04T09:20:33.51Z</time></trkpt><trkpt lat="44.6650138" lon="8.480683"><ele>159.0</ele><time>2026-04-04T09:20:34.51Z</time></trkpt><trkpt lat="44.6651042" lon="8.4808162"><ele>159.0</ele><time>2026-04-04T09:20:35.505Z</time></trkpt><trkpt lat="44.665196" lon="8.480953"><ele>159.25</ele><time>2026-04-04T09:20:36.51Z</time></trkpt><trkpt lat="44.6652995" lon="8.4810716"><ele>159.5</ele><time>2026-04-04T09:20:37.513Z</time></trkpt><trkpt lat="44.6654072" lon="8.4811595"><ele>159.75</ele><time>2026-04-04T09:20:38.507Z</time></trkpt><trkpt lat="44.6655075" lon="8.4812375"><ele>160.0</ele><time>2026-04-04T09:20:39.512Z</time></trkpt><trkpt lat="44.6655982" lon="8.4813329"><ele>160.0</ele><time>2026-04-04T09:20:40.512Z</time></trkpt><trkpt lat="44.6656832" lon="8.4814553"><ele>160.0</ele><time>2026-04-04T09:20:41.504Z</time></trkpt><trkpt lat="44.6657632" lon="8.4816038"><ele>160.0</ele><time>2026-04-04T09:20:42.509Z</time></trkpt><trkpt lat="44.6658381" lon="8.48177"><ele>160.0</ele><time>2026-04-04T09:20:43.511Z</time></trkpt><trkpt lat="44.6659068" lon="8.4819542"><ele>160.75</ele><time>2026-04-04T09:20:44.508Z</time></trkpt><trkpt lat="44.6659743" lon="8.4821431"><ele>161.5</ele><time>2026-04-04T09:20:45.515Z</time></trkpt><trkpt lat="44.6660394" lon="8.4823176"><ele>162.25</ele><time>2026-04-04T09:20:46.507Z</time></trkpt><trkpt lat="44.6660987" lon="8.4824847"><ele>163.0</ele><time>2026-04-04T09:20:47.52Z</time></trkpt><trkpt lat="44.6661486" lon="8.4826457"><ele>160.5</ele><time>2026-04-04T09:20:48.512Z</time></trkpt><trkpt lat="44.6661917" lon="8.482816"><ele>158.0</ele><time>2026-04-04T09:20:49.51Z</time></trkpt><trkpt lat="44.6662209" lon="8.4830016"><ele>155.5</ele><time>2026-04-04T09:20:50.511Z</time></trkpt><trkpt lat="44.666242" lon="8.4831959"><ele>153.0</ele><time>2026-04-04T09:20:51.513Z</time></trkpt><trkpt lat="44.6662468" lon="8.4836281"><ele>153.0</ele><time>2026-04-04T09:20:53.517Z</time></trkpt><trkpt lat="44.6662545" lon="8.4838592"><ele>153.0</ele><time>2026-04-04T09:20:54.513Z</time></trkpt><trkpt lat="44.6662617" lon="8.4840941"><ele>153.0</ele><time>2026-04-04T09:20:55.516Z</time></trkpt><trkpt lat="44.666265" lon="8.4843302"><ele>153.0</ele><time>2026-04-04T09:20:56.513Z</time></trkpt><trkpt lat="44.6662691" lon="8.4845692"><ele>153.0</ele><time>2026-04-04T09:20:57.515Z</time></trkpt><trkpt lat="44.6662755" lon="8.4848111"><ele>153.0</ele><time>2026-04-04T09:20:58.513Z</time></trkpt><trkpt lat="44.6662821" lon="8.485059"><ele>153.66666666666666</ele><time>2026-04-04T09:20:59.514Z</time></trkpt><trkpt lat="44.6662883" lon="8.4853045"><ele>154.33333333333331</ele><time>2026-04-04T09:21:00.508Z</time></trkpt><trkpt lat="44.6662938" lon="8.4855506"><ele>155.0</ele><time>2026-04-04T09:21:01.508Z</time></trkpt><trkpt lat="44.6663062" lon="8.4858027"><ele>156.33333333333331</ele><time>2026-04-04T09:21:02.509Z</time></trkpt><trkpt lat="44.666333" lon="8.4860602"><ele>157.66666666666666</ele><time>2026-04-04T09:21:03.513Z</time></trkpt><trkpt lat="44.666378" lon="8.4863231"><ele>159.0</ele><time>2026-04-04T09:21:04.511Z</time></trkpt><trkpt lat="44.6664333" lon="8.4865946"><ele>159.33333333333334</ele><time>2026-04-04T09:21:05.511Z</time></trkpt><trkpt lat="44.6664929" lon="8.486874"><ele>159.66666666666669</ele><time>2026-04-04T09:21:06.512Z</time></trkpt><trkpt lat="44.6665565" lon="8.4871601"><ele>160.0</ele><time>2026-04-04T09:21:07.52Z</time></trkpt><trkpt lat="44.6666208" lon="8.4874478"><ele>160.0</ele><time>2026-04-04T09:21:08.511Z</time></trkpt><trkpt lat="44.6666817" lon="8.4877294"><ele>160.0</ele><time>2026-04-04T09:21:09.518Z</time></trkpt><trkpt lat="44.6667357" lon="8.4879909"><ele>160.0</ele><time>2026-04-04T09:21:10.513Z</time></trkpt><trkpt lat="44.6667788" lon="8.4882469"><ele>160.0</ele><time>2026-04-04T09:21:11.513Z</time></trkpt><trkpt lat="44.6668065" lon="8.4885047"><ele>160.0</ele><time>2026-04-04T09:21:12.511Z</time></trkpt><trkpt lat="44.666793" lon="8.488995"><ele>160.0</ele><time>2026-04-04T09:21:14.512Z</time></trkpt><trkpt lat="44.6667506" lon="8.4892446"><ele>160.0</ele><time>2026-04-04T09:21:15.51Z</time></trkpt><trkpt lat="44.6666878" lon="8.4895089"><ele>160.0</ele><time>2026-04-04T09:21:16.507Z</time></trkpt><trkpt lat="44.6666148" lon="8.4897951"><ele>160.33333333333334</ele><time>2026-04-04T09:21:17.512Z</time></trkpt><trkpt lat="44.6665444" lon="8.4900837"><ele>160.66666666666666</ele><time>2026-04-04T09:21:18.507Z</time></trkpt><trkpt lat="44.6664798" lon="8.490354"><ele>161.0</ele><time>2026-04-04T09:21:19.516Z</time></trkpt><trkpt lat="44.6664215" lon="8.4906014"><ele>161.0</ele><time>2026-04-04T09:21:20.521Z</time></trkpt><trkpt lat="44.6663612" lon="8.4908322"><ele>161.0</ele><time>2026-04-04T09:21:21.508Z</time></trkpt><trkpt lat="44.6662863" lon="8.4910563"><ele>161.0</ele><time>2026-04-04T09:21:22.523Z</time></trkpt><trkpt lat="44.6661887" lon="8.4912688"><ele>162.0</ele><time>2026-04-04T09:21:23.517Z</time></trkpt><trkpt lat="44.6660701" lon="8.4914693"><ele>163.0</ele><time>2026-04-04T09:21:24.517Z</time></trkpt><trkpt lat="44.6659321" lon="8.4916556"><ele>164.0</ele><time>2026-04-04T09:21:25.51Z</time></trkpt><trkpt lat="44.6657794" lon="8.4918322"><ele>164.0</ele><time>2026-04-04T09:21:26.516Z</time></trkpt><trkpt lat="44.6656213" lon="8.4919941"><ele>164.0</ele><time>2026-04-04T09:21:27.508Z</time></trkpt><trkpt lat="44.665468" lon="8.4921399"><ele>164.0</ele><time>2026-04-04T09:21:28.509Z</time></trkpt><trkpt lat="44.6653251" lon="8.4922699"><ele>164.33333333333331</ele><time>2026-04-04T09:21:29.515Z</time></trkpt><trkpt lat="44.6651914" lon="8.4923919"><ele>164.66666666666666</ele><time>2026-04-04T09:21:30.514Z</time></trkpt><trkpt lat="44.6650656" lon="8.4925096"><ele>165.0</ele><time>2026-04-04T09:21:31.516Z</time></trkpt><trkpt lat="44.6649462" lon="8.4926216"><ele>165.0</ele><time>2026-04-04T09:21:32.509Z</time></trkpt><trkpt lat="44.6648287" lon="8.4927313"><ele>165.0</ele><time>2026-04-04T09:21:33.506Z</time></trkpt><trkpt lat="44.6645958" lon="8.4929511"><ele>165.0</ele><time>2026-04-04T09:21:35.513Z</time></trkpt><trkpt lat="44.6644853" lon="8.4930583"><ele>165.0</ele><time>2026-04-04T09:21:36.512Z</time></trkpt><trkpt lat="44.6643789" lon="8.4931606"><ele>165.0</ele><time>2026-04-04T09:21:37.511Z</time></trkpt><trkpt lat="44.6642731" lon="8.4932615"><ele>165.0</ele><time>2026-04-04T09:21:38.512Z</time></trkpt><trkpt lat="44.6641666" lon="8.4933642"><ele>165.0</ele><time>2026-04-04T09:21:39.511Z</time></trkpt><trkpt lat="44.6640587" lon="8.4934684"><ele>165.0</ele><time>2026-04-04T09:21:40.512Z</time></trkpt><trkpt lat="44.6639517" lon="8.493575"><ele>165.0</ele><time>2026-04-04T09:21:41.51Z</time></trkpt><trkpt lat="44.6638481" lon="8.4936856"><ele>165.0</ele><time>2026-04-04T09:21:42.518Z</time></trkpt><trkpt lat="44.6637546" lon="8.4938002"><ele>165.0</ele><time>2026-04-04T09:21:43.505Z</time></trkpt><trkpt lat="44.6636732" lon="8.4939198"><ele>166.0</ele><time>2026-04-04T09:21:44.512Z</time></trkpt><trkpt lat="44.6636053" lon="8.4940521"><ele>167.0</ele><time>2026-04-04T09:21:45.509Z</time></trkpt><trkpt lat="44.6635445" lon="8.4941959"><ele>168.0</ele><time>2026-04-04T09:21:46.509Z</time></trkpt><trkpt lat="44.6634948" lon="8.4943405"><ele>169.0</ele><time>2026-04-04T09:21:47.509Z</time></trkpt><trkpt lat="44.6634554" lon="8.4944726"><ele>169.0</ele><time>2026-04-04T09:21:48.509Z</time></trkpt><trkpt lat="44.6634255" lon="8.4945871"><ele>169.0</ele><time>2026-04-04T09:21:49.511Z</time></trkpt><trkpt lat="44.6634039" lon="8.4946824"><ele>169.0</ele><time>2026-04-04T09:21:50.511Z</time></trkpt><trkpt lat="44.6633795" lon="8.4948319"><ele>169.0</ele><time>2026-04-04T09:21:52.51Z</time></trkpt><trkpt lat="44.6633736" lon="8.4949708"><ele>169.0</ele><time>2026-04-04T09:21:54.514Z</time></trkpt><trkpt lat="44.6634122" lon="8.4952803"><ele>168.39999999999998</ele><time>2026-04-04T09:21:58.503Z</time></trkpt><trkpt lat="44.6634311" lon="8.4954502"><ele>167.8</ele><time>2026-04-04T09:22:00.509Z</time></trkpt><trkpt lat="44.6634357" lon="8.4955678"><ele>167.2</ele><time>2026-04-04T09:22:01.518Z</time></trkpt><trkpt lat="44.6634412" lon="8.4957054"><ele>166.60000000000002</ele><time>2026-04-04T09:22:02.516Z</time></trkpt><trkpt lat="44.6634479" lon="8.4958588"><ele>166.0</ele><time>2026-04-04T09:22:03.513Z</time></trkpt><trkpt lat="44.6634557" lon="8.4960254"><ele>166.0</ele><time>2026-04-04T09:22:04.517Z</time></trkpt><trkpt lat="44.6634625" lon="8.4961965"><ele>166.0</ele><time>2026-04-04T09:22:05.515Z</time></trkpt><trkpt lat="44.6634669" lon="8.4963624"><ele>166.0</ele><time>2026-04-04T09:22:06.513Z</time></trkpt><trkpt lat="44.6634664" lon="8.4965244"><ele>166.0</ele><time>2026-04-04T09:22:07.512Z</time></trkpt><trkpt lat="44.6634607" lon="8.4966787"><ele>166.20000000000002</ele><time>2026-04-04T09:22:08.516Z</time></trkpt><trkpt lat="44.6634483" lon="8.4968299"><ele>166.4</ele><time>2026-04-04T09:22:09.517Z</time></trkpt><trkpt lat="44.6634313" lon="8.4969852"><ele>166.6</ele><time>2026-04-04T09:22:10.509Z</time></trkpt><trkpt lat="44.6634076" lon="8.4971412"><ele>166.8</ele><time>2026-04-04T09:22:11.517Z</time></trkpt><trkpt lat="44.6633835" lon="8.4972884"><ele>167.0</ele><time>2026-04-04T09:22:12.514Z</time></trkpt><trkpt lat="44.6633577" lon="8.4974235"><ele>166.5</ele><time>2026-04-04T09:22:13.517Z</time></trkpt><trkpt lat="44.6633293" lon="8.4975501"><ele>166.0</ele><time>2026-04-04T09:22:14.521Z</time></trkpt><trkpt lat="44.6633059" lon="8.4976873"><ele>165.5</ele><time>2026-04-04T09:22:15.517Z</time></trkpt><trkpt lat="44.6632422" lon="8.4979968"><ele>165.0</ele><time>2026-04-04T09:22:17.513Z</time></trkpt><trkpt lat="44.6632104" lon="8.4981363"><ele>164.66666666666666</ele><time>2026-04-04T09:22:18.504Z</time></trkpt><trkpt lat="44.6631837" lon="8.4982582"><ele>164.33333333333334</ele><time>2026-04-04T09:22:19.509Z</time></trkpt><trkpt lat="44.6631605" lon="8.4983694"><ele>164.0</ele><time>2026-04-04T09:22:20.512Z</time></trkpt><trkpt lat="44.6631388" lon="8.4984725"><ele>163.66666666666669</ele><time>2026-04-04T09:22:21.518Z</time></trkpt><trkpt lat="44.6631178" lon="8.4985714"><ele>163.33333333333334</ele><time>2026-04-04T09:22:22.513Z</time></trkpt><trkpt lat="44.6630984" lon="8.4986687"><ele>163.0</ele><time>2026-04-04T09:22:23.511Z</time></trkpt><trkpt lat="44.6630822" lon="8.4987735"><ele>161.83333333333334</ele><time>2026-04-04T09:22:24.528Z</time></trkpt><trkpt lat="44.6630598" lon="8.4988909"><ele>160.66666666666669</ele><time>2026-04-04T09:22:25.519Z</time></trkpt><trkpt lat="44.6630346" lon="8.4990233"><ele>159.5</ele><time>2026-04-04T09:22:26.509Z</time></trkpt><trkpt lat="44.6630098" lon="8.4991508"><ele>158.33333333333334</ele><time>2026-04-04T09:22:27.515Z</time></trkpt><trkpt lat="44.6629889" lon="8.4992568"><ele>157.16666666666666</ele><time>2026-04-04T09:22:28.519Z</time></trkpt><trkpt lat="44.662971" lon="8.4993511"><ele>156.0</ele><time>2026-04-04T09:22:29.505Z</time></trkpt><trkpt lat="44.662934" lon="8.4995154"><ele>155.66666666666666</ele><time>2026-04-04T09:22:31.514Z</time></trkpt><trkpt lat="44.6629095" lon="8.4996036"><ele>155.33333333333334</ele><time>2026-04-04T09:22:32.518Z</time></trkpt><trkpt lat="44.6628916" lon="8.4997029"><ele>155.0</ele><time>2026-04-04T09:22:33.511Z</time></trkpt><trkpt lat="44.6628773" lon="8.4998058"><ele>154.66666666666669</ele><time>2026-04-04T09:22:34.517Z</time></trkpt><trkpt lat="44.6628627" lon="8.4999001"><ele>154.33333333333334</ele><time>2026-04-04T09:22:35.512Z</time></trkpt><trkpt lat="44.6628462" lon="8.4999886"><ele>154.0</ele><time>2026-04-04T09:22:36.508Z</time></trkpt><trkpt lat="44.662821" lon="8.5001699"><ele>154.0</ele><time>2026-04-04T09:22:38.513Z</time></trkpt><trkpt lat="44.6628022" lon="8.5002708"><ele>154.0</ele><time>2026-04-04T09:22:39.519Z</time></trkpt><trkpt lat="44.6627814" lon="8.5003724"><ele>154.0</ele><time>2026-04-04T09:22:40.518Z</time></trkpt><trkpt lat="44.6627618" lon="8.500469"><ele>154.0</ele><time>2026-04-04T09:22:41.52Z</time></trkpt><trkpt lat="44.6627454" lon="8.500555"><ele>154.0</ele><time>2026-04-04T09:22:42.507Z</time></trkpt><trkpt lat="44.6627151" lon="8.5007072"><ele>154.0</ele><time>2026-04-04T09:22:44.521Z</time></trkpt><trkpt lat="44.6626746" lon="8.5008777"><ele>156.0</ele><time>2026-04-04T09:22:46.505Z</time></trkpt><trkpt lat="44.6626513" lon="8.5009764"><ele>158.0</ele><time>2026-04-04T09:22:47.51Z</time></trkpt><trkpt lat="44.6626263" lon="8.5010729"><ele>160.0</ele><time>2026-04-04T09:22:48.505Z</time></trkpt><trkpt lat="44.6626011" lon="8.5011566"><ele>162.0</ele><time>2026-04-04T09:22:49.498Z</time></trkpt><trkpt lat="44.6625337" lon="8.5012392"><ele>164.0</ele><time>2026-04-04T09:22:51.513Z</time></trkpt><trkpt lat="44.6624492" lon="8.5012049"><ele>166.0</ele><time>2026-04-04T09:22:53.517Z</time></trkpt><trkpt lat="44.662408" lon="8.5011332"><ele>166.0</ele><time>2026-04-04T09:22:54.518Z</time></trkpt><trkpt lat="44.662365" lon="8.5010286"><ele>166.0</ele><time>2026-04-04T09:22:55.513Z</time></trkpt><trkpt lat="44.6623203" lon="8.5009037"><ele>166.0</ele><time>2026-04-04T09:22:56.526Z</time></trkpt><trkpt lat="44.6622727" lon="8.5007862"><ele>166.0</ele><time>2026-04-04T09:22:57.513Z</time></trkpt><trkpt lat="44.6621671" lon="8.5006317"><ele>166.0</ele><time>2026-04-04T09:22:59.508Z</time></trkpt><trkpt lat="44.6620535" lon="8.5006469"><ele>166.0</ele><time>2026-04-04T09:23:01.513Z</time></trkpt><trkpt lat="44.6620069" lon="8.500727"><ele>166.0</ele><time>2026-04-04T09:23:02.513Z</time></trkpt><trkpt lat="44.6619674" lon="8.5008538"><ele>166.0</ele><time>2026-04-04T09:23:03.518Z</time></trkpt><trkpt lat="44.6619324" lon="8.5010065"><ele>166.0</ele><time>2026-04-04T09:23:04.513Z</time></trkpt><trkpt lat="44.6618926" lon="8.5011587"><ele>166.0</ele><time>2026-04-04T09:23:05.512Z</time></trkpt><trkpt lat="44.6618504" lon="8.5013077"><ele>166.4</ele><time>2026-04-04T09:23:06.518Z</time></trkpt><trkpt lat="44.661804" lon="8.5014542"><ele>166.8</ele><time>2026-04-04T09:23:07.509Z</time></trkpt><trkpt lat="44.6617645" lon="8.5015915"><ele>167.20000000000002</ele><time>2026-04-04T09:23:08.517Z</time></trkpt><trkpt lat="44.6617266" lon="8.5017219"><ele>167.60000000000002</ele><time>2026-04-04T09:23:09.516Z</time></trkpt><trkpt lat="44.6616923" lon="8.5018533"><ele>168.0</ele><time>2026-04-04T09:23:10.51Z</time></trkpt><trkpt lat="44.6616627" lon="8.5019908"><ele>168.16666666666666</ele><time>2026-04-04T09:23:11.52Z</time></trkpt><trkpt lat="44.6616277" lon="8.5021209"><ele>168.33333333333334</ele><time>2026-04-04T09:23:12.518Z</time></trkpt><trkpt lat="44.6616013" lon="8.5022415"><ele>168.5</ele><time>2026-04-04T09:23:13.506Z</time></trkpt><trkpt lat="44.6615804" lon="8.5023533"><ele>168.66666666666669</ele><time>2026-04-04T09:23:14.514Z</time></trkpt><trkpt lat="44.6615625" lon="8.5024543"><ele>168.83333333333334</ele><time>2026-04-04T09:23:15.51Z</time></trkpt><trkpt lat="44.6615425" lon="8.5025434"><ele>169.0</ele><time>2026-04-04T09:23:16.504Z</time></trkpt><trkpt lat="44.6615142" lon="8.5026728"><ele>169.0</ele><time>2026-04-04T09:23:18.514Z</time></trkpt><trkpt lat="44.661478" lon="8.5028759"><ele>169.0</ele><time>2026-04-04T09:23:22.515Z</time></trkpt><trkpt lat="44.6613815" lon="8.5028854"><ele>169.0</ele><time>2026-04-04T09:23:25.51Z</time></trkpt><trkpt lat="44.6612898" lon="8.5028122"><ele>169.0</ele><time>2026-04-04T09:23:33.51Z</time></trkpt><trkpt lat="44.661198" lon="8.5027834"><ele>169.0</ele><time>2026-04-04T09:23:36.509Z</time></trkpt><trkpt lat="44.6611293" lon="8.50277"><ele>169.0</ele><time>2026-04-04T09:23:38.51Z</time></trkpt><trkpt lat="44.6610054" lon="8.5027803"><ele>169.0</ele><time>2026-04-04T09:23:40.507Z</time></trkpt><trkpt lat="44.6607962" lon="8.5028514"><ele>169.0</ele><time>2026-04-04T09:23:42.51Z</time></trkpt><trkpt lat="44.6606989" lon="8.5029022"><ele>169.0</ele><time>2026-04-04T09:23:43.506Z</time></trkpt><trkpt lat="44.660602" lon="8.5029562"><ele>169.0</ele><time>2026-04-04T09:23:44.509Z</time></trkpt><trkpt lat="44.6605181" lon="8.5030031"><ele>169.0</ele><time>2026-04-04T09:23:45.506Z</time></trkpt><trkpt lat="44.6604436" lon="8.5030483"><ele>169.0</ele><time>2026-04-04T09:23:46.516Z</time></trkpt><trkpt lat="44.6603793" lon="8.5030966"><ele>169.0</ele><time>2026-04-04T09:23:47.512Z</time></trkpt><trkpt lat="44.6603138" lon="8.503153"><ele>169.0</ele><time>2026-04-04T09:23:48.51Z</time></trkpt><trkpt lat="44.6602434" lon="8.5032139"><ele>169.0</ele><time>2026-04-04T09:23:49.505Z</time></trkpt><trkpt lat="44.6601656" lon="8.5032925"><ele>169.75</ele><time>2026-04-04T09:23:50.505Z</time></trkpt><trkpt lat="44.6600774" lon="8.5033904"><ele>170.5</ele><time>2026-04-04T09:23:51.507Z</time></trkpt><trkpt lat="44.6599713" lon="8.5035266"><ele>171.25</ele><time>2026-04-04T09:23:52.505Z</time></trkpt><trkpt lat="44.6598706" lon="8.503659"><ele>172.0</ele><time>2026-04-04T09:23:53.504Z</time></trkpt><trkpt lat="44.6597847" lon="8.5037712"><ele>172.0</ele><time>2026-04-04T09:23:54.509Z</time></trkpt><trkpt lat="44.6597042" lon="8.5038584"><ele>172.0</ele><time>2026-04-04T09:23:55.514Z</time></trkpt><trkpt lat="44.6596222" lon="8.5039197"><ele>172.0</ele><time>2026-04-04T09:23:56.517Z</time></trkpt><trkpt lat="44.6595447" lon="8.5039636"><ele>172.0</ele><time>2026-04-04T09:23:57.513Z</time></trkpt><trkpt lat="44.6594823" lon="8.5039912"><ele>172.0</ele><time>2026-04-04T09:23:58.509Z</time></trkpt><trkpt lat="44.6593966" lon="8.5040153"><ele>172.0</ele><time>2026-04-04T09:24:00.508Z</time></trkpt><trkpt lat="44.6593059" lon="8.5040371"><ele>172.8</ele><time>2026-04-04T09:24:02.514Z</time></trkpt><trkpt lat="44.6590939" lon="8.5039657"><ele>173.6</ele><time>2026-04-04T09:24:06.508Z</time></trkpt><trkpt lat="44.6590647" lon="8.5038857"><ele>174.4</ele><time>2026-04-04T09:24:07.51Z</time></trkpt><trkpt lat="44.6590423" lon="8.5037927"><ele>175.20000000000002</ele><time>2026-04-04T09:24:08.504Z</time></trkpt><trkpt lat="44.6590083" lon="8.5036958"><ele>176.0</ele><time>2026-04-04T09:24:09.508Z</time></trkpt><trkpt lat="44.6589593" lon="8.503609"><ele>175.0</ele><time>2026-04-04T09:24:10.501Z</time></trkpt><trkpt lat="44.6588926" lon="8.503536"><ele>174.0</ele><time>2026-04-04T09:24:11.502Z</time></trkpt><trkpt lat="44.6587951" lon="8.5034875"><ele>173.0</ele><time>2026-04-04T09:24:12.515Z</time></trkpt><trkpt lat="44.6586791" lon="8.5034422"><ele>172.0</ele><time>2026-04-04T09:24:13.509Z</time></trkpt><trkpt lat="44.6585274" lon="8.5033938"><ele>172.0</ele><time>2026-04-04T09:24:14.512Z</time></trkpt><trkpt lat="44.6583672" lon="8.5033336"><ele>172.0</ele><time>2026-04-04T09:24:15.509Z</time></trkpt><trkpt lat="44.6582006" lon="8.5032737"><ele>172.0</ele><time>2026-04-04T09:24:16.509Z</time></trkpt><trkpt lat="44.658034" lon="8.5032209"><ele>172.0</ele><time>2026-04-04T09:24:17.507Z</time></trkpt><trkpt lat="44.6578577" lon="8.5031738"><ele>172.0</ele><time>2026-04-04T09:24:18.513Z</time></trkpt><trkpt lat="44.6576701" lon="8.5031166"><ele>172.0</ele><time>2026-04-04T09:24:19.516Z</time></trkpt><trkpt lat="44.6574835" lon="8.5030545"><ele>172.66666666666669</ele><time>2026-04-04T09:24:20.515Z</time></trkpt><trkpt lat="44.6573071" lon="8.5029958"><ele>173.33333333333334</ele><time>2026-04-04T09:24:21.51Z</time></trkpt><trkpt lat="44.6571383" lon="8.5029401"><ele>174.0</ele><time>2026-04-04T09:24:22.501Z</time></trkpt><trkpt lat="44.6569696" lon="8.5028891"><ele>171.0</ele><time>2026-04-04T09:24:23.506Z</time></trkpt><trkpt lat="44.6566365" lon="8.5027908"><ele>168.0</ele><time>2026-04-04T09:24:25.507Z</time></trkpt><trkpt lat="44.6564664" lon="8.5027379"><ele>168.0</ele><time>2026-04-04T09:24:26.507Z</time></trkpt><trkpt lat="44.6562955" lon="8.5026846"><ele>168.0</ele><time>2026-04-04T09:24:27.5Z</time></trkpt><trkpt lat="44.6561271" lon="8.5026314"><ele>168.0</ele><time>2026-04-04T09:24:28.511Z</time></trkpt><trkpt lat="44.6559658" lon="8.5025828"><ele>168.66666666666666</ele><time>2026-04-04T09:24:29.505Z</time></trkpt><trkpt lat="44.6558052" lon="8.5025477"><ele>169.33333333333331</ele><time>2026-04-04T09:24:30.509Z</time></trkpt><trkpt lat="44.6556386" lon="8.5025346"><ele>170.0</ele><time>2026-04-04T09:24:31.505Z</time></trkpt><trkpt lat="44.6554691" lon="8.5025493"><ele>170.0</ele><time>2026-04-04T09:24:32.51Z</time></trkpt><trkpt lat="44.6553038" lon="8.5025809"><ele>170.0</ele><time>2026-04-04T09:24:33.504Z</time></trkpt><trkpt lat="44.6551457" lon="8.5026034"><ele>170.0</ele><time>2026-04-04T09:24:34.503Z</time></trkpt><trkpt lat="44.6549919" lon="8.5025869"><ele>168.66666666666666</ele><time>2026-04-04T09:24:35.5Z</time></trkpt><trkpt lat="44.6548393" lon="8.5025229"><ele>167.33333333333334</ele><time>2026-04-04T09:24:36.512Z</time></trkpt><trkpt lat="44.654681" lon="8.502417"><ele>166.0</ele><time>2026-04-04T09:24:37.507Z</time></trkpt><trkpt lat="44.6545117" lon="8.5023185"><ele>163.33333333333334</ele><time>2026-04-04T09:24:38.502Z</time></trkpt><trkpt lat="44.6543153" lon="8.5022771"><ele>160.66666666666666</ele><time>2026-04-04T09:24:39.509Z</time></trkpt><trkpt lat="44.6541087" lon="8.502282"><ele>158.0</ele><time>2026-04-04T09:24:40.503Z</time></trkpt><trkpt lat="44.6538899" lon="8.5022799"><ele>158.0</ele><time>2026-04-04T09:24:41.511Z</time></trkpt><trkpt lat="44.6536588" lon="8.5022768"><ele>158.0</ele><time>2026-04-04T09:24:42.514Z</time></trkpt><trkpt lat="44.6534249" lon="8.5022709"><ele>160.0</ele><time>2026-04-04T09:24:43.517Z</time></trkpt><trkpt lat="44.653188" lon="8.5022613"><ele>162.0</ele><time>2026-04-04T09:24:44.506Z</time></trkpt><trkpt lat="44.6527089" lon="8.5022413"><ele>166.5</ele><time>2026-04-04T09:24:46.508Z</time></trkpt><trkpt lat="44.6524702" lon="8.5022307"><ele>171.0</ele><time>2026-04-04T09:24:47.508Z</time></trkpt><trkpt lat="44.6522472" lon="8.5022149"><ele>171.0</ele><time>2026-04-04T09:24:48.508Z</time></trkpt><trkpt lat="44.6520463" lon="8.5022011"><ele>171.0</ele><time>2026-04-04T09:24:49.517Z</time></trkpt><trkpt lat="44.6518706" lon="8.5021996"><ele>171.0</ele><time>2026-04-04T09:24:50.507Z</time></trkpt><trkpt lat="44.6517138" lon="8.5022288"><ele>171.0</ele><time>2026-04-04T09:24:51.514Z</time></trkpt><trkpt lat="44.6515606" lon="8.5022962"><ele>171.0</ele><time>2026-04-04T09:24:52.514Z</time></trkpt><trkpt lat="44.6514173" lon="8.5024027"><ele>171.0</ele><time>2026-04-04T09:24:53.508Z</time></trkpt><trkpt lat="44.6512821" lon="8.5024994"><ele>171.0</ele><time>2026-04-04T09:24:54.506Z</time></trkpt><trkpt lat="44.6511597" lon="8.5025802"><ele>171.0</ele><time>2026-04-04T09:24:55.51Z</time></trkpt><trkpt lat="44.6510529" lon="8.5026423"><ele>171.0</ele><time>2026-04-04T09:24:56.512Z</time></trkpt><trkpt lat="44.6509644" lon="8.5026886"><ele>171.0</ele><time>2026-04-04T09:24:57.507Z</time></trkpt><trkpt lat="44.6508993" lon="8.5027222"><ele>171.0</ele><time>2026-04-04T09:24:58.51Z</time></trkpt><trkpt lat="44.6508482" lon="8.5027894"><ele>170.8</ele><time>2026-04-04T09:25:00.508Z</time></trkpt><trkpt lat="44.6508703" lon="8.5028948"><ele>170.60000000000002</ele><time>2026-04-04T09:25:27.508Z</time></trkpt><trkpt lat="44.650919" lon="8.5031555"><ele>170.4</ele><time>2026-04-04T09:25:30.517Z</time></trkpt><trkpt lat="44.650939" lon="8.5032634"><ele>170.2</ele><time>2026-04-04T09:25:31.511Z</time></trkpt><trkpt lat="44.6509628" lon="8.5033866"><ele>170.0</ele><time>2026-04-04T09:25:32.514Z</time></trkpt><trkpt lat="44.6509849" lon="8.5035171"><ele>172.6</ele><time>2026-04-04T09:25:33.513Z</time></trkpt><trkpt lat="44.6509948" lon="8.5036661"><ele>175.2</ele><time>2026-04-04T09:25:34.519Z</time></trkpt><trkpt lat="44.6509877" lon="8.5038202"><ele>177.8</ele><time>2026-04-04T09:25:35.513Z</time></trkpt><trkpt lat="44.6509757" lon="8.5039894"><ele>180.4</ele><time>2026-04-04T09:25:36.508Z</time></trkpt><trkpt lat="44.6509693" lon="8.5041418"><ele>183.0</ele><time>2026-04-04T09:25:37.51Z</time></trkpt><trkpt lat="44.6509484" lon="8.504271"><ele>186.0</ele><time>2026-04-04T09:25:38.509Z</time></trkpt><trkpt lat="44.6508928" lon="8.5043661"><ele>189.0</ele><time>2026-04-04T09:25:39.517Z</time></trkpt><trkpt lat="44.6508229" lon="8.5044682"><ele>192.0</ele><time>2026-04-04T09:25:40.516Z</time></trkpt><trkpt lat="44.6507578" lon="8.5045668"><ele>195.0</ele><time>2026-04-04T09:25:41.511Z</time></trkpt><trkpt lat="44.6507271" lon="8.5046608"><ele>198.0</ele><time>2026-04-04T09:25:42.513Z</time></trkpt><trkpt lat="44.6506701" lon="8.5048021"><ele>201.8</ele><time>2026-04-04T09:25:44.51Z</time></trkpt><trkpt lat="44.650561" lon="8.5048578"><ele>205.60000000000002</ele><time>2026-04-04T09:25:46.516Z</time></trkpt><trkpt lat="44.6504911" lon="8.5048696"><ele>209.39999999999998</ele><time>2026-04-04T09:25:47.51Z</time></trkpt><trkpt lat="44.6504108" lon="8.5049446"><ele>213.2</ele><time>2026-04-04T09:25:49.517Z</time></trkpt><trkpt lat="44.6504902" lon="8.5051217"><ele>217.0</ele><time>2026-04-04T09:25:52.506Z</time></trkpt><trkpt lat="44.650575" lon="8.5051411"><ele>217.0</ele><time>2026-04-04T09:25:53.508Z</time></trkpt><trkpt lat="44.6506649" lon="8.5051411"><ele>217.0</ele><time>2026-04-04T09:25:54.505Z</time></trkpt><trkpt lat="44.6507661" lon="8.5051282"><ele>217.0</ele><time>2026-04-04T09:25:55.511Z</time></trkpt><trkpt lat="44.6508826" lon="8.5051096"><ele>217.0</ele><time>2026-04-04T09:25:56.509Z</time></trkpt><trkpt lat="44.6510073" lon="8.5051186"><ele>217.0</ele><time>2026-04-04T09:25:57.514Z</time></trkpt><trkpt lat="44.6511332" lon="8.5051512"><ele>216.75</ele><time>2026-04-04T09:25:58.513Z</time></trkpt><trkpt lat="44.6512509" lon="8.5052037"><ele>216.5</ele><time>2026-04-04T09:25:59.515Z</time></trkpt><trkpt lat="44.6513715" lon="8.5052714"><ele>216.25</ele><time>2026-04-04T09:26:00.508Z</time></trkpt><trkpt lat="44.6514966" lon="8.505345"><ele>216.0</ele><time>2026-04-04T09:26:01.505Z</time></trkpt><trkpt lat="44.6516153" lon="8.5053929"><ele>216.0</ele><time>2026-04-04T09:26:02.512Z</time></trkpt><trkpt lat="44.6517238" lon="8.505384"><ele>216.00000000000003</ele><time>2026-04-04T09:26:03.517Z</time></trkpt><trkpt lat="44.6518391" lon="8.5053673"><ele>216.00000000000003</ele><time>2026-04-04T09:26:04.516Z</time></trkpt><trkpt lat="44.6519342" lon="8.5053663"><ele>216.0</ele><time>2026-04-04T09:26:05.51Z</time></trkpt><trkpt lat="44.6519961" lon="8.5054171"><ele>216.0</ele><time>2026-04-04T09:26:06.505Z</time></trkpt><trkpt lat="44.6520654" lon="8.505483"><ele>221.5</ele><time>2026-04-04T09:26:07.514Z</time></trkpt><trkpt lat="44.6521502" lon="8.5055643"><ele>227.0</ele><time>2026-04-04T09:26:08.507Z</time></trkpt><trkpt lat="44.6522558" lon="8.5056375"><ele>232.5</ele><time>2026-04-04T09:26:09.509Z</time></trkpt><trkpt lat="44.6523712" lon="8.5056929"><ele>238.0</ele><time>2026-04-04T09:26:10.511Z</time></trkpt><trkpt lat="44.6525964" lon="8.505702"><ele>238.0</ele><time>2026-04-04T09:26:12.509Z</time></trkpt><trkpt lat="44.652722" lon="8.5056629"><ele>238.0</ele><time>2026-04-04T09:26:13.503Z</time></trkpt><trkpt lat="44.6528616" lon="8.505612"><ele>238.0</ele><time>2026-04-04T09:26:14.502Z</time></trkpt><trkpt lat="44.6529761" lon="8.5055601"><ele>238.0</ele><time>2026-04-04T09:26:15.517Z</time></trkpt><trkpt lat="44.6530551" lon="8.5055464"><ele>235.8</ele><time>2026-04-04T09:26:16.513Z</time></trkpt><trkpt lat="44.6531294" lon="8.5055967"><ele>233.60000000000002</ele><time>2026-04-04T09:26:18.51Z</time></trkpt><trkpt lat="44.6531982" lon="8.5055887"><ele>231.39999999999998</ele><time>2026-04-04T09:26:21.509Z</time></trkpt><trkpt lat="44.6532604" lon="8.5056655"><ele>229.2</ele><time>2026-04-04T09:26:24.506Z</time></trkpt><trkpt lat="44.6533296" lon="8.5057427"><ele>227.0</ele><time>2026-04-04T09:26:26.511Z</time></trkpt><trkpt lat="44.6534384" lon="8.5058613"><ele>227.0</ele><time>2026-04-04T09:26:28.516Z</time></trkpt><trkpt lat="44.6534932" lon="8.5059389"><ele>227.0</ele><time>2026-04-04T09:26:29.508Z</time></trkpt><trkpt lat="44.6535438" lon="8.5060234"><ele>227.0</ele><time>2026-04-04T09:26:30.508Z</time></trkpt><trkpt lat="44.653572" lon="8.506126"><ele>227.0</ele><time>2026-04-04T09:26:31.514Z</time></trkpt><trkpt lat="44.6536309" lon="8.5063254"><ele>227.0</ele><time>2026-04-04T09:26:33.525Z</time></trkpt><trkpt lat="44.6536865" lon="8.5063749"><ele>226.33333333333334</ele><time>2026-04-04T09:26:34.503Z</time></trkpt><trkpt lat="44.6537557" lon="8.5063919"><ele>225.66666666666669</ele><time>2026-04-04T09:26:35.504Z</time></trkpt><trkpt lat="44.6538423" lon="8.506374"><ele>225.0</ele><time>2026-04-04T09:26:36.512Z</time></trkpt><trkpt lat="44.6539348" lon="8.5063602"><ele>224.33333333333331</ele><time>2026-04-04T09:26:37.508Z</time></trkpt><trkpt lat="44.6540212" lon="8.5063671"><ele>223.66666666666666</ele><time>2026-04-04T09:26:38.514Z</time></trkpt><trkpt lat="44.6540934" lon="8.5064101"><ele>223.0</ele><time>2026-04-04T09:26:39.509Z</time></trkpt><trkpt lat="44.6541599" lon="8.5064896"><ele>223.0</ele><time>2026-04-04T09:26:40.509Z</time></trkpt><trkpt lat="44.654236" lon="8.5066065"><ele>223.0</ele><time>2026-04-04T09:26:41.506Z</time></trkpt><trkpt lat="44.6543295" lon="8.5067217"><ele>223.0</ele><time>2026-04-04T09:26:42.511Z</time></trkpt><trkpt lat="44.6544277" lon="8.5068257"><ele>223.0</ele><time>2026-04-04T09:26:43.512Z</time></trkpt><trkpt lat="44.6545136" lon="8.5069039"><ele>221.60000000000002</ele><time>2026-04-04T09:26:44.512Z</time></trkpt><trkpt lat="44.6545928" lon="8.5069649"><ele>220.20000000000002</ele><time>2026-04-04T09:26:45.513Z</time></trkpt><trkpt lat="44.6546737" lon="8.5069647"><ele>218.8</ele><time>2026-04-04T09:26:46.529Z</time></trkpt><trkpt lat="44.6547641" lon="8.5069306"><ele>217.4</ele><time>2026-04-04T09:26:47.52Z</time></trkpt><trkpt lat="44.6548511" lon="8.506863"><ele>216.0</ele><time>2026-04-04T09:26:48.521Z</time></trkpt><trkpt lat="44.6549402" lon="8.5067663"><ele>216.0</ele><time>2026-04-04T09:26:49.52Z</time></trkpt><trkpt lat="44.655027" lon="8.5066626"><ele>216.0</ele><time>2026-04-04T09:26:50.521Z</time></trkpt><trkpt lat="44.6551057" lon="8.5065664"><ele>216.0</ele><time>2026-04-04T09:26:51.515Z</time></trkpt><trkpt lat="44.6551874" lon="8.5064769"><ele>216.0</ele><time>2026-04-04T09:26:52.516Z</time></trkpt><trkpt lat="44.6553304" lon="8.5063207"><ele>215.20000000000002</ele><time>2026-04-04T09:26:54.509Z</time></trkpt><trkpt lat="44.6553941" lon="8.5062661"><ele>214.40000000000003</ele><time>2026-04-04T09:26:55.521Z</time></trkpt><trkpt lat="44.655467" lon="8.5062332"><ele>213.6</ele><time>2026-04-04T09:26:56.518Z</time></trkpt><trkpt lat="44.6555471" lon="8.5062433"><ele>212.8</ele><time>2026-04-04T09:26:57.514Z</time></trkpt><trkpt lat="44.6556511" lon="8.5062942"><ele>212.0</ele><time>2026-04-04T09:26:58.513Z</time></trkpt><trkpt lat="44.6557693" lon="8.506355"><ele>212.0</ele><time>2026-04-04T09:26:59.514Z</time></trkpt><trkpt lat="44.6558886" lon="8.5064162"><ele>212.0</ele><time>2026-04-04T09:27:00.518Z</time></trkpt><trkpt lat="44.6559979" lon="8.5064673"><ele>212.0</ele><time>2026-04-04T09:27:01.515Z</time></trkpt><trkpt lat="44.6560998" lon="8.5065179"><ele>212.0</ele><time>2026-04-04T09:27:02.509Z</time></trkpt><trkpt lat="44.6562016" lon="8.5065658"><ele>209.6</ele><time>2026-04-04T09:27:03.522Z</time></trkpt><trkpt lat="44.6563022" lon="8.5066146"><ele>207.2</ele><time>2026-04-04T09:27:04.519Z</time></trkpt><trkpt lat="44.6564009" lon="8.5066745"><ele>204.8</ele><time>2026-04-04T09:27:05.506Z</time></trkpt><trkpt lat="44.656493" lon="8.5067357"><ele>202.4</ele><time>2026-04-04T09:27:06.513Z</time></trkpt><trkpt lat="44.6565663" lon="8.5068006"><ele>200.0</ele><time>2026-04-04T09:27:07.522Z</time></trkpt><trkpt lat="44.6566234" lon="8.5068738"><ele>200.0</ele><time>2026-04-04T09:27:08.507Z</time></trkpt><trkpt lat="44.6566583" lon="8.5069691"><ele>200.0</ele><time>2026-04-04T09:27:09.511Z</time></trkpt><trkpt lat="44.656679" lon="8.5071113"><ele>200.0</ele><time>2026-04-04T09:27:10.509Z</time></trkpt><trkpt lat="44.6566859" lon="8.5072647"><ele>200.0</ele><time>2026-04-04T09:27:11.509Z</time></trkpt><trkpt lat="44.6566877" lon="8.5074103"><ele>200.0</ele><time>2026-04-04T09:27:12.516Z</time></trkpt><trkpt lat="44.6566932" lon="8.5075202"><ele>200.5</ele><time>2026-04-04T09:27:13.514Z</time></trkpt><trkpt lat="44.6567787" lon="8.5076666"><ele>201.0</ele><time>2026-04-04T09:27:17.512Z</time></trkpt><trkpt lat="44.6569144" lon="8.5077423"><ele>201.5</ele><time>2026-04-04T09:27:19.514Z</time></trkpt><trkpt lat="44.6570002" lon="8.5077762"><ele>202.0</ele><time>2026-04-04T09:27:20.503Z</time></trkpt><trkpt lat="44.6570879" lon="8.5078044"><ele>199.66666666666666</ele><time>2026-04-04T09:27:21.513Z</time></trkpt><trkpt lat="44.6571676" lon="8.5078314"><ele>197.33333333333331</ele><time>2026-04-04T09:27:22.513Z</time></trkpt><trkpt lat="44.657233" lon="8.5078795"><ele>195.0</ele><time>2026-04-04T09:27:23.51Z</time></trkpt><trkpt lat="44.6572622" lon="8.5079744"><ele>192.66666666666666</ele><time>2026-04-04T09:27:24.524Z</time></trkpt><trkpt lat="44.6572775" lon="8.5080936"><ele>190.33333333333331</ele><time>2026-04-04T09:27:25.519Z</time></trkpt><trkpt lat="44.6572791" lon="8.508241"><ele>188.0</ele><time>2026-04-04T09:27:26.512Z</time></trkpt><trkpt lat="44.6572868" lon="8.5084013"><ele>188.0</ele><time>2026-04-04T09:27:27.527Z</time></trkpt><trkpt lat="44.6572961" lon="8.5085554"><ele>188.0</ele><time>2026-04-04T09:27:28.512Z</time></trkpt><trkpt lat="44.6573054" lon="8.508712"><ele>188.0</ele><time>2026-04-04T09:27:29.512Z</time></trkpt><trkpt lat="44.6573189" lon="8.5088571"><ele>188.0</ele><time>2026-04-04T09:27:30.516Z</time></trkpt><trkpt lat="44.6573346" lon="8.508984"><ele>188.0</ele><time>2026-04-04T09:27:31.526Z</time></trkpt><trkpt lat="44.6573464" lon="8.5090948"><ele>188.0</ele><time>2026-04-04T09:27:32.507Z</time></trkpt><trkpt lat="44.6573662" lon="8.5092428"><ele>188.0</ele><time>2026-04-04T09:27:34.512Z</time></trkpt><trkpt lat="44.6573932" lon="8.5094747"><ele>188.0</ele><time>2026-04-04T09:28:31.513Z</time></trkpt><trkpt lat="44.6573558" lon="8.5096895"><ele>188.0</ele><time>2026-04-04T09:28:33.508Z</time></trkpt><trkpt lat="44.6573444" lon="8.5098163"><ele>188.0</ele><time>2026-04-04T09:28:34.51Z</time></trkpt><trkpt lat="44.6573374" lon="8.5099453"><ele>188.0</ele><time>2026-04-04T09:28:35.511Z</time></trkpt><trkpt lat="44.6573256" lon="8.5100769"><ele>188.0</ele><time>2026-04-04T09:28:36.511Z</time></trkpt><trkpt lat="44.6572999" lon="8.5101911"><ele>188.0</ele><time>2026-04-04T09:28:37.524Z</time></trkpt><trkpt lat="44.6572541" lon="8.5102797"><ele>188.0</ele><time>2026-04-04T09:28:38.508Z</time></trkpt><trkpt lat="44.6571999" lon="8.5103493"><ele>188.0</ele><time>2026-04-04T09:28:39.514Z</time></trkpt><trkpt lat="44.6571225" lon="8.5103776"><ele>188.0</ele><time>2026-04-04T09:28:40.508Z</time></trkpt><trkpt lat="44.6570316" lon="8.5103949"><ele>188.0</ele><time>2026-04-04T09:28:41.508Z</time></trkpt><trkpt lat="44.6569276" lon="8.5104234"><ele>188.0</ele><time>2026-04-04T09:28:42.509Z</time></trkpt><trkpt lat="44.6568064" lon="8.5104615"><ele>188.0</ele><time>2026-04-04T09:28:43.514Z</time></trkpt><trkpt lat="44.6566728" lon="8.510497"><ele>192.25</ele><time>2026-04-04T09:28:44.509Z</time></trkpt><trkpt lat="44.656543" lon="8.5105401"><ele>196.5</ele><time>2026-04-04T09:28:45.512Z</time></trkpt><trkpt lat="44.6564127" lon="8.5105943"><ele>200.75</ele><time>2026-04-04T09:28:46.504Z</time></trkpt><trkpt lat="44.6562708" lon="8.5106367"><ele>205.0</ele><time>2026-04-04T09:28:47.505Z</time></trkpt><trkpt lat="44.6561167" lon="8.5106488"><ele>208.33333333333331</ele><time>2026-04-04T09:28:48.505Z</time></trkpt><trkpt lat="44.6559513" lon="8.5106462"><ele>211.66666666666669</ele><time>2026-04-04T09:28:49.505Z</time></trkpt><trkpt lat="44.6557821" lon="8.5106265"><ele>215.0</ele><time>2026-04-04T09:28:50.506Z</time></trkpt><trkpt lat="44.6556142" lon="8.5106284"><ele>215.0</ele><time>2026-04-04T09:28:51.504Z</time></trkpt><trkpt lat="44.6554411" lon="8.5106361"><ele>215.0</ele><time>2026-04-04T09:28:52.507Z</time></trkpt><trkpt lat="44.6550712" lon="8.5107208"><ele>218.0</ele><time>2026-04-04T09:28:54.513Z</time></trkpt><trkpt lat="44.6548984" lon="8.510787"><ele>221.0</ele><time>2026-04-04T09:28:55.508Z</time></trkpt><trkpt lat="44.6547471" lon="8.5108811"><ele>224.0</ele><time>2026-04-04T09:28:56.512Z</time></trkpt><trkpt lat="44.6546228" lon="8.5109812"><ele>224.0</ele><time>2026-04-04T09:28:57.505Z</time></trkpt><trkpt lat="44.6545145" lon="8.5110781"><ele>223.99999999999997</ele><time>2026-04-04T09:28:58.509Z</time></trkpt><trkpt lat="44.654417" lon="8.5111643"><ele>223.99999999999997</ele><time>2026-04-04T09:28:59.505Z</time></trkpt><trkpt lat="44.6543303" lon="8.5112208"><ele>224.0</ele><time>2026-04-04T09:29:00.508Z</time></trkpt><trkpt lat="44.6542548" lon="8.5112517"><ele>224.0</ele><time>2026-04-04T09:29:01.506Z</time></trkpt><trkpt lat="44.6541802" lon="8.5112248"><ele>226.79999999999998</ele><time>2026-04-04T09:29:02.509Z</time></trkpt><trkpt lat="44.6541138" lon="8.511158"><ele>229.59999999999997</ele><time>2026-04-04T09:29:03.516Z</time></trkpt><trkpt lat="44.6540398" lon="8.5110994"><ele>232.4</ele><time>2026-04-04T09:29:04.507Z</time></trkpt><trkpt lat="44.6539526" lon="8.5110748"><ele>235.2</ele><time>2026-04-04T09:29:05.512Z</time></trkpt><trkpt lat="44.6538613" lon="8.5110984"><ele>238.0</ele><time>2026-04-04T09:29:06.505Z</time></trkpt><trkpt lat="44.6537756" lon="8.5111764"><ele>239.0</ele><time>2026-04-04T09:29:07.506Z</time></trkpt><trkpt lat="44.6536881" lon="8.5113148"><ele>240.0</ele><time>2026-04-04T09:29:08.506Z</time></trkpt><trkpt lat="44.6535861" lon="8.5114458"><ele>241.0</ele><time>2026-04-04T09:29:09.51Z</time></trkpt><trkpt lat="44.6534729" lon="8.5115646"><ele>242.0</ele><time>2026-04-04T09:29:10.509Z</time></trkpt><trkpt lat="44.6533646" lon="8.5116571"><ele>242.0</ele><time>2026-04-04T09:29:11.509Z</time></trkpt><trkpt lat="44.6532628" lon="8.5117236"><ele>242.0</ele><time>2026-04-04T09:29:12.506Z</time></trkpt><trkpt lat="44.6531548" lon="8.5117581"><ele>242.0</ele><time>2026-04-04T09:29:13.511Z</time></trkpt><trkpt lat="44.6529463" lon="8.511746"><ele>242.0</ele><time>2026-04-04T09:29:15.511Z</time></trkpt><trkpt lat="44.6528765" lon="8.5117104"><ele>242.00000000000003</ele><time>2026-04-04T09:29:16.517Z</time></trkpt><trkpt lat="44.6528518" lon="8.511583"><ele>242.0</ele><time>2026-04-04T09:29:18.514Z</time></trkpt><trkpt lat="44.6529579" lon="8.5114812"><ele>242.0</ele><time>2026-04-04T09:29:20.512Z</time></trkpt><trkpt lat="44.6530178" lon="8.5114164"><ele>242.0</ele><time>2026-04-04T09:29:21.508Z</time></trkpt><trkpt lat="44.6530419" lon="8.5113271"><ele>242.00000000000003</ele><time>2026-04-04T09:29:22.51Z</time></trkpt><trkpt lat="44.6530095" lon="8.5112324"><ele>242.0</ele><time>2026-04-04T09:29:23.505Z</time></trkpt><trkpt lat="44.6529374" lon="8.5111557"><ele>244.5</ele><time>2026-04-04T09:29:24.51Z</time></trkpt><trkpt lat="44.6528286" lon="8.5111024"><ele>247.0</ele><time>2026-04-04T09:29:25.505Z</time></trkpt><trkpt lat="44.652692" lon="8.5110519"><ele>249.5</ele><time>2026-04-04T09:29:26.508Z</time></trkpt><trkpt lat="44.6525447" lon="8.5109979"><ele>252.0</ele><time>2026-04-04T09:29:27.506Z</time></trkpt><trkpt lat="44.6523992" lon="8.5109202"><ele>255.66666666666669</ele><time>2026-04-04T09:29:28.512Z</time></trkpt><trkpt lat="44.6522504" lon="8.5108306"><ele>259.33333333333337</ele><time>2026-04-04T09:29:29.507Z</time></trkpt><trkpt lat="44.6520916" lon="8.510756"><ele>263.0</ele><time>2026-04-04T09:29:30.512Z</time></trkpt><trkpt lat="44.6519321" lon="8.5107102"><ele>264.75</ele><time>2026-04-04T09:29:31.509Z</time></trkpt><trkpt lat="44.6517855" lon="8.5106985"><ele>266.5</ele><time>2026-04-04T09:29:32.507Z</time></trkpt><trkpt lat="44.6516445" lon="8.5107254"><ele>268.25</ele><time>2026-04-04T09:29:33.507Z</time></trkpt><trkpt lat="44.6515035" lon="8.5107828"><ele>270.0</ele><time>2026-04-04T09:29:34.503Z</time></trkpt><trkpt lat="44.6512529" lon="8.5108635"><ele>270.0</ele><time>2026-04-04T09:29:36.513Z</time></trkpt><trkpt lat="44.6511264" lon="8.5108407"><ele>270.0</ele><time>2026-04-04T09:29:37.509Z</time></trkpt><trkpt lat="44.6509891" lon="8.5108064"><ele>270.0</ele><time>2026-04-04T09:29:38.517Z</time></trkpt><trkpt lat="44.6508247" lon="8.5108025"><ele>270.0</ele><time>2026-04-04T09:29:39.51Z</time></trkpt><trkpt lat="44.6506445" lon="8.5108371"><ele>272.3333333333333</ele><time>2026-04-04T09:29:40.505Z</time></trkpt><trkpt lat="44.6504655" lon="8.5108953"><ele>274.66666666666663</ele><time>2026-04-04T09:29:41.507Z</time></trkpt><trkpt lat="44.6503075" lon="8.5109772"><ele>277.0</ele><time>2026-04-04T09:29:42.509Z</time></trkpt><trkpt lat="44.6501665" lon="8.5110889"><ele>278.0</ele><time>2026-04-04T09:29:43.511Z</time></trkpt><trkpt lat="44.6500356" lon="8.5112244"><ele>279.0</ele><time>2026-04-04T09:29:44.511Z</time></trkpt><trkpt lat="44.6499271" lon="8.5113635"><ele>280.0</ele><time>2026-04-04T09:29:45.505Z</time></trkpt><trkpt lat="44.649833" lon="8.5114832"><ele>281.0</ele><time>2026-04-04T09:29:46.507Z</time></trkpt><trkpt lat="44.6497363" lon="8.511571"><ele>281.0</ele><time>2026-04-04T09:29:47.51Z</time></trkpt><trkpt lat="44.6496259" lon="8.5116488"><ele>281.0</ele><time>2026-04-04T09:29:48.505Z</time></trkpt><trkpt lat="44.6494816" lon="8.5116921"><ele>281.0</ele><time>2026-04-04T09:29:49.508Z</time></trkpt><trkpt lat="44.6493137" lon="8.511733"><ele>281.0</ele><time>2026-04-04T09:29:50.508Z</time></trkpt><trkpt lat="44.6491439" lon="8.5117864"><ele>285.33333333333337</ele><time>2026-04-04T09:29:51.512Z</time></trkpt><trkpt lat="44.6489724" lon="8.5118646"><ele>289.6666666666667</ele><time>2026-04-04T09:29:52.506Z</time></trkpt><trkpt lat="44.6488169" lon="8.5119466"><ele>294.0</ele><time>2026-04-04T09:29:53.512Z</time></trkpt><trkpt lat="44.6486833" lon="8.5120175"><ele>297.6666666666667</ele><time>2026-04-04T09:29:54.506Z</time></trkpt><trkpt lat="44.6485695" lon="8.5120881"><ele>301.33333333333337</ele><time>2026-04-04T09:29:55.513Z</time></trkpt><trkpt lat="44.6483947" lon="8.512317"><ele>305.0</ele><time>2026-04-04T09:29:57.516Z</time></trkpt><trkpt lat="44.6483265" lon="8.5124841"><ele>305.0</ele><time>2026-04-04T09:29:58.509Z</time></trkpt><trkpt lat="44.6482507" lon="8.512659"><ele>305.0</ele><time>2026-04-04T09:29:59.514Z</time></trkpt><trkpt lat="44.6481632" lon="8.5128386"><ele>305.0</ele><time>2026-04-04T09:30:00.515Z</time></trkpt><trkpt lat="44.6480706" lon="8.5130151"><ele>304.4</ele><time>2026-04-04T09:30:01.516Z</time></trkpt><trkpt lat="44.6479882" lon="8.5131747"><ele>303.8</ele><time>2026-04-04T09:30:02.524Z</time></trkpt><trkpt lat="44.6479163" lon="8.5133059"><ele>303.2</ele><time>2026-04-04T09:30:03.519Z</time></trkpt><trkpt lat="44.6478563" lon="8.5133724"><ele>302.6</ele><time>2026-04-04T09:30:04.523Z</time></trkpt><trkpt lat="44.6477937" lon="8.5133988"><ele>302.0</ele><time>2026-04-04T09:30:05.511Z</time></trkpt><trkpt lat="44.6476956" lon="8.5132917"><ele>305.33333333333337</ele><time>2026-04-04T09:30:07.512Z</time></trkpt><trkpt lat="44.6476719" lon="8.5131711"><ele>308.6666666666667</ele><time>2026-04-04T09:30:08.512Z</time></trkpt><trkpt lat="44.6476502" lon="8.5130378"><ele>312.0</ele><time>2026-04-04T09:30:09.516Z</time></trkpt><trkpt lat="44.647612" lon="8.5129282"><ele>315.3333333333333</ele><time>2026-04-04T09:30:10.506Z</time></trkpt><trkpt lat="44.6475573" lon="8.5128744"><ele>318.66666666666663</ele><time>2026-04-04T09:30:11.505Z</time></trkpt><trkpt lat="44.6474931" lon="8.5128907"><ele>322.0</ele><time>2026-04-04T09:30:12.51Z</time></trkpt><trkpt lat="44.6474464" lon="8.5129803"><ele>322.0</ele><time>2026-04-04T09:30:13.515Z</time></trkpt><trkpt lat="44.6474142" lon="8.5131397"><ele>322.0</ele><time>2026-04-04T09:30:14.518Z</time></trkpt><trkpt lat="44.6473725" lon="8.5132589"><ele>322.0</ele><time>2026-04-04T09:30:15.507Z</time></trkpt><trkpt lat="44.6473244" lon="8.5133341"><ele>322.0</ele><time>2026-04-04T09:30:16.511Z</time></trkpt><trkpt lat="44.6471563" lon="8.513245"><ele>322.0</ele><time>2026-04-04T09:30:18.513Z</time></trkpt><trkpt lat="44.6470685" lon="8.5131873"><ele>322.0</ele><time>2026-04-04T09:30:19.507Z</time></trkpt><trkpt lat="44.646987" lon="8.513196"><ele>322.0</ele><time>2026-04-04T09:30:20.503Z</time></trkpt><trkpt lat="44.6469244" lon="8.5132674"><ele>322.0</ele><time>2026-04-04T09:30:21.508Z</time></trkpt><trkpt lat="44.6468924" lon="8.513398"><ele>322.0</ele><time>2026-04-04T09:30:22.513Z</time></trkpt><trkpt lat="44.6469016" lon="8.5136056"><ele>325.20000000000005</ele><time>2026-04-04T09:30:23.505Z</time></trkpt><trkpt lat="44.6469152" lon="8.5137989"><ele>328.4</ele><time>2026-04-04T09:30:24.506Z</time></trkpt><trkpt lat="44.6469289" lon="8.5139644"><ele>331.6</ele><time>2026-04-04T09:30:25.508Z</time></trkpt><trkpt lat="44.6469269" lon="8.5141008"><ele>334.79999999999995</ele><time>2026-04-04T09:30:26.514Z</time></trkpt><trkpt lat="44.6468965" lon="8.514208"><ele>338.0</ele><time>2026-04-04T09:30:27.51Z</time></trkpt><trkpt lat="44.6468379" lon="8.5142716"><ele>338.0</ele><time>2026-04-04T09:30:28.509Z</time></trkpt><trkpt lat="44.6467578" lon="8.5142739"><ele>338.0</ele><time>2026-04-04T09:30:29.515Z</time></trkpt><trkpt lat="44.6466751" lon="8.5142268"><ele>338.0</ele><time>2026-04-04T09:30:30.516Z</time></trkpt><trkpt lat="44.6465838" lon="8.5141549"><ele>338.0</ele><time>2026-04-04T09:30:31.509Z</time></trkpt><trkpt lat="44.6464826" lon="8.5141066"><ele>338.0</ele><time>2026-04-04T09:30:32.513Z</time></trkpt><trkpt lat="44.6463809" lon="8.5141168"><ele>338.0</ele><time>2026-04-04T09:30:33.515Z</time></trkpt><trkpt lat="44.6462859" lon="8.5141747"><ele>338.0</ele><time>2026-04-04T09:30:34.516Z</time></trkpt><trkpt lat="44.646195" lon="8.5142864"><ele>338.0</ele><time>2026-04-04T09:30:35.516Z</time></trkpt><trkpt lat="44.6461067" lon="8.5144145"><ele>338.0</ele><time>2026-04-04T09:30:36.503Z</time></trkpt><trkpt lat="44.6460224" lon="8.514559"><ele>339.6666666666667</ele><time>2026-04-04T09:30:37.509Z</time></trkpt><trkpt lat="44.6458616" lon="8.5148914"><ele>341.3333333333333</ele><time>2026-04-04T09:30:39.504Z</time></trkpt><trkpt lat="44.6457831" lon="8.5150648"><ele>343.0</ele><time>2026-04-04T09:30:40.518Z</time></trkpt><trkpt lat="44.6456975" lon="8.515236"><ele>343.0</ele><time>2026-04-04T09:30:41.519Z</time></trkpt><trkpt lat="44.6456011" lon="8.5154025"><ele>343.0</ele><time>2026-04-04T09:30:42.517Z</time></trkpt><trkpt lat="44.6454951" lon="8.5155693"><ele>343.0</ele><time>2026-04-04T09:30:43.518Z</time></trkpt><trkpt lat="44.6453937" lon="8.5157423"><ele>345.25</ele><time>2026-04-04T09:30:44.517Z</time></trkpt><trkpt lat="44.6453062" lon="8.5159119"><ele>347.5</ele><time>2026-04-04T09:30:45.513Z</time></trkpt><trkpt lat="44.6452289" lon="8.5160719"><ele>349.75</ele><time>2026-04-04T09:30:46.509Z</time></trkpt><trkpt lat="44.6451546" lon="8.5162226"><ele>352.0</ele><time>2026-04-04T09:30:47.521Z</time></trkpt><trkpt lat="44.6450795" lon="8.5163687"><ele>352.0</ele><time>2026-04-04T09:30:48.523Z</time></trkpt><trkpt lat="44.6450025" lon="8.5165171"><ele>352.0</ele><time>2026-04-04T09:30:49.505Z</time></trkpt><trkpt lat="44.6449211" lon="8.5166706"><ele>352.0</ele><time>2026-04-04T09:30:50.513Z</time></trkpt><trkpt lat="44.6448401" lon="8.5168199"><ele>352.0</ele><time>2026-04-04T09:30:51.521Z</time></trkpt><trkpt lat="44.6447609" lon="8.5169536"><ele>352.0</ele><time>2026-04-04T09:30:52.51Z</time></trkpt><trkpt lat="44.6446798" lon="8.517068"><ele>352.0</ele><time>2026-04-04T09:30:53.503Z</time></trkpt><trkpt lat="44.6445951" lon="8.5171618"><ele>352.0</ele><time>2026-04-04T09:30:54.508Z</time></trkpt><trkpt lat="44.6445073" lon="8.517233"><ele>352.0</ele><time>2026-04-04T09:30:55.513Z</time></trkpt><trkpt lat="44.6444155" lon="8.5172861"><ele>352.0</ele><time>2026-04-04T09:30:56.507Z</time></trkpt><trkpt lat="44.644322" lon="8.5173212"><ele>350.0</ele><time>2026-04-04T09:30:57.512Z</time></trkpt><trkpt lat="44.6442341" lon="8.5173374"><ele>348.0</ele><time>2026-04-04T09:30:58.51Z</time></trkpt><trkpt lat="44.6440794" lon="8.5173976"><ele>346.0</ele><time>2026-04-04T09:31:00.519Z</time></trkpt><trkpt lat="44.6440192" lon="8.5174718"><ele>344.0</ele><time>2026-04-04T09:31:01.517Z</time></trkpt><trkpt lat="44.6439611" lon="8.5175533"><ele>342.0</ele><time>2026-04-04T09:31:02.506Z</time></trkpt><trkpt lat="44.6438869" lon="8.5176158"><ele>342.0</ele><time>2026-04-04T09:31:03.516Z</time></trkpt><trkpt lat="44.6437885" lon="8.5176377"><ele>342.0</ele><time>2026-04-04T09:31:04.511Z</time></trkpt><trkpt lat="44.6436732" lon="8.517624"><ele>342.0</ele><time>2026-04-04T09:31:05.51Z</time></trkpt><trkpt lat="44.6435557" lon="8.5176033"><ele>342.0</ele><time>2026-04-04T09:31:06.527Z</time></trkpt><trkpt lat="44.6434395" lon="8.5175906"><ele>341.75</ele><time>2026-04-04T09:31:07.515Z</time></trkpt><trkpt lat="44.643325" lon="8.5176242"><ele>341.5</ele><time>2026-04-04T09:31:08.509Z</time></trkpt><trkpt lat="44.6432142" lon="8.5177318"><ele>341.25</ele><time>2026-04-04T09:31:09.509Z</time></trkpt><trkpt lat="44.6430976" lon="8.5178489"><ele>341.0</ele><time>2026-04-04T09:31:10.509Z</time></trkpt><trkpt lat="44.6429741" lon="8.5179599"><ele>341.0</ele><time>2026-04-04T09:31:11.514Z</time></trkpt><trkpt lat="44.6428507" lon="8.518059"><ele>341.0</ele><time>2026-04-04T09:31:12.508Z</time></trkpt><trkpt lat="44.6427342" lon="8.5181408"><ele>341.0</ele><time>2026-04-04T09:31:13.511Z</time></trkpt><trkpt lat="44.642622" lon="8.5182141"><ele>341.0</ele><time>2026-04-04T09:31:14.508Z</time></trkpt><trkpt lat="44.6425139" lon="8.5182825"><ele>341.0</ele><time>2026-04-04T09:31:15.509Z</time></trkpt><trkpt lat="44.6424137" lon="8.5183427"><ele>341.0</ele><time>2026-04-04T09:31:16.509Z</time></trkpt><trkpt lat="44.6423177" lon="8.518391"><ele>341.0</ele><time>2026-04-04T09:31:17.508Z</time></trkpt><trkpt lat="44.6422175" lon="8.5184243"><ele>341.0</ele><time>2026-04-04T09:31:18.505Z</time></trkpt><trkpt lat="44.6421091" lon="8.5184479"><ele>341.0</ele><time>2026-04-04T09:31:19.507Z</time></trkpt><trkpt lat="44.6418861" lon="8.5184829"><ele>338.75</ele><time>2026-04-04T09:31:21.511Z</time></trkpt><trkpt lat="44.6417792" lon="8.5185008"><ele>336.5</ele><time>2026-04-04T09:31:22.51Z</time></trkpt><trkpt lat="44.6416675" lon="8.5185391"><ele>334.25</ele><time>2026-04-04T09:31:23.51Z</time></trkpt><trkpt lat="44.641553" lon="8.5186007"><ele>332.0</ele><time>2026-04-04T09:31:24.507Z</time></trkpt><trkpt lat="44.6414471" lon="8.5186728"><ele>333.20000000000005</ele><time>2026-04-04T09:31:25.51Z</time></trkpt><trkpt lat="44.6413542" lon="8.5187523"><ele>334.4</ele><time>2026-04-04T09:31:26.508Z</time></trkpt><trkpt lat="44.6412669" lon="8.5188282"><ele>335.6</ele><time>2026-04-04T09:31:27.505Z</time></trkpt><trkpt lat="44.64118" lon="8.5189097"><ele>336.79999999999995</ele><time>2026-04-04T09:31:28.508Z</time></trkpt><trkpt lat="44.6410963" lon="8.5190016"><ele>338.0</ele><time>2026-04-04T09:31:29.506Z</time></trkpt><trkpt lat="44.6410179" lon="8.5190981"><ele>338.0</ele><time>2026-04-04T09:31:30.506Z</time></trkpt><trkpt lat="44.6409415" lon="8.5191937"><ele>338.0</ele><time>2026-04-04T09:31:31.513Z</time></trkpt><trkpt lat="44.6408581" lon="8.51928"><ele>338.0</ele><time>2026-04-04T09:31:32.51Z</time></trkpt><trkpt lat="44.6407625" lon="8.5193556"><ele>338.0</ele><time>2026-04-04T09:31:33.511Z</time></trkpt><trkpt lat="44.640655" lon="8.519418"><ele>338.0</ele><time>2026-04-04T09:31:34.512Z</time></trkpt><trkpt lat="44.640541" lon="8.5194729"><ele>338.0</ele><time>2026-04-04T09:31:35.503Z</time></trkpt><trkpt lat="44.6404277" lon="8.5195271"><ele>338.0</ele><time>2026-04-04T09:31:36.518Z</time></trkpt><trkpt lat="44.6403202" lon="8.5195806"><ele>338.0</ele><time>2026-04-04T09:31:37.511Z</time></trkpt><trkpt lat="44.6402169" lon="8.519637"><ele>338.0</ele><time>2026-04-04T09:31:38.51Z</time></trkpt><trkpt lat="44.6401169" lon="8.5196943"><ele>336.5</ele><time>2026-04-04T09:31:39.509Z</time></trkpt><trkpt lat="44.6400172" lon="8.5197509"><ele>335.0</ele><time>2026-04-04T09:31:40.51Z</time></trkpt><trkpt lat="44.6398119" lon="8.5198516"><ele>333.5</ele><time>2026-04-04T09:31:42.514Z</time></trkpt><trkpt lat="44.6397081" lon="8.5198991"><ele>332.0</ele><time>2026-04-04T09:31:43.509Z</time></trkpt><trkpt lat="44.6395994" lon="8.5199524"><ele>332.0</ele><time>2026-04-04T09:31:44.517Z</time></trkpt><trkpt lat="44.6394892" lon="8.5200109"><ele>332.0</ele><time>2026-04-04T09:31:45.509Z</time></trkpt><trkpt lat="44.6393861" lon="8.520071"><ele>332.0</ele><time>2026-04-04T09:31:46.518Z</time></trkpt><trkpt lat="44.6393016" lon="8.5201241"><ele>332.0</ele><time>2026-04-04T09:31:47.517Z</time></trkpt><trkpt lat="44.6392354" lon="8.5201758"><ele>332.0</ele><time>2026-04-04T09:31:48.513Z</time></trkpt><trkpt lat="44.6391784" lon="8.5202254"><ele>332.1666666666667</ele><time>2026-04-04T09:31:49.513Z</time></trkpt><trkpt lat="44.6391263" lon="8.5202764"><ele>332.33333333333337</ele><time>2026-04-04T09:31:50.515Z</time></trkpt><trkpt lat="44.639071" lon="8.5203321"><ele>332.5</ele><time>2026-04-04T09:31:51.512Z</time></trkpt><trkpt lat="44.6390133" lon="8.5203911"><ele>332.6666666666667</ele><time>2026-04-04T09:31:52.513Z</time></trkpt><trkpt lat="44.6389586" lon="8.5204503"><ele>332.8333333333333</ele><time>2026-04-04T09:31:53.52Z</time></trkpt><trkpt lat="44.6388608" lon="8.5205508"><ele>333.0</ele><time>2026-04-04T09:31:55.507Z</time></trkpt><trkpt lat="44.6387629" lon="8.520647"><ele>332.4</ele><time>2026-04-04T09:31:57.513Z</time></trkpt><trkpt lat="44.6387076" lon="8.5207064"><ele>331.79999999999995</ele><time>2026-04-04T09:31:58.508Z</time></trkpt><trkpt lat="44.6386533" lon="8.5207698"><ele>331.2</ele><time>2026-04-04T09:31:59.518Z</time></trkpt><trkpt lat="44.6386017" lon="8.5208382"><ele>330.6</ele><time>2026-04-04T09:32:00.516Z</time></trkpt><trkpt lat="44.6385514" lon="8.5209101"><ele>330.0</ele><time>2026-04-04T09:32:01.51Z</time></trkpt><trkpt lat="44.6384252" lon="8.5210769"><ele>330.0</ele><time>2026-04-04T09:32:03.514Z</time></trkpt><trkpt lat="44.6383502" lon="8.5211549"><ele>330.0</ele><time>2026-04-04T09:32:04.51Z</time></trkpt><trkpt lat="44.6382663" lon="8.5212289"><ele>330.0</ele><time>2026-04-04T09:32:05.509Z</time></trkpt><trkpt lat="44.6381755" lon="8.5213007"><ele>330.0</ele><time>2026-04-04T09:32:06.527Z</time></trkpt><trkpt lat="44.6380831" lon="8.52137"><ele>330.0</ele><time>2026-04-04T09:32:07.511Z</time></trkpt><trkpt lat="44.6379861" lon="8.5214369"><ele>330.4</ele><time>2026-04-04T09:32:08.524Z</time></trkpt><trkpt lat="44.637889" lon="8.5214962"><ele>330.8</ele><time>2026-04-04T09:32:09.515Z</time></trkpt><trkpt lat="44.6377937" lon="8.5215553"><ele>331.20000000000005</ele><time>2026-04-04T09:32:10.516Z</time></trkpt><trkpt lat="44.6376979" lon="8.5216138"><ele>331.6</ele><time>2026-04-04T09:32:11.511Z</time></trkpt><trkpt lat="44.6375938" lon="8.5216771"><ele>332.0</ele><time>2026-04-04T09:32:12.515Z</time></trkpt><trkpt lat="44.637484" lon="8.5217435"><ele>332.0</ele><time>2026-04-04T09:32:13.512Z</time></trkpt><trkpt lat="44.6373804" lon="8.5218027"><ele>332.0</ele><time>2026-04-04T09:32:14.514Z</time></trkpt><trkpt lat="44.6372873" lon="8.5218672"><ele>332.0</ele><time>2026-04-04T09:32:15.516Z</time></trkpt><trkpt lat="44.637191" lon="8.5219547"><ele>332.0</ele><time>2026-04-04T09:32:16.509Z</time></trkpt><trkpt lat="44.6370942" lon="8.5220568"><ele>334.20000000000005</ele><time>2026-04-04T09:32:17.513Z</time></trkpt><trkpt lat="44.6370017" lon="8.5221548"><ele>336.4</ele><time>2026-04-04T09:32:18.508Z</time></trkpt><trkpt lat="44.6369118" lon="8.5222382"><ele>338.6</ele><time>2026-04-04T09:32:19.508Z</time></trkpt><trkpt lat="44.6368221" lon="8.5223057"><ele>340.79999999999995</ele><time>2026-04-04T09:32:20.515Z</time></trkpt><trkpt lat="44.6367333" lon="8.5223544"><ele>343.0</ele><time>2026-04-04T09:32:21.516Z</time></trkpt><trkpt lat="44.6366446" lon="8.5223793"><ele>343.0</ele><time>2026-04-04T09:32:22.507Z</time></trkpt><trkpt lat="44.6364436" lon="8.5223379"><ele>343.0</ele><time>2026-04-04T09:32:24.506Z</time></trkpt><trkpt lat="44.6363357" lon="8.5222959"><ele>343.0</ele><time>2026-04-04T09:32:25.508Z</time></trkpt><trkpt lat="44.6362203" lon="8.5222676"><ele>343.0</ele><time>2026-04-04T09:32:26.504Z</time></trkpt><trkpt lat="44.6360966" lon="8.5222446"><ele>343.25</ele><time>2026-04-04T09:32:27.512Z</time></trkpt><trkpt lat="44.6359659" lon="8.5222166"><ele>343.5</ele><time>2026-04-04T09:32:28.509Z</time></trkpt><trkpt lat="44.6358473" lon="8.5221831"><ele>343.75</ele><time>2026-04-04T09:32:29.514Z</time></trkpt><trkpt lat="44.6357447" lon="8.522148"><ele>344.0</ele><time>2026-04-04T09:32:30.506Z</time></trkpt><trkpt lat="44.6356434" lon="8.5221105"><ele>344.0</ele><time>2026-04-04T09:32:31.52Z</time></trkpt><trkpt lat="44.6355506" lon="8.5220744"><ele>344.0</ele><time>2026-04-04T09:32:32.511Z</time></trkpt><trkpt lat="44.6354673" lon="8.5220223"><ele>344.0</ele><time>2026-04-04T09:32:33.513Z</time></trkpt><trkpt lat="44.6353938" lon="8.5219574"><ele>344.0</ele><time>2026-04-04T09:32:34.509Z</time></trkpt><trkpt lat="44.6353137" lon="8.5219268"><ele>344.0</ele><time>2026-04-04T09:32:35.511Z</time></trkpt><trkpt lat="44.635246" lon="8.5219354"><ele>344.0</ele><time>2026-04-04T09:32:36.515Z</time></trkpt><trkpt lat="44.635181" lon="8.5219853"><ele>343.79999999999995</ele><time>2026-04-04T09:32:37.506Z</time></trkpt><trkpt lat="44.6351238" lon="8.5220998"><ele>343.59999999999997</ele><time>2026-04-04T09:32:38.515Z</time></trkpt><trkpt lat="44.6350863" lon="8.5222288"><ele>343.4</ele><time>2026-04-04T09:32:39.51Z</time></trkpt><trkpt lat="44.6350719" lon="8.5223849"><ele>343.2</ele><time>2026-04-04T09:32:40.51Z</time></trkpt><trkpt lat="44.6350699" lon="8.5225381"><ele>343.0</ele><time>2026-04-04T09:32:41.506Z</time></trkpt><trkpt lat="44.6350739" lon="8.5226857"><ele>343.0</ele><time>2026-04-04T09:32:42.506Z</time></trkpt><trkpt lat="44.6350702" lon="8.5228368"><ele>343.0</ele><time>2026-04-04T09:32:43.506Z</time></trkpt><trkpt lat="44.6350259" lon="8.5231335"><ele>343.0</ele><time>2026-04-04T09:32:45.513Z</time></trkpt><trkpt lat="44.6349748" lon="8.5232832"><ele>343.0</ele><time>2026-04-04T09:32:46.512Z</time></trkpt><trkpt lat="44.6349107" lon="8.5234119"><ele>344.2</ele><time>2026-04-04T09:32:47.507Z</time></trkpt><trkpt lat="44.6348524" lon="8.5235269"><ele>345.4</ele><time>2026-04-04T09:32:48.514Z</time></trkpt><trkpt lat="44.6347975" lon="8.5236387"><ele>346.59999999999997</ele><time>2026-04-04T09:32:49.513Z</time></trkpt><trkpt lat="44.6347412" lon="8.5237404"><ele>347.79999999999995</ele><time>2026-04-04T09:32:50.512Z</time></trkpt><trkpt lat="44.6346732" lon="8.523821"><ele>349.0</ele><time>2026-04-04T09:32:51.507Z</time></trkpt><trkpt lat="44.6345811" lon="8.5238765"><ele>350.2</ele><time>2026-04-04T09:32:52.516Z</time></trkpt><trkpt lat="44.6344812" lon="8.5239216"><ele>351.4</ele><time>2026-04-04T09:32:53.504Z</time></trkpt><trkpt lat="44.6343723" lon="8.5239358"><ele>352.6</ele><time>2026-04-04T09:32:54.509Z</time></trkpt><trkpt lat="44.6342658" lon="8.5239422"><ele>353.8</ele><time>2026-04-04T09:32:55.51Z</time></trkpt><trkpt lat="44.6341585" lon="8.523924"><ele>355.0</ele><time>2026-04-04T09:32:56.508Z</time></trkpt><trkpt lat="44.6340501" lon="8.5238858"><ele>355.0</ele><time>2026-04-04T09:32:57.504Z</time></trkpt><trkpt lat="44.6339497" lon="8.5238277"><ele>355.0</ele><time>2026-04-04T09:32:58.502Z</time></trkpt><trkpt lat="44.6338502" lon="8.5237622"><ele>355.0</ele><time>2026-04-04T09:32:59.508Z</time></trkpt><trkpt lat="44.6337486" lon="8.5236964"><ele>355.0</ele><time>2026-04-04T09:33:00.506Z</time></trkpt><trkpt lat="44.6336396" lon="8.5236558"><ele>355.0</ele><time>2026-04-04T09:33:01.502Z</time></trkpt><trkpt lat="44.6335358" lon="8.5236383"><ele>356.25</ele><time>2026-04-04T09:33:02.507Z</time></trkpt><trkpt lat="44.6334397" lon="8.5236492"><ele>357.5</ele><time>2026-04-04T09:33:03.508Z</time></trkpt><trkpt lat="44.6333497" lon="8.5236796"><ele>358.75</ele><time>2026-04-04T09:33:04.506Z</time></trkpt><trkpt lat="44.633156" lon="8.523748"><ele>360.0</ele><time>2026-04-04T09:33:06.513Z</time></trkpt><trkpt lat="44.6330522" lon="8.5237489"><ele>357.6</ele><time>2026-04-04T09:33:07.514Z</time></trkpt><trkpt lat="44.6329522" lon="8.5237285"><ele>355.2</ele><time>2026-04-04T09:33:08.509Z</time></trkpt><trkpt lat="44.6328634" lon="8.523702"><ele>352.79999999999995</ele><time>2026-04-04T09:33:09.514Z</time></trkpt><trkpt lat="44.6327796" lon="8.5236809"><ele>350.4</ele><time>2026-04-04T09:33:10.508Z</time></trkpt><trkpt lat="44.6326891" lon="8.5236762"><ele>348.0</ele><time>2026-04-04T09:33:11.521Z</time></trkpt><trkpt lat="44.632593" lon="8.5236886"><ele>348.4</ele><time>2026-04-04T09:33:12.512Z</time></trkpt><trkpt lat="44.6324956" lon="8.5237153"><ele>348.79999999999995</ele><time>2026-04-04T09:33:13.502Z</time></trkpt><trkpt lat="44.6324048" lon="8.5237771"><ele>349.2</ele><time>2026-04-04T09:33:14.512Z</time></trkpt><trkpt lat="44.6323064" lon="8.5238559"><ele>349.6</ele><time>2026-04-04T09:33:15.515Z</time></trkpt><trkpt lat="44.632201" lon="8.5239293"><ele>350.0</ele><time>2026-04-04T09:33:16.516Z</time></trkpt><trkpt lat="44.6320987" lon="8.5239888"><ele>350.0</ele><time>2026-04-04T09:33:17.517Z</time></trkpt><trkpt lat="44.6320001" lon="8.524038"><ele>350.0</ele><time>2026-04-04T09:33:18.51Z</time></trkpt><trkpt lat="44.6319" lon="8.5240839"><ele>350.0</ele><time>2026-04-04T09:33:19.51Z</time></trkpt><trkpt lat="44.6317994" lon="8.5241295"><ele>350.0</ele><time>2026-04-04T09:33:20.514Z</time></trkpt><trkpt lat="44.6316982" lon="8.5241744"><ele>350.0</ele><time>2026-04-04T09:33:21.509Z</time></trkpt><trkpt lat="44.6315944" lon="8.524219"><ele>348.25</ele><time>2026-04-04T09:33:22.515Z</time></trkpt><trkpt lat="44.6314867" lon="8.5242449"><ele>346.5</ele><time>2026-04-04T09:33:23.509Z</time></trkpt><trkpt lat="44.6313729" lon="8.5242654"><ele>344.75</ele><time>2026-04-04T09:33:24.511Z</time></trkpt><trkpt lat="44.6312567" lon="8.5242877"><ele>343.0</ele><time>2026-04-04T09:33:25.515Z</time></trkpt><trkpt lat="44.6310201" lon="8.5243613"><ele>342.59999999999997</ele><time>2026-04-04T09:33:27.506Z</time></trkpt><trkpt lat="44.6309091" lon="8.5244032"><ele>342.2</ele><time>2026-04-04T09:33:28.511Z</time></trkpt><trkpt lat="44.6308031" lon="8.5244343"><ele>341.8</ele><time>2026-04-04T09:33:29.506Z</time></trkpt><trkpt lat="44.6306939" lon="8.5244534"><ele>341.4</ele><time>2026-04-04T09:33:30.512Z</time></trkpt><trkpt lat="44.6305823" lon="8.524462"><ele>341.0</ele><time>2026-04-04T09:33:31.512Z</time></trkpt><trkpt lat="44.630465" lon="8.524466"><ele>341.0</ele><time>2026-04-04T09:33:32.525Z</time></trkpt><trkpt lat="44.6303503" lon="8.5244691"><ele>341.0</ele><time>2026-04-04T09:33:33.512Z</time></trkpt><trkpt lat="44.6302439" lon="8.5244736"><ele>341.0</ele><time>2026-04-04T09:33:34.51Z</time></trkpt><trkpt lat="44.6301443" lon="8.5244795"><ele>341.0</ele><time>2026-04-04T09:33:35.516Z</time></trkpt><trkpt lat="44.6300439" lon="8.5244877"><ele>341.0</ele><time>2026-04-04T09:33:36.514Z</time></trkpt><trkpt lat="44.6299374" lon="8.5244931"><ele>341.4</ele><time>2026-04-04T09:33:37.512Z</time></trkpt><trkpt lat="44.6298271" lon="8.5244937"><ele>341.8</ele><time>2026-04-04T09:33:38.513Z</time></trkpt><trkpt lat="44.6297171" lon="8.5245004"><ele>342.2</ele><time>2026-04-04T09:33:39.516Z</time></trkpt><trkpt lat="44.6296084" lon="8.524525"><ele>342.59999999999997</ele><time>2026-04-04T09:33:40.512Z</time></trkpt><trkpt lat="44.6295008" lon="8.5245612"><ele>343.0</ele><time>2026-04-04T09:33:41.509Z</time></trkpt><trkpt lat="44.6294087" lon="8.5246289"><ele>343.0</ele><time>2026-04-04T09:33:42.51Z</time></trkpt><trkpt lat="44.6293227" lon="8.5247145"><ele>343.0</ele><time>2026-04-04T09:33:43.514Z</time></trkpt><trkpt lat="44.6292412" lon="8.5248171"><ele>343.0</ele><time>2026-04-04T09:33:44.512Z</time></trkpt><trkpt lat="44.629166" lon="8.5249256"><ele>343.0</ele><time>2026-04-04T09:33:45.505Z</time></trkpt><trkpt lat="44.6290962" lon="8.5250292"><ele>343.0</ele><time>2026-04-04T09:33:46.512Z</time></trkpt><trkpt lat="44.6289408" lon="8.5252216"><ele>343.0</ele><time>2026-04-04T09:33:48.513Z</time></trkpt><trkpt lat="44.6288437" lon="8.5253114"><ele>343.0</ele><time>2026-04-04T09:33:49.52Z</time></trkpt><trkpt lat="44.6287359" lon="8.5253937"><ele>343.0</ele><time>2026-04-04T09:33:50.508Z</time></trkpt><trkpt lat="44.6286305" lon="8.5254564"><ele>343.0</ele><time>2026-04-04T09:33:51.511Z</time></trkpt><trkpt lat="44.6285356" lon="8.525501"><ele>345.66666666666663</ele><time>2026-04-04T09:33:52.519Z</time></trkpt><trkpt lat="44.6284454" lon="8.5255315"><ele>348.3333333333333</ele><time>2026-04-04T09:33:53.515Z</time></trkpt><trkpt lat="44.6283642" lon="8.5255561"><ele>351.0</ele><time>2026-04-04T09:33:54.517Z</time></trkpt><trkpt lat="44.6282914" lon="8.5255804"><ele>353.6666666666667</ele><time>2026-04-04T09:33:55.513Z</time></trkpt><trkpt lat="44.6282264" lon="8.5256145"><ele>356.33333333333337</ele><time>2026-04-04T09:33:56.508Z</time></trkpt><trkpt lat="44.6281662" lon="8.5257424"><ele>359.0</ele><time>2026-04-04T09:33:58.514Z</time></trkpt><trkpt lat="44.6281688" lon="8.5258338"><ele>359.0</ele><time>2026-04-04T09:33:59.514Z</time></trkpt><trkpt lat="44.6281984" lon="8.5259258"><ele>359.0</ele><time>2026-04-04T09:34:00.513Z</time></trkpt><trkpt lat="44.6282494" lon="8.5260085"><ele>359.0</ele><time>2026-04-04T09:34:01.513Z</time></trkpt><trkpt lat="44.6283117" lon="8.5260711"><ele>359.0</ele><time>2026-04-04T09:34:02.521Z</time></trkpt><trkpt lat="44.6283616" lon="8.5261478"><ele>359.0</ele><time>2026-04-04T09:34:03.517Z</time></trkpt><trkpt lat="44.6284005" lon="8.5262489"><ele>359.0</ele><time>2026-04-04T09:34:04.515Z</time></trkpt><trkpt lat="44.6284377" lon="8.5263613"><ele>359.25</ele><time>2026-04-04T09:34:05.513Z</time></trkpt><trkpt lat="44.6284492" lon="8.526485"><ele>359.5</ele><time>2026-04-04T09:34:06.509Z</time></trkpt><trkpt lat="44.62845" lon="8.5266031"><ele>359.75</ele><time>2026-04-04T09:34:07.508Z</time></trkpt><trkpt lat="44.6283898" lon="8.5268317"><ele>360.0</ele><time>2026-04-04T09:34:09.51Z</time></trkpt><trkpt lat="44.6283334" lon="8.5269604"><ele>359.8</ele><time>2026-04-04T09:34:10.511Z</time></trkpt><trkpt lat="44.6282656" lon="8.5270937"><ele>359.6</ele><time>2026-04-04T09:34:11.52Z</time></trkpt><trkpt lat="44.6282007" lon="8.5272131"><ele>359.4</ele><time>2026-04-04T09:34:12.505Z</time></trkpt><trkpt lat="44.6281415" lon="8.5273218"><ele>359.2</ele><time>2026-04-04T09:34:13.517Z</time></trkpt><trkpt lat="44.6280737" lon="8.527407"><ele>359.0</ele><time>2026-04-04T09:34:14.513Z</time></trkpt><trkpt lat="44.6279949" lon="8.527474"><ele>359.0</ele><time>2026-04-04T09:34:15.51Z</time></trkpt><trkpt lat="44.6278953" lon="8.5275446"><ele>359.0</ele><time>2026-04-04T09:34:16.514Z</time></trkpt><trkpt lat="44.6277685" lon="8.5276456"><ele>359.0</ele><time>2026-04-04T09:34:17.511Z</time></trkpt><trkpt lat="44.6276282" lon="8.5277887"><ele>359.0</ele><time>2026-04-04T09:34:18.509Z</time></trkpt><trkpt lat="44.6275042" lon="8.527935"><ele>354.6666666666667</ele><time>2026-04-04T09:34:19.514Z</time></trkpt><trkpt lat="44.6273836" lon="8.5280665"><ele>350.3333333333333</ele><time>2026-04-04T09:34:20.507Z</time></trkpt><trkpt lat="44.627239" lon="8.528177"><ele>346.0</ele><time>2026-04-04T09:34:21.516Z</time></trkpt><trkpt lat="44.6270846" lon="8.5282689"><ele>345.0</ele><time>2026-04-04T09:34:22.518Z</time></trkpt><trkpt lat="44.6269348" lon="8.528368"><ele>344.0</ele><time>2026-04-04T09:34:23.52Z</time></trkpt><trkpt lat="44.6267879" lon="8.5284698"><ele>343.0</ele><time>2026-04-04T09:34:24.507Z</time></trkpt><trkpt lat="44.6266192" lon="8.5285488"><ele>343.0</ele><time>2026-04-04T09:34:25.525Z</time></trkpt><trkpt lat="44.626438" lon="8.5286"><ele>343.0</ele><time>2026-04-04T09:34:26.516Z</time></trkpt><trkpt lat="44.6262688" lon="8.5286518"><ele>343.0</ele><time>2026-04-04T09:34:27.519Z</time></trkpt><trkpt lat="44.6261179" lon="8.5287087"><ele>342.66666666666663</ele><time>2026-04-04T09:34:28.53Z</time></trkpt><trkpt lat="44.6258459" lon="8.5287574"><ele>342.3333333333333</ele><time>2026-04-04T09:34:30.514Z</time></trkpt><trkpt lat="44.6257059" lon="8.528725"><ele>342.0</ele><time>2026-04-04T09:34:31.511Z</time></trkpt><trkpt lat="44.6255465" lon="8.5286824"><ele>342.0</ele><time>2026-04-04T09:34:32.516Z</time></trkpt><trkpt lat="44.6253732" lon="8.5286611"><ele>342.0</ele><time>2026-04-04T09:34:33.508Z</time></trkpt><trkpt lat="44.6251902" lon="8.5286493"><ele>342.0</ele><time>2026-04-04T09:34:34.513Z</time></trkpt><trkpt lat="44.6250319" lon="8.5286365"><ele>342.0</ele><time>2026-04-04T09:34:35.513Z</time></trkpt><trkpt lat="44.6248893" lon="8.528644"><ele>342.0</ele><time>2026-04-04T09:34:36.507Z</time></trkpt><trkpt lat="44.6247364" lon="8.5286882"><ele>342.0</ele><time>2026-04-04T09:34:37.514Z</time></trkpt><trkpt lat="44.6245667" lon="8.5287744"><ele>346.6666666666667</ele><time>2026-04-04T09:34:38.517Z</time></trkpt><trkpt lat="44.6244017" lon="8.528828"><ele>351.33333333333337</ele><time>2026-04-04T09:34:39.508Z</time></trkpt><trkpt lat="44.6242565" lon="8.528836"><ele>356.0</ele><time>2026-04-04T09:34:40.513Z</time></trkpt><trkpt lat="44.624122" lon="8.5288185"><ele>356.0</ele><time>2026-04-04T09:34:41.512Z</time></trkpt><trkpt lat="44.6239853" lon="8.5287856"><ele>356.0</ele><time>2026-04-04T09:34:42.517Z</time></trkpt><trkpt lat="44.6238518" lon="8.5287526"><ele>356.0</ele><time>2026-04-04T09:34:43.504Z</time></trkpt><trkpt lat="44.6237353" lon="8.5287357"><ele>356.0</ele><time>2026-04-04T09:34:44.511Z</time></trkpt><trkpt lat="44.6236178" lon="8.5287496"><ele>353.5</ele><time>2026-04-04T09:34:45.514Z</time></trkpt><trkpt lat="44.6234989" lon="8.5287631"><ele>351.0</ele><time>2026-04-04T09:34:46.513Z</time></trkpt><trkpt lat="44.6233786" lon="8.5287675"><ele>348.5</ele><time>2026-04-04T09:34:47.51Z</time></trkpt><trkpt lat="44.6232671" lon="8.5287755"><ele>346.0</ele><time>2026-04-04T09:34:48.51Z</time></trkpt><trkpt lat="44.6231663" lon="8.5287876"><ele>346.0</ele><time>2026-04-04T09:34:49.507Z</time></trkpt><trkpt lat="44.6230153" lon="8.5288449"><ele>346.0</ele><time>2026-04-04T09:34:51.515Z</time></trkpt><trkpt lat="44.6229242" lon="8.5288819"><ele>346.0</ele><time>2026-04-04T09:34:52.511Z</time></trkpt><trkpt lat="44.6228076" lon="8.5289198"><ele>346.0</ele><time>2026-04-04T09:34:53.508Z</time></trkpt><trkpt lat="44.6226779" lon="8.5289562"><ele>344.0</ele><time>2026-04-04T09:34:54.523Z</time></trkpt><trkpt lat="44.622543" lon="8.528989"><ele>342.0</ele><time>2026-04-04T09:34:55.515Z</time></trkpt><trkpt lat="44.6224065" lon="8.5290198"><ele>340.0</ele><time>2026-04-04T09:34:56.514Z</time></trkpt><trkpt lat="44.6222754" lon="8.5290555"><ele>338.0</ele><time>2026-04-04T09:34:57.512Z</time></trkpt><trkpt lat="44.6221464" lon="8.5290989"><ele>338.0</ele><time>2026-04-04T09:34:58.519Z</time></trkpt><trkpt lat="44.6220278" lon="8.5291356"><ele>338.0</ele><time>2026-04-04T09:34:59.524Z</time></trkpt><trkpt lat="44.6219172" lon="8.5291695"><ele>338.0</ele><time>2026-04-04T09:35:00.517Z</time></trkpt><trkpt lat="44.621807" lon="8.5292041"><ele>338.0</ele><time>2026-04-04T09:35:01.513Z</time></trkpt><trkpt lat="44.6217018" lon="8.5292445"><ele>337.59999999999997</ele><time>2026-04-04T09:35:02.518Z</time></trkpt><trkpt lat="44.6216085" lon="8.5292821"><ele>337.2</ele><time>2026-04-04T09:35:03.521Z</time></trkpt><trkpt lat="44.6215271" lon="8.5293013"><ele>336.8</ele><time>2026-04-04T09:35:04.512Z</time></trkpt><trkpt lat="44.6214347" lon="8.5292934"><ele>336.4</ele><time>2026-04-04T09:35:05.517Z</time></trkpt><trkpt lat="44.6213336" lon="8.5292573"><ele>336.0</ele><time>2026-04-04T09:35:06.515Z</time></trkpt><trkpt lat="44.6212265" lon="8.5292099"><ele>335.25</ele><time>2026-04-04T09:35:07.517Z</time></trkpt><trkpt lat="44.6211168" lon="8.5291611"><ele>334.5</ele><time>2026-04-04T09:35:08.52Z</time></trkpt><trkpt lat="44.6210057" lon="8.5291154"><ele>333.75</ele><time>2026-04-04T09:35:09.518Z</time></trkpt><trkpt lat="44.6209001" lon="8.529067"><ele>333.0</ele><time>2026-04-04T09:35:10.512Z</time></trkpt><trkpt lat="44.6207016" lon="8.5289611"><ele>333.0</ele><time>2026-04-04T09:35:12.514Z</time></trkpt><trkpt lat="44.6206204" lon="8.5289194"><ele>333.0</ele><time>2026-04-04T09:35:13.511Z</time></trkpt><trkpt lat="44.6205581" lon="8.5288987"><ele>333.0</ele><time>2026-04-04T09:35:14.51Z</time></trkpt><trkpt lat="44.620463" lon="8.5289321"><ele>333.0</ele><time>2026-04-04T09:35:16.513Z</time></trkpt><trkpt lat="44.6203618" lon="8.528994"><ele>333.0</ele><time>2026-04-04T09:35:18.519Z</time></trkpt><trkpt lat="44.6202954" lon="8.5290142"><ele>333.0</ele><time>2026-04-04T09:35:19.521Z</time></trkpt><trkpt lat="44.6202122" lon="8.5290288"><ele>332.2</ele><time>2026-04-04T09:35:20.518Z</time></trkpt><trkpt lat="44.6201156" lon="8.5290401"><ele>331.4</ele><time>2026-04-04T09:35:21.509Z</time></trkpt><trkpt lat="44.6200154" lon="8.529053"><ele>330.59999999999997</ele><time>2026-04-04T09:35:22.505Z</time></trkpt><trkpt lat="44.6199231" lon="8.5290652"><ele>329.79999999999995</ele><time>2026-04-04T09:35:23.51Z</time></trkpt><trkpt lat="44.6198335" lon="8.5290741"><ele>329.0</ele><time>2026-04-04T09:35:24.51Z</time></trkpt><trkpt lat="44.6197407" lon="8.5290774"><ele>329.0</ele><time>2026-04-04T09:35:25.509Z</time></trkpt><trkpt lat="44.6196468" lon="8.5291186"><ele>329.0</ele><time>2026-04-04T09:35:26.514Z</time></trkpt><trkpt lat="44.6195687" lon="8.5291821"><ele>329.0</ele><time>2026-04-04T09:35:27.511Z</time></trkpt><trkpt lat="44.6195066" lon="8.5292387"><ele>329.0</ele><time>2026-04-04T09:35:28.508Z</time></trkpt><trkpt lat="44.6194437" lon="8.5292916"><ele>329.0</ele><time>2026-04-04T09:35:29.516Z</time></trkpt><trkpt lat="44.6193656" lon="8.5292964"><ele>329.0</ele><time>2026-04-04T09:35:30.509Z</time></trkpt><trkpt lat="44.6192828" lon="8.5292758"><ele>330.25</ele><time>2026-04-04T09:35:31.51Z</time></trkpt><trkpt lat="44.6191115" lon="8.5291491"><ele>331.5</ele><time>2026-04-04T09:35:33.508Z</time></trkpt><trkpt lat="44.6190178" lon="8.5290956"><ele>332.75</ele><time>2026-04-04T09:35:34.512Z</time></trkpt><trkpt lat="44.6189216" lon="8.5290754"><ele>334.0</ele><time>2026-04-04T09:35:35.506Z</time></trkpt><trkpt lat="44.6188325" lon="8.5290608"><ele>334.0</ele><time>2026-04-04T09:35:36.514Z</time></trkpt><trkpt lat="44.618747" lon="8.5290462"><ele>334.0</ele><time>2026-04-04T09:35:37.515Z</time></trkpt><trkpt lat="44.6186769" lon="8.5290847"><ele>334.0</ele><time>2026-04-04T09:35:38.51Z</time></trkpt><trkpt lat="44.6186258" lon="8.5291594"><ele>334.0</ele><time>2026-04-04T09:35:39.511Z</time></trkpt><trkpt lat="44.6186054" lon="8.5292747"><ele>334.0</ele><time>2026-04-04T09:35:40.516Z</time></trkpt><trkpt lat="44.6186147" lon="8.5294296"><ele>334.0</ele><time>2026-04-04T09:35:41.507Z</time></trkpt><trkpt lat="44.6186464" lon="8.529596"><ele>330.25</ele><time>2026-04-04T09:35:42.508Z</time></trkpt><trkpt lat="44.6186867" lon="8.5297488"><ele>326.5</ele><time>2026-04-04T09:35:43.508Z</time></trkpt><trkpt lat="44.6187062" lon="8.5298956"><ele>322.75</ele><time>2026-04-04T09:35:44.505Z</time></trkpt><trkpt lat="44.6186964" lon="8.5300545"><ele>319.0</ele><time>2026-04-04T09:35:45.508Z</time></trkpt><trkpt lat="44.6186938" lon="8.5302202"><ele>319.0</ele><time>2026-04-04T09:35:46.515Z</time></trkpt><trkpt lat="44.6186818" lon="8.5303759"><ele>319.0</ele><time>2026-04-04T09:35:47.514Z</time></trkpt><trkpt lat="44.6186593" lon="8.530501"><ele>319.0</ele><time>2026-04-04T09:35:48.513Z</time></trkpt><trkpt lat="44.6186178" lon="8.530617"><ele>319.0</ele><time>2026-04-04T09:35:49.517Z</time></trkpt><trkpt lat="44.6185523" lon="8.5307276"><ele>319.0</ele><time>2026-04-04T09:35:50.519Z</time></trkpt><trkpt lat="44.6184807" lon="8.5308214"><ele>320.2</ele><time>2026-04-04T09:35:51.513Z</time></trkpt><trkpt lat="44.6184219" lon="8.5309115"><ele>321.4</ele><time>2026-04-04T09:35:52.511Z</time></trkpt><trkpt lat="44.6183422" lon="8.5311173"><ele>322.6</ele><time>2026-04-04T09:35:54.506Z</time></trkpt><trkpt lat="44.6183034" lon="8.531195"><ele>323.8</ele><time>2026-04-04T09:35:55.512Z</time></trkpt><trkpt lat="44.6182257" lon="8.5312788"><ele>325.0</ele><time>2026-04-04T09:35:57.51Z</time></trkpt><trkpt lat="44.6181072" lon="8.5313113"><ele>325.0</ele><time>2026-04-04T09:35:59.51Z</time></trkpt><trkpt lat="44.618039" lon="8.5314165"><ele>325.0</ele><time>2026-04-04T09:36:01.509Z</time></trkpt><trkpt lat="44.6179932" lon="8.5315164"><ele>325.0</ele><time>2026-04-04T09:36:02.515Z</time></trkpt><trkpt lat="44.6179313" lon="8.5316129"><ele>325.0</ele><time>2026-04-04T09:36:03.509Z</time></trkpt><trkpt lat="44.617865" lon="8.5316918"><ele>325.0</ele><time>2026-04-04T09:36:04.513Z</time></trkpt><trkpt lat="44.6177833" lon="8.5317277"><ele>327.0</ele><time>2026-04-04T09:36:05.508Z</time></trkpt><trkpt lat="44.6176758" lon="8.5317464"><ele>329.0</ele><time>2026-04-04T09:36:06.511Z</time></trkpt><trkpt lat="44.6175547" lon="8.5317594"><ele>331.0</ele><time>2026-04-04T09:36:07.507Z</time></trkpt><trkpt lat="44.6174291" lon="8.5317732"><ele>333.0</ele><time>2026-04-04T09:36:08.508Z</time></trkpt><trkpt lat="44.6173087" lon="8.5317909"><ele>333.0</ele><time>2026-04-04T09:36:09.509Z</time></trkpt><trkpt lat="44.6172132" lon="8.5317947"><ele>333.0</ele><time>2026-04-04T09:36:10.511Z</time></trkpt><trkpt lat="44.6171303" lon="8.5318318"><ele>333.0</ele><time>2026-04-04T09:36:11.513Z</time></trkpt><trkpt lat="44.6170345" lon="8.5318938"><ele>333.0</ele><time>2026-04-04T09:36:12.507Z</time></trkpt><trkpt lat="44.6169263" lon="8.5320004"><ele>333.0</ele><time>2026-04-04T09:36:13.505Z</time></trkpt><trkpt lat="44.6167345" lon="8.5322628"><ele>333.79999999999995</ele><time>2026-04-04T09:36:15.507Z</time></trkpt><trkpt lat="44.6166634" lon="8.5323914"><ele>334.6</ele><time>2026-04-04T09:36:16.513Z</time></trkpt><trkpt lat="44.6165886" lon="8.532508"><ele>335.4</ele><time>2026-04-04T09:36:17.507Z</time></trkpt><trkpt lat="44.6165181" lon="8.5326061"><ele>336.20000000000005</ele><time>2026-04-04T09:36:18.509Z</time></trkpt><trkpt lat="44.6164366" lon="8.5326923"><ele>337.0</ele><time>2026-04-04T09:36:20.506Z</time></trkpt><trkpt lat="44.6163386" lon="8.5327207"><ele>337.0</ele><time>2026-04-04T09:36:23.513Z</time></trkpt><trkpt lat="44.6162698" lon="8.532701"><ele>337.0</ele><time>2026-04-04T09:36:24.506Z</time></trkpt><trkpt lat="44.6161993" lon="8.5326942"><ele>337.0</ele><time>2026-04-04T09:36:25.507Z</time></trkpt><trkpt lat="44.6161249" lon="8.5327782"><ele>337.0</ele><time>2026-04-04T09:36:27.514Z</time></trkpt><trkpt lat="44.6161734" lon="8.5329159"><ele>337.0</ele><time>2026-04-04T09:36:29.51Z</time></trkpt><trkpt lat="44.6162752" lon="8.5330085"><ele>336.5</ele><time>2026-04-04T09:36:31.514Z</time></trkpt><trkpt lat="44.6163135" lon="8.5330803"><ele>336.0</ele><time>2026-04-04T09:36:32.508Z</time></trkpt><trkpt lat="44.6163439" lon="8.5331687"><ele>335.5</ele><time>2026-04-04T09:36:33.505Z</time></trkpt><trkpt lat="44.6163593" lon="8.5332659"><ele>335.0</ele><time>2026-04-04T09:36:34.514Z</time></trkpt><trkpt lat="44.6163648" lon="8.5334732"><ele>334.5</ele><time>2026-04-04T09:36:36.509Z</time></trkpt><trkpt lat="44.6163656" lon="8.5335794"><ele>334.0</ele><time>2026-04-04T09:36:37.505Z</time></trkpt><trkpt lat="44.6163682" lon="8.5336822"><ele>332.1428571428571</ele><time>2026-04-04T09:36:38.51Z</time></trkpt><trkpt lat="44.6163734" lon="8.5337816"><ele>330.2857142857143</ele><time>2026-04-04T09:36:39.513Z</time></trkpt><trkpt lat="44.6163782" lon="8.5338782"><ele>328.42857142857144</ele><time>2026-04-04T09:36:40.508Z</time></trkpt><trkpt lat="44.6163814" lon="8.5339747"><ele>326.57142857142856</ele><time>2026-04-04T09:36:41.509Z</time></trkpt><trkpt lat="44.6163784" lon="8.5340743"><ele>324.7142857142857</ele><time>2026-04-04T09:36:42.51Z</time></trkpt><trkpt lat="44.6163735" lon="8.5341765"><ele>322.85714285714283</ele><time>2026-04-04T09:36:43.508Z</time></trkpt><trkpt lat="44.616371" lon="8.5342749"><ele>321.0</ele><time>2026-04-04T09:36:44.51Z</time></trkpt><trkpt lat="44.6163688" lon="8.534369"><ele>321.0</ele><time>2026-04-04T09:36:45.51Z</time></trkpt><trkpt lat="44.6163766" lon="8.534461"><ele>321.0</ele><time>2026-04-04T09:36:46.509Z</time></trkpt><trkpt lat="44.6164" lon="8.5345433"><ele>321.0</ele><time>2026-04-04T09:36:47.506Z</time></trkpt><trkpt lat="44.6164808" lon="8.5346535"><ele>321.0</ele><time>2026-04-04T09:36:49.511Z</time></trkpt><trkpt lat="44.6166009" lon="8.534635"><ele>321.0</ele><time>2026-04-04T09:36:51.511Z</time></trkpt><trkpt lat="44.6166558" lon="8.5345841"><ele>321.0</ele><time>2026-04-04T09:36:52.506Z</time></trkpt><trkpt lat="44.6167558" lon="8.5345377"><ele>318.8</ele><time>2026-04-04T09:36:54.504Z</time></trkpt><trkpt lat="44.6168516" lon="8.534644"><ele>316.6</ele><time>2026-04-04T09:36:56.504Z</time></trkpt><trkpt lat="44.6169043" lon="8.534835"><ele>314.4</ele><time>2026-04-04T09:36:58.508Z</time></trkpt><trkpt lat="44.6169361" lon="8.5349402"><ele>312.2</ele><time>2026-04-04T09:36:59.512Z</time></trkpt><trkpt lat="44.6169724" lon="8.5350431"><ele>310.0</ele><time>2026-04-04T09:37:00.516Z</time></trkpt><trkpt lat="44.6169995" lon="8.5351474"><ele>307.8333333333333</ele><time>2026-04-04T09:37:01.514Z</time></trkpt><trkpt lat="44.6170085" lon="8.5352516"><ele>305.66666666666663</ele><time>2026-04-04T09:37:02.513Z</time></trkpt><trkpt lat="44.6170085" lon="8.5353601"><ele>303.5</ele><time>2026-04-04T09:37:03.509Z</time></trkpt><trkpt lat="44.6170086" lon="8.5354627"><ele>301.3333333333333</ele><time>2026-04-04T09:37:04.506Z</time></trkpt><trkpt lat="44.6170405" lon="8.535613"><ele>299.1666666666667</ele><time>2026-04-04T09:37:06.508Z</time></trkpt><trkpt lat="44.6170877" lon="8.5357501"><ele>297.0</ele><time>2026-04-04T09:37:08.509Z</time></trkpt><trkpt lat="44.6171107" lon="8.5358535"><ele>296.4</ele><time>2026-04-04T09:37:09.509Z</time></trkpt><trkpt lat="44.6171328" lon="8.5359647"><ele>295.79999999999995</ele><time>2026-04-04T09:37:10.514Z</time></trkpt><trkpt lat="44.6171477" lon="8.5360798"><ele>295.2</ele><time>2026-04-04T09:37:11.515Z</time></trkpt><trkpt lat="44.6171517" lon="8.5362066"><ele>294.59999999999997</ele><time>2026-04-04T09:37:12.509Z</time></trkpt><trkpt lat="44.6171432" lon="8.5363522"><ele>294.0</ele><time>2026-04-04T09:37:13.509Z</time></trkpt><trkpt lat="44.617129" lon="8.5364959"><ele>293.59999999999997</ele><time>2026-04-04T09:37:14.516Z</time></trkpt><trkpt lat="44.6171078" lon="8.5366238"><ele>293.2</ele><time>2026-04-04T09:37:15.518Z</time></trkpt><trkpt lat="44.6170804" lon="8.5367359"><ele>292.79999999999995</ele><time>2026-04-04T09:37:16.512Z</time></trkpt><trkpt lat="44.617048" lon="8.5368359"><ele>292.4</ele><time>2026-04-04T09:37:17.51Z</time></trkpt><trkpt lat="44.6169834" lon="8.5370005"><ele>292.0</ele><time>2026-04-04T09:37:19.513Z</time></trkpt><trkpt lat="44.6169331" lon="8.537128"><ele>292.0</ele><time>2026-04-04T09:37:21.509Z</time></trkpt><trkpt lat="44.6168851" lon="8.5372349"><ele>292.0</ele><time>2026-04-04T09:37:23.516Z</time></trkpt><trkpt lat="44.6168235" lon="8.5373028"><ele>292.0</ele><time>2026-04-04T09:37:25.504Z</time></trkpt><trkpt lat="44.6167286" lon="8.5373316"><ele>292.0</ele><time>2026-04-04T09:40:16.514Z</time></trkpt><trkpt lat="44.6165302" lon="8.5374232"><ele>292.0</ele><time>2026-04-04T09:40:20.515Z</time></trkpt><trkpt lat="44.6164337" lon="8.5374929"><ele>292.0</ele><time>2026-04-04T09:40:22.516Z</time></trkpt><trkpt lat="44.6163646" lon="8.5376232"><ele>292.0</ele><time>2026-04-04T09:40:24.514Z</time></trkpt><trkpt lat="44.6163036" lon="8.5377631"><ele>292.0</ele><time>2026-04-04T09:40:26.509Z</time></trkpt><trkpt lat="44.6162326" lon="8.5378934"><ele>291.3333333333333</ele><time>2026-04-04T09:40:28.505Z</time></trkpt><trkpt lat="44.6162392" lon="8.5380292"><ele>290.66666666666663</ele><time>2026-04-04T09:40:30.52Z</time></trkpt><trkpt lat="44.6163176" lon="8.5380823"><ele>290.0</ele><time>2026-04-04T09:40:32.519Z</time></trkpt><trkpt lat="44.616416" lon="8.5380814"><ele>289.3333333333333</ele><time>2026-04-04T09:40:34.515Z</time></trkpt><trkpt lat="44.61648" lon="8.5381019"><ele>288.6666666666667</ele><time>2026-04-04T09:40:35.524Z</time></trkpt><trkpt lat="44.6165535" lon="8.5381472"><ele>288.0</ele><time>2026-04-04T09:40:36.506Z</time></trkpt><trkpt lat="44.6166261" lon="8.5382145"><ele>288.0</ele><time>2026-04-04T09:40:37.513Z</time></trkpt><trkpt lat="44.6167052" lon="8.5384028"><ele>288.0</ele><time>2026-04-04T09:40:39.505Z</time></trkpt><trkpt lat="44.6167208" lon="8.5385"><ele>288.0</ele><time>2026-04-04T09:40:40.516Z</time></trkpt><trkpt lat="44.6167392" lon="8.5386053"><ele>288.0</ele><time>2026-04-04T09:40:41.516Z</time></trkpt><trkpt lat="44.6167794" lon="8.5387157"><ele>288.0</ele><time>2026-04-04T09:40:42.51Z</time></trkpt><trkpt lat="44.616832" lon="8.5388353"><ele>286.5</ele><time>2026-04-04T09:40:43.517Z</time></trkpt><trkpt lat="44.616888" lon="8.5389472"><ele>285.0</ele><time>2026-04-04T09:40:44.524Z</time></trkpt><trkpt lat="44.616932" lon="8.5390575"><ele>283.5</ele><time>2026-04-04T09:40:45.505Z</time></trkpt><trkpt lat="44.6169571" lon="8.5391743"><ele>282.0</ele><time>2026-04-04T09:40:46.507Z</time></trkpt><trkpt lat="44.6169699" lon="8.5392896"><ele>280.5</ele><time>2026-04-04T09:40:47.508Z</time></trkpt><trkpt lat="44.6169555" lon="8.5394064"><ele>279.0</ele><time>2026-04-04T09:40:48.519Z</time></trkpt><trkpt lat="44.6169253" lon="8.5395163"><ele>279.0</ele><time>2026-04-04T09:40:49.505Z</time></trkpt><trkpt lat="44.6168889" lon="8.5396246"><ele>279.0</ele><time>2026-04-04T09:40:50.508Z</time></trkpt><trkpt lat="44.6168425" lon="8.539712"><ele>279.0</ele><time>2026-04-04T09:40:51.507Z</time></trkpt><trkpt lat="44.616782" lon="8.5397822"><ele>279.0</ele><time>2026-04-04T09:40:52.512Z</time></trkpt><trkpt lat="44.6167188" lon="8.5398405"><ele>279.0</ele><time>2026-04-04T09:40:53.511Z</time></trkpt><trkpt lat="44.6166591" lon="8.5398832"><ele>279.0</ele><time>2026-04-04T09:40:54.508Z</time></trkpt><trkpt lat="44.6165252" lon="8.5398681"><ele>279.0</ele><time>2026-04-04T09:40:56.513Z</time></trkpt><trkpt lat="44.6164431" lon="8.5398392"><ele>279.0</ele><time>2026-04-04T09:40:57.512Z</time></trkpt><trkpt lat="44.6163542" lon="8.5397999"><ele>279.0</ele><time>2026-04-04T09:40:58.517Z</time></trkpt><trkpt lat="44.6161799" lon="8.5397166"><ele>279.0</ele><time>2026-04-04T09:41:00.523Z</time></trkpt><trkpt lat="44.6160984" lon="8.5396884"><ele>279.0</ele><time>2026-04-04T09:41:01.521Z</time></trkpt><trkpt lat="44.6160291" lon="8.5396856"><ele>276.6666666666667</ele><time>2026-04-04T09:41:02.517Z</time></trkpt><trkpt lat="44.6159324" lon="8.5397494"><ele>274.3333333333333</ele><time>2026-04-04T09:41:04.519Z</time></trkpt><trkpt lat="44.6158771" lon="8.5398436"><ele>272.0</ele><time>2026-04-04T09:41:06.526Z</time></trkpt><trkpt lat="44.6158566" lon="8.5399277"><ele>269.66666666666663</ele><time>2026-04-04T09:41:08.506Z</time></trkpt><trkpt lat="44.6158286" lon="8.5400201"><ele>267.3333333333333</ele><time>2026-04-04T09:41:10.509Z</time></trkpt><trkpt lat="44.6157862" lon="8.5401347"><ele>265.0</ele><time>2026-04-04T09:41:12.522Z</time></trkpt><trkpt lat="44.6157473" lon="8.5402614"><ele>265.0</ele><time>2026-04-04T09:41:14.514Z</time></trkpt><trkpt lat="44.6157052" lon="8.540366"><ele>265.0</ele><time>2026-04-04T09:41:16.517Z</time></trkpt><trkpt lat="44.615667" lon="8.5404467"><ele>265.0</ele><time>2026-04-04T09:41:18.524Z</time></trkpt><trkpt lat="44.6156212" lon="8.5405632"><ele>265.0</ele><time>2026-04-04T09:41:41.512Z</time></trkpt><trkpt lat="44.6155308" lon="8.5408206"><ele>265.5</ele><time>2026-04-04T09:41:44.518Z</time></trkpt><trkpt lat="44.615496" lon="8.5409211"><ele>266.0</ele><time>2026-04-04T09:41:45.514Z</time></trkpt><trkpt lat="44.6154477" lon="8.5410216"><ele>266.5</ele><time>2026-04-04T09:41:46.522Z</time></trkpt><trkpt lat="44.6153946" lon="8.5411087"><ele>267.0</ele><time>2026-04-04T09:41:47.523Z</time></trkpt><trkpt lat="44.6153353" lon="8.5411885"><ele>267.5</ele><time>2026-04-04T09:41:48.516Z</time></trkpt><trkpt lat="44.6152787" lon="8.541275"><ele>268.0</ele><time>2026-04-04T09:41:49.523Z</time></trkpt><trkpt lat="44.6152337" lon="8.5413716"><ele>266.0</ele><time>2026-04-04T09:41:50.532Z</time></trkpt><trkpt lat="44.6152048" lon="8.5414764"><ele>264.0</ele><time>2026-04-04T09:41:51.515Z</time></trkpt><trkpt lat="44.6151883" lon="8.5415958"><ele>262.0</ele><time>2026-04-04T09:41:52.516Z</time></trkpt><trkpt lat="44.6151793" lon="8.5417303"><ele>260.0</ele><time>2026-04-04T09:41:53.519Z</time></trkpt><trkpt lat="44.615165" lon="8.5418698"><ele>258.0</ele><time>2026-04-04T09:41:54.505Z</time></trkpt><trkpt lat="44.6151349" lon="8.5419956"><ele>259.4</ele><time>2026-04-04T09:41:55.517Z</time></trkpt><trkpt lat="44.6150848" lon="8.5420986"><ele>260.8</ele><time>2026-04-04T09:41:56.52Z</time></trkpt><trkpt lat="44.6150278" lon="8.5422009"><ele>262.2</ele><time>2026-04-04T09:41:57.507Z</time></trkpt><trkpt lat="44.614945" lon="8.5423072"><ele>263.6</ele><time>2026-04-04T09:41:58.519Z</time></trkpt><trkpt lat="44.6148483" lon="8.5424293"><ele>265.0</ele><time>2026-04-04T09:41:59.509Z</time></trkpt><trkpt lat="44.6147517" lon="8.5425757"><ele>265.0</ele><time>2026-04-04T09:42:00.505Z</time></trkpt><trkpt lat="44.6146652" lon="8.5427073"><ele>265.0</ele><time>2026-04-04T09:42:01.516Z</time></trkpt><trkpt lat="44.6145875" lon="8.5428341"><ele>265.0</ele><time>2026-04-04T09:42:02.513Z</time></trkpt><trkpt lat="44.6144186" lon="8.5430353"><ele>263.0</ele><time>2026-04-04T09:42:04.513Z</time></trkpt><trkpt lat="44.6143267" lon="8.5431141"><ele>261.0</ele><time>2026-04-04T09:42:05.516Z</time></trkpt><trkpt lat="44.6142374" lon="8.5431794"><ele>259.0</ele><time>2026-04-04T09:42:06.511Z</time></trkpt><trkpt lat="44.6141517" lon="8.5432479"><ele>257.0</ele><time>2026-04-04T09:42:07.512Z</time></trkpt><trkpt lat="44.6140827" lon="8.5433601"><ele>255.0</ele><time>2026-04-04T09:42:08.52Z</time></trkpt><trkpt lat="44.6140187" lon="8.5434904"><ele>255.0</ele><time>2026-04-04T09:42:09.52Z</time></trkpt><trkpt lat="44.6139768" lon="8.543652"><ele>255.0</ele><time>2026-04-04T09:42:10.517Z</time></trkpt><trkpt lat="44.6139389" lon="8.5438174"><ele>255.0</ele><time>2026-04-04T09:42:11.519Z</time></trkpt><trkpt lat="44.613904" lon="8.5439802"><ele>255.0</ele><time>2026-04-04T09:42:12.511Z</time></trkpt><trkpt lat="44.6138715" lon="8.5441446"><ele>254.2</ele><time>2026-04-04T09:42:13.51Z</time></trkpt><trkpt lat="44.6138492" lon="8.5443005"><ele>253.4</ele><time>2026-04-04T09:42:14.508Z</time></trkpt><trkpt lat="44.6138323" lon="8.5444452"><ele>252.60000000000002</ele><time>2026-04-04T09:42:15.511Z</time></trkpt><trkpt lat="44.6138053" lon="8.5445716"><ele>251.8</ele><time>2026-04-04T09:42:16.516Z</time></trkpt><trkpt lat="44.6137503" lon="8.5446897"><ele>251.0</ele><time>2026-04-04T09:42:17.512Z</time></trkpt><trkpt lat="44.613666" lon="8.5448172"><ele>251.5</ele><time>2026-04-04T09:42:18.507Z</time></trkpt><trkpt lat="44.6135637" lon="8.5449643"><ele>252.0</ele><time>2026-04-04T09:42:19.513Z</time></trkpt><trkpt lat="44.6134502" lon="8.5451148"><ele>252.5</ele><time>2026-04-04T09:42:20.51Z</time></trkpt><trkpt lat="44.6133493" lon="8.5452543"><ele>253.0</ele><time>2026-04-04T09:42:21.531Z</time></trkpt><trkpt lat="44.613258" lon="8.5453813"><ele>251.33333333333331</ele><time>2026-04-04T09:42:22.509Z</time></trkpt><trkpt lat="44.6131902" lon="8.5455226"><ele>249.66666666666669</ele><time>2026-04-04T09:42:23.515Z</time></trkpt><trkpt lat="44.6130915" lon="8.545907"><ele>248.0</ele><time>2026-04-04T09:42:25.517Z</time></trkpt><trkpt lat="44.6130386" lon="8.5461014"><ele>246.75</ele><time>2026-04-04T09:42:26.509Z</time></trkpt><trkpt lat="44.613004" lon="8.5462778"><ele>245.5</ele><time>2026-04-04T09:42:27.516Z</time></trkpt><trkpt lat="44.6129765" lon="8.5464491"><ele>244.25</ele><time>2026-04-04T09:42:28.513Z</time></trkpt><trkpt lat="44.6129477" lon="8.5466244"><ele>243.0</ele><time>2026-04-04T09:42:29.507Z</time></trkpt><trkpt lat="44.6129118" lon="8.5467921"><ele>243.0</ele><time>2026-04-04T09:42:30.514Z</time></trkpt><trkpt lat="44.6128772" lon="8.5469435"><ele>243.0</ele><time>2026-04-04T09:42:31.513Z</time></trkpt><trkpt lat="44.6128507" lon="8.5470684"><ele>243.0</ele><time>2026-04-04T09:42:32.506Z</time></trkpt><trkpt lat="44.6128114" lon="8.5471718"><ele>243.0</ele><time>2026-04-04T09:42:33.522Z</time></trkpt><trkpt lat="44.6127508" lon="8.5472553"><ele>243.0</ele><time>2026-04-04T09:42:34.516Z</time></trkpt><trkpt lat="44.6126474" lon="8.5473272"><ele>245.0</ele><time>2026-04-04T09:42:35.52Z</time></trkpt><trkpt lat="44.6125583" lon="8.5474049"><ele>247.0</ele><time>2026-04-04T09:42:36.529Z</time></trkpt><trkpt lat="44.612483" lon="8.5475028"><ele>249.0</ele><time>2026-04-04T09:42:37.524Z</time></trkpt><trkpt lat="44.6124168" lon="8.547616"><ele>251.0</ele><time>2026-04-04T09:42:38.518Z</time></trkpt><trkpt lat="44.6123724" lon="8.5477451"><ele>253.0</ele><time>2026-04-04T09:42:39.507Z</time></trkpt><trkpt lat="44.6123359" lon="8.5478797"><ele>253.0</ele><time>2026-04-04T09:42:40.51Z</time></trkpt><trkpt lat="44.6123226" lon="8.5480052"><ele>253.0</ele><time>2026-04-04T09:42:41.518Z</time></trkpt><trkpt lat="44.6123294" lon="8.5481318"><ele>253.0</ele><time>2026-04-04T09:42:42.508Z</time></trkpt><trkpt lat="44.6123425" lon="8.5482306"><ele>253.0</ele><time>2026-04-04T09:42:43.515Z</time></trkpt><trkpt lat="44.6123176" lon="8.5483298"><ele>253.0</ele><time>2026-04-04T09:42:45.522Z</time></trkpt><trkpt lat="44.6122441" lon="8.5481171"><ele>253.0</ele><time>2026-04-04T09:42:48.511Z</time></trkpt><trkpt lat="44.6122495" lon="8.547999"><ele>253.0</ele><time>2026-04-04T09:42:49.512Z</time></trkpt><trkpt lat="44.6122528" lon="8.5478787"><ele>253.0</ele><time>2026-04-04T09:42:50.516Z</time></trkpt><trkpt lat="44.6122339" lon="8.5477496"><ele>253.0</ele><time>2026-04-04T09:42:51.522Z</time></trkpt><trkpt lat="44.6121904" lon="8.5476302"><ele>253.0</ele><time>2026-04-04T09:42:52.52Z</time></trkpt><trkpt lat="44.6121319" lon="8.5475248"><ele>253.99999999999997</ele><time>2026-04-04T09:42:53.506Z</time></trkpt><trkpt lat="44.6120682" lon="8.5474255"><ele>255.0</ele><time>2026-04-04T09:42:54.517Z</time></trkpt><trkpt lat="44.6120024" lon="8.5473406"><ele>256.0</ele><time>2026-04-04T09:42:55.512Z</time></trkpt><trkpt lat="44.6119472" lon="8.5472556"><ele>257.0</ele><time>2026-04-04T09:42:56.518Z</time></trkpt><trkpt lat="44.611911" lon="8.5471596"><ele>258.0</ele><time>2026-04-04T09:42:57.52Z</time></trkpt><trkpt lat="44.6118973" lon="8.5470467"><ele>259.0</ele><time>2026-04-04T09:42:58.521Z</time></trkpt><trkpt lat="44.6119007" lon="8.5469274"><ele>260.8</ele><time>2026-04-04T09:42:59.525Z</time></trkpt><trkpt lat="44.6119102" lon="8.5468067"><ele>262.59999999999997</ele><time>2026-04-04T09:43:00.521Z</time></trkpt><trkpt lat="44.611912" lon="8.5466693"><ele>264.4</ele><time>2026-04-04T09:43:01.523Z</time></trkpt><trkpt lat="44.6118981" lon="8.5465221"><ele>266.2</ele><time>2026-04-04T09:43:02.517Z</time></trkpt><trkpt lat="44.6118775" lon="8.5463623"><ele>268.0</ele><time>2026-04-04T09:43:03.525Z</time></trkpt><trkpt lat="44.611831" lon="8.5462056"><ele>270.3333333333333</ele><time>2026-04-04T09:43:04.521Z</time></trkpt><trkpt lat="44.6117711" lon="8.5460729"><ele>272.6666666666667</ele><time>2026-04-04T09:43:05.524Z</time></trkpt><trkpt lat="44.611708" lon="8.5459433"><ele>275.0</ele><time>2026-04-04T09:43:06.513Z</time></trkpt><trkpt lat="44.6115693" lon="8.5456486"><ele>275.0</ele><time>2026-04-04T09:43:08.519Z</time></trkpt><trkpt lat="44.6114941" lon="8.5455131"><ele>275.0</ele><time>2026-04-04T09:43:09.523Z</time></trkpt><trkpt lat="44.6114176" lon="8.5453853"><ele>275.0</ele><time>2026-04-04T09:43:10.514Z</time></trkpt><trkpt lat="44.6113454" lon="8.5452527"><ele>275.0</ele><time>2026-04-04T09:43:11.515Z</time></trkpt><trkpt lat="44.6112832" lon="8.5451116"><ele>275.0</ele><time>2026-04-04T09:43:12.511Z</time></trkpt><trkpt lat="44.6112299" lon="8.5449725"><ele>275.0</ele><time>2026-04-04T09:43:13.52Z</time></trkpt><trkpt lat="44.6111761" lon="8.5448399"><ele>275.0</ele><time>2026-04-04T09:43:14.518Z</time></trkpt><trkpt lat="44.6110969" lon="8.5447198"><ele>275.0</ele><time>2026-04-04T09:43:15.521Z</time></trkpt><trkpt lat="44.6109988" lon="8.544616"><ele>277.2</ele><time>2026-04-04T09:43:16.533Z</time></trkpt><trkpt lat="44.6108974" lon="8.5445351"><ele>279.4</ele><time>2026-04-04T09:43:17.523Z</time></trkpt><trkpt lat="44.6108076" lon="8.5444619"><ele>281.6</ele><time>2026-04-04T09:43:18.517Z</time></trkpt><trkpt lat="44.610727" lon="8.5443882"><ele>283.8</ele><time>2026-04-04T09:43:19.519Z</time></trkpt><trkpt lat="44.6106579" lon="8.5443082"><ele>286.0</ele><time>2026-04-04T09:43:20.527Z</time></trkpt><trkpt lat="44.6105861" lon="8.5442346"><ele>286.0</ele><time>2026-04-04T09:43:21.511Z</time></trkpt><trkpt lat="44.610493" lon="8.5442082"><ele>286.0</ele><time>2026-04-04T09:43:22.536Z</time></trkpt><trkpt lat="44.6103989" lon="8.5441916"><ele>286.0</ele><time>2026-04-04T09:43:23.525Z</time></trkpt><trkpt lat="44.610302" lon="8.5441472"><ele>286.0</ele><time>2026-04-04T09:43:24.519Z</time></trkpt><trkpt lat="44.610213" lon="8.5440572"><ele>286.0</ele><time>2026-04-04T09:43:25.526Z</time></trkpt><trkpt lat="44.6101269" lon="8.5439665"><ele>284.75</ele><time>2026-04-04T09:43:26.518Z</time></trkpt><trkpt lat="44.6100441" lon="8.5438883"><ele>283.5</ele><time>2026-04-04T09:43:27.514Z</time></trkpt><trkpt lat="44.6098941" lon="8.5437394"><ele>282.25</ele><time>2026-04-04T09:43:29.513Z</time></trkpt><trkpt lat="44.6098383" lon="8.5436431"><ele>281.0</ele><time>2026-04-04T09:43:30.521Z</time></trkpt><trkpt lat="44.6097974" lon="8.5435234"><ele>283.2</ele><time>2026-04-04T09:43:31.524Z</time></trkpt><trkpt lat="44.6097661" lon="8.5433971"><ele>285.40000000000003</ele><time>2026-04-04T09:43:32.515Z</time></trkpt><trkpt lat="44.6097499" lon="8.5432781"><ele>287.6</ele><time>2026-04-04T09:43:33.52Z</time></trkpt><trkpt lat="44.6097545" lon="8.5431599"><ele>289.8</ele><time>2026-04-04T09:43:34.514Z</time></trkpt><trkpt lat="44.6097699" lon="8.5430352"><ele>292.0</ele><time>2026-04-04T09:43:35.523Z</time></trkpt><trkpt lat="44.6098107" lon="8.5429003"><ele>292.8</ele><time>2026-04-04T09:43:36.514Z</time></trkpt><trkpt lat="44.6098619" lon="8.5427577"><ele>293.6</ele><time>2026-04-04T09:43:37.513Z</time></trkpt><trkpt lat="44.6099061" lon="8.5426035"><ele>294.40000000000003</ele><time>2026-04-04T09:43:38.54Z</time></trkpt><trkpt lat="44.6099234" lon="8.5424619"><ele>295.2</ele><time>2026-04-04T09:43:39.519Z</time></trkpt><trkpt lat="44.6099082" lon="8.5423359"><ele>296.0</ele><time>2026-04-04T09:43:40.519Z</time></trkpt><trkpt lat="44.6098657" lon="8.5422151"><ele>296.0</ele><time>2026-04-04T09:43:41.528Z</time></trkpt><trkpt lat="44.6097899" lon="8.5421224"><ele>296.0</ele><time>2026-04-04T09:43:42.519Z</time></trkpt><trkpt lat="44.6097018" lon="8.5420349"><ele>296.0</ele><time>2026-04-04T09:43:43.528Z</time></trkpt><trkpt lat="44.6096288" lon="8.5419373"><ele>296.0</ele><time>2026-04-04T09:43:44.522Z</time></trkpt><trkpt lat="44.6095514" lon="8.5418366"><ele>296.0</ele><time>2026-04-04T09:43:45.511Z</time></trkpt><trkpt lat="44.6094644" lon="8.5417027"><ele>298.33333333333337</ele><time>2026-04-04T09:43:46.518Z</time></trkpt><trkpt lat="44.6093678" lon="8.5415573"><ele>300.6666666666667</ele><time>2026-04-04T09:43:47.526Z</time></trkpt><trkpt lat="44.6092632" lon="8.541427"><ele>303.0</ele><time>2026-04-04T09:43:48.512Z</time></trkpt><trkpt lat="44.6091047" lon="8.5411755"><ele>303.8</ele><time>2026-04-04T09:43:50.509Z</time></trkpt><trkpt lat="44.6090633" lon="8.5410424"><ele>304.6</ele><time>2026-04-04T09:43:51.517Z</time></trkpt><trkpt lat="44.6090363" lon="8.5409088"><ele>305.4</ele><time>2026-04-04T09:43:52.509Z</time></trkpt><trkpt lat="44.6090309" lon="8.5407708"><ele>306.2</ele><time>2026-04-04T09:43:53.512Z</time></trkpt><trkpt lat="44.6090298" lon="8.5406429"><ele>307.0</ele><time>2026-04-04T09:43:54.514Z</time></trkpt><trkpt lat="44.6090282" lon="8.5405173"><ele>307.0</ele><time>2026-04-04T09:43:55.52Z</time></trkpt><trkpt lat="44.6090341" lon="8.5403948"><ele>307.0</ele><time>2026-04-04T09:43:56.516Z</time></trkpt><trkpt lat="44.6090546" lon="8.5402889"><ele>307.0</ele><time>2026-04-04T09:43:57.505Z</time></trkpt><trkpt lat="44.6090743" lon="8.5401943"><ele>307.0</ele><time>2026-04-04T09:43:58.52Z</time></trkpt><trkpt lat="44.6090757" lon="8.5400587"><ele>307.0</ele><time>2026-04-04T09:44:00.511Z</time></trkpt><trkpt lat="44.6090109" lon="8.5400431"><ele>307.0</ele><time>2026-04-04T09:44:03.516Z</time></trkpt><trkpt lat="44.6089304" lon="8.5401216"><ele>307.4</ele><time>2026-04-04T09:44:05.516Z</time></trkpt><trkpt lat="44.6088759" lon="8.5401711"><ele>307.79999999999995</ele><time>2026-04-04T09:44:06.522Z</time></trkpt><trkpt lat="44.6088205" lon="8.540224"><ele>308.2</ele><time>2026-04-04T09:44:07.52Z</time></trkpt><trkpt lat="44.6087673" lon="8.5402825"><ele>308.59999999999997</ele><time>2026-04-04T09:44:08.516Z</time></trkpt><trkpt lat="44.608722" lon="8.540345"><ele>309.0</ele><time>2026-04-04T09:44:09.511Z</time></trkpt><trkpt lat="44.6086141" lon="8.5406109"><ele>306.0</ele><time>2026-04-04T09:44:13.52Z</time></trkpt><trkpt lat="44.6085766" lon="8.5407346"><ele>303.0</ele><time>2026-04-04T09:44:15.518Z</time></trkpt><trkpt lat="44.6085444" lon="8.5408388"><ele>300.0</ele><time>2026-04-04T09:44:17.517Z</time></trkpt><trkpt lat="44.6085218" lon="8.5409311"><ele>297.0</ele><time>2026-04-04T09:44:20.537Z</time></trkpt><trkpt lat="44.6084908" lon="8.5410246"><ele>294.0</ele><time>2026-04-04T09:44:50.514Z</time></trkpt><trkpt lat="44.6083931" lon="8.541291"><ele>293.8</ele><time>2026-04-04T09:44:53.512Z</time></trkpt><trkpt lat="44.6083378" lon="8.5413915"><ele>293.59999999999997</ele><time>2026-04-04T09:44:54.507Z</time></trkpt><trkpt lat="44.6082778" lon="8.5414948"><ele>293.4</ele><time>2026-04-04T09:44:55.52Z</time></trkpt><trkpt lat="44.608231" lon="8.5416083"><ele>293.2</ele><time>2026-04-04T09:44:56.515Z</time></trkpt><trkpt lat="44.6082011" lon="8.5417297"><ele>293.0</ele><time>2026-04-04T09:44:57.519Z</time></trkpt><trkpt lat="44.6081917" lon="8.5418548"><ele>293.0</ele><time>2026-04-04T09:44:58.512Z</time></trkpt><trkpt lat="44.6081992" lon="8.5419907"><ele>293.0</ele><time>2026-04-04T09:44:59.518Z</time></trkpt><trkpt lat="44.6082305" lon="8.542129"><ele>293.0</ele><time>2026-04-04T09:45:00.521Z</time></trkpt><trkpt lat="44.608293" lon="8.5422625"><ele>293.0</ele><time>2026-04-04T09:45:01.523Z</time></trkpt><trkpt lat="44.608372" lon="8.5423842"><ele>293.0</ele><time>2026-04-04T09:45:02.505Z</time></trkpt><trkpt lat="44.6084627" lon="8.5424995"><ele>292.5</ele><time>2026-04-04T09:45:03.513Z</time></trkpt><trkpt lat="44.6085526" lon="8.5426134"><ele>292.0</ele><time>2026-04-04T09:45:04.53Z</time></trkpt><trkpt lat="44.6086352" lon="8.542728"><ele>291.5</ele><time>2026-04-04T09:45:05.515Z</time></trkpt><trkpt lat="44.6087142" lon="8.5428385"><ele>291.0</ele><time>2026-04-04T09:45:06.51Z</time></trkpt><trkpt lat="44.6087803" lon="8.5429457"><ele>290.0</ele><time>2026-04-04T09:45:07.517Z</time></trkpt><trkpt lat="44.6088262" lon="8.5430534"><ele>289.0</ele><time>2026-04-04T09:45:08.515Z</time></trkpt><trkpt lat="44.6088449" lon="8.54317"><ele>288.0</ele><time>2026-04-04T09:45:09.514Z</time></trkpt><trkpt lat="44.6088249" lon="8.5432801"><ele>287.0</ele><time>2026-04-04T09:45:10.518Z</time></trkpt><trkpt lat="44.6087664" lon="8.543362"><ele>286.0</ele><time>2026-04-04T09:45:11.513Z</time></trkpt><trkpt lat="44.6085825" lon="8.5434848"><ele>285.0</ele><time>2026-04-04T09:45:13.518Z</time></trkpt><trkpt lat="44.6084879" lon="8.5435679"><ele>284.0</ele><time>2026-04-04T09:45:14.518Z</time></trkpt><trkpt lat="44.6084103" lon="8.5437057"><ele>283.0</ele><time>2026-04-04T09:45:15.513Z</time></trkpt><trkpt lat="44.6083406" lon="8.543853"><ele>282.0</ele><time>2026-04-04T09:45:16.511Z</time></trkpt><trkpt lat="44.6082749" lon="8.5439861"><ele>281.0</ele><time>2026-04-04T09:45:17.516Z</time></trkpt><trkpt lat="44.6082224" lon="8.5441032"><ele>280.0</ele><time>2026-04-04T09:45:18.515Z</time></trkpt><trkpt lat="44.6081929" lon="8.5442188"><ele>279.0</ele><time>2026-04-04T09:45:19.513Z</time></trkpt><trkpt lat="44.6081954" lon="8.5443312"><ele>278.0</ele><time>2026-04-04T09:45:20.513Z</time></trkpt><trkpt lat="44.6082521" lon="8.5444197"><ele>277.0</ele><time>2026-04-04T09:45:21.511Z</time></trkpt><trkpt lat="44.6083104" lon="8.5444964"><ele>276.0</ele><time>2026-04-04T09:45:22.511Z</time></trkpt><trkpt lat="44.6083957" lon="8.5445173"><ele>276.0</ele><time>2026-04-04T09:45:23.508Z</time></trkpt><trkpt lat="44.6085043" lon="8.5444951"><ele>276.0</ele><time>2026-04-04T09:45:24.533Z</time></trkpt><trkpt lat="44.6086128" lon="8.5444623"><ele>276.0</ele><time>2026-04-04T09:45:25.512Z</time></trkpt><trkpt lat="44.608722" lon="8.5444266"><ele>276.0</ele><time>2026-04-04T09:45:26.508Z</time></trkpt><trkpt lat="44.608821" lon="8.544382"><ele>276.0</ele><time>2026-04-04T09:45:27.509Z</time></trkpt><trkpt lat="44.6089013" lon="8.5443424"><ele>275.75</ele><time>2026-04-04T09:45:28.514Z</time></trkpt><trkpt lat="44.6089989" lon="8.5443868"><ele>275.5</ele><time>2026-04-04T09:45:30.524Z</time></trkpt><trkpt lat="44.6089502" lon="8.544539"><ele>275.25</ele><time>2026-04-04T09:45:32.512Z</time></trkpt><trkpt lat="44.6087863" lon="8.5446254"><ele>275.0</ele><time>2026-04-04T09:45:34.515Z</time></trkpt><trkpt lat="44.608681" lon="8.5446656"><ele>273.0</ele><time>2026-04-04T09:45:35.515Z</time></trkpt><trkpt lat="44.6085818" lon="8.5447236"><ele>271.0</ele><time>2026-04-04T09:45:36.521Z</time></trkpt><trkpt lat="44.6084897" lon="8.5447838"><ele>269.0</ele><time>2026-04-04T09:45:37.521Z</time></trkpt><trkpt lat="44.6083984" lon="8.544835"><ele>267.0</ele><time>2026-04-04T09:45:38.516Z</time></trkpt><trkpt lat="44.6083016" lon="8.5448626"><ele>265.0</ele><time>2026-04-04T09:45:39.525Z</time></trkpt><trkpt lat="44.6082019" lon="8.5448534"><ele>265.0</ele><time>2026-04-04T09:45:40.512Z</time></trkpt><trkpt lat="44.6080942" lon="8.5448057"><ele>265.0</ele><time>2026-04-04T09:45:41.522Z</time></trkpt><trkpt lat="44.6079855" lon="8.5447233"><ele>265.0</ele><time>2026-04-04T09:45:42.523Z</time></trkpt><trkpt lat="44.6078915" lon="8.5446414"><ele>265.0</ele><time>2026-04-04T09:45:43.517Z</time></trkpt><trkpt lat="44.6078126" lon="8.5445777"><ele>265.0</ele><time>2026-04-04T09:45:44.515Z</time></trkpt><trkpt lat="44.6077432" lon="8.5445602"><ele>265.0</ele><time>2026-04-04T09:45:45.516Z</time></trkpt><trkpt lat="44.6076734" lon="8.54469"><ele>265.0</ele><time>2026-04-04T09:45:47.517Z</time></trkpt><trkpt lat="44.6077004" lon="8.5447874"><ele>265.0</ele><time>2026-04-04T09:45:48.519Z</time></trkpt><trkpt lat="44.6077697" lon="8.5448826"><ele>265.0</ele><time>2026-04-04T09:45:49.521Z</time></trkpt><trkpt lat="44.6078706" lon="8.5449695"><ele>265.0</ele><time>2026-04-04T09:45:50.51Z</time></trkpt><trkpt lat="44.6079909" lon="8.5450604"><ele>265.0</ele><time>2026-04-04T09:45:51.511Z</time></trkpt><trkpt lat="44.6081243" lon="8.5451612"><ele>265.0</ele><time>2026-04-04T09:45:52.522Z</time></trkpt><trkpt lat="44.608259" lon="8.5452649"><ele>265.0</ele><time>2026-04-04T09:45:53.516Z</time></trkpt><trkpt lat="44.6085058" lon="8.5454327"><ele>263.0</ele><time>2026-04-04T09:45:55.513Z</time></trkpt><trkpt lat="44.6086081" lon="8.5454974"><ele>261.0</ele><time>2026-04-04T09:45:56.519Z</time></trkpt><trkpt lat="44.6086925" lon="8.5455616"><ele>259.0</ele><time>2026-04-04T09:45:57.518Z</time></trkpt><trkpt lat="44.608733" lon="8.5456537"><ele>257.0</ele><time>2026-04-04T09:45:58.509Z</time></trkpt><trkpt lat="44.608739" lon="8.5457521"><ele>254.99999999999997</ele><time>2026-04-04T09:45:59.521Z</time></trkpt><trkpt lat="44.6086774" lon="8.5458262"><ele>253.0</ele><time>2026-04-04T09:46:00.519Z</time></trkpt><trkpt lat="44.6085926" lon="8.545873"><ele>252.25</ele><time>2026-04-04T09:46:01.51Z</time></trkpt><trkpt lat="44.6084866" lon="8.5459096"><ele>251.5</ele><time>2026-04-04T09:46:02.517Z</time></trkpt><trkpt lat="44.6083571" lon="8.5459305"><ele>250.75</ele><time>2026-04-04T09:46:03.512Z</time></trkpt><trkpt lat="44.6082239" lon="8.5459586"><ele>250.0</ele><time>2026-04-04T09:46:04.513Z</time></trkpt><trkpt lat="44.6080963" lon="8.5460041"><ele>250.0</ele><time>2026-04-04T09:46:05.516Z</time></trkpt><trkpt lat="44.6079869" lon="8.5460756"><ele>250.0</ele><time>2026-04-04T09:46:06.513Z</time></trkpt><trkpt lat="44.6078987" lon="8.5461852"><ele>250.0</ele><time>2026-04-04T09:46:07.513Z</time></trkpt><trkpt lat="44.6078343" lon="8.5463516"><ele>250.0</ele><time>2026-04-04T09:46:08.517Z</time></trkpt><trkpt lat="44.6077703" lon="8.5465256"><ele>250.66666666666666</ele><time>2026-04-04T09:46:09.52Z</time></trkpt><trkpt lat="44.6077044" lon="8.5467155"><ele>251.33333333333331</ele><time>2026-04-04T09:46:10.513Z</time></trkpt><trkpt lat="44.6076354" lon="8.5469182"><ele>252.0</ele><time>2026-04-04T09:46:11.518Z</time></trkpt><trkpt lat="44.6075636" lon="8.5471309"><ele>251.66666666666669</ele><time>2026-04-04T09:46:12.519Z</time></trkpt><trkpt lat="44.6074887" lon="8.5473462"><ele>251.33333333333334</ele><time>2026-04-04T09:46:13.514Z</time></trkpt><trkpt lat="44.6074147" lon="8.5475462"><ele>251.0</ele><time>2026-04-04T09:46:14.517Z</time></trkpt><trkpt lat="44.6072922" lon="8.547898"><ele>251.0</ele><time>2026-04-04T09:46:16.518Z</time></trkpt><trkpt lat="44.6072561" lon="8.5480648"><ele>251.0</ele><time>2026-04-04T09:46:17.518Z</time></trkpt><trkpt lat="44.6072481" lon="8.5482442"><ele>251.0</ele><time>2026-04-04T09:46:18.512Z</time></trkpt><trkpt lat="44.6072737" lon="8.548435"><ele>251.0</ele><time>2026-04-04T09:46:19.521Z</time></trkpt><trkpt lat="44.6073055" lon="8.5486102"><ele>254.20000000000002</ele><time>2026-04-04T09:46:20.52Z</time></trkpt><trkpt lat="44.6073446" lon="8.5487497"><ele>257.40000000000003</ele><time>2026-04-04T09:46:21.511Z</time></trkpt><trkpt lat="44.6074012" lon="8.5488521"><ele>260.6</ele><time>2026-04-04T09:46:22.516Z</time></trkpt><trkpt lat="44.6074796" lon="8.5489003"><ele>263.8</ele><time>2026-04-04T09:46:23.512Z</time></trkpt><trkpt lat="44.6075795" lon="8.5488604"><ele>267.0</ele><time>2026-04-04T09:46:24.513Z</time></trkpt><trkpt lat="44.6076866" lon="8.5487815"><ele>263.6666666666667</ele><time>2026-04-04T09:46:25.507Z</time></trkpt><trkpt lat="44.6078128" lon="8.548676"><ele>260.33333333333337</ele><time>2026-04-04T09:46:26.516Z</time></trkpt><trkpt lat="44.6079532" lon="8.5485748"><ele>257.0</ele><time>2026-04-04T09:46:27.518Z</time></trkpt><trkpt lat="44.6081084" lon="8.5484899"><ele>257.0</ele><time>2026-04-04T09:46:28.513Z</time></trkpt><trkpt lat="44.6082743" lon="8.5484062"><ele>257.0</ele><time>2026-04-04T09:46:29.513Z</time></trkpt><trkpt lat="44.6084253" lon="8.5483083"><ele>257.0</ele><time>2026-04-04T09:46:30.524Z</time></trkpt><trkpt lat="44.6085543" lon="8.5482143"><ele>257.0</ele><time>2026-04-04T09:46:31.52Z</time></trkpt><trkpt lat="44.6086774" lon="8.5481607"><ele>257.0</ele><time>2026-04-04T09:46:32.51Z</time></trkpt><trkpt lat="44.6087975" lon="8.5481615"><ele>257.0</ele><time>2026-04-04T09:46:33.512Z</time></trkpt><trkpt lat="44.6089146" lon="8.548219"><ele>257.0</ele><time>2026-04-04T09:46:34.519Z</time></trkpt><trkpt lat="44.6090173" lon="8.548344"><ele>257.0</ele><time>2026-04-04T09:46:35.531Z</time></trkpt><trkpt lat="44.6091464" lon="8.548599"><ele>257.0</ele><time>2026-04-04T09:46:37.513Z</time></trkpt><trkpt lat="44.6091624" lon="8.5487504"><ele>257.0</ele><time>2026-04-04T09:46:38.507Z</time></trkpt><trkpt lat="44.6091652" lon="8.5489222"><ele>259.25</ele><time>2026-04-04T09:46:39.516Z</time></trkpt><trkpt lat="44.6091602" lon="8.5491017"><ele>261.5</ele><time>2026-04-04T09:46:40.511Z</time></trkpt><trkpt lat="44.6091473" lon="8.5492972"><ele>263.75</ele><time>2026-04-04T09:46:41.529Z</time></trkpt><trkpt lat="44.6091357" lon="8.549497"><ele>266.0</ele><time>2026-04-04T09:46:42.517Z</time></trkpt><trkpt lat="44.6091206" lon="8.5496844"><ele>267.75</ele><time>2026-04-04T09:46:43.508Z</time></trkpt><trkpt lat="44.6090934" lon="8.5498759"><ele>269.5</ele><time>2026-04-04T09:46:44.513Z</time></trkpt><trkpt lat="44.6090629" lon="8.5500765"><ele>271.25</ele><time>2026-04-04T09:46:45.505Z</time></trkpt><trkpt lat="44.6090298" lon="8.550289"><ele>273.0</ele><time>2026-04-04T09:46:46.508Z</time></trkpt><trkpt lat="44.6089887" lon="8.5504749"><ele>275.1666666666667</ele><time>2026-04-04T09:46:47.508Z</time></trkpt><trkpt lat="44.608954" lon="8.5506351"><ele>277.3333333333333</ele><time>2026-04-04T09:46:48.512Z</time></trkpt><trkpt lat="44.6089437" lon="8.550751"><ele>279.5</ele><time>2026-04-04T09:46:49.507Z</time></trkpt><trkpt lat="44.6089628" lon="8.5508357"><ele>281.66666666666663</ele><time>2026-04-04T09:46:50.52Z</time></trkpt><trkpt lat="44.6090476" lon="8.5508498"><ele>283.8333333333333</ele><time>2026-04-04T09:46:51.506Z</time></trkpt><trkpt lat="44.6091388" lon="8.5508095"><ele>286.0</ele><time>2026-04-04T09:46:52.508Z</time></trkpt><trkpt lat="44.6092299" lon="8.5506943"><ele>286.0</ele><time>2026-04-04T09:46:53.514Z</time></trkpt><trkpt lat="44.609329" lon="8.5505505"><ele>286.0</ele><time>2026-04-04T09:46:54.513Z</time></trkpt><trkpt lat="44.6094419" lon="8.5504004"><ele>286.0</ele><time>2026-04-04T09:46:55.508Z</time></trkpt><trkpt lat="44.6095669" lon="8.5502673"><ele>282.5</ele><time>2026-04-04T09:46:56.519Z</time></trkpt><trkpt lat="44.6097704" lon="8.5500989"><ele>279.0</ele><time>2026-04-04T09:46:58.508Z</time></trkpt><trkpt lat="44.6098568" lon="8.550093"><ele>275.5</ele><time>2026-04-04T09:46:59.515Z</time></trkpt><trkpt lat="44.60993" lon="8.5501475"><ele>272.0</ele><time>2026-04-04T09:47:00.514Z</time></trkpt><trkpt lat="44.6099953" lon="8.5502553"><ele>275.75</ele><time>2026-04-04T09:47:01.519Z</time></trkpt><trkpt lat="44.6100438" lon="8.550416"><ele>279.5</ele><time>2026-04-04T09:47:02.514Z</time></trkpt><trkpt lat="44.6100943" lon="8.5505996"><ele>283.25</ele><time>2026-04-04T09:47:03.518Z</time></trkpt><trkpt lat="44.6101626" lon="8.5507938"><ele>287.0</ele><time>2026-04-04T09:47:04.512Z</time></trkpt><trkpt lat="44.6102424" lon="8.5509804"><ele>287.0</ele><time>2026-04-04T09:47:05.511Z</time></trkpt><trkpt lat="44.610323" lon="8.5511319"><ele>287.0</ele><time>2026-04-04T09:47:06.521Z</time></trkpt><trkpt lat="44.6104172" lon="8.5512429"><ele>287.0</ele><time>2026-04-04T09:47:07.517Z</time></trkpt><trkpt lat="44.6105272" lon="8.5513057"><ele>287.0</ele><time>2026-04-04T09:47:08.513Z</time></trkpt><trkpt lat="44.6106448" lon="8.5513238"><ele>286.75</ele><time>2026-04-04T09:47:09.514Z</time></trkpt><trkpt lat="44.6107656" lon="8.5512831"><ele>286.5</ele><time>2026-04-04T09:47:10.525Z</time></trkpt><trkpt lat="44.6108861" lon="8.5511898"><ele>286.25</ele><time>2026-04-04T09:47:11.519Z</time></trkpt><trkpt lat="44.6110134" lon="8.5510367"><ele>286.0</ele><time>2026-04-04T09:47:12.51Z</time></trkpt><trkpt lat="44.6111307" lon="8.550894"><ele>287.0</ele><time>2026-04-04T09:47:13.519Z</time></trkpt><trkpt lat="44.6112271" lon="8.5507782"><ele>288.0</ele><time>2026-04-04T09:47:14.528Z</time></trkpt><trkpt lat="44.6113094" lon="8.5506939"><ele>289.0</ele><time>2026-04-04T09:47:15.514Z</time></trkpt><trkpt lat="44.6113911" lon="8.5506616"><ele>290.0</ele><time>2026-04-04T09:47:16.506Z</time></trkpt><trkpt lat="44.6114731" lon="8.5506853"><ele>291.0</ele><time>2026-04-04T09:47:17.514Z</time></trkpt><trkpt lat="44.6116086" lon="8.5509226"><ele>291.0</ele><time>2026-04-04T09:47:19.52Z</time></trkpt><trkpt lat="44.6116481" lon="8.5511011"><ele>291.0</ele><time>2026-04-04T09:47:20.522Z</time></trkpt><trkpt lat="44.6116969" lon="8.5512758"><ele>291.0</ele><time>2026-04-04T09:47:21.52Z</time></trkpt><trkpt lat="44.6117665" lon="8.5514255"><ele>291.0</ele><time>2026-04-04T09:47:22.522Z</time></trkpt><trkpt lat="44.6118243" lon="8.5515562"><ele>292.0</ele><time>2026-04-04T09:47:23.523Z</time></trkpt><trkpt lat="44.6118377" lon="8.5516785"><ele>293.0</ele><time>2026-04-04T09:47:24.507Z</time></trkpt><trkpt lat="44.6118028" lon="8.5517848"><ele>294.0</ele><time>2026-04-04T09:47:25.513Z</time></trkpt><trkpt lat="44.6117225" lon="8.551859"><ele>295.0</ele><time>2026-04-04T09:47:26.512Z</time></trkpt><trkpt lat="44.6116048" lon="8.5518975"><ele>296.0</ele><time>2026-04-04T09:47:27.512Z</time></trkpt><trkpt lat="44.6114689" lon="8.5519032"><ele>296.0</ele><time>2026-04-04T09:47:28.504Z</time></trkpt><trkpt lat="44.6113126" lon="8.5519059"><ele>296.0</ele><time>2026-04-04T09:47:29.514Z</time></trkpt><trkpt lat="44.6111539" lon="8.5519151"><ele>296.0</ele><time>2026-04-04T09:47:30.517Z</time></trkpt><trkpt lat="44.6109872" lon="8.55192"><ele>297.33333333333337</ele><time>2026-04-04T09:47:31.512Z</time></trkpt><trkpt lat="44.610811" lon="8.5519168"><ele>298.6666666666667</ele><time>2026-04-04T09:47:32.513Z</time></trkpt><trkpt lat="44.6106388" lon="8.5519263"><ele>300.0</ele><time>2026-04-04T09:47:33.509Z</time></trkpt><trkpt lat="44.6104597" lon="8.5519671"><ele>301.0</ele><time>2026-04-04T09:47:34.524Z</time></trkpt><trkpt lat="44.6102737" lon="8.5520206"><ele>302.0</ele><time>2026-04-04T09:47:35.525Z</time></trkpt><trkpt lat="44.6100967" lon="8.5520635"><ele>303.0</ele><time>2026-04-04T09:47:36.523Z</time></trkpt><trkpt lat="44.6099312" lon="8.5521009"><ele>303.6666666666667</ele><time>2026-04-04T09:47:37.52Z</time></trkpt><trkpt lat="44.6097837" lon="8.5521559"><ele>304.33333333333337</ele><time>2026-04-04T09:47:38.531Z</time></trkpt><trkpt lat="44.6095244" lon="8.5523585"><ele>305.0</ele><time>2026-04-04T09:47:40.527Z</time></trkpt><trkpt lat="44.6094056" lon="8.5525153"><ele>308.33333333333337</ele><time>2026-04-04T09:47:41.515Z</time></trkpt><trkpt lat="44.6092795" lon="8.5526929"><ele>311.6666666666667</ele><time>2026-04-04T09:47:42.527Z</time></trkpt><trkpt lat="44.6091535" lon="8.5528722"><ele>315.0</ele><time>2026-04-04T09:47:43.52Z</time></trkpt><trkpt lat="44.6090359" lon="8.553038"><ele>315.25</ele><time>2026-04-04T09:47:44.52Z</time></trkpt><trkpt lat="44.6089476" lon="8.5531938"><ele>315.5</ele><time>2026-04-04T09:47:45.519Z</time></trkpt><trkpt lat="44.6088898" lon="8.5533657"><ele>315.75</ele><time>2026-04-04T09:47:46.522Z</time></trkpt><trkpt lat="44.6088613" lon="8.5535425"><ele>316.0</ele><time>2026-04-04T09:47:47.514Z</time></trkpt><trkpt lat="44.6088422" lon="8.5537324"><ele>316.66666666666663</ele><time>2026-04-04T09:47:48.522Z</time></trkpt><trkpt lat="44.6088167" lon="8.5539347"><ele>317.3333333333333</ele><time>2026-04-04T09:47:49.525Z</time></trkpt><trkpt lat="44.6087832" lon="8.5541493"><ele>318.0</ele><time>2026-04-04T09:47:50.524Z</time></trkpt><trkpt lat="44.6087492" lon="8.5543592"><ele>321.0</ele><time>2026-04-04T09:47:51.529Z</time></trkpt><trkpt lat="44.6087297" lon="8.5545442"><ele>324.0</ele><time>2026-04-04T09:47:52.518Z</time></trkpt><trkpt lat="44.6087328" lon="8.5547135"><ele>327.0</ele><time>2026-04-04T09:47:53.519Z</time></trkpt><trkpt lat="44.6087641" lon="8.554875"><ele>330.0</ele><time>2026-04-04T09:47:54.516Z</time></trkpt><trkpt lat="44.6088346" lon="8.55504"><ele>330.0</ele><time>2026-04-04T09:47:55.512Z</time></trkpt><trkpt lat="44.6089236" lon="8.5551724"><ele>330.0</ele><time>2026-04-04T09:47:56.521Z</time></trkpt><trkpt lat="44.609038" lon="8.5552727"><ele>330.0</ele><time>2026-04-04T09:47:57.517Z</time></trkpt><trkpt lat="44.6091701" lon="8.5553413"><ele>330.0</ele><time>2026-04-04T09:47:58.51Z</time></trkpt><trkpt lat="44.6093185" lon="8.5553547"><ele>330.6666666666667</ele><time>2026-04-04T09:47:59.514Z</time></trkpt><trkpt lat="44.6096048" lon="8.5553613"><ele>331.33333333333337</ele><time>2026-04-04T09:48:01.517Z</time></trkpt><trkpt lat="44.6097391" lon="8.5553706"><ele>332.0</ele><time>2026-04-04T09:48:02.518Z</time></trkpt><trkpt lat="44.6098603" lon="8.5553816"><ele>333.83333333333337</ele><time>2026-04-04T09:48:03.52Z</time></trkpt><trkpt lat="44.6099694" lon="8.5553914"><ele>335.6666666666667</ele><time>2026-04-04T09:48:04.509Z</time></trkpt><trkpt lat="44.6100651" lon="8.5554033"><ele>337.5</ele><time>2026-04-04T09:48:05.516Z</time></trkpt><trkpt lat="44.6101433" lon="8.5554249"><ele>339.3333333333333</ele><time>2026-04-04T09:48:06.523Z</time></trkpt><trkpt lat="44.6101982" lon="8.5554683"><ele>341.16666666666663</ele><time>2026-04-04T09:48:07.519Z</time></trkpt><trkpt lat="44.6102301" lon="8.5556032"><ele>343.0</ele><time>2026-04-04T09:48:09.516Z</time></trkpt><trkpt lat="44.61014" lon="8.5557455"><ele>343.0</ele><time>2026-04-04T09:48:11.513Z</time></trkpt><trkpt lat="44.6100502" lon="8.5558138"><ele>343.0</ele><time>2026-04-04T09:48:12.519Z</time></trkpt><trkpt lat="44.6099461" lon="8.5558977"><ele>343.0</ele><time>2026-04-04T09:48:13.515Z</time></trkpt><trkpt lat="44.6098324" lon="8.556016"><ele>343.0</ele><time>2026-04-04T09:48:14.519Z</time></trkpt><trkpt lat="44.6097195" lon="8.556158"><ele>343.66666666666663</ele><time>2026-04-04T09:48:15.518Z</time></trkpt><trkpt lat="44.609611" lon="8.5563104"><ele>344.3333333333333</ele><time>2026-04-04T09:48:16.513Z</time></trkpt><trkpt lat="44.6095037" lon="8.5564727"><ele>345.0</ele><time>2026-04-04T09:48:17.534Z</time></trkpt><trkpt lat="44.6094034" lon="8.5566322"><ele>345.0</ele><time>2026-04-04T09:48:18.523Z</time></trkpt><trkpt lat="44.6093331" lon="8.5568085"><ele>345.0</ele><time>2026-04-04T09:48:19.524Z</time></trkpt><trkpt lat="44.6092778" lon="8.5570042"><ele>345.0</ele><time>2026-04-04T09:48:20.512Z</time></trkpt><trkpt lat="44.6091902" lon="8.5574556"><ele>345.3333333333333</ele><time>2026-04-04T09:48:22.534Z</time></trkpt><trkpt lat="44.6091422" lon="8.5576903"><ele>345.66666666666663</ele><time>2026-04-04T09:48:23.512Z</time></trkpt><trkpt lat="44.6090905" lon="8.5579193"><ele>346.0</ele><time>2026-04-04T09:48:24.509Z</time></trkpt><trkpt lat="44.6090411" lon="8.5581279"><ele>346.0</ele><time>2026-04-04T09:48:25.516Z</time></trkpt><trkpt lat="44.6089974" lon="8.5583271"><ele>346.0</ele><time>2026-04-04T09:48:26.516Z</time></trkpt><trkpt lat="44.6089545" lon="8.5585327"><ele>346.0</ele><time>2026-04-04T09:48:27.517Z</time></trkpt><trkpt lat="44.6089117" lon="8.5587413"><ele>346.0</ele><time>2026-04-04T09:48:28.512Z</time></trkpt><trkpt lat="44.6088668" lon="8.5589403"><ele>346.0</ele><time>2026-04-04T09:48:29.517Z</time></trkpt><trkpt lat="44.6088138" lon="8.5591226"><ele>346.0</ele><time>2026-04-04T09:48:30.522Z</time></trkpt><trkpt lat="44.6087461" lon="8.5592961"><ele>346.0</ele><time>2026-04-04T09:48:31.517Z</time></trkpt><trkpt lat="44.6086638" lon="8.5594668"><ele>347.66666666666663</ele><time>2026-04-04T09:48:32.521Z</time></trkpt><trkpt lat="44.608571" lon="8.5596478"><ele>349.3333333333333</ele><time>2026-04-04T09:48:33.519Z</time></trkpt><trkpt lat="44.6084728" lon="8.5598318"><ele>351.0</ele><time>2026-04-04T09:48:34.514Z</time></trkpt><trkpt lat="44.608364" lon="8.5600076"><ele>351.0</ele><time>2026-04-04T09:48:35.512Z</time></trkpt><trkpt lat="44.6082559" lon="8.5601588"><ele>351.0</ele><time>2026-04-04T09:48:36.517Z</time></trkpt><trkpt lat="44.6081484" lon="8.5602687"><ele>351.0</ele><time>2026-04-04T09:48:37.522Z</time></trkpt><trkpt lat="44.6080417" lon="8.5603325"><ele>351.0</ele><time>2026-04-04T09:48:38.515Z</time></trkpt><trkpt lat="44.6079305" lon="8.5603509"><ele>351.6666666666667</ele><time>2026-04-04T09:48:39.509Z</time></trkpt><trkpt lat="44.6078094" lon="8.5603217"><ele>352.33333333333337</ele><time>2026-04-04T09:48:40.528Z</time></trkpt><trkpt lat="44.6076794" lon="8.5602485"><ele>353.0</ele><time>2026-04-04T09:48:41.521Z</time></trkpt><trkpt lat="44.6074342" lon="8.5602027"><ele>353.0</ele><time>2026-04-04T09:48:43.527Z</time></trkpt><trkpt lat="44.6073251" lon="8.5602526"><ele>353.0</ele><time>2026-04-04T09:48:44.51Z</time></trkpt><trkpt lat="44.607212" lon="8.5603309"><ele>353.0</ele><time>2026-04-04T09:48:45.515Z</time></trkpt><trkpt lat="44.6070898" lon="8.5604241"><ele>353.0</ele><time>2026-04-04T09:48:46.524Z</time></trkpt><trkpt lat="44.6069586" lon="8.5605395"><ele>355.33333333333337</ele><time>2026-04-04T09:48:47.521Z</time></trkpt><trkpt lat="44.6068214" lon="8.5606636"><ele>357.6666666666667</ele><time>2026-04-04T09:48:48.511Z</time></trkpt><trkpt lat="44.6066772" lon="8.5607897"><ele>360.0</ele><time>2026-04-04T09:48:49.524Z</time></trkpt><trkpt lat="44.6065341" lon="8.5609202"><ele>360.0</ele><time>2026-04-04T09:48:50.519Z</time></trkpt><trkpt lat="44.606398" lon="8.5610569"><ele>360.0</ele><time>2026-04-04T09:48:51.511Z</time></trkpt><trkpt lat="44.606281" lon="8.561194"><ele>360.0</ele><time>2026-04-04T09:48:52.536Z</time></trkpt><trkpt lat="44.6061721" lon="8.5613067"><ele>362.75</ele><time>2026-04-04T09:48:53.512Z</time></trkpt><trkpt lat="44.6060567" lon="8.5613878"><ele>365.5</ele><time>2026-04-04T09:48:54.539Z</time></trkpt><trkpt lat="44.6059362" lon="8.5614356"><ele>368.25</ele><time>2026-04-04T09:48:55.512Z</time></trkpt><trkpt lat="44.6057975" lon="8.5614501"><ele>371.0</ele><time>2026-04-04T09:48:56.514Z</time></trkpt><trkpt lat="44.6056557" lon="8.5614558"><ele>371.0</ele><time>2026-04-04T09:48:57.52Z</time></trkpt><trkpt lat="44.6055111" lon="8.5614811"><ele>371.0</ele><time>2026-04-04T09:48:58.512Z</time></trkpt><trkpt lat="44.6053645" lon="8.5615175"><ele>371.0</ele><time>2026-04-04T09:48:59.52Z</time></trkpt><trkpt lat="44.6052212" lon="8.5615685"><ele>371.0</ele><time>2026-04-04T09:49:00.522Z</time></trkpt><trkpt lat="44.6050836" lon="8.5616331"><ele>370.6666666666667</ele><time>2026-04-04T09:49:01.509Z</time></trkpt><trkpt lat="44.6049561" lon="8.5617118"><ele>370.3333333333333</ele><time>2026-04-04T09:49:02.507Z</time></trkpt><trkpt lat="44.6047188" lon="8.5618749"><ele>370.0</ele><time>2026-04-04T09:49:04.512Z</time></trkpt><trkpt lat="44.6046126" lon="8.5619568"><ele>371.0</ele><time>2026-04-04T09:49:05.513Z</time></trkpt><trkpt lat="44.60452" lon="8.5620328"><ele>372.0</ele><time>2026-04-04T09:49:06.518Z</time></trkpt><trkpt lat="44.6044289" lon="8.5621033"><ele>373.0</ele><time>2026-04-04T09:49:07.514Z</time></trkpt><trkpt lat="44.6043447" lon="8.5621666"><ele>374.0</ele><time>2026-04-04T09:49:08.532Z</time></trkpt><trkpt lat="44.6042727" lon="8.5622555"><ele>375.0</ele><time>2026-04-04T09:49:09.514Z</time></trkpt><trkpt lat="44.6042005" lon="8.5623455"><ele>373.3333333333333</ele><time>2026-04-04T09:49:10.512Z</time></trkpt><trkpt lat="44.6041346" lon="8.5624267"><ele>371.6666666666667</ele><time>2026-04-04T09:49:11.517Z</time></trkpt><trkpt lat="44.604063" lon="8.5624646"><ele>370.0</ele><time>2026-04-04T09:49:12.517Z</time></trkpt><trkpt lat="44.6040009" lon="8.5624836"><ele>368.33333333333337</ele><time>2026-04-04T09:49:13.508Z</time></trkpt><trkpt lat="44.6039399" lon="8.5624581"><ele>366.6666666666667</ele><time>2026-04-04T09:49:14.512Z</time></trkpt><trkpt lat="44.603865" lon="8.5624266"><ele>365.0</ele><time>2026-04-04T09:49:15.517Z</time></trkpt><trkpt lat="44.6037865" lon="8.5623884"><ele>365.0</ele><time>2026-04-04T09:49:16.518Z</time></trkpt><trkpt lat="44.6037212" lon="8.5623246"><ele>365.0</ele><time>2026-04-04T09:49:17.526Z</time></trkpt><trkpt lat="44.6036589" lon="8.5622477"><ele>365.0</ele><time>2026-04-04T09:49:18.511Z</time></trkpt><trkpt lat="44.603589" lon="8.5621629"><ele>365.0</ele><time>2026-04-04T09:49:19.516Z</time></trkpt><trkpt lat="44.6035004" lon="8.5620747"><ele>365.0</ele><time>2026-04-04T09:49:20.521Z</time></trkpt><trkpt lat="44.6034101" lon="8.561985"><ele>364.25</ele><time>2026-04-04T09:49:21.518Z</time></trkpt><trkpt lat="44.6033255" lon="8.5619222"><ele>363.5</ele><time>2026-04-04T09:49:22.516Z</time></trkpt><trkpt lat="44.6032401" lon="8.5618586"><ele>362.75</ele><time>2026-04-04T09:49:23.524Z</time></trkpt><trkpt lat="44.6030422" lon="8.5618629"><ele>362.0</ele><time>2026-04-04T09:49:25.513Z</time></trkpt><trkpt lat="44.6029192" lon="8.5618885"><ele>361.75</ele><time>2026-04-04T09:49:26.509Z</time></trkpt><trkpt lat="44.6027753" lon="8.561914"><ele>361.5</ele><time>2026-04-04T09:49:27.516Z</time></trkpt><trkpt lat="44.602628" lon="8.5619323"><ele>361.25</ele><time>2026-04-04T09:49:28.51Z</time></trkpt><trkpt lat="44.6024825" lon="8.5619564"><ele>361.0</ele><time>2026-04-04T09:49:29.512Z</time></trkpt><trkpt lat="44.602338" lon="8.5619923"><ele>361.0</ele><time>2026-04-04T09:49:30.523Z</time></trkpt><trkpt lat="44.602202" lon="8.5620271"><ele>361.0</ele><time>2026-04-04T09:49:31.523Z</time></trkpt><trkpt lat="44.6020867" lon="8.5620536"><ele>361.0</ele><time>2026-04-04T09:49:32.52Z</time></trkpt><trkpt lat="44.6019888" lon="8.5620718"><ele>361.0</ele><time>2026-04-04T09:49:33.523Z</time></trkpt><trkpt lat="44.6019191" lon="8.5620978"><ele>361.0</ele><time>2026-04-04T09:49:34.514Z</time></trkpt><trkpt lat="44.6018482" lon="8.562133"><ele>362.66666666666663</ele><time>2026-04-04T09:49:36.516Z</time></trkpt><trkpt lat="44.6018316" lon="8.5622261"><ele>364.3333333333333</ele><time>2026-04-04T09:49:38.515Z</time></trkpt><trkpt lat="44.6018422" lon="8.5623133"><ele>366.0</ele><time>2026-04-04T09:49:39.517Z</time></trkpt><trkpt lat="44.6018534" lon="8.562425"><ele>367.6666666666667</ele><time>2026-04-04T09:49:40.52Z</time></trkpt><trkpt lat="44.6018445" lon="8.5625444"><ele>369.33333333333337</ele><time>2026-04-04T09:49:41.517Z</time></trkpt><trkpt lat="44.6018098" lon="8.5626644"><ele>371.0</ele><time>2026-04-04T09:49:42.527Z</time></trkpt><trkpt lat="44.6017589" lon="8.5627887"><ele>371.4</ele><time>2026-04-04T09:49:43.514Z</time></trkpt><trkpt lat="44.6016894" lon="8.5628998"><ele>371.8</ele><time>2026-04-04T09:49:44.519Z</time></trkpt><trkpt lat="44.6015752" lon="8.5630999"><ele>372.2</ele><time>2026-04-04T09:49:46.519Z</time></trkpt><trkpt lat="44.6015767" lon="8.5632031"><ele>372.59999999999997</ele><time>2026-04-04T09:49:47.522Z</time></trkpt><trkpt lat="44.6016131" lon="8.5632915"><ele>373.0</ele><time>2026-04-04T09:49:48.519Z</time></trkpt><trkpt lat="44.6016686" lon="8.5633601"><ele>373.0</ele><time>2026-04-04T09:49:49.513Z</time></trkpt><trkpt lat="44.6017584" lon="8.5634099"><ele>373.0</ele><time>2026-04-04T09:49:50.531Z</time></trkpt><trkpt lat="44.6018556" lon="8.5634647"><ele>373.0</ele><time>2026-04-04T09:49:51.52Z</time></trkpt><trkpt lat="44.6019556" lon="8.5635392"><ele>373.0</ele><time>2026-04-04T09:49:52.509Z</time></trkpt><trkpt lat="44.602044" lon="8.5636311"><ele>373.0</ele><time>2026-04-04T09:49:53.528Z</time></trkpt><trkpt lat="44.6021198" lon="8.5637262"><ele>373.79999999999995</ele><time>2026-04-04T09:49:54.515Z</time></trkpt><trkpt lat="44.6021933" lon="8.5638206"><ele>374.6</ele><time>2026-04-04T09:49:55.514Z</time></trkpt><trkpt lat="44.6022617" lon="8.5639117"><ele>375.4</ele><time>2026-04-04T09:49:56.519Z</time></trkpt><trkpt lat="44.6023213" lon="8.5640007"><ele>376.20000000000005</ele><time>2026-04-04T09:49:57.529Z</time></trkpt><trkpt lat="44.6023727" lon="8.5640986"><ele>377.0</ele><time>2026-04-04T09:49:58.515Z</time></trkpt><trkpt lat="44.602418" lon="8.5642126"><ele>377.0</ele><time>2026-04-04T09:49:59.526Z</time></trkpt><trkpt lat="44.6024586" lon="8.5643423"><ele>377.0</ele><time>2026-04-04T09:50:00.516Z</time></trkpt><trkpt lat="44.6024986" lon="8.564487"><ele>377.0</ele><time>2026-04-04T09:50:01.514Z</time></trkpt><trkpt lat="44.6025412" lon="8.5646306"><ele>377.0</ele><time>2026-04-04T09:50:02.534Z</time></trkpt><trkpt lat="44.6025861" lon="8.5647621"><ele>377.0</ele><time>2026-04-04T09:50:03.523Z</time></trkpt><trkpt lat="44.6026374" lon="8.5648843"><ele>376.5</ele><time>2026-04-04T09:50:04.52Z</time></trkpt><trkpt lat="44.6026958" lon="8.5650005"><ele>376.0</ele><time>2026-04-04T09:50:05.521Z</time></trkpt><trkpt lat="44.6028224" lon="8.5652488"><ele>375.5</ele><time>2026-04-04T09:50:07.511Z</time></trkpt><trkpt lat="44.6028829" lon="8.5653789"><ele>375.0</ele><time>2026-04-04T09:50:08.517Z</time></trkpt><trkpt lat="44.6029436" lon="8.5655085"><ele>373.0</ele><time>2026-04-04T09:50:09.524Z</time></trkpt><trkpt lat="44.6029956" lon="8.5656451"><ele>371.0</ele><time>2026-04-04T09:50:10.518Z</time></trkpt><trkpt lat="44.6030431" lon="8.5657875"><ele>369.0</ele><time>2026-04-04T09:50:11.514Z</time></trkpt><trkpt lat="44.6030916" lon="8.5659287"><ele>367.0</ele><time>2026-04-04T09:50:12.524Z</time></trkpt><trkpt lat="44.6031319" lon="8.5660538"><ele>365.0</ele><time>2026-04-04T09:50:13.525Z</time></trkpt><trkpt lat="44.6031833" lon="8.5661704"><ele>365.5</ele><time>2026-04-04T09:50:14.517Z</time></trkpt><trkpt lat="44.6032483" lon="8.5662769"><ele>366.0</ele><time>2026-04-04T09:50:15.522Z</time></trkpt><trkpt lat="44.6033035" lon="8.5663785"><ele>366.5</ele><time>2026-04-04T09:50:16.519Z</time></trkpt><trkpt lat="44.6033357" lon="8.5664759"><ele>367.0</ele><time>2026-04-04T09:50:17.518Z</time></trkpt><trkpt lat="44.6033412" lon="8.5665691"><ele>367.5</ele><time>2026-04-04T09:50:18.525Z</time></trkpt><trkpt lat="44.6033279" lon="8.5666593"><ele>368.0</ele><time>2026-04-04T09:50:19.512Z</time></trkpt><trkpt lat="44.6033045" lon="8.5667487"><ele>368.0</ele><time>2026-04-04T09:50:20.518Z</time></trkpt><trkpt lat="44.6032791" lon="8.5668333"><ele>368.0</ele><time>2026-04-04T09:50:21.512Z</time></trkpt><trkpt lat="44.6032479" lon="8.5669233"><ele>368.0</ele><time>2026-04-04T09:50:22.515Z</time></trkpt><trkpt lat="44.6032122" lon="8.5670181"><ele>368.0</ele><time>2026-04-04T09:50:23.51Z</time></trkpt><trkpt lat="44.6031845" lon="8.567116"><ele>368.0</ele><time>2026-04-04T09:50:24.512Z</time></trkpt><trkpt lat="44.6031693" lon="8.5672196"><ele>368.0</ele><time>2026-04-04T09:50:25.516Z</time></trkpt><trkpt lat="44.603191" lon="8.5673466"><ele>368.0</ele><time>2026-04-04T09:50:26.518Z</time></trkpt><trkpt lat="44.6032437" lon="8.5676343"><ele>368.0</ele><time>2026-04-04T09:50:28.514Z</time></trkpt><trkpt lat="44.6032461" lon="8.5677766"><ele>368.0</ele><time>2026-04-04T09:50:29.515Z</time></trkpt><trkpt lat="44.6032244" lon="8.5679075"><ele>368.0</ele><time>2026-04-04T09:50:30.515Z</time></trkpt><trkpt lat="44.6031745" lon="8.5680439"><ele>366.79999999999995</ele><time>2026-04-04T09:50:31.514Z</time></trkpt><trkpt lat="44.6031036" lon="8.5681669"><ele>365.6</ele><time>2026-04-04T09:50:32.515Z</time></trkpt><trkpt lat="44.603013" lon="8.5682657"><ele>364.4</ele><time>2026-04-04T09:50:33.522Z</time></trkpt><trkpt lat="44.6029157" lon="8.5683451"><ele>363.20000000000005</ele><time>2026-04-04T09:50:34.522Z</time></trkpt><trkpt lat="44.6028195" lon="8.5684131"><ele>362.0</ele><time>2026-04-04T09:50:35.521Z</time></trkpt><trkpt lat="44.6027294" lon="8.5684759"><ele>359.25</ele><time>2026-04-04T09:50:36.526Z</time></trkpt><trkpt lat="44.6026383" lon="8.5685484"><ele>356.5</ele><time>2026-04-04T09:50:37.524Z</time></trkpt><trkpt lat="44.6025414" lon="8.5686372"><ele>353.75</ele><time>2026-04-04T09:50:38.522Z</time></trkpt><trkpt lat="44.6024416" lon="8.5687352"><ele>351.0</ele><time>2026-04-04T09:50:39.518Z</time></trkpt><trkpt lat="44.6023401" lon="8.5688349"><ele>351.0</ele><time>2026-04-04T09:50:40.527Z</time></trkpt><trkpt lat="44.6022374" lon="8.5689382"><ele>351.0</ele><time>2026-04-04T09:50:41.521Z</time></trkpt><trkpt lat="44.60213" lon="8.569043"><ele>351.0</ele><time>2026-04-04T09:50:42.516Z</time></trkpt><trkpt lat="44.6020175" lon="8.5691483"><ele>351.0</ele><time>2026-04-04T09:50:43.51Z</time></trkpt><trkpt lat="44.601902" lon="8.5692566"><ele>350.75</ele><time>2026-04-04T09:50:44.517Z</time></trkpt><trkpt lat="44.6017832" lon="8.5693632"><ele>350.5</ele><time>2026-04-04T09:50:45.524Z</time></trkpt><trkpt lat="44.6016619" lon="8.5694748"><ele>350.25</ele><time>2026-04-04T09:50:46.532Z</time></trkpt><trkpt lat="44.6015418" lon="8.5695897"><ele>350.0</ele><time>2026-04-04T09:50:47.52Z</time></trkpt><trkpt lat="44.6012945" lon="8.5698237"><ele>350.0</ele><time>2026-04-04T09:50:49.521Z</time></trkpt><trkpt lat="44.6011721" lon="8.5699355"><ele>350.0</ele><time>2026-04-04T09:50:50.523Z</time></trkpt><trkpt lat="44.6010494" lon="8.5700457"><ele>350.0</ele><time>2026-04-04T09:50:51.526Z</time></trkpt><trkpt lat="44.6009269" lon="8.5701534"><ele>350.0</ele><time>2026-04-04T09:50:52.527Z</time></trkpt><trkpt lat="44.6008041" lon="8.5702598"><ele>349.75</ele><time>2026-04-04T09:50:53.52Z</time></trkpt><trkpt lat="44.6006784" lon="8.5703676"><ele>349.5</ele><time>2026-04-04T09:50:54.53Z</time></trkpt><trkpt lat="44.6005537" lon="8.570473"><ele>349.25</ele><time>2026-04-04T09:50:55.53Z</time></trkpt><trkpt lat="44.6004351" lon="8.570578"><ele>349.0</ele><time>2026-04-04T09:50:56.522Z</time></trkpt><trkpt lat="44.6003239" lon="8.5706815"><ele>349.0</ele><time>2026-04-04T09:50:57.519Z</time></trkpt><trkpt lat="44.6002163" lon="8.5707883"><ele>349.0</ele><time>2026-04-04T09:50:58.52Z</time></trkpt><trkpt lat="44.6001101" lon="8.5709029"><ele>349.0</ele><time>2026-04-04T09:50:59.525Z</time></trkpt><trkpt lat="44.6000129" lon="8.5710196"><ele>349.0</ele><time>2026-04-04T09:51:00.526Z</time></trkpt><trkpt lat="44.5999318" lon="8.5711338"><ele>348.5</ele><time>2026-04-04T09:51:01.517Z</time></trkpt><trkpt lat="44.599867" lon="8.57124"><ele>348.0</ele><time>2026-04-04T09:51:02.523Z</time></trkpt><trkpt lat="44.5998148" lon="8.5713327"><ele>347.5</ele><time>2026-04-04T09:51:03.525Z</time></trkpt><trkpt lat="44.5997694" lon="8.5714132"><ele>347.0</ele><time>2026-04-04T09:51:04.521Z</time></trkpt><trkpt lat="44.5997472" lon="8.571497"><ele>346.5</ele><time>2026-04-04T09:51:05.516Z</time></trkpt><trkpt lat="44.5997503" lon="8.5715956"><ele>346.0</ele><time>2026-04-04T09:51:06.518Z</time></trkpt><trkpt lat="44.5997656" lon="8.5717139"><ele>346.0</ele><time>2026-04-04T09:51:07.52Z</time></trkpt><trkpt lat="44.5998091" lon="8.5718503"><ele>346.0</ele><time>2026-04-04T09:51:08.518Z</time></trkpt><trkpt lat="44.5998993" lon="8.5721555"><ele>346.0</ele><time>2026-04-04T09:51:10.521Z</time></trkpt><trkpt lat="44.5999306" lon="8.5722958"><ele>346.0</ele><time>2026-04-04T09:51:11.515Z</time></trkpt><trkpt lat="44.5999412" lon="8.5724356"><ele>345.0</ele><time>2026-04-04T09:51:12.517Z</time></trkpt><trkpt lat="44.5999373" lon="8.5725834"><ele>344.0</ele><time>2026-04-04T09:51:13.517Z</time></trkpt><trkpt lat="44.5999288" lon="8.5727364"><ele>343.0</ele><time>2026-04-04T09:51:14.517Z</time></trkpt><trkpt lat="44.5999198" lon="8.5728867"><ele>342.0</ele><time>2026-04-04T09:51:15.517Z</time></trkpt><trkpt lat="44.5999027" lon="8.5730444"><ele>341.0</ele><time>2026-04-04T09:51:16.519Z</time></trkpt><trkpt lat="44.5998785" lon="8.5732034"><ele>341.0</ele><time>2026-04-04T09:51:17.518Z</time></trkpt><trkpt lat="44.5998477" lon="8.5733688"><ele>341.0</ele><time>2026-04-04T09:51:18.515Z</time></trkpt><trkpt lat="44.5998133" lon="8.5735303"><ele>341.0</ele><time>2026-04-04T09:51:19.521Z</time></trkpt><trkpt lat="44.5997781" lon="8.5736774"><ele>341.0</ele><time>2026-04-04T09:51:20.525Z</time></trkpt><trkpt lat="44.5997396" lon="8.5738122"><ele>339.5</ele><time>2026-04-04T09:51:21.513Z</time></trkpt><trkpt lat="44.5996835" lon="8.5739399"><ele>338.0</ele><time>2026-04-04T09:51:22.514Z</time></trkpt><trkpt lat="44.5996079" lon="8.5740613"><ele>336.5</ele><time>2026-04-04T09:51:23.524Z</time></trkpt><trkpt lat="44.5995144" lon="8.5741724"><ele>335.0</ele><time>2026-04-04T09:51:24.513Z</time></trkpt><trkpt lat="44.5994105" lon="8.5742639"><ele>334.6</ele><time>2026-04-04T09:51:25.523Z</time></trkpt><trkpt lat="44.5993102" lon="8.5743312"><ele>334.2</ele><time>2026-04-04T09:51:26.524Z</time></trkpt><trkpt lat="44.5992189" lon="8.5743684"><ele>333.79999999999995</ele><time>2026-04-04T09:51:27.522Z</time></trkpt><trkpt lat="44.5991336" lon="8.5743775"><ele>333.4</ele><time>2026-04-04T09:51:28.52Z</time></trkpt><trkpt lat="44.5990579" lon="8.5743892"><ele>333.0</ele><time>2026-04-04T09:51:29.518Z</time></trkpt><trkpt lat="44.5989646" lon="8.5745552"><ele>333.0</ele><time>2026-04-04T09:51:32.526Z</time></trkpt><trkpt lat="44.5990574" lon="8.5746769"><ele>333.0</ele><time>2026-04-04T09:51:34.519Z</time></trkpt><trkpt lat="44.5991277" lon="8.5747461"><ele>333.0</ele><time>2026-04-04T09:51:35.528Z</time></trkpt><trkpt lat="44.5991895" lon="8.5748347"><ele>333.0</ele><time>2026-04-04T09:51:36.516Z</time></trkpt><trkpt lat="44.5992418" lon="8.5749369"><ele>333.0</ele><time>2026-04-04T09:51:37.504Z</time></trkpt><trkpt lat="44.5992574" lon="8.5750695"><ele>333.0</ele><time>2026-04-04T09:51:38.513Z</time></trkpt><trkpt lat="44.5992494" lon="8.5752048"><ele>333.0</ele><time>2026-04-04T09:51:39.513Z</time></trkpt><trkpt lat="44.5992469" lon="8.5753268"><ele>333.0</ele><time>2026-04-04T09:51:40.512Z</time></trkpt><trkpt lat="44.5992618" lon="8.5754291"><ele>333.0</ele><time>2026-04-04T09:51:41.526Z</time></trkpt><trkpt lat="44.5992964" lon="8.5755037"><ele>333.0</ele><time>2026-04-04T09:51:42.52Z</time></trkpt><trkpt lat="44.5993424" lon="8.5755676"><ele>333.0</ele><time>2026-04-04T09:51:43.513Z</time></trkpt><trkpt lat="44.5994144" lon="8.5755966"><ele>332.6666666666667</ele><time>2026-04-04T09:51:44.512Z</time></trkpt><trkpt lat="44.5994954" lon="8.5756192"><ele>332.3333333333333</ele><time>2026-04-04T09:51:45.513Z</time></trkpt><trkpt lat="44.599582" lon="8.5756225"><ele>332.0</ele><time>2026-04-04T09:51:46.509Z</time></trkpt><trkpt lat="44.5996691" lon="8.5756446"><ele>331.66666666666663</ele><time>2026-04-04T09:51:47.516Z</time></trkpt><trkpt lat="44.5997413" lon="8.575711"><ele>331.3333333333333</ele><time>2026-04-04T09:51:48.516Z</time></trkpt><trkpt lat="44.5998077" lon="8.5757896"><ele>331.0</ele><time>2026-04-04T09:51:49.527Z</time></trkpt><trkpt lat="44.5998879" lon="8.5758268"><ele>331.0</ele><time>2026-04-04T09:51:50.52Z</time></trkpt><trkpt lat="44.6000942" lon="8.5758669"><ele>331.0</ele><time>2026-04-04T09:51:52.528Z</time></trkpt><trkpt lat="44.6002041" lon="8.5759125"><ele>331.0</ele><time>2026-04-04T09:51:53.516Z</time></trkpt><trkpt lat="44.6003036" lon="8.5759831"><ele>331.0</ele><time>2026-04-04T09:51:54.518Z</time></trkpt><trkpt lat="44.6003945" lon="8.5760529"><ele>330.6</ele><time>2026-04-04T09:51:55.512Z</time></trkpt><trkpt lat="44.6004833" lon="8.5761451"><ele>330.20000000000005</ele><time>2026-04-04T09:51:56.526Z</time></trkpt><trkpt lat="44.6005653" lon="8.5762425"><ele>329.79999999999995</ele><time>2026-04-04T09:51:57.512Z</time></trkpt><trkpt lat="44.6006317" lon="8.5763435"><ele>329.4</ele><time>2026-04-04T09:51:58.527Z</time></trkpt><trkpt lat="44.6006796" lon="8.5764648"><ele>329.0</ele><time>2026-04-04T09:51:59.525Z</time></trkpt><trkpt lat="44.6007134" lon="8.5766014"><ele>328.2</ele><time>2026-04-04T09:52:00.516Z</time></trkpt><trkpt lat="44.6007436" lon="8.5767347"><ele>327.4</ele><time>2026-04-04T09:52:01.514Z</time></trkpt><trkpt lat="44.6007728" lon="8.5768585"><ele>326.6</ele><time>2026-04-04T09:52:02.521Z</time></trkpt><trkpt lat="44.6007995" lon="8.5769734"><ele>325.8</ele><time>2026-04-04T09:52:03.521Z</time></trkpt><trkpt lat="44.6008122" lon="8.5770988"><ele>325.0</ele><time>2026-04-04T09:52:04.512Z</time></trkpt><trkpt lat="44.6008173" lon="8.5772248"><ele>324.6</ele><time>2026-04-04T09:52:05.517Z</time></trkpt><trkpt lat="44.6008089" lon="8.5773492"><ele>324.2</ele><time>2026-04-04T09:52:06.512Z</time></trkpt><trkpt lat="44.6007772" lon="8.5774867"><ele>323.79999999999995</ele><time>2026-04-04T09:52:07.511Z</time></trkpt><trkpt lat="44.6007352" lon="8.5776309"><ele>323.4</ele><time>2026-04-04T09:52:08.524Z</time></trkpt><trkpt lat="44.6006672" lon="8.5777565"><ele>323.0</ele><time>2026-04-04T09:52:09.514Z</time></trkpt><trkpt lat="44.6006108" lon="8.5778795"><ele>320.5</ele><time>2026-04-04T09:52:10.521Z</time></trkpt><trkpt lat="44.600574" lon="8.5780115"><ele>318.0</ele><time>2026-04-04T09:52:11.523Z</time></trkpt><trkpt lat="44.6005736" lon="8.5783058"><ele>315.5</ele><time>2026-04-04T09:52:13.514Z</time></trkpt><trkpt lat="44.6005988" lon="8.5784568"><ele>313.0</ele><time>2026-04-04T09:52:14.513Z</time></trkpt><trkpt lat="44.600624" lon="8.5785981"><ele>310.6</ele><time>2026-04-04T09:52:15.524Z</time></trkpt><trkpt lat="44.6006374" lon="8.5787351"><ele>308.20000000000005</ele><time>2026-04-04T09:52:16.517Z</time></trkpt><trkpt lat="44.6006221" lon="8.5788673"><ele>305.8</ele><time>2026-04-04T09:52:17.518Z</time></trkpt><trkpt lat="44.6005914" lon="8.5790038"><ele>303.40000000000003</ele><time>2026-04-04T09:52:18.517Z</time></trkpt><trkpt lat="44.6005606" lon="8.5791406"><ele>301.0</ele><time>2026-04-04T09:52:19.517Z</time></trkpt><trkpt lat="44.6005089" lon="8.5792575"><ele>301.0</ele><time>2026-04-04T09:52:20.514Z</time></trkpt><trkpt lat="44.6004492" lon="8.5793667"><ele>301.0</ele><time>2026-04-04T09:52:21.518Z</time></trkpt><trkpt lat="44.6003603" lon="8.5794674"><ele>301.0</ele><time>2026-04-04T09:52:22.516Z</time></trkpt><trkpt lat="44.6002601" lon="8.5795619"><ele>301.0</ele><time>2026-04-04T09:52:23.516Z</time></trkpt><trkpt lat="44.6001706" lon="8.5796647"><ele>301.0</ele><time>2026-04-04T09:52:24.517Z</time></trkpt><trkpt lat="44.6000935" lon="8.5797717"><ele>304.6</ele><time>2026-04-04T09:52:25.524Z</time></trkpt><trkpt lat="44.6000285" lon="8.5798809"><ele>308.20000000000005</ele><time>2026-04-04T09:52:26.516Z</time></trkpt><trkpt lat="44.5999791" lon="8.5799924"><ele>311.79999999999995</ele><time>2026-04-04T09:52:27.524Z</time></trkpt><trkpt lat="44.5999332" lon="8.5801073"><ele>315.4</ele><time>2026-04-04T09:52:28.518Z</time></trkpt><trkpt lat="44.5998885" lon="8.5802229"><ele>319.0</ele><time>2026-04-04T09:52:29.514Z</time></trkpt><trkpt lat="44.5998473" lon="8.5803361"><ele>317.2</ele><time>2026-04-04T09:52:30.519Z</time></trkpt><trkpt lat="44.5998077" lon="8.5804492"><ele>315.4</ele><time>2026-04-04T09:52:31.524Z</time></trkpt><trkpt lat="44.5997708" lon="8.5805564"><ele>313.6</ele><time>2026-04-04T09:52:32.519Z</time></trkpt><trkpt lat="44.5996405" lon="8.5807194"><ele>311.8</ele><time>2026-04-04T09:52:34.521Z</time></trkpt><trkpt lat="44.5995599" lon="8.580794"><ele>310.0</ele><time>2026-04-04T09:52:35.522Z</time></trkpt><trkpt lat="44.5994809" lon="8.5808636"><ele>310.0</ele><time>2026-04-04T09:52:36.519Z</time></trkpt><trkpt lat="44.5994082" lon="8.5809287"><ele>310.0</ele><time>2026-04-04T09:52:37.522Z</time></trkpt><trkpt lat="44.5993415" lon="8.5809876"><ele>310.0</ele><time>2026-04-04T09:52:38.519Z</time></trkpt><trkpt lat="44.5992768" lon="8.5810398"><ele>310.0</ele><time>2026-04-04T09:52:39.516Z</time></trkpt><trkpt lat="44.5992159" lon="8.581088"><ele>310.0</ele><time>2026-04-04T09:52:40.522Z</time></trkpt><trkpt lat="44.5991601" lon="8.5811319"><ele>310.0</ele><time>2026-04-04T09:52:41.522Z</time></trkpt><trkpt lat="44.5990662" lon="8.5811965"><ele>309.4</ele><time>2026-04-04T09:52:43.527Z</time></trkpt><trkpt lat="44.5990085" lon="8.5812496"><ele>308.8</ele><time>2026-04-04T09:52:44.517Z</time></trkpt><trkpt lat="44.5989437" lon="8.581334"><ele>308.2</ele><time>2026-04-04T09:52:45.522Z</time></trkpt><trkpt lat="44.598868" lon="8.5814398"><ele>307.6</ele><time>2026-04-04T09:52:46.522Z</time></trkpt><trkpt lat="44.5987845" lon="8.5815554"><ele>307.0</ele><time>2026-04-04T09:52:47.523Z</time></trkpt><trkpt lat="44.5987048" lon="8.5816658"><ele>307.3333333333333</ele><time>2026-04-04T09:52:48.518Z</time></trkpt><trkpt lat="44.5986346" lon="8.5817686"><ele>307.66666666666663</ele><time>2026-04-04T09:52:49.525Z</time></trkpt><trkpt lat="44.5985682" lon="8.5818656"><ele>308.0</ele><time>2026-04-04T09:52:50.525Z</time></trkpt><trkpt lat="44.59851" lon="8.5819562"><ele>308.3333333333333</ele><time>2026-04-04T09:52:51.53Z</time></trkpt><trkpt lat="44.5984615" lon="8.5820371"><ele>308.6666666666667</ele><time>2026-04-04T09:52:52.515Z</time></trkpt><trkpt lat="44.5984241" lon="8.5821202"><ele>309.0</ele><time>2026-04-04T09:52:53.517Z</time></trkpt><trkpt lat="44.5983662" lon="8.5823968"><ele>309.0</ele><time>2026-04-04T09:52:57.513Z</time></trkpt><trkpt lat="44.5984268" lon="8.5824392"><ele>309.0</ele><time>2026-04-04T09:52:59.509Z</time></trkpt><trkpt lat="44.598523" lon="8.5824118"><ele>309.0</ele><time>2026-04-04T09:53:01.52Z</time></trkpt><trkpt lat="44.598596" lon="8.5823755"><ele>309.0</ele><time>2026-04-04T09:53:02.513Z</time></trkpt><trkpt lat="44.5986704" lon="8.5823349"><ele>309.0</ele><time>2026-04-04T09:53:03.51Z</time></trkpt><trkpt lat="44.598739" lon="8.5822929"><ele>309.0</ele><time>2026-04-04T09:53:04.514Z</time></trkpt><trkpt lat="44.5987979" lon="8.5822603"><ele>305.0</ele><time>2026-04-04T09:53:05.517Z</time></trkpt><trkpt lat="44.5989068" lon="8.5822403"><ele>301.0</ele><time>2026-04-04T09:53:07.513Z</time></trkpt><trkpt lat="44.5989714" lon="8.5823008"><ele>297.0</ele><time>2026-04-04T09:53:09.512Z</time></trkpt><trkpt lat="44.5989487" lon="8.5823946"><ele>293.0</ele><time>2026-04-04T09:53:11.516Z</time></trkpt><trkpt lat="44.5988662" lon="8.5824662"><ele>289.0</ele><time>2026-04-04T09:53:13.52Z</time></trkpt><trkpt lat="44.598769" lon="8.5825626"><ele>289.0</ele><time>2026-04-04T09:53:15.512Z</time></trkpt><trkpt lat="44.5986886" lon="8.5828377"><ele>289.0</ele><time>2026-04-04T09:53:19.515Z</time></trkpt><trkpt lat="44.5987257" lon="8.5829821"><ele>289.0</ele><time>2026-04-04T09:53:21.522Z</time></trkpt><trkpt lat="44.5988177" lon="8.5830169"><ele>289.0</ele><time>2026-04-04T09:53:23.521Z</time></trkpt><trkpt lat="44.5988776" lon="8.5829861"><ele>289.0</ele><time>2026-04-04T09:53:24.516Z</time></trkpt><trkpt lat="44.5989354" lon="8.5829468"><ele>289.0</ele><time>2026-04-04T09:53:25.511Z</time></trkpt><trkpt lat="44.5990015" lon="8.5829008"><ele>289.0</ele><time>2026-04-04T09:53:26.518Z</time></trkpt><trkpt lat="44.5990717" lon="8.5828534"><ele>289.0</ele><time>2026-04-04T09:53:27.517Z</time></trkpt><trkpt lat="44.5991412" lon="8.5828157"><ele>289.0</ele><time>2026-04-04T09:53:28.515Z</time></trkpt><trkpt lat="44.5992286" lon="8.5828239"><ele>289.0</ele><time>2026-04-04T09:53:30.519Z</time></trkpt><trkpt lat="44.5992369" lon="8.5829168"><ele>289.0</ele><time>2026-04-04T09:53:32.516Z</time></trkpt><trkpt lat="44.5991793" lon="8.5830335"><ele>285.25</ele><time>2026-04-04T09:53:34.523Z</time></trkpt><trkpt lat="44.5991136" lon="8.5831408"><ele>281.5</ele><time>2026-04-04T09:53:36.523Z</time></trkpt><trkpt lat="44.5989926" lon="8.5833771"><ele>277.75</ele><time>2026-04-04T09:53:40.517Z</time></trkpt><trkpt lat="44.5989001" lon="8.5834873"><ele>274.0</ele><time>2026-04-04T09:53:42.52Z</time></trkpt><trkpt lat="44.5988185" lon="8.5835775"><ele>274.00000000000006</ele><time>2026-04-04T09:53:44.513Z</time></trkpt><trkpt lat="44.5987638" lon="8.5836215"><ele>274.0</ele><time>2026-04-04T09:53:46.522Z</time></trkpt><trkpt lat="44.5986972" lon="8.583678"><ele>274.0</ele><time>2026-04-04T09:53:48.515Z</time></trkpt><trkpt lat="44.5986425" lon="8.5837254"><ele>274.0</ele><time>2026-04-04T09:53:49.514Z</time></trkpt><trkpt lat="44.5985896" lon="8.5837751"><ele>274.0</ele><time>2026-04-04T09:53:50.509Z</time></trkpt><trkpt lat="44.598551" lon="8.583845"><ele>274.00000000000006</ele><time>2026-04-04T09:53:51.52Z</time></trkpt><trkpt lat="44.5985352" lon="8.5839355"><ele>274.0</ele><time>2026-04-04T09:53:52.515Z</time></trkpt><trkpt lat="44.5985461" lon="8.5840268"><ele>273.25</ele><time>2026-04-04T09:53:53.515Z</time></trkpt><trkpt lat="44.5986014" lon="8.5841274"><ele>272.5</ele><time>2026-04-04T09:53:55.512Z</time></trkpt><trkpt lat="44.598677" lon="8.5841316"><ele>271.75</ele><time>2026-04-04T09:53:57.52Z</time></trkpt><trkpt lat="44.5988697" lon="8.5841522"><ele>271.0</ele><time>2026-04-04T09:54:01.525Z</time></trkpt><trkpt lat="44.5989624" lon="8.5841742"><ele>269.8</ele><time>2026-04-04T09:54:03.507Z</time></trkpt><trkpt lat="44.5990656" lon="8.5842274"><ele>268.6</ele><time>2026-04-04T09:54:05.516Z</time></trkpt><trkpt lat="44.5991759" lon="8.584338"><ele>267.4</ele><time>2026-04-04T09:54:07.509Z</time></trkpt><trkpt lat="44.5992341" lon="8.5844034"><ele>266.2</ele><time>2026-04-04T09:54:08.52Z</time></trkpt><trkpt lat="44.5992847" lon="8.5844707"><ele>265.0</ele><time>2026-04-04T09:54:09.514Z</time></trkpt><trkpt lat="44.5993277" lon="8.584546"><ele>264.16666666666663</ele><time>2026-04-04T09:54:10.515Z</time></trkpt><trkpt lat="44.5993831" lon="8.5846862"><ele>263.3333333333333</ele><time>2026-04-04T09:54:12.51Z</time></trkpt><trkpt lat="44.5993961" lon="8.5848332"><ele>262.5</ele><time>2026-04-04T09:54:14.521Z</time></trkpt><trkpt lat="44.5993903" lon="8.5849297"><ele>261.6666666666667</ele><time>2026-04-04T09:54:15.512Z</time></trkpt><trkpt lat="44.599382" lon="8.5850304"><ele>260.83333333333337</ele><time>2026-04-04T09:54:16.512Z</time></trkpt><trkpt lat="44.5993729" lon="8.585118"><ele>260.0</ele><time>2026-04-04T09:54:17.515Z</time></trkpt><trkpt lat="44.5993389" lon="8.5852853"><ele>256.6</ele><time>2026-04-04T09:54:19.516Z</time></trkpt><trkpt lat="44.5992241" lon="8.5854782"><ele>253.2</ele><time>2026-04-04T09:54:22.517Z</time></trkpt><trkpt lat="44.5991278" lon="8.5855805"><ele>249.8</ele><time>2026-04-04T09:54:24.512Z</time></trkpt><trkpt lat="44.5990745" lon="8.5856447"><ele>246.4</ele><time>2026-04-04T09:54:25.512Z</time></trkpt><trkpt lat="44.5990215" lon="8.5857154"><ele>243.0</ele><time>2026-04-04T09:54:26.509Z</time></trkpt><trkpt lat="44.598974" lon="8.5857879"><ele>243.0</ele><time>2026-04-04T09:54:27.509Z</time></trkpt><trkpt lat="44.5989001" lon="8.5859301"><ele>243.0</ele><time>2026-04-04T09:54:29.52Z</time></trkpt><trkpt lat="44.598868" lon="8.5860071"><ele>243.0</ele><time>2026-04-04T09:54:30.524Z</time></trkpt><trkpt lat="44.5988125" lon="8.5861334"><ele>243.0</ele><time>2026-04-04T09:54:32.513Z</time></trkpt><trkpt lat="44.5987492" lon="8.5862296"><ele>243.0</ele><time>2026-04-04T09:54:34.517Z</time></trkpt><trkpt lat="44.5986563" lon="8.5863135"><ele>242.66666666666669</ele><time>2026-04-04T09:54:36.519Z</time></trkpt><trkpt lat="44.5985822" lon="8.586405"><ele>242.33333333333334</ele><time>2026-04-04T09:54:38.512Z</time></trkpt><trkpt lat="44.5985934" lon="8.5865111"><ele>242.0</ele><time>2026-04-04T09:54:41.513Z</time></trkpt><trkpt lat="44.5989563" lon="8.5865623"><ele>241.2</ele><time>2026-04-04T10:09:08.516Z</time></trkpt><trkpt lat="44.5990188" lon="8.5865044"><ele>240.39999999999998</ele><time>2026-04-04T10:09:09.51Z</time></trkpt><trkpt lat="44.5990794" lon="8.586442"><ele>239.60000000000002</ele><time>2026-04-04T10:09:10.518Z</time></trkpt><trkpt lat="44.5991354" lon="8.5863859"><ele>238.8</ele><time>2026-04-04T10:09:11.523Z</time></trkpt><trkpt lat="44.5992372" lon="8.5863061"><ele>238.0</ele><time>2026-04-04T10:09:13.522Z</time></trkpt><trkpt lat="44.5993601" lon="8.5862885"><ele>237.99999999999997</ele><time>2026-04-04T10:09:15.523Z</time></trkpt><trkpt lat="44.5994296" lon="8.5862878"><ele>238.0</ele><time>2026-04-04T10:09:16.509Z</time></trkpt><trkpt lat="44.5995185" lon="8.5863091"><ele>238.0</ele><time>2026-04-04T10:09:17.519Z</time></trkpt><trkpt lat="44.5996104" lon="8.5863379"><ele>238.0</ele><time>2026-04-04T10:09:18.528Z</time></trkpt><trkpt lat="44.5996944" lon="8.5863728"><ele>237.99999999999997</ele><time>2026-04-04T10:09:19.519Z</time></trkpt><trkpt lat="44.599781" lon="8.5864262"><ele>238.0</ele><time>2026-04-04T10:09:20.508Z</time></trkpt><trkpt lat="44.5998673" lon="8.5864914"><ele>236.75</ele><time>2026-04-04T10:09:21.517Z</time></trkpt><trkpt lat="44.5999605" lon="8.5865474"><ele>235.5</ele><time>2026-04-04T10:09:22.516Z</time></trkpt><trkpt lat="44.6000656" lon="8.5865795"><ele>234.25</ele><time>2026-04-04T10:09:23.508Z</time></trkpt><trkpt lat="44.6001772" lon="8.5865855"><ele>233.0</ele><time>2026-04-04T10:09:24.512Z</time></trkpt><trkpt lat="44.6003917" lon="8.5865434"><ele>232.66666666666669</ele><time>2026-04-04T10:09:26.515Z</time></trkpt><trkpt lat="44.6004775" lon="8.5865528"><ele>232.33333333333334</ele><time>2026-04-04T10:09:27.525Z</time></trkpt><trkpt lat="44.6005469" lon="8.5866005"><ele>232.0</ele><time>2026-04-04T10:09:28.513Z</time></trkpt><trkpt lat="44.6005949" lon="8.5866825"><ele>231.66666666666669</ele><time>2026-04-04T10:09:29.515Z</time></trkpt><trkpt lat="44.6006298" lon="8.5867885"><ele>231.33333333333334</ele><time>2026-04-04T10:09:30.52Z</time></trkpt><trkpt lat="44.6006443" lon="8.586921"><ele>231.0</ele><time>2026-04-04T10:09:31.515Z</time></trkpt><trkpt lat="44.6006633" lon="8.5870565"><ele>230.83333333333334</ele><time>2026-04-04T10:09:32.515Z</time></trkpt><trkpt lat="44.6006876" lon="8.5871813"><ele>230.66666666666669</ele><time>2026-04-04T10:09:33.518Z</time></trkpt><trkpt lat="44.6007187" lon="8.5872961"><ele>230.5</ele><time>2026-04-04T10:09:34.523Z</time></trkpt><trkpt lat="44.6007516" lon="8.5874029"><ele>230.33333333333334</ele><time>2026-04-04T10:09:35.518Z</time></trkpt><trkpt lat="44.6007755" lon="8.5875021"><ele>230.16666666666669</ele><time>2026-04-04T10:09:36.514Z</time></trkpt><trkpt lat="44.6007874" lon="8.5875967"><ele>230.0</ele><time>2026-04-04T10:09:37.516Z</time></trkpt><trkpt lat="44.6007748" lon="8.5877474"><ele>230.33333333333334</ele><time>2026-04-04T10:09:39.515Z</time></trkpt><trkpt lat="44.6007249" lon="8.5878517"><ele>230.66666666666669</ele><time>2026-04-04T10:09:41.515Z</time></trkpt><trkpt lat="44.6006955" lon="8.5879337"><ele>231.0</ele><time>2026-04-04T10:09:42.51Z</time></trkpt><trkpt lat="44.600668" lon="8.5880418"><ele>231.33333333333331</ele><time>2026-04-04T10:09:43.516Z</time></trkpt><trkpt lat="44.6006448" lon="8.5881694"><ele>231.66666666666666</ele><time>2026-04-04T10:09:44.513Z</time></trkpt><trkpt lat="44.6006272" lon="8.5882989"><ele>232.0</ele><time>2026-04-04T10:09:45.516Z</time></trkpt><trkpt lat="44.6006583" lon="8.5885565"><ele>233.39999999999998</ele><time>2026-04-04T10:09:47.515Z</time></trkpt><trkpt lat="44.6007084" lon="8.5886815"><ele>234.79999999999998</ele><time>2026-04-04T10:09:48.523Z</time></trkpt><trkpt lat="44.6007665" lon="8.588807"><ele>236.2</ele><time>2026-04-04T10:09:49.516Z</time></trkpt><trkpt lat="44.6008347" lon="8.5889401"><ele>237.6</ele><time>2026-04-04T10:09:50.514Z</time></trkpt><trkpt lat="44.6009005" lon="8.5890705"><ele>239.0</ele><time>2026-04-04T10:09:51.526Z</time></trkpt><trkpt lat="44.6009516" lon="8.5891905"><ele>239.00000000000003</ele><time>2026-04-04T10:09:52.513Z</time></trkpt><trkpt lat="44.6009963" lon="8.5893141"><ele>239.0</ele><time>2026-04-04T10:09:53.513Z</time></trkpt><trkpt lat="44.601034" lon="8.5894288"><ele>239.0</ele><time>2026-04-04T10:09:54.515Z</time></trkpt><trkpt lat="44.6010568" lon="8.5895236"><ele>239.0</ele><time>2026-04-04T10:09:55.522Z</time></trkpt><trkpt lat="44.6010488" lon="8.5896131"><ele>239.00000000000003</ele><time>2026-04-04T10:09:56.508Z</time></trkpt><trkpt lat="44.6010161" lon="8.5897081"><ele>239.0</ele><time>2026-04-04T10:09:57.512Z</time></trkpt><trkpt lat="44.6009462" lon="8.5898096"><ele>238.75</ele><time>2026-04-04T10:09:58.516Z</time></trkpt><trkpt lat="44.6008761" lon="8.5899229"><ele>238.5</ele><time>2026-04-04T10:09:59.516Z</time></trkpt><trkpt lat="44.6007997" lon="8.5900452"><ele>238.25</ele><time>2026-04-04T10:10:00.515Z</time></trkpt><trkpt lat="44.6007276" lon="8.5901798"><ele>238.0</ele><time>2026-04-04T10:10:01.514Z</time></trkpt><trkpt lat="44.6006741" lon="8.5903357"><ele>238.0</ele><time>2026-04-04T10:10:02.521Z</time></trkpt><trkpt lat="44.6006467" lon="8.5905092"><ele>238.0</ele><time>2026-04-04T10:10:03.523Z</time></trkpt><trkpt lat="44.6006411" lon="8.5906989"><ele>238.0</ele><time>2026-04-04T10:10:04.514Z</time></trkpt><trkpt lat="44.6006417" lon="8.5909016"><ele>238.0</ele><time>2026-04-04T10:10:05.516Z</time></trkpt><trkpt lat="44.6006451" lon="8.5911017"><ele>238.66666666666666</ele><time>2026-04-04T10:10:06.522Z</time></trkpt><trkpt lat="44.6006688" lon="8.5915009"><ele>239.33333333333331</ele><time>2026-04-04T10:10:08.514Z</time></trkpt><trkpt lat="44.600686" lon="8.591706"><ele>240.0</ele><time>2026-04-04T10:10:09.516Z</time></trkpt><trkpt lat="44.6007044" lon="8.5919103"><ele>239.75</ele><time>2026-04-04T10:10:10.518Z</time></trkpt><trkpt lat="44.6007219" lon="8.5921113"><ele>239.5</ele><time>2026-04-04T10:10:11.515Z</time></trkpt><trkpt lat="44.6007383" lon="8.5923127"><ele>239.25</ele><time>2026-04-04T10:10:12.515Z</time></trkpt><trkpt lat="44.6007537" lon="8.5925151"><ele>239.0</ele><time>2026-04-04T10:10:13.528Z</time></trkpt><trkpt lat="44.60077" lon="8.592715"><ele>238.75</ele><time>2026-04-04T10:10:14.523Z</time></trkpt><trkpt lat="44.6007878" lon="8.5929144"><ele>238.5</ele><time>2026-04-04T10:10:15.513Z</time></trkpt><trkpt lat="44.6008069" lon="8.5931152"><ele>238.25</ele><time>2026-04-04T10:10:16.52Z</time></trkpt><trkpt lat="44.6008252" lon="8.5933178"><ele>238.0</ele><time>2026-04-04T10:10:17.515Z</time></trkpt><trkpt lat="44.6008433" lon="8.5935243"><ele>237.5</ele><time>2026-04-04T10:10:18.524Z</time></trkpt><trkpt lat="44.6008611" lon="8.5937293"><ele>237.0</ele><time>2026-04-04T10:10:19.523Z</time></trkpt><trkpt lat="44.6008789" lon="8.5939246"><ele>236.5</ele><time>2026-04-04T10:10:20.516Z</time></trkpt><trkpt lat="44.6008958" lon="8.5941076"><ele>236.0</ele><time>2026-04-04T10:10:21.517Z</time></trkpt><trkpt lat="44.6009123" lon="8.5942852"><ele>236.0</ele><time>2026-04-04T10:10:22.516Z</time></trkpt><trkpt lat="44.6009285" lon="8.59447"><ele>236.0</ele><time>2026-04-04T10:10:23.517Z</time></trkpt><trkpt lat="44.6009427" lon="8.5946575"><ele>236.0</ele><time>2026-04-04T10:10:24.514Z</time></trkpt><trkpt lat="44.6009565" lon="8.5948468"><ele>236.0</ele><time>2026-04-04T10:10:25.51Z</time></trkpt><trkpt lat="44.6009736" lon="8.5950434"><ele>236.0</ele><time>2026-04-04T10:10:26.511Z</time></trkpt><trkpt lat="44.6009925" lon="8.5952456"><ele>236.0</ele><time>2026-04-04T10:10:27.509Z</time></trkpt><trkpt lat="44.6010325" lon="8.5956716"><ele>235.0</ele><time>2026-04-04T10:10:29.512Z</time></trkpt><trkpt lat="44.6010523" lon="8.5958971"><ele>234.0</ele><time>2026-04-04T10:10:30.516Z</time></trkpt><trkpt lat="44.6010722" lon="8.5961218"><ele>233.0</ele><time>2026-04-04T10:10:31.511Z</time></trkpt><trkpt lat="44.6010926" lon="8.5963464"><ele>231.66666666666669</ele><time>2026-04-04T10:10:32.516Z</time></trkpt><trkpt lat="44.6011083" lon="8.5965663"><ele>230.33333333333331</ele><time>2026-04-04T10:10:33.515Z</time></trkpt><trkpt lat="44.6011234" lon="8.5967903"><ele>229.0</ele><time>2026-04-04T10:10:34.514Z</time></trkpt><trkpt lat="44.6011405" lon="8.5970163"><ele>228.33333333333331</ele><time>2026-04-04T10:10:35.515Z</time></trkpt><trkpt lat="44.6011558" lon="8.5972363"><ele>227.66666666666669</ele><time>2026-04-04T10:10:36.517Z</time></trkpt><trkpt lat="44.6011732" lon="8.5974452"><ele>227.0</ele><time>2026-04-04T10:10:37.517Z</time></trkpt><trkpt lat="44.6011862" lon="8.5976479"><ele>227.0</ele><time>2026-04-04T10:10:38.513Z</time></trkpt><trkpt lat="44.6011999" lon="8.5978478"><ele>227.0</ele><time>2026-04-04T10:10:39.512Z</time></trkpt><trkpt lat="44.6012123" lon="8.5980419"><ele>227.0</ele><time>2026-04-04T10:10:40.514Z</time></trkpt><trkpt lat="44.6012245" lon="8.598226"><ele>227.0</ele><time>2026-04-04T10:10:41.514Z</time></trkpt><trkpt lat="44.6012307" lon="8.5983972"><ele>227.0</ele><time>2026-04-04T10:10:42.514Z</time></trkpt><trkpt lat="44.6012225" lon="8.5985569"><ele>227.0</ele><time>2026-04-04T10:10:43.523Z</time></trkpt><trkpt lat="44.6011921" lon="8.5987005"><ele>227.0</ele><time>2026-04-04T10:10:44.512Z</time></trkpt><trkpt lat="44.6011355" lon="8.5988358"><ele>227.0</ele><time>2026-04-04T10:10:45.515Z</time></trkpt><trkpt lat="44.6010581" lon="8.5989644"><ele>228.66666666666669</ele><time>2026-04-04T10:10:46.512Z</time></trkpt><trkpt lat="44.600972" lon="8.5990963"><ele>230.33333333333331</ele><time>2026-04-04T10:10:47.51Z</time></trkpt><trkpt lat="44.600871" lon="8.5992393"><ele>232.0</ele><time>2026-04-04T10:10:48.514Z</time></trkpt><trkpt lat="44.6006588" lon="8.599534"><ele>232.0</ele><time>2026-04-04T10:10:50.515Z</time></trkpt><trkpt lat="44.60054" lon="8.5996761"><ele>232.0</ele><time>2026-04-04T10:10:51.51Z</time></trkpt><trkpt lat="44.6004119" lon="8.5998148"><ele>232.0</ele><time>2026-04-04T10:10:52.515Z</time></trkpt><trkpt lat="44.6002785" lon="8.5999485"><ele>230.66666666666666</ele><time>2026-04-04T10:10:53.512Z</time></trkpt><trkpt lat="44.6001419" lon="8.6000798"><ele>229.33333333333331</ele><time>2026-04-04T10:10:54.515Z</time></trkpt><trkpt lat="44.6000036" lon="8.6002104"><ele>228.0</ele><time>2026-04-04T10:10:55.521Z</time></trkpt><trkpt lat="44.5998635" lon="8.60034"><ele>227.66666666666669</ele><time>2026-04-04T10:10:56.517Z</time></trkpt><trkpt lat="44.5997215" lon="8.6004695"><ele>227.33333333333334</ele><time>2026-04-04T10:10:57.515Z</time></trkpt><trkpt lat="44.5995771" lon="8.6006014"><ele>227.0</ele><time>2026-04-04T10:10:58.517Z</time></trkpt><trkpt lat="44.5994315" lon="8.6007352"><ele>227.0</ele><time>2026-04-04T10:10:59.509Z</time></trkpt><trkpt lat="44.5992826" lon="8.6008705"><ele>227.0</ele><time>2026-04-04T10:11:00.509Z</time></trkpt><trkpt lat="44.599132" lon="8.6010059"><ele>227.0</ele><time>2026-04-04T10:11:01.512Z</time></trkpt><trkpt lat="44.5989802" lon="8.60114"><ele>226.0</ele><time>2026-04-04T10:11:02.51Z</time></trkpt><trkpt lat="44.5988316" lon="8.6012732"><ele>225.0</ele><time>2026-04-04T10:11:03.51Z</time></trkpt><trkpt lat="44.598692" lon="8.6014008"><ele>224.0</ele><time>2026-04-04T10:11:04.508Z</time></trkpt><trkpt lat="44.5985608" lon="8.6015222"><ele>225.5</ele><time>2026-04-04T10:11:05.511Z</time></trkpt><trkpt lat="44.5984314" lon="8.6016376"><ele>227.0</ele><time>2026-04-04T10:11:06.51Z</time></trkpt><trkpt lat="44.5983027" lon="8.6017518"><ele>228.5</ele><time>2026-04-04T10:11:07.506Z</time></trkpt><trkpt lat="44.5981829" lon="8.6018638"><ele>230.0</ele><time>2026-04-04T10:11:08.519Z</time></trkpt><trkpt lat="44.5980712" lon="8.6019618"><ele>230.66666666666669</ele><time>2026-04-04T10:11:09.512Z</time></trkpt><trkpt lat="44.5978338" lon="8.6021008"><ele>231.33333333333331</ele><time>2026-04-04T10:11:11.519Z</time></trkpt><trkpt lat="44.5976982" lon="8.602135"><ele>232.0</ele><time>2026-04-04T10:11:12.51Z</time></trkpt><trkpt lat="44.5975615" lon="8.6021435"><ele>232.0</ele><time>2026-04-04T10:11:13.509Z</time></trkpt><trkpt lat="44.5974417" lon="8.6021356"><ele>232.0</ele><time>2026-04-04T10:11:14.511Z</time></trkpt><trkpt lat="44.597337" lon="8.602131"><ele>232.0</ele><time>2026-04-04T10:11:15.508Z</time></trkpt><trkpt lat="44.5972601" lon="8.6021634"><ele>232.0</ele><time>2026-04-04T10:11:16.526Z</time></trkpt><trkpt lat="44.5972213" lon="8.6022564"><ele>232.0</ele><time>2026-04-04T10:11:17.511Z</time></trkpt><trkpt lat="44.597201" lon="8.6023901"><ele>232.0</ele><time>2026-04-04T10:11:18.514Z</time></trkpt><trkpt lat="44.5972026" lon="8.6025479"><ele>232.0</ele><time>2026-04-04T10:11:19.51Z</time></trkpt><trkpt lat="44.5971975" lon="8.6027093"><ele>232.0</ele><time>2026-04-04T10:11:20.518Z</time></trkpt><trkpt lat="44.5971684" lon="8.6028622"><ele>232.0</ele><time>2026-04-04T10:11:21.509Z</time></trkpt><trkpt lat="44.5971137" lon="8.6030035"><ele>228.33333333333331</ele><time>2026-04-04T10:11:22.506Z</time></trkpt><trkpt lat="44.5970073" lon="8.6031353"><ele>224.66666666666669</ele><time>2026-04-04T10:11:23.521Z</time></trkpt><trkpt lat="44.596866" lon="8.6032388"><ele>221.0</ele><time>2026-04-04T10:11:24.509Z</time></trkpt><trkpt lat="44.5967304" lon="8.6033444"><ele>222.66666666666669</ele><time>2026-04-04T10:11:25.508Z</time></trkpt><trkpt lat="44.5966059" lon="8.6034743"><ele>224.33333333333331</ele><time>2026-04-04T10:11:26.514Z</time></trkpt><trkpt lat="44.5964974" lon="8.6036397"><ele>226.0</ele><time>2026-04-04T10:11:27.515Z</time></trkpt><trkpt lat="44.5964162" lon="8.6038309"><ele>226.0</ele><time>2026-04-04T10:11:28.502Z</time></trkpt><trkpt lat="44.5963458" lon="8.6040106"><ele>226.0</ele><time>2026-04-04T10:11:29.51Z</time></trkpt><trkpt lat="44.5962627" lon="8.604143"><ele>226.0</ele><time>2026-04-04T10:11:30.507Z</time></trkpt><trkpt lat="44.5960729" lon="8.6042737"><ele>229.8</ele><time>2026-04-04T10:11:32.505Z</time></trkpt><trkpt lat="44.5959789" lon="8.6042786"><ele>233.60000000000002</ele><time>2026-04-04T10:11:33.511Z</time></trkpt><trkpt lat="44.5959141" lon="8.6043031"><ele>237.4</ele><time>2026-04-04T10:11:34.514Z</time></trkpt><trkpt lat="44.5958589" lon="8.6044677"><ele>241.2</ele><time>2026-04-04T10:11:36.509Z</time></trkpt><trkpt lat="44.5958485" lon="8.6045878"><ele>245.0</ele><time>2026-04-04T10:11:37.507Z</time></trkpt><trkpt lat="44.5958512" lon="8.6047085"><ele>245.0</ele><time>2026-04-04T10:11:38.505Z</time></trkpt><trkpt lat="44.5958765" lon="8.604825"><ele>245.0</ele><time>2026-04-04T10:11:39.508Z</time></trkpt><trkpt lat="44.5959041" lon="8.6049462"><ele>245.0</ele><time>2026-04-04T10:11:40.509Z</time></trkpt><trkpt lat="44.5959474" lon="8.605056"><ele>245.0</ele><time>2026-04-04T10:11:41.505Z</time></trkpt><trkpt lat="44.5959761" lon="8.6051513"><ele>245.0</ele><time>2026-04-04T10:11:42.512Z</time></trkpt><trkpt lat="44.5958969" lon="8.6053028"><ele>243.2</ele><time>2026-04-04T10:11:44.511Z</time></trkpt><trkpt lat="44.5958246" lon="8.6053901"><ele>241.4</ele><time>2026-04-04T10:11:45.511Z</time></trkpt><trkpt lat="44.5957355" lon="8.6054921"><ele>239.60000000000002</ele><time>2026-04-04T10:11:46.508Z</time></trkpt><trkpt lat="44.5956413" lon="8.6056066"><ele>237.8</ele><time>2026-04-04T10:11:47.509Z</time></trkpt><trkpt lat="44.5955649" lon="8.6057159"><ele>236.0</ele><time>2026-04-04T10:11:48.514Z</time></trkpt><trkpt lat="44.5954923" lon="8.605807"><ele>236.0</ele><time>2026-04-04T10:11:49.51Z</time></trkpt><trkpt lat="44.5954024" lon="8.6058593"><ele>236.0</ele><time>2026-04-04T10:11:50.508Z</time></trkpt><trkpt lat="44.5952982" lon="8.6058683"><ele>236.0</ele><time>2026-04-04T10:11:51.516Z</time></trkpt><trkpt lat="44.5951002" lon="8.6058428"><ele>236.0</ele><time>2026-04-04T10:11:53.504Z</time></trkpt><trkpt lat="44.5950216" lon="8.6058871"><ele>240.25</ele><time>2026-04-04T10:11:54.511Z</time></trkpt><trkpt lat="44.5949578" lon="8.6059898"><ele>244.5</ele><time>2026-04-04T10:11:55.511Z</time></trkpt><trkpt lat="44.5949046" lon="8.6061466"><ele>248.75</ele><time>2026-04-04T10:11:56.51Z</time></trkpt><trkpt lat="44.5948743" lon="8.606336"><ele>253.0</ele><time>2026-04-04T10:11:57.511Z</time></trkpt><trkpt lat="44.5948526" lon="8.6065466"><ele>253.0</ele><time>2026-04-04T10:11:58.508Z</time></trkpt><trkpt lat="44.5948332" lon="8.6067691"><ele>253.0</ele><time>2026-04-04T10:11:59.505Z</time></trkpt><trkpt lat="44.5948189" lon="8.6069815"><ele>253.0</ele><time>2026-04-04T10:12:00.513Z</time></trkpt><trkpt lat="44.594806" lon="8.6071598"><ele>253.0</ele><time>2026-04-04T10:12:01.513Z</time></trkpt><trkpt lat="44.594798" lon="8.607316"><ele>252.0</ele><time>2026-04-04T10:12:02.52Z</time></trkpt><trkpt lat="44.594784" lon="8.6074386"><ele>251.0</ele><time>2026-04-04T10:12:03.51Z</time></trkpt><trkpt lat="44.5947381" lon="8.6075284"><ele>250.0</ele><time>2026-04-04T10:12:04.506Z</time></trkpt><trkpt lat="44.5946686" lon="8.60758"><ele>249.0</ele><time>2026-04-04T10:12:05.512Z</time></trkpt><trkpt lat="44.5945664" lon="8.6075898"><ele>248.0</ele><time>2026-04-04T10:12:06.512Z</time></trkpt><trkpt lat="44.5944521" lon="8.607593"><ele>252.0</ele><time>2026-04-04T10:12:07.51Z</time></trkpt><trkpt lat="44.5943263" lon="8.607603"><ele>256.0</ele><time>2026-04-04T10:12:08.505Z</time></trkpt><trkpt lat="44.5941928" lon="8.6076316"><ele>260.0</ele><time>2026-04-04T10:12:09.506Z</time></trkpt><trkpt lat="44.5940502" lon="8.6076865"><ele>264.0</ele><time>2026-04-04T10:12:10.513Z</time></trkpt><trkpt lat="44.5939297" lon="8.6077632"><ele>262.0</ele><time>2026-04-04T10:12:11.514Z</time></trkpt><trkpt lat="44.5938318" lon="8.6078367"><ele>260.0</ele><time>2026-04-04T10:12:12.508Z</time></trkpt><trkpt lat="44.5936717" lon="8.6078413"><ele>258.0</ele><time>2026-04-04T10:12:14.512Z</time></trkpt><trkpt lat="44.593593" lon="8.6077554"><ele>256.0</ele><time>2026-04-04T10:12:15.509Z</time></trkpt><trkpt lat="44.5935244" lon="8.6076262"><ele>256.0</ele><time>2026-04-04T10:12:16.51Z</time></trkpt><trkpt lat="44.5934786" lon="8.6074731"><ele>256.0</ele><time>2026-04-04T10:12:17.514Z</time></trkpt><trkpt lat="44.5934623" lon="8.6072917"><ele>256.0</ele><time>2026-04-04T10:12:18.513Z</time></trkpt><trkpt lat="44.5934366" lon="8.6071092"><ele>256.0</ele><time>2026-04-04T10:12:19.507Z</time></trkpt><trkpt lat="44.5934125" lon="8.6069411"><ele>261.66666666666663</ele><time>2026-04-04T10:12:20.51Z</time></trkpt><trkpt lat="44.5933313" lon="8.6067716"><ele>267.3333333333333</ele><time>2026-04-04T10:12:21.515Z</time></trkpt><trkpt lat="44.5932258" lon="8.6066051"><ele>273.0</ele><time>2026-04-04T10:12:22.524Z</time></trkpt><trkpt lat="44.5931289" lon="8.6064451"><ele>273.0</ele><time>2026-04-04T10:12:23.517Z</time></trkpt><trkpt lat="44.5930554" lon="8.6062981"><ele>273.0</ele><time>2026-04-04T10:12:24.519Z</time></trkpt><trkpt lat="44.5930066" lon="8.6061497"><ele>273.0</ele><time>2026-04-04T10:12:25.517Z</time></trkpt><trkpt lat="44.5929768" lon="8.6059786"><ele>273.0</ele><time>2026-04-04T10:12:26.511Z</time></trkpt><trkpt lat="44.5929577" lon="8.6057872"><ele>274.5</ele><time>2026-04-04T10:12:27.511Z</time></trkpt><trkpt lat="44.5929381" lon="8.6055962"><ele>276.0</ele><time>2026-04-04T10:12:28.512Z</time></trkpt><trkpt lat="44.5929062" lon="8.6054049"><ele>277.5</ele><time>2026-04-04T10:12:29.511Z</time></trkpt><trkpt lat="44.5928511" lon="8.6052147"><ele>279.0</ele><time>2026-04-04T10:12:30.512Z</time></trkpt><trkpt lat="44.5927716" lon="8.6050343"><ele>274.0</ele><time>2026-04-04T10:12:31.513Z</time></trkpt><trkpt lat="44.5926835" lon="8.6048878"><ele>269.0</ele><time>2026-04-04T10:12:32.51Z</time></trkpt><trkpt lat="44.5926201" lon="8.6047426"><ele>264.0</ele><time>2026-04-04T10:12:33.507Z</time></trkpt><trkpt lat="44.5925711" lon="8.6044057"><ele>264.0</ele><time>2026-04-04T10:12:35.506Z</time></trkpt><trkpt lat="44.5925998" lon="8.6042398"><ele>264.0</ele><time>2026-04-04T10:12:36.506Z</time></trkpt><trkpt lat="44.5926556" lon="8.6040582"><ele>264.0</ele><time>2026-04-04T10:12:37.506Z</time></trkpt><trkpt lat="44.5927013" lon="8.6038734"><ele>264.0</ele><time>2026-04-04T10:12:38.509Z</time></trkpt><trkpt lat="44.5927254" lon="8.6036795"><ele>267.5</ele><time>2026-04-04T10:12:39.508Z</time></trkpt><trkpt lat="44.592726" lon="8.6034928"><ele>271.0</ele><time>2026-04-04T10:12:40.514Z</time></trkpt><trkpt lat="44.5927056" lon="8.6033344"><ele>274.5</ele><time>2026-04-04T10:12:41.506Z</time></trkpt><trkpt lat="44.5926627" lon="8.603191"><ele>278.0</ele><time>2026-04-04T10:12:42.507Z</time></trkpt><trkpt lat="44.5925815" lon="8.603054"><ele>278.0</ele><time>2026-04-04T10:12:43.513Z</time></trkpt><trkpt lat="44.5924598" lon="8.6029522"><ele>278.0</ele><time>2026-04-04T10:12:44.502Z</time></trkpt><trkpt lat="44.5923155" lon="8.6028406"><ele>278.0</ele><time>2026-04-04T10:12:45.507Z</time></trkpt><trkpt lat="44.5921684" lon="8.6027279"><ele>277.25</ele><time>2026-04-04T10:12:46.507Z</time></trkpt><trkpt lat="44.592037" lon="8.6026427"><ele>276.5</ele><time>2026-04-04T10:12:47.502Z</time></trkpt><trkpt lat="44.5919303" lon="8.6025592"><ele>275.75</ele><time>2026-04-04T10:12:48.505Z</time></trkpt><trkpt lat="44.5918385" lon="8.6024659"><ele>275.0</ele><time>2026-04-04T10:12:49.512Z</time></trkpt><trkpt lat="44.5917625" lon="8.6023237"><ele>275.0</ele><time>2026-04-04T10:12:50.506Z</time></trkpt><trkpt lat="44.591687" lon="8.6021762"><ele>275.0</ele><time>2026-04-04T10:12:51.502Z</time></trkpt><trkpt lat="44.5916206" lon="8.6020481"><ele>275.0</ele><time>2026-04-04T10:12:52.508Z</time></trkpt><trkpt lat="44.5915447" lon="8.6019373"><ele>275.0</ele><time>2026-04-04T10:12:53.501Z</time></trkpt><trkpt lat="44.5914379" lon="8.6018619"><ele>281.33333333333337</ele><time>2026-04-04T10:12:54.502Z</time></trkpt><trkpt lat="44.5911738" lon="8.6017384"><ele>287.6666666666667</ele><time>2026-04-04T10:12:56.502Z</time></trkpt><trkpt lat="44.5910346" lon="8.6016267"><ele>294.0</ele><time>2026-04-04T10:12:57.512Z</time></trkpt><trkpt lat="44.5908939" lon="8.6015287"><ele>294.0</ele><time>2026-04-04T10:12:58.506Z</time></trkpt><trkpt lat="44.5907397" lon="8.6014393"><ele>294.0</ele><time>2026-04-04T10:12:59.507Z</time></trkpt><trkpt lat="44.5905557" lon="8.6013844"><ele>294.0</ele><time>2026-04-04T10:13:00.507Z</time></trkpt><trkpt lat="44.5903753" lon="8.6013334"><ele>292.0</ele><time>2026-04-04T10:13:01.508Z</time></trkpt><trkpt lat="44.59021" lon="8.6012858"><ele>290.0</ele><time>2026-04-04T10:13:02.503Z</time></trkpt><trkpt lat="44.5900736" lon="8.6012491"><ele>288.0</ele><time>2026-04-04T10:13:03.504Z</time></trkpt><trkpt lat="44.5899519" lon="8.601196"><ele>286.0</ele><time>2026-04-04T10:13:04.512Z</time></trkpt><trkpt lat="44.5898532" lon="8.6011172"><ele>286.40000000000003</ele><time>2026-04-04T10:13:05.507Z</time></trkpt><trkpt lat="44.5897682" lon="8.601064"><ele>286.8</ele><time>2026-04-04T10:13:06.505Z</time></trkpt><trkpt lat="44.5896786" lon="8.6010608"><ele>287.20000000000005</ele><time>2026-04-04T10:13:07.504Z</time></trkpt><trkpt lat="44.5895799" lon="8.601089"><ele>287.6</ele><time>2026-04-04T10:13:08.515Z</time></trkpt><trkpt lat="44.5894687" lon="8.6011738"><ele>288.0</ele><time>2026-04-04T10:13:09.503Z</time></trkpt><trkpt lat="44.5893368" lon="8.6012571"><ele>288.0</ele><time>2026-04-04T10:13:10.507Z</time></trkpt><trkpt lat="44.5891816" lon="8.601304"><ele>288.0</ele><time>2026-04-04T10:13:11.499Z</time></trkpt><trkpt lat="44.5890166" lon="8.6013417"><ele>288.0</ele><time>2026-04-04T10:13:12.51Z</time></trkpt><trkpt lat="44.5888668" lon="8.6013731"><ele>288.0</ele><time>2026-04-04T10:13:13.504Z</time></trkpt><trkpt lat="44.5887219" lon="8.601375"><ele>288.0</ele><time>2026-04-04T10:13:14.497Z</time></trkpt><trkpt lat="44.588563" lon="8.6013554"><ele>288.0</ele><time>2026-04-04T10:13:15.509Z</time></trkpt><trkpt lat="44.588225" lon="8.6013329"><ele>291.6666666666667</ele><time>2026-04-04T10:13:17.501Z</time></trkpt><trkpt lat="44.5880457" lon="8.6013459"><ele>295.33333333333337</ele><time>2026-04-04T10:13:18.503Z</time></trkpt><trkpt lat="44.5878712" lon="8.601372"><ele>299.0</ele><time>2026-04-04T10:13:19.509Z</time></trkpt><trkpt lat="44.5877156" lon="8.6014111"><ele>301.5</ele><time>2026-04-04T10:13:20.509Z</time></trkpt><trkpt lat="44.5875756" lon="8.601462"><ele>304.0</ele><time>2026-04-04T10:13:21.509Z</time></trkpt><trkpt lat="44.5874537" lon="8.6015183"><ele>306.5</ele><time>2026-04-04T10:13:22.507Z</time></trkpt><trkpt lat="44.5873438" lon="8.6015579"><ele>309.0</ele><time>2026-04-04T10:13:23.503Z</time></trkpt><trkpt lat="44.5872315" lon="8.6015693"><ele>309.0</ele><time>2026-04-04T10:13:24.504Z</time></trkpt><trkpt lat="44.5871078" lon="8.6015508"><ele>309.0</ele><time>2026-04-04T10:13:25.51Z</time></trkpt><trkpt lat="44.5869655" lon="8.6015016"><ele>309.0</ele><time>2026-04-04T10:13:26.505Z</time></trkpt><trkpt lat="44.5868084" lon="8.6014459"><ele>309.0</ele><time>2026-04-04T10:13:27.505Z</time></trkpt><trkpt lat="44.5866496" lon="8.6013732"><ele>308.5</ele><time>2026-04-04T10:13:28.504Z</time></trkpt><trkpt lat="44.5865098" lon="8.6012927"><ele>308.0</ele><time>2026-04-04T10:13:29.505Z</time></trkpt><trkpt lat="44.5863902" lon="8.6012077"><ele>307.5</ele><time>2026-04-04T10:13:30.507Z</time></trkpt><trkpt lat="44.5862845" lon="8.6011123"><ele>307.0</ele><time>2026-04-04T10:13:31.505Z</time></trkpt><trkpt lat="44.5861889" lon="8.6010061"><ele>309.25</ele><time>2026-04-04T10:13:32.502Z</time></trkpt><trkpt lat="44.5861256" lon="8.6008658"><ele>311.5</ele><time>2026-04-04T10:13:33.51Z</time></trkpt><trkpt lat="44.5860807" lon="8.6007104"><ele>313.75</ele><time>2026-04-04T10:13:34.505Z</time></trkpt><trkpt lat="44.5860502" lon="8.6005223"><ele>316.0</ele><time>2026-04-04T10:13:35.508Z</time></trkpt><trkpt lat="44.5860205" lon="8.6003167"><ele>318.3333333333333</ele><time>2026-04-04T10:13:36.507Z</time></trkpt><trkpt lat="44.5859591" lon="8.5999159"><ele>320.6666666666667</ele><time>2026-04-04T10:13:38.52Z</time></trkpt><trkpt lat="44.5859367" lon="8.5997561"><ele>323.0</ele><time>2026-04-04T10:13:39.506Z</time></trkpt><trkpt lat="44.5859019" lon="8.5996146"><ele>326.59999999999997</ele><time>2026-04-04T10:13:40.509Z</time></trkpt><trkpt lat="44.5858476" lon="8.5994765"><ele>330.2</ele><time>2026-04-04T10:13:41.503Z</time></trkpt><trkpt lat="44.5857565" lon="8.5993785"><ele>333.8</ele><time>2026-04-04T10:13:42.511Z</time></trkpt><trkpt lat="44.5856535" lon="8.5993175"><ele>337.4</ele><time>2026-04-04T10:13:43.514Z</time></trkpt><trkpt lat="44.5855584" lon="8.5992849"><ele>341.0</ele><time>2026-04-04T10:13:44.51Z</time></trkpt><trkpt lat="44.5854697" lon="8.5993082"><ele>341.0</ele><time>2026-04-04T10:13:45.503Z</time></trkpt><trkpt lat="44.5854038" lon="8.5994046"><ele>341.0</ele><time>2026-04-04T10:13:46.511Z</time></trkpt><trkpt lat="44.5853542" lon="8.5995258"><ele>341.0</ele><time>2026-04-04T10:13:47.514Z</time></trkpt><trkpt lat="44.5853587" lon="8.5996895"><ele>341.0</ele><time>2026-04-04T10:13:48.511Z</time></trkpt><trkpt lat="44.5853821" lon="8.5998384"><ele>341.0</ele><time>2026-04-04T10:13:49.504Z</time></trkpt><trkpt lat="44.5854006" lon="8.5999804"><ele>336.5</ele><time>2026-04-04T10:13:50.506Z</time></trkpt><trkpt lat="44.5853666" lon="8.6001209"><ele>332.0</ele><time>2026-04-04T10:13:51.505Z</time></trkpt><trkpt lat="44.5853163" lon="8.6002755"><ele>327.5</ele><time>2026-04-04T10:13:52.51Z</time></trkpt><trkpt lat="44.5852647" lon="8.6004631"><ele>323.0</ele><time>2026-04-04T10:13:53.504Z</time></trkpt><trkpt lat="44.5852166" lon="8.6006477"><ele>325.25</ele><time>2026-04-04T10:13:54.507Z</time></trkpt><trkpt lat="44.5851741" lon="8.6008138"><ele>327.5</ele><time>2026-04-04T10:13:55.52Z</time></trkpt><trkpt lat="44.5851645" lon="8.6009733"><ele>329.75</ele><time>2026-04-04T10:13:56.511Z</time></trkpt><trkpt lat="44.5851978" lon="8.6011137"><ele>332.0</ele><time>2026-04-04T10:13:57.517Z</time></trkpt><trkpt lat="44.5852666" lon="8.6013484"><ele>332.0</ele><time>2026-04-04T10:13:59.509Z</time></trkpt><trkpt lat="44.5852397" lon="8.6014481"><ele>332.0</ele><time>2026-04-04T10:14:00.502Z</time></trkpt><trkpt lat="44.5852107" lon="8.6015425"><ele>332.0</ele><time>2026-04-04T10:14:01.507Z</time></trkpt><trkpt lat="44.5851082" lon="8.6015838"><ele>332.0</ele><time>2026-04-04T10:14:02.504Z</time></trkpt><trkpt lat="44.5849821" lon="8.6015863"><ele>332.0</ele><time>2026-04-04T10:14:03.52Z</time></trkpt><trkpt lat="44.5848417" lon="8.6015799"><ele>332.0</ele><time>2026-04-04T10:14:04.51Z</time></trkpt><trkpt lat="44.5847129" lon="8.6016213"><ele>332.0</ele><time>2026-04-04T10:14:05.509Z</time></trkpt><trkpt lat="44.5846119" lon="8.6016882"><ele>332.0</ele><time>2026-04-04T10:14:06.514Z</time></trkpt><trkpt lat="44.5845253" lon="8.6017401"><ele>332.0</ele><time>2026-04-04T10:14:07.507Z</time></trkpt><trkpt lat="44.5844417" lon="8.6017342"><ele>332.0</ele><time>2026-04-04T10:14:08.506Z</time></trkpt><trkpt lat="44.5843598" lon="8.6016773"><ele>332.75</ele><time>2026-04-04T10:14:09.526Z</time></trkpt><trkpt lat="44.5842705" lon="8.6015955"><ele>333.5</ele><time>2026-04-04T10:14:10.505Z</time></trkpt><trkpt lat="44.5841608" lon="8.6014989"><ele>334.25</ele><time>2026-04-04T10:14:11.509Z</time></trkpt><trkpt lat="44.5840405" lon="8.601391"><ele>335.0</ele><time>2026-04-04T10:14:12.509Z</time></trkpt><trkpt lat="44.5839153" lon="8.6012695"><ele>338.25</ele><time>2026-04-04T10:14:13.512Z</time></trkpt><trkpt lat="44.5837983" lon="8.6011393"><ele>341.5</ele><time>2026-04-04T10:14:14.515Z</time></trkpt><trkpt lat="44.5836968" lon="8.6010113"><ele>344.75</ele><time>2026-04-04T10:14:15.509Z</time></trkpt><trkpt lat="44.5836216" lon="8.6008877"><ele>348.0</ele><time>2026-04-04T10:14:16.505Z</time></trkpt><trkpt lat="44.5835689" lon="8.6007541"><ele>348.0</ele><time>2026-04-04T10:14:17.508Z</time></trkpt><trkpt lat="44.583533" lon="8.6006028"><ele>348.0</ele><time>2026-04-04T10:14:18.505Z</time></trkpt><trkpt lat="44.5834207" lon="8.6003108"><ele>348.0</ele><time>2026-04-04T10:14:20.512Z</time></trkpt><trkpt lat="44.5833299" lon="8.6001837"><ele>350.1666666666667</ele><time>2026-04-04T10:14:21.515Z</time></trkpt><trkpt lat="44.5832473" lon="8.6000903"><ele>352.3333333333333</ele><time>2026-04-04T10:14:22.501Z</time></trkpt><trkpt lat="44.5831731" lon="8.6000364"><ele>354.5</ele><time>2026-04-04T10:14:23.505Z</time></trkpt><trkpt lat="44.5830927" lon="8.6000295"><ele>356.66666666666663</ele><time>2026-04-04T10:14:24.504Z</time></trkpt><trkpt lat="44.5830178" lon="8.6000549"><ele>358.8333333333333</ele><time>2026-04-04T10:14:25.534Z</time></trkpt><trkpt lat="44.5829799" lon="8.6001433"><ele>361.0</ele><time>2026-04-04T10:14:26.509Z</time></trkpt><trkpt lat="44.5829804" lon="8.6002706"><ele>357.75</ele><time>2026-04-04T10:14:27.503Z</time></trkpt><trkpt lat="44.5830034" lon="8.6004021"><ele>354.5</ele><time>2026-04-04T10:14:28.506Z</time></trkpt><trkpt lat="44.5830345" lon="8.60055"><ele>351.25</ele><time>2026-04-04T10:14:29.506Z</time></trkpt><trkpt lat="44.583056" lon="8.6007169"><ele>348.0</ele><time>2026-04-04T10:14:30.507Z</time></trkpt><trkpt lat="44.5830511" lon="8.6009238"><ele>348.0</ele><time>2026-04-04T10:14:31.507Z</time></trkpt><trkpt lat="44.5830315" lon="8.601144"><ele>348.0</ele><time>2026-04-04T10:14:32.504Z</time></trkpt><trkpt lat="44.5830136" lon="8.6013808"><ele>348.0</ele><time>2026-04-04T10:14:33.51Z</time></trkpt><trkpt lat="44.5830097" lon="8.601615"><ele>346.75</ele><time>2026-04-04T10:14:34.504Z</time></trkpt><trkpt lat="44.5830335" lon="8.6018253"><ele>345.5</ele><time>2026-04-04T10:14:35.512Z</time></trkpt><trkpt lat="44.5830725" lon="8.6020125"><ele>344.25</ele><time>2026-04-04T10:14:36.514Z</time></trkpt><trkpt lat="44.5831036" lon="8.6021823"><ele>343.0</ele><time>2026-04-04T10:14:37.51Z</time></trkpt><trkpt lat="44.5831054" lon="8.6023423"><ele>343.0</ele><time>2026-04-04T10:14:38.513Z</time></trkpt><trkpt lat="44.5830679" lon="8.602486"><ele>343.0</ele><time>2026-04-04T10:14:39.507Z</time></trkpt><trkpt lat="44.5829203" lon="8.6026248"><ele>343.0</ele><time>2026-04-04T10:14:41.516Z</time></trkpt><trkpt lat="44.5828011" lon="8.6026027"><ele>343.0</ele><time>2026-04-04T10:14:42.507Z</time></trkpt><trkpt lat="44.5826744" lon="8.602585"><ele>348.0</ele><time>2026-04-04T10:14:43.507Z</time></trkpt><trkpt lat="44.5825448" lon="8.6025775"><ele>353.0</ele><time>2026-04-04T10:14:44.514Z</time></trkpt><trkpt lat="44.5824309" lon="8.6025773"><ele>358.0</ele><time>2026-04-04T10:14:45.507Z</time></trkpt><trkpt lat="44.5823346" lon="8.6025945"><ele>363.0</ele><time>2026-04-04T10:14:46.505Z</time></trkpt><trkpt lat="44.5822458" lon="8.6026582"><ele>368.0</ele><time>2026-04-04T10:14:47.504Z</time></trkpt><trkpt lat="44.5821704" lon="8.6027821"><ele>372.0</ele><time>2026-04-04T10:14:48.506Z</time></trkpt><trkpt lat="44.5820987" lon="8.6029328"><ele>376.0</ele><time>2026-04-04T10:14:49.505Z</time></trkpt><trkpt lat="44.5820095" lon="8.6030724"><ele>380.0</ele><time>2026-04-04T10:14:50.505Z</time></trkpt><trkpt lat="44.5819181" lon="8.6031669"><ele>384.0</ele><time>2026-04-04T10:14:51.509Z</time></trkpt><trkpt lat="44.5818364" lon="8.6032552"><ele>384.0</ele><time>2026-04-04T10:14:52.512Z</time></trkpt><trkpt lat="44.5817566" lon="8.6033808"><ele>384.0</ele><time>2026-04-04T10:14:53.512Z</time></trkpt><trkpt lat="44.5817049" lon="8.6035422"><ele>384.0</ele><time>2026-04-04T10:14:54.501Z</time></trkpt><trkpt lat="44.5816574" lon="8.6037069"><ele>384.0</ele><time>2026-04-04T10:14:55.501Z</time></trkpt><trkpt lat="44.5815962" lon="8.6038429"><ele>378.75</ele><time>2026-04-04T10:14:56.504Z</time></trkpt><trkpt lat="44.581522" lon="8.603949"><ele>373.5</ele><time>2026-04-04T10:14:57.501Z</time></trkpt><trkpt lat="44.5814214" lon="8.60401"><ele>368.25</ele><time>2026-04-04T10:14:58.512Z</time></trkpt><trkpt lat="44.581304" lon="8.6040409"><ele>363.0</ele><time>2026-04-04T10:14:59.506Z</time></trkpt><trkpt lat="44.58119" lon="8.6040576"><ele>374.5</ele><time>2026-04-04T10:15:00.514Z</time></trkpt><trkpt lat="44.5810176" lon="8.6041186"><ele>386.0</ele><time>2026-04-04T10:15:02.508Z</time></trkpt><trkpt lat="44.5809902" lon="8.6042158"><ele>397.5</ele><time>2026-04-04T10:15:03.505Z</time></trkpt><trkpt lat="44.5809892" lon="8.6043443"><ele>409.0</ele><time>2026-04-04T10:15:04.509Z</time></trkpt><trkpt lat="44.5810411" lon="8.6044821"><ele>407.25</ele><time>2026-04-04T10:15:05.506Z</time></trkpt><trkpt lat="44.5811487" lon="8.6046448"><ele>405.5</ele><time>2026-04-04T10:15:06.506Z</time></trkpt><trkpt lat="44.5812358" lon="8.6047952"><ele>403.75</ele><time>2026-04-04T10:15:07.515Z</time></trkpt><trkpt lat="44.581294" lon="8.6049348"><ele>402.0</ele><time>2026-04-04T10:15:08.517Z</time></trkpt><trkpt lat="44.5813277" lon="8.6050849"><ele>392.20000000000005</ele><time>2026-04-04T10:15:09.513Z</time></trkpt><trkpt lat="44.5813212" lon="8.6052389"><ele>382.4</ele><time>2026-04-04T10:15:10.507Z</time></trkpt><trkpt lat="44.5813251" lon="8.6053923"><ele>372.6</ele><time>2026-04-04T10:15:11.51Z</time></trkpt><trkpt lat="44.5813369" lon="8.6055256"><ele>362.79999999999995</ele><time>2026-04-04T10:15:12.507Z</time></trkpt><trkpt lat="44.5813365" lon="8.6056488"><ele>353.0</ele><time>2026-04-04T10:15:13.506Z</time></trkpt><trkpt lat="44.5813054" lon="8.6057385"><ele>359.5</ele><time>2026-04-04T10:15:14.512Z</time></trkpt><trkpt lat="44.5811735" lon="8.605775"><ele>366.0</ele><time>2026-04-04T10:15:16.507Z</time></trkpt><trkpt lat="44.5810734" lon="8.6057652"><ele>372.5</ele><time>2026-04-04T10:15:17.51Z</time></trkpt><trkpt lat="44.580959" lon="8.6057466"><ele>379.0</ele><time>2026-04-04T10:15:18.507Z</time></trkpt><trkpt lat="44.5808303" lon="8.6057201"><ele>379.0</ele><time>2026-04-04T10:15:19.504Z</time></trkpt><trkpt lat="44.5806945" lon="8.6056937"><ele>379.0</ele><time>2026-04-04T10:15:20.509Z</time></trkpt><trkpt lat="44.5805407" lon="8.6056955"><ele>379.0</ele><time>2026-04-04T10:15:21.502Z</time></trkpt><trkpt lat="44.5802348" lon="8.6058079"><ele>384.3333333333333</ele><time>2026-04-04T10:15:23.505Z</time></trkpt><trkpt lat="44.5800629" lon="8.6059178"><ele>389.66666666666663</ele><time>2026-04-04T10:15:24.505Z</time></trkpt><trkpt lat="44.5799013" lon="8.6060286"><ele>395.0</ele><time>2026-04-04T10:15:25.512Z</time></trkpt><trkpt lat="44.5797621" lon="8.6061207"><ele>393.75</ele><time>2026-04-04T10:15:26.506Z</time></trkpt><trkpt lat="44.5796282" lon="8.6061768"><ele>392.5</ele><time>2026-04-04T10:15:27.502Z</time></trkpt><trkpt lat="44.5794794" lon="8.606196"><ele>391.25</ele><time>2026-04-04T10:15:28.517Z</time></trkpt><trkpt lat="44.5793335" lon="8.6062024"><ele>390.0</ele><time>2026-04-04T10:15:29.505Z</time></trkpt><trkpt lat="44.5792072" lon="8.6061883"><ele>391.5</ele><time>2026-04-04T10:15:30.511Z</time></trkpt><trkpt lat="44.5790932" lon="8.6061448"><ele>393.0</ele><time>2026-04-04T10:15:31.508Z</time></trkpt><trkpt lat="44.5789991" lon="8.6060651"><ele>394.5</ele><time>2026-04-04T10:15:32.512Z</time></trkpt><trkpt lat="44.5789226" lon="8.6059528"><ele>396.0</ele><time>2026-04-04T10:15:33.51Z</time></trkpt><trkpt lat="44.578873" lon="8.6058068"><ele>396.0</ele><time>2026-04-04T10:15:34.51Z</time></trkpt><trkpt lat="44.5788227" lon="8.6056605"><ele>396.0</ele><time>2026-04-04T10:15:35.51Z</time></trkpt><trkpt lat="44.5787539" lon="8.6055263"><ele>396.0</ele><time>2026-04-04T10:15:36.506Z</time></trkpt><trkpt lat="44.5786777" lon="8.6054069"><ele>396.0</ele><time>2026-04-04T10:15:37.51Z</time></trkpt><trkpt lat="44.578611" lon="8.6053057"><ele>396.0</ele><time>2026-04-04T10:15:38.507Z</time></trkpt><trkpt lat="44.5785683" lon="8.6051887"><ele>390.5</ele><time>2026-04-04T10:15:39.51Z</time></trkpt><trkpt lat="44.5785581" lon="8.6050462"><ele>385.0</ele><time>2026-04-04T10:15:40.507Z</time></trkpt><trkpt lat="44.5785475" lon="8.60489"><ele>379.5</ele><time>2026-04-04T10:15:41.507Z</time></trkpt><trkpt lat="44.5785255" lon="8.6047295"><ele>374.0</ele><time>2026-04-04T10:15:42.525Z</time></trkpt><trkpt lat="44.5785241" lon="8.6044445"><ele>374.0</ele><time>2026-04-04T10:15:44.504Z</time></trkpt><trkpt lat="44.5785856" lon="8.6043157"><ele>374.0</ele><time>2026-04-04T10:15:45.512Z</time></trkpt><trkpt lat="44.578667" lon="8.6042236"><ele>374.0</ele><time>2026-04-04T10:15:46.507Z</time></trkpt><trkpt lat="44.5787408" lon="8.6041423"><ele>374.0</ele><time>2026-04-04T10:15:47.502Z</time></trkpt><trkpt lat="44.5787915" lon="8.6040411"><ele>374.0</ele><time>2026-04-04T10:15:48.508Z</time></trkpt><trkpt lat="44.5787668" lon="8.6039207"><ele>374.0</ele><time>2026-04-04T10:15:49.51Z</time></trkpt><trkpt lat="44.5787128" lon="8.6038276"><ele>374.0</ele><time>2026-04-04T10:15:50.505Z</time></trkpt><trkpt lat="44.5786137" lon="8.6037949"><ele>374.0</ele><time>2026-04-04T10:15:51.513Z</time></trkpt><trkpt lat="44.5785131" lon="8.6037885"><ele>374.0</ele><time>2026-04-04T10:15:52.509Z</time></trkpt><trkpt lat="44.5784019" lon="8.6037694"><ele>374.0</ele><time>2026-04-04T10:15:53.513Z</time></trkpt><trkpt lat="44.5783212" lon="8.6037176"><ele>375.2</ele><time>2026-04-04T10:15:54.504Z</time></trkpt><trkpt lat="44.5782926" lon="8.6036056"><ele>376.4</ele><time>2026-04-04T10:15:55.51Z</time></trkpt><trkpt lat="44.5782946" lon="8.6034654"><ele>377.6</ele><time>2026-04-04T10:15:56.51Z</time></trkpt><trkpt lat="44.5782947" lon="8.6033175"><ele>378.8</ele><time>2026-04-04T10:15:57.526Z</time></trkpt><trkpt lat="44.5782734" lon="8.6031947"><ele>380.0</ele><time>2026-04-04T10:15:58.517Z</time></trkpt><trkpt lat="44.5782384" lon="8.6030873"><ele>380.0</ele><time>2026-04-04T10:15:59.508Z</time></trkpt><trkpt lat="44.5781732" lon="8.6030462"><ele>380.0</ele><time>2026-04-04T10:16:00.508Z</time></trkpt><trkpt lat="44.5780922" lon="8.6030518"><ele>380.0</ele><time>2026-04-04T10:16:01.506Z</time></trkpt><trkpt lat="44.5780124" lon="8.6030827"><ele>380.0</ele><time>2026-04-04T10:16:02.505Z</time></trkpt><trkpt lat="44.5779185" lon="8.6030878"><ele>380.0</ele><time>2026-04-04T10:16:03.505Z</time></trkpt><trkpt lat="44.5776948" lon="8.6030278"><ele>376.5</ele><time>2026-04-04T10:16:05.505Z</time></trkpt><trkpt lat="44.5775648" lon="8.603036"><ele>373.0</ele><time>2026-04-04T10:16:06.514Z</time></trkpt><trkpt lat="44.5774351" lon="8.6030921"><ele>369.5</ele><time>2026-04-04T10:16:07.51Z</time></trkpt><trkpt lat="44.5773236" lon="8.6031801"><ele>366.0</ele><time>2026-04-04T10:16:08.513Z</time></trkpt><trkpt lat="44.5772351" lon="8.6032891"><ele>366.0</ele><time>2026-04-04T10:16:09.511Z</time></trkpt><trkpt lat="44.5771829" lon="8.6034217"><ele>366.0</ele><time>2026-04-04T10:16:10.515Z</time></trkpt><trkpt lat="44.5771561" lon="8.6035517"><ele>366.0</ele><time>2026-04-04T10:16:11.504Z</time></trkpt><trkpt lat="44.5771447" lon="8.6036827"><ele>366.0</ele><time>2026-04-04T10:16:12.512Z</time></trkpt><trkpt lat="44.5771273" lon="8.6038018"><ele>366.0</ele><time>2026-04-04T10:16:13.508Z</time></trkpt><trkpt lat="44.5770683" lon="8.6038875"><ele>364.8</ele><time>2026-04-04T10:16:14.502Z</time></trkpt><trkpt lat="44.5769937" lon="8.6039447"><ele>363.6</ele><time>2026-04-04T10:16:15.506Z</time></trkpt><trkpt lat="44.5768803" lon="8.6039368"><ele>362.4</ele><time>2026-04-04T10:16:16.512Z</time></trkpt><trkpt lat="44.5767544" lon="8.6039138"><ele>361.2</ele><time>2026-04-04T10:16:17.505Z</time></trkpt><trkpt lat="44.576635" lon="8.6038963"><ele>360.0</ele><time>2026-04-04T10:16:18.505Z</time></trkpt><trkpt lat="44.5765337" lon="8.6038914"><ele>360.0</ele><time>2026-04-04T10:16:19.5Z</time></trkpt><trkpt lat="44.5764545" lon="8.6039382"><ele>360.0</ele><time>2026-04-04T10:16:20.512Z</time></trkpt><trkpt lat="44.5764034" lon="8.6040549"><ele>360.0</ele><time>2026-04-04T10:16:21.511Z</time></trkpt><trkpt lat="44.5764069" lon="8.6042089"><ele>360.0</ele><time>2026-04-04T10:16:22.505Z</time></trkpt><trkpt lat="44.5764277" lon="8.6043826"><ele>360.0</ele><time>2026-04-04T10:16:23.51Z</time></trkpt><trkpt lat="44.5764475" lon="8.6045453"><ele>359.6</ele><time>2026-04-04T10:16:24.512Z</time></trkpt><trkpt lat="44.576435" lon="8.6048026"><ele>359.2</ele><time>2026-04-04T10:16:26.504Z</time></trkpt><trkpt lat="44.5763686" lon="8.6048876"><ele>358.79999999999995</ele><time>2026-04-04T10:16:27.519Z</time></trkpt><trkpt lat="44.576296" lon="8.604941"><ele>358.4</ele><time>2026-04-04T10:16:28.506Z</time></trkpt><trkpt lat="44.5762152" lon="8.6049366"><ele>358.0</ele><time>2026-04-04T10:16:29.502Z</time></trkpt><trkpt lat="44.5761341" lon="8.6048668"><ele>358.0</ele><time>2026-04-04T10:16:30.509Z</time></trkpt><trkpt lat="44.576058" lon="8.6047926"><ele>358.0</ele><time>2026-04-04T10:16:31.507Z</time></trkpt><trkpt lat="44.5759865" lon="8.6047714"><ele>358.0</ele><time>2026-04-04T10:16:32.501Z</time></trkpt><trkpt lat="44.5759325" lon="8.6048262"><ele>358.0</ele><time>2026-04-04T10:16:33.501Z</time></trkpt><trkpt lat="44.5759062" lon="8.6049604"><ele>358.0</ele><time>2026-04-04T10:16:34.51Z</time></trkpt><trkpt lat="44.5759182" lon="8.6051015"><ele>358.0</ele><time>2026-04-04T10:16:35.513Z</time></trkpt><trkpt lat="44.5759286" lon="8.6052341"><ele>354.3333333333333</ele><time>2026-04-04T10:16:36.508Z</time></trkpt><trkpt lat="44.5759187" lon="8.6053513"><ele>350.66666666666663</ele><time>2026-04-04T10:16:37.511Z</time></trkpt><trkpt lat="44.5758731" lon="8.6054523"><ele>347.0</ele><time>2026-04-04T10:16:38.513Z</time></trkpt><trkpt lat="44.575826" lon="8.6055584"><ele>343.3333333333333</ele><time>2026-04-04T10:16:39.501Z</time></trkpt><trkpt lat="44.5757942" lon="8.6056802"><ele>339.6666666666667</ele><time>2026-04-04T10:16:40.511Z</time></trkpt><trkpt lat="44.5757547" lon="8.6057899"><ele>336.0</ele><time>2026-04-04T10:16:41.508Z</time></trkpt><trkpt lat="44.5756897" lon="8.6058762"><ele>336.0</ele><time>2026-04-04T10:16:42.51Z</time></trkpt><trkpt lat="44.5756032" lon="8.6059362"><ele>336.0</ele><time>2026-04-04T10:16:43.506Z</time></trkpt><trkpt lat="44.5755058" lon="8.6059757"><ele>336.0</ele><time>2026-04-04T10:16:44.508Z</time></trkpt><trkpt lat="44.5754142" lon="8.6059728"><ele>336.0</ele><time>2026-04-04T10:16:45.51Z</time></trkpt><trkpt lat="44.575291" lon="8.6058459"><ele>336.0</ele><time>2026-04-04T10:16:47.506Z</time></trkpt><trkpt lat="44.5752507" lon="8.6056972"><ele>337.8</ele><time>2026-04-04T10:16:48.51Z</time></trkpt><trkpt lat="44.5752109" lon="8.6055647"><ele>339.6</ele><time>2026-04-04T10:16:49.504Z</time></trkpt><trkpt lat="44.5751455" lon="8.6054745"><ele>341.4</ele><time>2026-04-04T10:16:50.513Z</time></trkpt><trkpt lat="44.5750518" lon="8.6054879"><ele>343.2</ele><time>2026-04-04T10:16:51.514Z</time></trkpt><trkpt lat="44.5749662" lon="8.6055593"><ele>345.0</ele><time>2026-04-04T10:16:52.509Z</time></trkpt><trkpt lat="44.5749009" lon="8.6056712"><ele>345.0</ele><time>2026-04-04T10:16:53.508Z</time></trkpt><trkpt lat="44.574836" lon="8.6057921"><ele>345.0</ele><time>2026-04-04T10:16:54.52Z</time></trkpt><trkpt lat="44.574765" lon="8.6058988"><ele>345.0</ele><time>2026-04-04T10:16:55.508Z</time></trkpt><trkpt lat="44.5746795" lon="8.605971"><ele>345.0</ele><time>2026-04-04T10:16:56.509Z</time></trkpt><trkpt lat="44.5745976" lon="8.606036"><ele>345.0</ele><time>2026-04-04T10:16:57.52Z</time></trkpt><trkpt lat="44.5745447" lon="8.6061128"><ele>346.6</ele><time>2026-04-04T10:16:58.515Z</time></trkpt><trkpt lat="44.5745192" lon="8.6062257"><ele>348.2</ele><time>2026-04-04T10:16:59.514Z</time></trkpt><trkpt lat="44.5745157" lon="8.6063717"><ele>349.79999999999995</ele><time>2026-04-04T10:17:00.507Z</time></trkpt><trkpt lat="44.5745476" lon="8.6065423"><ele>351.4</ele><time>2026-04-04T10:17:01.509Z</time></trkpt><trkpt lat="44.5745882" lon="8.6067145"><ele>353.0</ele><time>2026-04-04T10:17:02.509Z</time></trkpt><trkpt lat="44.5746259" lon="8.6068649"><ele>346.25</ele><time>2026-04-04T10:17:03.505Z</time></trkpt><trkpt lat="44.5746651" lon="8.6069851"><ele>339.5</ele><time>2026-04-04T10:17:04.512Z</time></trkpt><trkpt lat="44.5746731" lon="8.6070917"><ele>332.75</ele><time>2026-04-04T10:17:05.502Z</time></trkpt><trkpt lat="44.5746099" lon="8.6071932"><ele>326.0</ele><time>2026-04-04T10:17:06.504Z</time></trkpt><trkpt lat="44.5744109" lon="8.6073831"><ele>326.0</ele><time>2026-04-04T10:17:08.505Z</time></trkpt><trkpt lat="44.5742968" lon="8.6074264"><ele>326.0</ele><time>2026-04-04T10:17:09.499Z</time></trkpt><trkpt lat="44.5741865" lon="8.6074425"><ele>326.0</ele><time>2026-04-04T10:17:10.5Z</time></trkpt><trkpt lat="44.574087" lon="8.6074142"><ele>326.0</ele><time>2026-04-04T10:17:11.513Z</time></trkpt><trkpt lat="44.5739986" lon="8.6073773"><ele>326.0</ele><time>2026-04-04T10:17:12.505Z</time></trkpt><trkpt lat="44.5739233" lon="8.6073606"><ele>326.0</ele><time>2026-04-04T10:17:13.506Z</time></trkpt><trkpt lat="44.5738172" lon="8.6075218"><ele>326.0</ele><time>2026-04-04T10:17:15.509Z</time></trkpt><trkpt lat="44.5737403" lon="8.6076435"><ele>326.0</ele><time>2026-04-04T10:17:16.502Z</time></trkpt><trkpt lat="44.5736356" lon="8.6077754"><ele>326.0</ele><time>2026-04-04T10:17:17.505Z</time></trkpt><trkpt lat="44.5735183" lon="8.6079122"><ele>325.0</ele><time>2026-04-04T10:17:18.508Z</time></trkpt><trkpt lat="44.5733967" lon="8.6080549"><ele>324.0</ele><time>2026-04-04T10:17:19.508Z</time></trkpt><trkpt lat="44.5732755" lon="8.608216"><ele>323.0</ele><time>2026-04-04T10:17:20.507Z</time></trkpt><trkpt lat="44.5731492" lon="8.6083774"><ele>323.0</ele><time>2026-04-04T10:17:21.506Z</time></trkpt><trkpt lat="44.5730362" lon="8.6085269"><ele>323.0</ele><time>2026-04-04T10:17:22.507Z</time></trkpt><trkpt lat="44.5729319" lon="8.6086621"><ele>323.0</ele><time>2026-04-04T10:17:23.512Z</time></trkpt><trkpt lat="44.5728348" lon="8.6087745"><ele>323.0</ele><time>2026-04-04T10:17:24.502Z</time></trkpt><trkpt lat="44.5727399" lon="8.6088743"><ele>315.33333333333337</ele><time>2026-04-04T10:17:25.509Z</time></trkpt><trkpt lat="44.5726502" lon="8.6089341"><ele>307.6666666666667</ele><time>2026-04-04T10:17:26.516Z</time></trkpt><trkpt lat="44.5725441" lon="8.608959"><ele>300.0</ele><time>2026-04-04T10:17:27.505Z</time></trkpt><trkpt lat="44.5722895" lon="8.6088631"><ele>300.0</ele><time>2026-04-04T10:17:29.511Z</time></trkpt><trkpt lat="44.5721529" lon="8.6087597"><ele>300.0</ele><time>2026-04-04T10:17:30.504Z</time></trkpt><trkpt lat="44.5720147" lon="8.6086599"><ele>300.0</ele><time>2026-04-04T10:17:31.511Z</time></trkpt><trkpt lat="44.5718858" lon="8.6085941"><ele>300.0</ele><time>2026-04-04T10:17:32.508Z</time></trkpt><trkpt lat="44.5717704" lon="8.6085495"><ele>303.4</ele><time>2026-04-04T10:17:33.507Z</time></trkpt><trkpt lat="44.5716851" lon="8.6085135"><ele>306.8</ele><time>2026-04-04T10:17:34.504Z</time></trkpt><trkpt lat="44.5716109" lon="8.6084669"><ele>310.2</ele><time>2026-04-04T10:17:35.502Z</time></trkpt><trkpt lat="44.5715826" lon="8.6083635"><ele>313.6</ele><time>2026-04-04T10:17:36.512Z</time></trkpt><trkpt lat="44.5716021" lon="8.6082318"><ele>317.0</ele><time>2026-04-04T10:17:37.508Z</time></trkpt><trkpt lat="44.5716526" lon="8.6080744"><ele>317.0</ele><time>2026-04-04T10:17:38.502Z</time></trkpt><trkpt lat="44.5717134" lon="8.6079126"><ele>317.0</ele><time>2026-04-04T10:17:39.503Z</time></trkpt><trkpt lat="44.5717538" lon="8.6077616"><ele>317.0</ele><time>2026-04-04T10:17:40.507Z</time></trkpt><trkpt lat="44.5717338" lon="8.6076053"><ele>317.0</ele><time>2026-04-04T10:17:41.504Z</time></trkpt><trkpt lat="44.5716843" lon="8.6074389"><ele>319.0</ele><time>2026-04-04T10:17:42.508Z</time></trkpt><trkpt lat="44.571628" lon="8.6072556"><ele>321.0</ele><time>2026-04-04T10:17:43.504Z</time></trkpt><trkpt lat="44.5715961" lon="8.6070853"><ele>323.0</ele><time>2026-04-04T10:17:44.513Z</time></trkpt><trkpt lat="44.5715753" lon="8.6069301"><ele>325.0</ele><time>2026-04-04T10:17:45.503Z</time></trkpt><trkpt lat="44.5716038" lon="8.6067789"><ele>325.3333333333333</ele><time>2026-04-04T10:17:46.51Z</time></trkpt><trkpt lat="44.5716574" lon="8.6066235"><ele>325.6666666666667</ele><time>2026-04-04T10:17:47.508Z</time></trkpt><trkpt lat="44.5717035" lon="8.6064709"><ele>326.0</ele><time>2026-04-04T10:17:48.504Z</time></trkpt><trkpt lat="44.5716879" lon="8.6061557"><ele>328.20000000000005</ele><time>2026-04-04T10:17:50.508Z</time></trkpt><trkpt lat="44.5716298" lon="8.6060451"><ele>330.40000000000003</ele><time>2026-04-04T10:17:51.502Z</time></trkpt><trkpt lat="44.5715579" lon="8.6059615"><ele>332.6</ele><time>2026-04-04T10:17:52.505Z</time></trkpt><trkpt lat="44.5714421" lon="8.6059233"><ele>334.8</ele><time>2026-04-04T10:17:53.509Z</time></trkpt><trkpt lat="44.5713275" lon="8.6058832"><ele>337.0</ele><time>2026-04-04T10:17:54.501Z</time></trkpt><trkpt lat="44.5712395" lon="8.6057908"><ele>333.75</ele><time>2026-04-04T10:17:55.498Z</time></trkpt><trkpt lat="44.5711708" lon="8.605642"><ele>330.5</ele><time>2026-04-04T10:17:56.508Z</time></trkpt><trkpt lat="44.5711111" lon="8.6054517"><ele>327.25</ele><time>2026-04-04T10:17:57.502Z</time></trkpt><trkpt lat="44.5710658" lon="8.6052327"><ele>324.0</ele><time>2026-04-04T10:17:58.511Z</time></trkpt><trkpt lat="44.5710348" lon="8.6050014"><ele>324.0</ele><time>2026-04-04T10:17:59.501Z</time></trkpt><trkpt lat="44.5710218" lon="8.6047787"><ele>324.0</ele><time>2026-04-04T10:18:00.509Z</time></trkpt><trkpt lat="44.5710017" lon="8.6045898"><ele>324.0</ele><time>2026-04-04T10:18:01.507Z</time></trkpt><trkpt lat="44.5709569" lon="8.604423"><ele>324.0</ele><time>2026-04-04T10:18:02.506Z</time></trkpt><trkpt lat="44.5708761" lon="8.6042904"><ele>324.6</ele><time>2026-04-04T10:18:03.511Z</time></trkpt><trkpt lat="44.5708062" lon="8.6041752"><ele>325.2</ele><time>2026-04-04T10:18:04.514Z</time></trkpt><trkpt lat="44.5707659" lon="8.6040598"><ele>325.8</ele><time>2026-04-04T10:18:05.509Z</time></trkpt><trkpt lat="44.570743" lon="8.6039543"><ele>326.40000000000003</ele><time>2026-04-04T10:18:06.503Z</time></trkpt><trkpt lat="44.5708016" lon="8.6038762"><ele>327.0</ele><time>2026-04-04T10:18:07.515Z</time></trkpt><trkpt lat="44.570879" lon="8.6037983"><ele>327.0</ele><time>2026-04-04T10:18:08.509Z</time></trkpt><trkpt lat="44.5709804" lon="8.6037131"><ele>327.0</ele><time>2026-04-04T10:18:09.505Z</time></trkpt><trkpt lat="44.5711795" lon="8.6035678"><ele>327.0</ele><time>2026-04-04T10:18:11.512Z</time></trkpt><trkpt lat="44.571257" lon="8.6034898"><ele>327.0</ele><time>2026-04-04T10:18:12.508Z</time></trkpt><trkpt lat="44.5713008" lon="8.6033911"><ele>327.6</ele><time>2026-04-04T10:18:13.516Z</time></trkpt><trkpt lat="44.5713042" lon="8.6032759"><ele>328.20000000000005</ele><time>2026-04-04T10:18:14.507Z</time></trkpt><trkpt lat="44.571261" lon="8.6031868"><ele>328.8</ele><time>2026-04-04T10:18:15.503Z</time></trkpt><trkpt lat="44.5711565" lon="8.6031113"><ele>329.4</ele><time>2026-04-04T10:18:16.51Z</time></trkpt><trkpt lat="44.5710329" lon="8.6030766"><ele>330.0</ele><time>2026-04-04T10:18:17.505Z</time></trkpt><trkpt lat="44.5708918" lon="8.603033"><ele>330.0</ele><time>2026-04-04T10:18:18.506Z</time></trkpt><trkpt lat="44.5707369" lon="8.6029686"><ele>330.0</ele><time>2026-04-04T10:18:19.512Z</time></trkpt><trkpt lat="44.570596" lon="8.602877"><ele>330.0</ele><time>2026-04-04T10:18:20.506Z</time></trkpt><trkpt lat="44.5704683" lon="8.6027722"><ele>328.2</ele><time>2026-04-04T10:18:21.503Z</time></trkpt><trkpt lat="44.5703626" lon="8.6026739"><ele>326.4</ele><time>2026-04-04T10:18:22.508Z</time></trkpt><trkpt lat="44.5702838" lon="8.6025732"><ele>324.6</ele><time>2026-04-04T10:18:23.514Z</time></trkpt><trkpt lat="44.5702337" lon="8.6024562"><ele>322.8</ele><time>2026-04-04T10:18:24.505Z</time></trkpt><trkpt lat="44.5702497" lon="8.6023119"><ele>321.0</ele><time>2026-04-04T10:18:25.506Z</time></trkpt><trkpt lat="44.5702898" lon="8.6021567"><ele>321.0</ele><time>2026-04-04T10:18:26.514Z</time></trkpt><trkpt lat="44.5703497" lon="8.6020055"><ele>321.0</ele><time>2026-04-04T10:18:27.507Z</time></trkpt><trkpt lat="44.5703896" lon="8.6018713"><ele>321.0</ele><time>2026-04-04T10:18:28.509Z</time></trkpt><trkpt lat="44.5703977" lon="8.6017557"><ele>321.0</ele><time>2026-04-04T10:18:29.509Z</time></trkpt><trkpt lat="44.5703568" lon="8.601648"><ele>321.0</ele><time>2026-04-04T10:18:30.507Z</time></trkpt><trkpt lat="44.5702006" lon="8.6015209"><ele>325.6</ele><time>2026-04-04T10:18:32.506Z</time></trkpt><trkpt lat="44.5701039" lon="8.6014851"><ele>330.20000000000005</ele><time>2026-04-04T10:18:33.511Z</time></trkpt><trkpt lat="44.5700257" lon="8.6015038"><ele>334.79999999999995</ele><time>2026-04-04T10:18:34.517Z</time></trkpt><trkpt lat="44.5699528" lon="8.6015818"><ele>339.4</ele><time>2026-04-04T10:18:35.51Z</time></trkpt><trkpt lat="44.5698762" lon="8.6016951"><ele>344.0</ele><time>2026-04-04T10:18:36.51Z</time></trkpt><trkpt lat="44.5697959" lon="8.6018302"><ele>344.0</ele><time>2026-04-04T10:18:37.504Z</time></trkpt><trkpt lat="44.5697189" lon="8.6019778"><ele>344.0</ele><time>2026-04-04T10:18:38.506Z</time></trkpt><trkpt lat="44.5696478" lon="8.6021052"><ele>344.0</ele><time>2026-04-04T10:18:39.512Z</time></trkpt><trkpt lat="44.5695789" lon="8.6022027"><ele>344.0</ele><time>2026-04-04T10:18:40.509Z</time></trkpt><trkpt lat="44.5695064" lon="8.602237"><ele>344.0</ele><time>2026-04-04T10:18:41.509Z</time></trkpt><trkpt lat="44.5694414" lon="8.6022165"><ele>339.6</ele><time>2026-04-04T10:18:42.508Z</time></trkpt><trkpt lat="44.5694019" lon="8.6021299"><ele>335.2</ele><time>2026-04-04T10:18:43.505Z</time></trkpt><trkpt lat="44.5694149" lon="8.601994"><ele>330.8</ele><time>2026-04-04T10:18:44.512Z</time></trkpt><trkpt lat="44.5694451" lon="8.6018272"><ele>326.40000000000003</ele><time>2026-04-04T10:18:45.507Z</time></trkpt><trkpt lat="44.5694519" lon="8.6016513"><ele>322.0</ele><time>2026-04-04T10:18:46.514Z</time></trkpt><trkpt lat="44.5694458" lon="8.6014779"><ele>322.0</ele><time>2026-04-04T10:18:47.513Z</time></trkpt><trkpt lat="44.569422" lon="8.6013187"><ele>322.0</ele><time>2026-04-04T10:18:48.511Z</time></trkpt><trkpt lat="44.5693547" lon="8.6011826"><ele>322.0</ele><time>2026-04-04T10:18:49.516Z</time></trkpt><trkpt lat="44.5692663" lon="8.6010667"><ele>322.0</ele><time>2026-04-04T10:18:50.504Z</time></trkpt><trkpt lat="44.5691955" lon="8.6009412"><ele>324.75</ele><time>2026-04-04T10:18:51.501Z</time></trkpt><trkpt lat="44.5690171" lon="8.6007931"><ele>327.5</ele><time>2026-04-04T10:18:53.509Z</time></trkpt><trkpt lat="44.5689158" lon="8.6008084"><ele>330.25</ele><time>2026-04-04T10:18:54.508Z</time></trkpt><trkpt lat="44.5688148" lon="8.6008313"><ele>333.0</ele><time>2026-04-04T10:18:55.512Z</time></trkpt><trkpt lat="44.5687276" lon="8.6008063"><ele>329.0</ele><time>2026-04-04T10:18:56.518Z</time></trkpt><trkpt lat="44.5686718" lon="8.6007274"><ele>325.0</ele><time>2026-04-04T10:18:57.505Z</time></trkpt><trkpt lat="44.5686483" lon="8.6005915"><ele>321.0</ele><time>2026-04-04T10:18:58.508Z</time></trkpt><trkpt lat="44.5686625" lon="8.6004298"><ele>317.0</ele><time>2026-04-04T10:18:59.507Z</time></trkpt><trkpt lat="44.5686778" lon="8.6002634"><ele>313.0</ele><time>2026-04-04T10:19:00.515Z</time></trkpt><trkpt lat="44.5686812" lon="8.6000742"><ele>313.0</ele><time>2026-04-04T10:19:01.509Z</time></trkpt><trkpt lat="44.5686605" lon="8.5998828"><ele>313.0</ele><time>2026-04-04T10:19:02.509Z</time></trkpt><trkpt lat="44.56863" lon="8.599717"><ele>313.0</ele><time>2026-04-04T10:19:03.508Z</time></trkpt><trkpt lat="44.568615" lon="8.5995672"><ele>313.0</ele><time>2026-04-04T10:19:04.514Z</time></trkpt><trkpt lat="44.5686298" lon="8.5994209"><ele>314.75</ele><time>2026-04-04T10:19:05.521Z</time></trkpt><trkpt lat="44.5686815" lon="8.5992734"><ele>316.5</ele><time>2026-04-04T10:19:06.512Z</time></trkpt><trkpt lat="44.5687472" lon="8.5991348"><ele>318.25</ele><time>2026-04-04T10:19:07.507Z</time></trkpt><trkpt lat="44.568811" lon="8.5989949"><ele>320.0</ele><time>2026-04-04T10:19:08.505Z</time></trkpt><trkpt lat="44.5688505" lon="8.5988238"><ele>326.25</ele><time>2026-04-04T10:19:09.511Z</time></trkpt><trkpt lat="44.5688642" lon="8.5986534"><ele>332.5</ele><time>2026-04-04T10:19:10.513Z</time></trkpt><trkpt lat="44.5688684" lon="8.5985067"><ele>338.75</ele><time>2026-04-04T10:19:11.505Z</time></trkpt><trkpt lat="44.5688557" lon="8.5983857"><ele>345.0</ele><time>2026-04-04T10:19:12.506Z</time></trkpt><trkpt lat="44.5686962" lon="8.5982111"><ele>342.2</ele><time>2026-04-04T10:19:15.503Z</time></trkpt><trkpt lat="44.5686052" lon="8.5982234"><ele>339.4</ele><time>2026-04-04T10:19:16.505Z</time></trkpt><trkpt lat="44.5684984" lon="8.5982467"><ele>336.6</ele><time>2026-04-04T10:19:17.501Z</time></trkpt><trkpt lat="44.568389" lon="8.5982538"><ele>333.8</ele><time>2026-04-04T10:19:18.509Z</time></trkpt><trkpt lat="44.5682796" lon="8.5982359"><ele>331.0</ele><time>2026-04-04T10:19:19.511Z</time></trkpt><trkpt lat="44.5681721" lon="8.5981895"><ele>331.0</ele><time>2026-04-04T10:19:20.507Z</time></trkpt><trkpt lat="44.5680635" lon="8.5981044"><ele>331.0</ele><time>2026-04-04T10:19:21.516Z</time></trkpt><trkpt lat="44.5679546" lon="8.597998"><ele>331.0</ele><time>2026-04-04T10:19:22.504Z</time></trkpt><trkpt lat="44.5678486" lon="8.5978958"><ele>331.0</ele><time>2026-04-04T10:19:23.505Z</time></trkpt><trkpt lat="44.567743" lon="8.5978063"><ele>332.25</ele><time>2026-04-04T10:19:24.507Z</time></trkpt><trkpt lat="44.5676271" lon="8.5977561"><ele>333.5</ele><time>2026-04-04T10:19:25.504Z</time></trkpt><trkpt lat="44.5675022" lon="8.5977602"><ele>334.75</ele><time>2026-04-04T10:19:26.502Z</time></trkpt><trkpt lat="44.5673843" lon="8.5978427"><ele>336.0</ele><time>2026-04-04T10:19:27.504Z</time></trkpt><trkpt lat="44.5672664" lon="8.5979943"><ele>336.0</ele><time>2026-04-04T10:19:28.505Z</time></trkpt><trkpt lat="44.5671513" lon="8.5981445"><ele>336.0</ele><time>2026-04-04T10:19:29.514Z</time></trkpt><trkpt lat="44.5670573" lon="8.5982905"><ele>336.0</ele><time>2026-04-04T10:19:30.504Z</time></trkpt><trkpt lat="44.5669723" lon="8.5984009"><ele>336.0</ele><time>2026-04-04T10:19:31.506Z</time></trkpt><trkpt lat="44.5668894" lon="8.5984632"><ele>336.5</ele><time>2026-04-04T10:19:32.514Z</time></trkpt><trkpt lat="44.5668129" lon="8.5984792"><ele>337.0</ele><time>2026-04-04T10:19:33.501Z</time></trkpt><trkpt lat="44.566688" lon="8.5983172"><ele>337.5</ele><time>2026-04-04T10:19:35.5Z</time></trkpt><trkpt lat="44.5666355" lon="8.5981831"><ele>338.0</ele><time>2026-04-04T10:19:36.507Z</time></trkpt><trkpt lat="44.5665722" lon="8.5980521"><ele>338.0</ele><time>2026-04-04T10:19:37.5Z</time></trkpt><trkpt lat="44.5664837" lon="8.5979588"><ele>338.0</ele><time>2026-04-04T10:19:38.507Z</time></trkpt><trkpt lat="44.5663573" lon="8.5979145"><ele>338.0</ele><time>2026-04-04T10:19:39.519Z</time></trkpt><trkpt lat="44.5662031" lon="8.59792"><ele>338.0</ele><time>2026-04-04T10:19:40.508Z</time></trkpt><trkpt lat="44.5660278" lon="8.5979703"><ele>340.0</ele><time>2026-04-04T10:19:41.495Z</time></trkpt><trkpt lat="44.565841" lon="8.5981424"><ele>342.0</ele><time>2026-04-04T10:19:42.505Z</time></trkpt><trkpt lat="44.5656594" lon="8.5982976"><ele>344.0</ele><time>2026-04-04T10:19:43.508Z</time></trkpt><trkpt lat="44.5654758" lon="8.5984475"><ele>344.33333333333337</ele><time>2026-04-04T10:19:44.521Z</time></trkpt><trkpt lat="44.5652926" lon="8.5985796"><ele>344.6666666666667</ele><time>2026-04-04T10:19:45.507Z</time></trkpt><trkpt lat="44.565124" lon="8.5987085"><ele>345.0</ele><time>2026-04-04T10:19:46.507Z</time></trkpt><trkpt lat="44.5649787" lon="8.5988379"><ele>341.5</ele><time>2026-04-04T10:19:47.509Z</time></trkpt><trkpt lat="44.5648485" lon="8.5989521"><ele>338.0</ele><time>2026-04-04T10:19:48.506Z</time></trkpt><trkpt lat="44.5647241" lon="8.599046"><ele>334.5</ele><time>2026-04-04T10:19:49.513Z</time></trkpt><trkpt lat="44.5646114" lon="8.5991021"><ele>331.0</ele><time>2026-04-04T10:19:50.505Z</time></trkpt><trkpt lat="44.5645102" lon="8.5991446"><ele>331.0</ele><time>2026-04-04T10:19:51.503Z</time></trkpt><trkpt lat="44.5644237" lon="8.599177"><ele>331.0</ele><time>2026-04-04T10:19:52.51Z</time></trkpt><trkpt lat="44.5643531" lon="8.5991594"><ele>331.0</ele><time>2026-04-04T10:19:53.51Z</time></trkpt><trkpt lat="44.5643011" lon="8.5990882"><ele>331.0</ele><time>2026-04-04T10:19:54.505Z</time></trkpt><trkpt lat="44.5642965" lon="8.5987644"><ele>329.0</ele><time>2026-04-04T10:19:56.503Z</time></trkpt><trkpt lat="44.5643575" lon="8.5985768"><ele>327.0</ele><time>2026-04-04T10:19:57.503Z</time></trkpt><trkpt lat="44.5644249" lon="8.5983714"><ele>325.0</ele><time>2026-04-04T10:19:58.508Z</time></trkpt><trkpt lat="44.5645003" lon="8.598151"><ele>331.3333333333333</ele><time>2026-04-04T10:19:59.515Z</time></trkpt><trkpt lat="44.5645818" lon="8.597919"><ele>337.6666666666667</ele><time>2026-04-04T10:20:00.504Z</time></trkpt><trkpt lat="44.5646625" lon="8.5976839"><ele>344.0</ele><time>2026-04-04T10:20:01.51Z</time></trkpt><trkpt lat="44.5647331" lon="8.5974638"><ele>344.0</ele><time>2026-04-04T10:20:02.502Z</time></trkpt><trkpt lat="44.5647899" lon="8.5972577"><ele>344.0</ele><time>2026-04-04T10:20:03.507Z</time></trkpt><trkpt lat="44.5648282" lon="8.5970556"><ele>344.0</ele><time>2026-04-04T10:20:04.507Z</time></trkpt><trkpt lat="44.5648373" lon="8.5968558"><ele>344.0</ele><time>2026-04-04T10:20:05.508Z</time></trkpt><trkpt lat="44.5648303" lon="8.5966539"><ele>343.0</ele><time>2026-04-04T10:20:06.504Z</time></trkpt><trkpt lat="44.5647992" lon="8.5964539"><ele>342.0</ele><time>2026-04-04T10:20:07.499Z</time></trkpt><trkpt lat="44.5647355" lon="8.5962598"><ele>341.0</ele><time>2026-04-04T10:20:08.505Z</time></trkpt><trkpt lat="44.564649" lon="8.5960687"><ele>340.6666666666667</ele><time>2026-04-04T10:20:09.502Z</time></trkpt><trkpt lat="44.5645493" lon="8.5958702"><ele>340.3333333333333</ele><time>2026-04-04T10:20:10.505Z</time></trkpt><trkpt lat="44.5644441" lon="8.5956591"><ele>340.0</ele><time>2026-04-04T10:20:11.51Z</time></trkpt><trkpt lat="44.5643427" lon="8.5954491"><ele>335.66666666666663</ele><time>2026-04-04T10:20:12.513Z</time></trkpt><trkpt lat="44.5642498" lon="8.595256"><ele>331.3333333333333</ele><time>2026-04-04T10:20:13.504Z</time></trkpt><trkpt lat="44.564164" lon="8.5950762"><ele>327.0</ele><time>2026-04-04T10:20:14.504Z</time></trkpt><trkpt lat="44.5640914" lon="8.5949211"><ele>327.0</ele><time>2026-04-04T10:20:15.502Z</time></trkpt><trkpt lat="44.5639854" lon="8.5946498"><ele>327.0</ele><time>2026-04-04T10:20:17.502Z</time></trkpt><trkpt lat="44.5639624" lon="8.5945088"><ele>327.0</ele><time>2026-04-04T10:20:18.512Z</time></trkpt><trkpt lat="44.5639823" lon="8.5943466"><ele>327.0</ele><time>2026-04-04T10:20:19.508Z</time></trkpt><trkpt lat="44.5640092" lon="8.5941906"><ele>329.0</ele><time>2026-04-04T10:20:20.512Z</time></trkpt><trkpt lat="44.5640214" lon="8.5940335"><ele>331.0</ele><time>2026-04-04T10:20:21.504Z</time></trkpt><trkpt lat="44.5640122" lon="8.5938719"><ele>333.0</ele><time>2026-04-04T10:20:22.513Z</time></trkpt><trkpt lat="44.5639691" lon="8.5937302"><ele>335.0</ele><time>2026-04-04T10:20:23.5Z</time></trkpt><trkpt lat="44.5639148" lon="8.593617"><ele>337.0</ele><time>2026-04-04T10:20:24.502Z</time></trkpt><trkpt lat="44.563851" lon="8.5935489"><ele>336.6</ele><time>2026-04-04T10:20:25.502Z</time></trkpt><trkpt lat="44.5637683" lon="8.5935101"><ele>336.20000000000005</ele><time>2026-04-04T10:20:26.508Z</time></trkpt><trkpt lat="44.5636659" lon="8.5934843"><ele>335.8</ele><time>2026-04-04T10:20:27.507Z</time></trkpt><trkpt lat="44.5635476" lon="8.5934666"><ele>335.4</ele><time>2026-04-04T10:20:28.502Z</time></trkpt><trkpt lat="44.5634143" lon="8.5934637"><ele>335.0</ele><time>2026-04-04T10:20:29.509Z</time></trkpt><trkpt lat="44.5632644" lon="8.5934728"><ele>335.0</ele><time>2026-04-04T10:20:30.504Z</time></trkpt><trkpt lat="44.5631018" lon="8.5934821"><ele>335.0</ele><time>2026-04-04T10:20:31.509Z</time></trkpt><trkpt lat="44.5629426" lon="8.5934866"><ele>335.0</ele><time>2026-04-04T10:20:32.504Z</time></trkpt><trkpt lat="44.5627989" lon="8.5934873"><ele>333.5</ele><time>2026-04-04T10:20:33.503Z</time></trkpt><trkpt lat="44.5626673" lon="8.5934837"><ele>332.0</ele><time>2026-04-04T10:20:34.502Z</time></trkpt><trkpt lat="44.5625427" lon="8.5934756"><ele>330.5</ele><time>2026-04-04T10:20:35.5Z</time></trkpt><trkpt lat="44.5624254" lon="8.5934833"><ele>329.0</ele><time>2026-04-04T10:20:36.51Z</time></trkpt><trkpt lat="44.5621711" lon="8.5935896"><ele>329.33333333333337</ele><time>2026-04-04T10:20:38.514Z</time></trkpt><trkpt lat="44.5620368" lon="8.5936858"><ele>329.6666666666667</ele><time>2026-04-04T10:20:39.504Z</time></trkpt><trkpt lat="44.5619009" lon="8.5937917"><ele>330.0</ele><time>2026-04-04T10:20:40.503Z</time></trkpt><trkpt lat="44.5617864" lon="8.593923"><ele>330.0</ele><time>2026-04-04T10:20:41.503Z</time></trkpt><trkpt lat="44.5616808" lon="8.5940733"><ele>330.0</ele><time>2026-04-04T10:20:42.51Z</time></trkpt><trkpt lat="44.5615944" lon="8.5942297"><ele>330.0</ele><time>2026-04-04T10:20:43.514Z</time></trkpt><trkpt lat="44.5615306" lon="8.5943827"><ele>330.0</ele><time>2026-04-04T10:20:44.506Z</time></trkpt><trkpt lat="44.5614942" lon="8.5945451"><ele>328.5</ele><time>2026-04-04T10:20:45.508Z</time></trkpt><trkpt lat="44.5614515" lon="8.5947042"><ele>327.0</ele><time>2026-04-04T10:20:46.503Z</time></trkpt><trkpt lat="44.5614019" lon="8.5948532"><ele>325.5</ele><time>2026-04-04T10:20:47.507Z</time></trkpt><trkpt lat="44.5613314" lon="8.5949746"><ele>324.0</ele><time>2026-04-04T10:20:48.504Z</time></trkpt><trkpt lat="44.5612622" lon="8.595092"><ele>324.0</ele><time>2026-04-04T10:20:49.501Z</time></trkpt><trkpt lat="44.5612302" lon="8.5952007"><ele>324.0</ele><time>2026-04-04T10:20:50.509Z</time></trkpt><trkpt lat="44.5612275" lon="8.5953109"><ele>324.0</ele><time>2026-04-04T10:20:51.502Z</time></trkpt><trkpt lat="44.561282" lon="8.5954022"><ele>324.0</ele><time>2026-04-04T10:20:52.508Z</time></trkpt><trkpt lat="44.5613617" lon="8.5954868"><ele>324.0</ele><time>2026-04-04T10:20:53.505Z</time></trkpt><trkpt lat="44.5614499" lon="8.5955811"><ele>323.75</ele><time>2026-04-04T10:20:54.503Z</time></trkpt><trkpt lat="44.5615408" lon="8.5956916"><ele>323.5</ele><time>2026-04-04T10:20:55.509Z</time></trkpt><trkpt lat="44.5616004" lon="8.5958518"><ele>323.25</ele><time>2026-04-04T10:20:56.502Z</time></trkpt><trkpt lat="44.561637" lon="8.5960313"><ele>323.0</ele><time>2026-04-04T10:20:57.501Z</time></trkpt><trkpt lat="44.5617046" lon="8.5963487"><ele>322.79999999999995</ele><time>2026-04-04T10:20:59.501Z</time></trkpt><trkpt lat="44.5617236" lon="8.596476"><ele>322.6</ele><time>2026-04-04T10:21:00.501Z</time></trkpt><trkpt lat="44.5616909" lon="8.5965951"><ele>322.4</ele><time>2026-04-04T10:21:01.506Z</time></trkpt><trkpt lat="44.5615982" lon="8.596701"><ele>322.20000000000005</ele><time>2026-04-04T10:21:02.508Z</time></trkpt><trkpt lat="44.5614796" lon="8.5967831"><ele>322.0</ele><time>2026-04-04T10:21:03.502Z</time></trkpt><trkpt lat="44.5613732" lon="8.5968915"><ele>319.6</ele><time>2026-04-04T10:21:04.51Z</time></trkpt><trkpt lat="44.5612861" lon="8.5970169"><ele>317.20000000000005</ele><time>2026-04-04T10:21:05.507Z</time></trkpt><trkpt lat="44.5612099" lon="8.5971357"><ele>314.8</ele><time>2026-04-04T10:21:06.508Z</time></trkpt><trkpt lat="44.5611244" lon="8.5972033"><ele>312.4</ele><time>2026-04-04T10:21:07.501Z</time></trkpt><trkpt lat="44.5610388" lon="8.5972472"><ele>310.0</ele><time>2026-04-04T10:21:08.507Z</time></trkpt><trkpt lat="44.5609502" lon="8.5972159"><ele>309.5</ele><time>2026-04-04T10:21:09.505Z</time></trkpt><trkpt lat="44.5608657" lon="8.5971402"><ele>309.0</ele><time>2026-04-04T10:21:10.506Z</time></trkpt><trkpt lat="44.5607939" lon="8.5970048"><ele>308.5</ele><time>2026-04-04T10:21:11.512Z</time></trkpt><trkpt lat="44.5607276" lon="8.5968257"><ele>308.0</ele><time>2026-04-04T10:21:12.512Z</time></trkpt><trkpt lat="44.5606541" lon="8.5966799"><ele>309.25</ele><time>2026-04-04T10:21:13.502Z</time></trkpt><trkpt lat="44.5605455" lon="8.5966102"><ele>310.5</ele><time>2026-04-04T10:21:14.507Z</time></trkpt><trkpt lat="44.5604271" lon="8.5965367"><ele>311.75</ele><time>2026-04-04T10:21:15.502Z</time></trkpt><trkpt lat="44.5603054" lon="8.5964329"><ele>313.0</ele><time>2026-04-04T10:21:16.508Z</time></trkpt><trkpt lat="44.5601793" lon="8.5962985"><ele>322.5</ele><time>2026-04-04T10:21:17.504Z</time></trkpt><trkpt lat="44.5600525" lon="8.5961389"><ele>332.0</ele><time>2026-04-04T10:21:18.502Z</time></trkpt><trkpt lat="44.5597992" lon="8.5957631"><ele>332.0</ele><time>2026-04-04T10:21:20.512Z</time></trkpt><trkpt lat="44.5596541" lon="8.5955656"><ele>332.0</ele><time>2026-04-04T10:21:21.501Z</time></trkpt><trkpt lat="44.5595049" lon="8.5953713"><ele>332.0</ele><time>2026-04-04T10:21:22.501Z</time></trkpt><trkpt lat="44.559368" lon="8.5951828"><ele>330.6666666666667</ele><time>2026-04-04T10:21:23.506Z</time></trkpt><trkpt lat="44.5592394" lon="8.595"><ele>329.3333333333333</ele><time>2026-04-04T10:21:24.518Z</time></trkpt><trkpt lat="44.5591078" lon="8.5948247"><ele>328.0</ele><time>2026-04-04T10:21:25.509Z</time></trkpt><trkpt lat="44.5589651" lon="8.5946573"><ele>328.0</ele><time>2026-04-04T10:21:26.502Z</time></trkpt><trkpt lat="44.5588175" lon="8.594505"><ele>328.0</ele><time>2026-04-04T10:21:27.505Z</time></trkpt><trkpt lat="44.5586745" lon="8.5943781"><ele>328.0</ele><time>2026-04-04T10:21:28.504Z</time></trkpt><trkpt lat="44.5585385" lon="8.5942727"><ele>330.0</ele><time>2026-04-04T10:21:29.505Z</time></trkpt><trkpt lat="44.5584044" lon="8.5941829"><ele>332.0</ele><time>2026-04-04T10:21:30.505Z</time></trkpt><trkpt lat="44.5582708" lon="8.5941126"><ele>334.0</ele><time>2026-04-04T10:21:31.505Z</time></trkpt><trkpt lat="44.5581217" lon="8.5940798"><ele>336.0</ele><time>2026-04-04T10:21:32.498Z</time></trkpt><trkpt lat="44.5579622" lon="8.5940689"><ele>333.0</ele><time>2026-04-04T10:21:33.506Z</time></trkpt><trkpt lat="44.5578007" lon="8.5940678"><ele>330.0</ele><time>2026-04-04T10:21:34.502Z</time></trkpt><trkpt lat="44.5576551" lon="8.5940823"><ele>327.0</ele><time>2026-04-04T10:21:35.497Z</time></trkpt><trkpt lat="44.5575228" lon="8.5940827"><ele>324.0</ele><time>2026-04-04T10:21:36.503Z</time></trkpt><trkpt lat="44.5573957" lon="8.5940741"><ele>324.0</ele><time>2026-04-04T10:21:37.504Z</time></trkpt><trkpt lat="44.5572724" lon="8.5940978"><ele>324.0</ele><time>2026-04-04T10:21:38.506Z</time></trkpt><trkpt lat="44.5571585" lon="8.5941366"><ele>324.0</ele><time>2026-04-04T10:21:39.501Z</time></trkpt><trkpt lat="44.5569577" lon="8.5941835"><ele>324.0</ele><time>2026-04-04T10:21:41.506Z</time></trkpt><trkpt lat="44.5568662" lon="8.5941608"><ele>326.75</ele><time>2026-04-04T10:21:42.501Z</time></trkpt><trkpt lat="44.5567821" lon="8.5940973"><ele>329.5</ele><time>2026-04-04T10:21:43.504Z</time></trkpt><trkpt lat="44.5567071" lon="8.5939675"><ele>332.25</ele><time>2026-04-04T10:21:44.512Z</time></trkpt><trkpt lat="44.5566398" lon="8.5938202"><ele>335.0</ele><time>2026-04-04T10:21:45.506Z</time></trkpt><trkpt lat="44.5565772" lon="8.5936627"><ele>335.0</ele><time>2026-04-04T10:21:46.501Z</time></trkpt><trkpt lat="44.5565131" lon="8.5934893"><ele>335.0</ele><time>2026-04-04T10:21:47.509Z</time></trkpt><trkpt lat="44.5564354" lon="8.5933217"><ele>335.0</ele><time>2026-04-04T10:21:48.513Z</time></trkpt><trkpt lat="44.5563537" lon="8.5931628"><ele>335.0</ele><time>2026-04-04T10:21:49.517Z</time></trkpt><trkpt lat="44.5562797" lon="8.5930154"><ele>335.0</ele><time>2026-04-04T10:21:50.502Z</time></trkpt><trkpt lat="44.5562135" lon="8.5928755"><ele>335.0</ele><time>2026-04-04T10:21:51.513Z</time></trkpt><trkpt lat="44.5561484" lon="8.592754"><ele>335.0</ele><time>2026-04-04T10:21:52.509Z</time></trkpt><trkpt lat="44.5560837" lon="8.5926452"><ele>335.0</ele><time>2026-04-04T10:21:53.503Z</time></trkpt><trkpt lat="44.5559906" lon="8.592567"><ele>335.0</ele><time>2026-04-04T10:21:54.5Z</time></trkpt><trkpt lat="44.5558801" lon="8.5925191"><ele>334.0</ele><time>2026-04-04T10:21:55.503Z</time></trkpt><trkpt lat="44.5557563" lon="8.5924808"><ele>333.0</ele><time>2026-04-04T10:21:56.502Z</time></trkpt><trkpt lat="44.5556189" lon="8.592421"><ele>332.0</ele><time>2026-04-04T10:21:57.504Z</time></trkpt><trkpt lat="44.5554694" lon="8.5923183"><ele>331.0</ele><time>2026-04-04T10:21:58.517Z</time></trkpt><trkpt lat="44.5553115" lon="8.5921991"><ele>339.5</ele><time>2026-04-04T10:21:59.512Z</time></trkpt><trkpt lat="44.5551441" lon="8.5920743"><ele>348.0</ele><time>2026-04-04T10:22:00.501Z</time></trkpt><trkpt lat="44.554768" lon="8.5918367"><ele>348.0</ele><time>2026-04-04T10:22:02.504Z</time></trkpt><trkpt lat="44.5545982" lon="8.5917427"><ele>348.0</ele><time>2026-04-04T10:22:03.504Z</time></trkpt><trkpt lat="44.5544499" lon="8.5916506"><ele>348.0</ele><time>2026-04-04T10:22:04.506Z</time></trkpt><trkpt lat="44.5543262" lon="8.5915529"><ele>343.79999999999995</ele><time>2026-04-04T10:22:05.512Z</time></trkpt><trkpt lat="44.5542277" lon="8.5914514"><ele>339.6</ele><time>2026-04-04T10:22:06.502Z</time></trkpt><trkpt lat="44.5541451" lon="8.5913573"><ele>335.4</ele><time>2026-04-04T10:22:07.502Z</time></trkpt><trkpt lat="44.554063" lon="8.5912897"><ele>331.20000000000005</ele><time>2026-04-04T10:22:08.516Z</time></trkpt><trkpt lat="44.5539799" lon="8.5912432"><ele>327.0</ele><time>2026-04-04T10:22:09.505Z</time></trkpt><trkpt lat="44.5538794" lon="8.5912719"><ele>327.0</ele><time>2026-04-04T10:22:10.511Z</time></trkpt><trkpt lat="44.5537863" lon="8.5913665"><ele>327.0</ele><time>2026-04-04T10:22:11.509Z</time></trkpt><trkpt lat="44.5537024" lon="8.591502"><ele>327.0</ele><time>2026-04-04T10:22:12.499Z</time></trkpt><trkpt lat="44.5536374" lon="8.5916516"><ele>327.0</ele><time>2026-04-04T10:22:13.509Z</time></trkpt><trkpt lat="44.5535639" lon="8.5917638"><ele>328.75</ele><time>2026-04-04T10:22:14.51Z</time></trkpt><trkpt lat="44.5534704" lon="8.5918356"><ele>330.5</ele><time>2026-04-04T10:22:15.5Z</time></trkpt><trkpt lat="44.553357" lon="8.5918591"><ele>332.25</ele><time>2026-04-04T10:22:16.506Z</time></trkpt><trkpt lat="44.5532281" lon="8.591884"><ele>334.0</ele><time>2026-04-04T10:22:17.505Z</time></trkpt><trkpt lat="44.5531102" lon="8.5919475"><ele>330.66666666666663</ele><time>2026-04-04T10:22:18.498Z</time></trkpt><trkpt lat="44.5529898" lon="8.5920469"><ele>327.3333333333333</ele><time>2026-04-04T10:22:19.497Z</time></trkpt><trkpt lat="44.5528637" lon="8.5921966"><ele>324.0</ele><time>2026-04-04T10:22:20.507Z</time></trkpt><trkpt lat="44.5527225" lon="8.5923468"><ele>324.0</ele><time>2026-04-04T10:22:21.505Z</time></trkpt><trkpt lat="44.5524177" lon="8.5925816"><ele>324.0</ele><time>2026-04-04T10:22:23.5Z</time></trkpt><trkpt lat="44.5522532" lon="8.5926928"><ele>324.0</ele><time>2026-04-04T10:22:24.502Z</time></trkpt><trkpt lat="44.5520792" lon="8.5928046"><ele>324.0</ele><time>2026-04-04T10:22:25.512Z</time></trkpt><trkpt lat="44.5519051" lon="8.5929191"><ele>324.0</ele><time>2026-04-04T10:22:26.505Z</time></trkpt><trkpt lat="44.551748" lon="8.5930224"><ele>323.25</ele><time>2026-04-04T10:22:27.513Z</time></trkpt><trkpt lat="44.5516083" lon="8.5931154"><ele>322.5</ele><time>2026-04-04T10:22:28.513Z</time></trkpt><trkpt lat="44.5514789" lon="8.5931749"><ele>321.75</ele><time>2026-04-04T10:22:29.508Z</time></trkpt><trkpt lat="44.5513543" lon="8.5932115"><ele>321.0</ele><time>2026-04-04T10:22:30.504Z</time></trkpt><trkpt lat="44.5512393" lon="8.5932224"><ele>324.6</ele><time>2026-04-04T10:22:31.504Z</time></trkpt><trkpt lat="44.5511315" lon="8.5932271"><ele>328.20000000000005</ele><time>2026-04-04T10:22:32.507Z</time></trkpt><trkpt lat="44.5510361" lon="8.5932532"><ele>331.79999999999995</ele><time>2026-04-04T10:22:33.512Z</time></trkpt><trkpt lat="44.5509563" lon="8.59333"><ele>335.4</ele><time>2026-04-04T10:22:34.509Z</time></trkpt><trkpt lat="44.5508817" lon="8.5934513"><ele>339.0</ele><time>2026-04-04T10:22:35.509Z</time></trkpt><trkpt lat="44.5508002" lon="8.5935525"><ele>339.0</ele><time>2026-04-04T10:22:36.51Z</time></trkpt><trkpt lat="44.5507164" lon="8.5936307"><ele>339.0</ele><time>2026-04-04T10:22:37.504Z</time></trkpt><trkpt lat="44.5506181" lon="8.5936423"><ele>339.0</ele><time>2026-04-04T10:22:38.502Z</time></trkpt><trkpt lat="44.5505104" lon="8.593632"><ele>339.0</ele><time>2026-04-04T10:22:39.502Z</time></trkpt><trkpt lat="44.5504214" lon="8.5936471"><ele>339.0</ele><time>2026-04-04T10:22:40.5Z</time></trkpt><trkpt lat="44.55034" lon="8.5937074"><ele>338.75</ele><time>2026-04-04T10:22:41.501Z</time></trkpt><trkpt lat="44.5503017" lon="8.5938471"><ele>338.5</ele><time>2026-04-04T10:22:42.506Z</time></trkpt><trkpt lat="44.5502851" lon="8.5941212"><ele>338.25</ele><time>2026-04-04T10:22:44.501Z</time></trkpt><trkpt lat="44.5502458" lon="8.594239"><ele>338.0</ele><time>2026-04-04T10:22:45.501Z</time></trkpt><trkpt lat="44.5501926" lon="8.5943414"><ele>338.0</ele><time>2026-04-04T10:22:46.504Z</time></trkpt><trkpt lat="44.5501257" lon="8.594407"><ele>338.0</ele><time>2026-04-04T10:22:47.5Z</time></trkpt><trkpt lat="44.5500507" lon="8.5944315"><ele>338.0</ele><time>2026-04-04T10:22:48.51Z</time></trkpt><trkpt lat="44.54996" lon="8.59441"><ele>338.0</ele><time>2026-04-04T10:22:49.507Z</time></trkpt><trkpt lat="44.5498599" lon="8.5943411"><ele>338.0</ele><time>2026-04-04T10:22:50.499Z</time></trkpt><trkpt lat="44.5497401" lon="8.594261"><ele>338.0</ele><time>2026-04-04T10:22:51.505Z</time></trkpt><trkpt lat="44.5496163" lon="8.5941966"><ele>338.0</ele><time>2026-04-04T10:22:52.507Z</time></trkpt><trkpt lat="44.5494986" lon="8.5941699"><ele>338.0</ele><time>2026-04-04T10:22:53.509Z</time></trkpt><trkpt lat="44.5493929" lon="8.5941963"><ele>338.0</ele><time>2026-04-04T10:22:54.5Z</time></trkpt><trkpt lat="44.5493073" lon="8.5942608"><ele>335.0</ele><time>2026-04-04T10:22:55.506Z</time></trkpt><trkpt lat="44.5492309" lon="8.5943748"><ele>332.0</ele><time>2026-04-04T10:22:56.506Z</time></trkpt><trkpt lat="44.5491548" lon="8.5945139"><ele>329.0</ele><time>2026-04-04T10:22:57.5Z</time></trkpt><trkpt lat="44.5490622" lon="8.5946641"><ele>326.0</ele><time>2026-04-04T10:22:58.504Z</time></trkpt><trkpt lat="44.5489407" lon="8.5948081"><ele>326.0</ele><time>2026-04-04T10:22:59.511Z</time></trkpt><trkpt lat="44.548803" lon="8.5949449"><ele>326.0</ele><time>2026-04-04T10:23:00.505Z</time></trkpt><trkpt lat="44.5486697" lon="8.5950692"><ele>326.0</ele><time>2026-04-04T10:23:01.509Z</time></trkpt><trkpt lat="44.5485633" lon="8.5951997"><ele>330.6666666666667</ele><time>2026-04-04T10:23:02.506Z</time></trkpt><trkpt lat="44.5484752" lon="8.5953457"><ele>335.3333333333333</ele><time>2026-04-04T10:23:03.5Z</time></trkpt><trkpt lat="44.5483054" lon="8.5955985"><ele>340.0</ele><time>2026-04-04T10:23:05.501Z</time></trkpt><trkpt lat="44.5482331" lon="8.5957116"><ele>340.0</ele><time>2026-04-04T10:23:06.501Z</time></trkpt><trkpt lat="44.5481915" lon="8.5958523"><ele>340.0</ele><time>2026-04-04T10:23:07.506Z</time></trkpt><trkpt lat="44.5481725" lon="8.5959938"><ele>340.0</ele><time>2026-04-04T10:23:08.506Z</time></trkpt><trkpt lat="44.5481498" lon="8.596117"><ele>340.0</ele><time>2026-04-04T10:23:09.502Z</time></trkpt><trkpt lat="44.548089" lon="8.596206"><ele>340.0</ele><time>2026-04-04T10:23:10.508Z</time></trkpt><trkpt lat="44.5480095" lon="8.5962499"><ele>339.75</ele><time>2026-04-04T10:23:11.509Z</time></trkpt><trkpt lat="44.5479181" lon="8.5962136"><ele>339.5</ele><time>2026-04-04T10:23:12.499Z</time></trkpt><trkpt lat="44.5478405" lon="8.5961018"><ele>339.25</ele><time>2026-04-04T10:23:13.504Z</time></trkpt><trkpt lat="44.5477748" lon="8.5959167"><ele>339.0</ele><time>2026-04-04T10:23:14.513Z</time></trkpt><trkpt lat="44.5477042" lon="8.5957297"><ele>336.3333333333333</ele><time>2026-04-04T10:23:15.505Z</time></trkpt><trkpt lat="44.5476129" lon="8.5955289"><ele>333.66666666666663</ele><time>2026-04-04T10:23:16.503Z</time></trkpt><trkpt lat="44.5475064" lon="8.5953339"><ele>331.0</ele><time>2026-04-04T10:23:17.51Z</time></trkpt><trkpt lat="44.547386" lon="8.5951493"><ele>329.66666666666663</ele><time>2026-04-04T10:23:18.511Z</time></trkpt><trkpt lat="44.5472402" lon="8.594981"><ele>328.3333333333333</ele><time>2026-04-04T10:23:19.504Z</time></trkpt><trkpt lat="44.5470807" lon="8.5948127"><ele>327.0</ele><time>2026-04-04T10:23:20.504Z</time></trkpt><trkpt lat="44.5469225" lon="8.5946543"><ele>327.0</ele><time>2026-04-04T10:23:21.507Z</time></trkpt><trkpt lat="44.5467787" lon="8.5945135"><ele>327.0</ele><time>2026-04-04T10:23:22.498Z</time></trkpt><trkpt lat="44.5466426" lon="8.5943915"><ele>327.0</ele><time>2026-04-04T10:23:23.507Z</time></trkpt><trkpt lat="44.5465129" lon="8.5943129"><ele>328.5</ele><time>2026-04-04T10:23:24.503Z</time></trkpt><trkpt lat="44.5462146" lon="8.5942207"><ele>330.0</ele><time>2026-04-04T10:23:26.504Z</time></trkpt><trkpt lat="44.5460441" lon="8.5942123"><ele>330.0</ele><time>2026-04-04T10:23:27.501Z</time></trkpt><trkpt lat="44.5458705" lon="8.5941948"><ele>330.0</ele><time>2026-04-04T10:23:28.504Z</time></trkpt><trkpt lat="44.5456999" lon="8.5941458"><ele>330.0</ele><time>2026-04-04T10:23:29.506Z</time></trkpt><trkpt lat="44.545536" lon="8.5940699"><ele>330.0</ele><time>2026-04-04T10:23:30.501Z</time></trkpt><trkpt lat="44.5453842" lon="8.5939708"><ele>330.0</ele><time>2026-04-04T10:23:31.498Z</time></trkpt><trkpt lat="44.5452555" lon="8.5938576"><ele>330.0</ele><time>2026-04-04T10:23:32.508Z</time></trkpt><trkpt lat="44.5451196" lon="8.593778"><ele>328.0</ele><time>2026-04-04T10:23:33.505Z</time></trkpt><trkpt lat="44.544973" lon="8.5937188"><ele>326.0</ele><time>2026-04-04T10:23:34.502Z</time></trkpt><trkpt lat="44.5448255" lon="8.5936829"><ele>324.0</ele><time>2026-04-04T10:23:35.507Z</time></trkpt><trkpt lat="44.5446716" lon="8.593673"><ele>326.0</ele><time>2026-04-04T10:23:36.505Z</time></trkpt><trkpt lat="44.5445079" lon="8.5937056"><ele>328.0</ele><time>2026-04-04T10:23:37.505Z</time></trkpt><trkpt lat="44.5443443" lon="8.5937559"><ele>330.0</ele><time>2026-04-04T10:23:38.505Z</time></trkpt><trkpt lat="44.5442046" lon="8.5938186"><ele>330.0</ele><time>2026-04-04T10:23:39.505Z</time></trkpt><trkpt lat="44.5440766" lon="8.5938651"><ele>330.0</ele><time>2026-04-04T10:23:40.504Z</time></trkpt><trkpt lat="44.5439615" lon="8.5938675"><ele>330.0</ele><time>2026-04-04T10:23:41.501Z</time></trkpt><trkpt lat="44.5438558" lon="8.593805"><ele>330.0</ele><time>2026-04-04T10:23:42.505Z</time></trkpt><trkpt lat="44.543768" lon="8.5936831"><ele>331.6666666666667</ele><time>2026-04-04T10:23:43.503Z</time></trkpt><trkpt lat="44.5436745" lon="8.5935568"><ele>333.33333333333337</ele><time>2026-04-04T10:23:44.506Z</time></trkpt><trkpt lat="44.5435632" lon="8.5934152"><ele>335.0</ele><time>2026-04-04T10:23:45.512Z</time></trkpt><trkpt lat="44.5433272" lon="8.593228"><ele>335.0</ele><time>2026-04-04T10:23:47.515Z</time></trkpt><trkpt lat="44.543212" lon="8.5931725"><ele>335.0</ele><time>2026-04-04T10:23:48.519Z</time></trkpt><trkpt lat="44.5431092" lon="8.593151"><ele>335.0</ele><time>2026-04-04T10:23:49.508Z</time></trkpt><trkpt lat="44.5430242" lon="8.5931148"><ele>335.0</ele><time>2026-04-04T10:23:50.506Z</time></trkpt><trkpt lat="44.5429682" lon="8.5930227"><ele>335.0</ele><time>2026-04-04T10:23:51.502Z</time></trkpt><trkpt lat="44.5429459" lon="8.5928993"><ele>335.4</ele><time>2026-04-04T10:23:52.511Z</time></trkpt><trkpt lat="44.5429177" lon="8.592759"><ele>335.8</ele><time>2026-04-04T10:23:53.5Z</time></trkpt><trkpt lat="44.5428615" lon="8.5926568"><ele>336.20000000000005</ele><time>2026-04-04T10:23:54.505Z</time></trkpt><trkpt lat="44.5427591" lon="8.5926178"><ele>336.6</ele><time>2026-04-04T10:23:55.505Z</time></trkpt><trkpt lat="44.5426351" lon="8.5926069"><ele>337.0</ele><time>2026-04-04T10:23:56.512Z</time></trkpt><trkpt lat="44.5425076" lon="8.5926197"><ele>337.0</ele><time>2026-04-04T10:23:57.505Z</time></trkpt><trkpt lat="44.5423717" lon="8.5926136"><ele>337.0</ele><time>2026-04-04T10:23:58.503Z</time></trkpt><trkpt lat="44.5422459" lon="8.5925867"><ele>337.0</ele><time>2026-04-04T10:23:59.511Z</time></trkpt><trkpt lat="44.5421471" lon="8.5925218"><ele>337.0</ele><time>2026-04-04T10:24:00.514Z</time></trkpt><trkpt lat="44.542063" lon="8.5924158"><ele>336.75</ele><time>2026-04-04T10:24:01.509Z</time></trkpt><trkpt lat="44.541996" lon="8.5922782"><ele>336.5</ele><time>2026-04-04T10:24:02.506Z</time></trkpt><trkpt lat="44.5419548" lon="8.5921233"><ele>336.25</ele><time>2026-04-04T10:24:03.511Z</time></trkpt><trkpt lat="44.5419446" lon="8.5919615"><ele>336.0</ele><time>2026-04-04T10:24:04.509Z</time></trkpt><trkpt lat="44.5419473" lon="8.591812"><ele>336.0</ele><time>2026-04-04T10:24:05.502Z</time></trkpt><trkpt lat="44.5419353" lon="8.591679"><ele>336.0</ele><time>2026-04-04T10:24:06.511Z</time></trkpt><trkpt lat="44.5418099" lon="8.5914656"><ele>336.0</ele><time>2026-04-04T10:24:08.506Z</time></trkpt><trkpt lat="44.5417028" lon="8.5913685"><ele>336.0</ele><time>2026-04-04T10:24:09.51Z</time></trkpt><trkpt lat="44.5415901" lon="8.5912653"><ele>340.0</ele><time>2026-04-04T10:24:10.503Z</time></trkpt><trkpt lat="44.5414781" lon="8.5911341"><ele>344.0</ele><time>2026-04-04T10:24:11.505Z</time></trkpt><trkpt lat="44.5413821" lon="8.5909836"><ele>348.0</ele><time>2026-04-04T10:24:12.505Z</time></trkpt><trkpt lat="44.5413025" lon="8.5908139"><ele>352.0</ele><time>2026-04-04T10:24:13.51Z</time></trkpt><trkpt lat="44.5412444" lon="8.5906201"><ele>347.6</ele><time>2026-04-04T10:24:14.505Z</time></trkpt><trkpt lat="44.5412006" lon="8.590428"><ele>343.20000000000005</ele><time>2026-04-04T10:24:15.509Z</time></trkpt><trkpt lat="44.5411606" lon="8.5902712"><ele>338.8</ele><time>2026-04-04T10:24:16.509Z</time></trkpt><trkpt lat="44.5411318" lon="8.5901399"><ele>334.4</ele><time>2026-04-04T10:24:17.508Z</time></trkpt><trkpt lat="44.5411268" lon="8.5900191"><ele>330.0</ele><time>2026-04-04T10:24:18.501Z</time></trkpt><trkpt lat="44.5411573" lon="8.5898914"><ele>335.0</ele><time>2026-04-04T10:24:19.509Z</time></trkpt><trkpt lat="44.5412222" lon="8.5897589"><ele>340.0</ele><time>2026-04-04T10:24:20.502Z</time></trkpt><trkpt lat="44.5413078" lon="8.5896113"><ele>345.0</ele><time>2026-04-04T10:24:21.506Z</time></trkpt><trkpt lat="44.5414073" lon="8.5894351"><ele>350.0</ele><time>2026-04-04T10:24:22.503Z</time></trkpt><trkpt lat="44.5415012" lon="8.58923"><ele>350.0</ele><time>2026-04-04T10:24:23.502Z</time></trkpt><trkpt lat="44.5415811" lon="8.5890019"><ele>350.0</ele><time>2026-04-04T10:24:24.503Z</time></trkpt><trkpt lat="44.5416485" lon="8.5887542"><ele>350.0</ele><time>2026-04-04T10:24:25.51Z</time></trkpt><trkpt lat="44.5416902" lon="8.5884787"><ele>346.0</ele><time>2026-04-04T10:24:26.515Z</time></trkpt><trkpt lat="44.5417206" lon="8.5881919"><ele>342.0</ele><time>2026-04-04T10:24:27.509Z</time></trkpt><trkpt lat="44.5417483" lon="8.587649"><ele>341.75</ele><time>2026-04-04T10:24:29.508Z</time></trkpt><trkpt lat="44.5417487" lon="8.5874226"><ele>341.5</ele><time>2026-04-04T10:24:30.511Z</time></trkpt><trkpt lat="44.5417455" lon="8.5872246"><ele>341.25</ele><time>2026-04-04T10:24:31.512Z</time></trkpt><trkpt lat="44.5417517" lon="8.5870452"><ele>341.0</ele><time>2026-04-04T10:24:32.505Z</time></trkpt><trkpt lat="44.5417882" lon="8.5868752"><ele>341.0</ele><time>2026-04-04T10:24:33.501Z</time></trkpt><trkpt lat="44.5418315" lon="8.5866908"><ele>341.0</ele><time>2026-04-04T10:24:34.509Z</time></trkpt><trkpt lat="44.5419001" lon="8.5864988"><ele>341.0</ele><time>2026-04-04T10:24:35.51Z</time></trkpt><trkpt lat="44.5419543" lon="8.5863042"><ele>341.0</ele><time>2026-04-04T10:24:36.505Z</time></trkpt><trkpt lat="44.5419736" lon="8.5861083"><ele>341.25</ele><time>2026-04-04T10:24:37.505Z</time></trkpt><trkpt lat="44.5419736" lon="8.5859339"><ele>341.5</ele><time>2026-04-04T10:24:38.502Z</time></trkpt><trkpt lat="44.541964" lon="8.5857635"><ele>341.75</ele><time>2026-04-04T10:24:39.508Z</time></trkpt><trkpt lat="44.5419258" lon="8.5855971"><ele>342.0</ele><time>2026-04-04T10:24:40.506Z</time></trkpt><trkpt lat="44.5418864" lon="8.5854442"><ele>342.8</ele><time>2026-04-04T10:24:41.5Z</time></trkpt><trkpt lat="44.5418601" lon="8.5852939"><ele>343.6</ele><time>2026-04-04T10:24:42.503Z</time></trkpt><trkpt lat="44.5418445" lon="8.5851588"><ele>344.40000000000003</ele><time>2026-04-04T10:24:43.504Z</time></trkpt><trkpt lat="44.541824" lon="8.5850313"><ele>345.20000000000005</ele><time>2026-04-04T10:24:44.503Z</time></trkpt><trkpt lat="44.5417618" lon="8.5849312"><ele>346.0</ele><time>2026-04-04T10:24:45.507Z</time></trkpt><trkpt lat="44.5416758" lon="8.5848524"><ele>346.0</ele><time>2026-04-04T10:24:46.501Z</time></trkpt><trkpt lat="44.5415635" lon="8.5847976"><ele>346.0</ele><time>2026-04-04T10:24:47.509Z</time></trkpt><trkpt lat="44.5414486" lon="8.5847336"><ele>346.0</ele><time>2026-04-04T10:24:48.504Z</time></trkpt><trkpt lat="44.5412541" lon="8.5845229"><ele>345.20000000000005</ele><time>2026-04-04T10:24:50.501Z</time></trkpt><trkpt lat="44.5411771" lon="8.5844117"><ele>344.40000000000003</ele><time>2026-04-04T10:24:51.504Z</time></trkpt><trkpt lat="44.5411121" lon="8.5843131"><ele>343.6</ele><time>2026-04-04T10:24:52.508Z</time></trkpt><trkpt lat="44.5410613" lon="8.5842003"><ele>342.8</ele><time>2026-04-04T10:24:53.501Z</time></trkpt><trkpt lat="44.541036" lon="8.5840698"><ele>342.0</ele><time>2026-04-04T10:24:54.502Z</time></trkpt><trkpt lat="44.5410372" lon="8.5839241"><ele>342.0</ele><time>2026-04-04T10:24:55.505Z</time></trkpt><trkpt lat="44.5410845" lon="8.5837759"><ele>342.0</ele><time>2026-04-04T10:24:56.512Z</time></trkpt><trkpt lat="44.5411643" lon="8.5835969"><ele>342.0</ele><time>2026-04-04T10:24:57.512Z</time></trkpt><trkpt lat="44.5412233" lon="8.5834064"><ele>342.0</ele><time>2026-04-04T10:24:58.502Z</time></trkpt><trkpt lat="44.541285" lon="8.5832187"><ele>346.5</ele><time>2026-04-04T10:24:59.511Z</time></trkpt><trkpt lat="44.5413656" lon="8.5830585"><ele>351.0</ele><time>2026-04-04T10:25:00.504Z</time></trkpt><trkpt lat="44.5414609" lon="8.5829157"><ele>355.5</ele><time>2026-04-04T10:25:01.508Z</time></trkpt><trkpt lat="44.541568" lon="8.5827947"><ele>360.0</ele><time>2026-04-04T10:25:02.514Z</time></trkpt><trkpt lat="44.5416833" lon="8.5826838"><ele>360.0</ele><time>2026-04-04T10:25:03.511Z</time></trkpt><trkpt lat="44.5418162" lon="8.5826135"><ele>360.0</ele><time>2026-04-04T10:25:04.509Z</time></trkpt><trkpt lat="44.541948" lon="8.582542"><ele>360.0</ele><time>2026-04-04T10:25:05.523Z</time></trkpt><trkpt lat="44.542071" lon="8.5824701"><ele>360.0</ele><time>2026-04-04T10:25:06.524Z</time></trkpt><trkpt lat="44.5421726" lon="8.5824006"><ele>360.0</ele><time>2026-04-04T10:25:07.509Z</time></trkpt><trkpt lat="44.5422314" lon="8.58231"><ele>360.0</ele><time>2026-04-04T10:25:08.51Z</time></trkpt><trkpt lat="44.5422584" lon="8.5822115"><ele>360.0</ele><time>2026-04-04T10:25:09.51Z</time></trkpt><trkpt lat="44.5421929" lon="8.5820562"><ele>360.0</ele><time>2026-04-04T10:25:11.523Z</time></trkpt><trkpt lat="44.5420917" lon="8.582034"><ele>360.0</ele><time>2026-04-04T10:25:12.503Z</time></trkpt><trkpt lat="44.5419907" lon="8.5820279"><ele>360.0</ele><time>2026-04-04T10:25:13.503Z</time></trkpt><trkpt lat="44.5418674" lon="8.5820293"><ele>360.0</ele><time>2026-04-04T10:25:14.508Z</time></trkpt><trkpt lat="44.5417339" lon="8.5819939"><ele>360.0</ele><time>2026-04-04T10:25:15.504Z</time></trkpt><trkpt lat="44.541583" lon="8.5819325"><ele>360.0</ele><time>2026-04-04T10:25:16.509Z</time></trkpt><trkpt lat="44.541433" lon="8.5818715"><ele>365.0</ele><time>2026-04-04T10:25:17.513Z</time></trkpt><trkpt lat="44.5412796" lon="8.5818386"><ele>370.0</ele><time>2026-04-04T10:25:18.508Z</time></trkpt><trkpt lat="44.5411391" lon="8.5818283"><ele>375.0</ele><time>2026-04-04T10:25:19.515Z</time></trkpt><trkpt lat="44.5410172" lon="8.5818055"><ele>380.0</ele><time>2026-04-04T10:25:20.527Z</time></trkpt><trkpt lat="44.5409002" lon="8.5817519"><ele>380.0</ele><time>2026-04-04T10:25:21.508Z</time></trkpt><trkpt lat="44.5407812" lon="8.5816672"><ele>380.0</ele><time>2026-04-04T10:25:22.526Z</time></trkpt><trkpt lat="44.5406764" lon="8.5815778"><ele>380.0</ele><time>2026-04-04T10:25:23.514Z</time></trkpt><trkpt lat="44.5405829" lon="8.5814964"><ele>380.0</ele><time>2026-04-04T10:25:24.505Z</time></trkpt><trkpt lat="44.54049" lon="8.5814238"><ele>380.0</ele><time>2026-04-04T10:25:25.511Z</time></trkpt><trkpt lat="44.5403992" lon="8.5813457"><ele>380.0</ele><time>2026-04-04T10:25:26.513Z</time></trkpt><trkpt lat="44.540303" lon="8.5812468"><ele>380.0</ele><time>2026-04-04T10:25:27.511Z</time></trkpt><trkpt lat="44.5401938" lon="8.5811328"><ele>380.0</ele><time>2026-04-04T10:25:28.517Z</time></trkpt><trkpt lat="44.5400825" lon="8.581018"><ele>380.5</ele><time>2026-04-04T10:25:29.502Z</time></trkpt><trkpt lat="44.539987" lon="8.5809033"><ele>381.0</ele><time>2026-04-04T10:25:30.51Z</time></trkpt><trkpt lat="44.539873" lon="8.580697"><ele>381.5</ele><time>2026-04-04T10:25:32.503Z</time></trkpt><trkpt lat="44.5398663" lon="8.5806046"><ele>382.0</ele><time>2026-04-04T10:25:33.506Z</time></trkpt><trkpt lat="44.5398389" lon="8.5804203"><ele>384.40000000000003</ele><time>2026-04-04T10:25:35.515Z</time></trkpt><trkpt lat="44.5398095" lon="8.5802973"><ele>386.8</ele><time>2026-04-04T10:25:36.509Z</time></trkpt><trkpt lat="44.5397794" lon="8.5801487"><ele>389.2</ele><time>2026-04-04T10:25:37.506Z</time></trkpt><trkpt lat="44.5397465" lon="8.5800079"><ele>391.6</ele><time>2026-04-04T10:25:38.521Z</time></trkpt><trkpt lat="44.5397192" lon="8.579903"><ele>394.0</ele><time>2026-04-04T10:25:39.507Z</time></trkpt><trkpt lat="44.5396998" lon="8.5797595"><ele>394.0</ele><time>2026-04-04T10:25:41.501Z</time></trkpt><trkpt lat="44.539736" lon="8.579566"><ele>394.0</ele><time>2026-04-04T10:25:43.504Z</time></trkpt><trkpt lat="44.5397582" lon="8.5794377"><ele>394.0</ele><time>2026-04-04T10:25:44.508Z</time></trkpt><trkpt lat="44.5397813" lon="8.5792943"><ele>394.0</ele><time>2026-04-04T10:25:45.502Z</time></trkpt><trkpt lat="44.5398052" lon="8.5791397"><ele>397.25</ele><time>2026-04-04T10:25:46.503Z</time></trkpt><trkpt lat="44.5398267" lon="8.5789792"><ele>400.5</ele><time>2026-04-04T10:25:47.512Z</time></trkpt><trkpt lat="44.5398433" lon="8.5788129"><ele>403.75</ele><time>2026-04-04T10:25:48.511Z</time></trkpt><trkpt lat="44.5398587" lon="8.578644"><ele>407.0</ele><time>2026-04-04T10:25:49.515Z</time></trkpt><trkpt lat="44.5398734" lon="8.5784802"><ele>409.0</ele><time>2026-04-04T10:25:50.501Z</time></trkpt><trkpt lat="44.5398865" lon="8.5783409"><ele>411.0</ele><time>2026-04-04T10:25:51.507Z</time></trkpt><trkpt lat="44.5398876" lon="8.5780637"><ele>413.0</ele><time>2026-04-04T10:25:53.505Z</time></trkpt><trkpt lat="44.5398735" lon="8.5779269"><ele>415.0</ele><time>2026-04-04T10:25:54.502Z</time></trkpt><trkpt lat="44.5398586" lon="8.5778048"><ele>415.83333333333337</ele><time>2026-04-04T10:25:55.509Z</time></trkpt><trkpt lat="44.5398484" lon="8.577684"><ele>416.6666666666667</ele><time>2026-04-04T10:25:56.512Z</time></trkpt><trkpt lat="44.5398295" lon="8.5775752"><ele>417.5</ele><time>2026-04-04T10:25:57.508Z</time></trkpt><trkpt lat="44.5397926" lon="8.5774645"><ele>418.33333333333337</ele><time>2026-04-04T10:25:58.503Z</time></trkpt><trkpt lat="44.5397346" lon="8.577362"><ele>419.1666666666667</ele><time>2026-04-04T10:25:59.503Z</time></trkpt><trkpt lat="44.5396721" lon="8.5772573"><ele>420.0</ele><time>2026-04-04T10:26:00.511Z</time></trkpt><trkpt lat="44.5396155" lon="8.577144"><ele>420.0</ele><time>2026-04-04T10:26:01.507Z</time></trkpt><trkpt lat="44.5395607" lon="8.5770282"><ele>420.0</ele><time>2026-04-04T10:26:02.505Z</time></trkpt><trkpt lat="44.5395071" lon="8.5769061"><ele>420.0</ele><time>2026-04-04T10:26:03.508Z</time></trkpt><trkpt lat="44.5394615" lon="8.5767871"><ele>420.0</ele><time>2026-04-04T10:26:04.505Z</time></trkpt><trkpt lat="44.53941" lon="8.5766803"><ele>420.0</ele><time>2026-04-04T10:26:05.505Z</time></trkpt><trkpt lat="44.5393536" lon="8.5765962"><ele>420.0</ele><time>2026-04-04T10:26:06.504Z</time></trkpt><trkpt lat="44.5393054" lon="8.5765305"><ele>420.0</ele><time>2026-04-04T10:26:07.51Z</time></trkpt><trkpt lat="44.5392701" lon="8.5764487"><ele>420.0</ele><time>2026-04-04T10:26:08.503Z</time></trkpt><trkpt lat="44.5392814" lon="8.5762793"><ele>420.0</ele><time>2026-04-04T10:26:10.521Z</time></trkpt><trkpt lat="44.5393144" lon="8.5761708"><ele>420.0</ele><time>2026-04-04T10:26:11.503Z</time></trkpt><trkpt lat="44.5393501" lon="8.5760483"><ele>420.0</ele><time>2026-04-04T10:26:12.515Z</time></trkpt><trkpt lat="44.5393578" lon="8.5758107"><ele>420.0</ele><time>2026-04-04T10:26:14.509Z</time></trkpt><trkpt lat="44.5393394" lon="8.5757005"><ele>420.0</ele><time>2026-04-04T10:26:15.505Z</time></trkpt><trkpt lat="44.5393227" lon="8.5756014"><ele>420.0</ele><time>2026-04-04T10:26:16.507Z</time></trkpt><trkpt lat="44.5393095" lon="8.5755038"><ele>420.0</ele><time>2026-04-04T10:26:17.504Z</time></trkpt><trkpt lat="44.5393315" lon="8.5754053"><ele>420.0</ele><time>2026-04-04T10:26:18.511Z</time></trkpt><trkpt lat="44.5393637" lon="8.5753142"><ele>420.0</ele><time>2026-04-04T10:26:19.507Z</time></trkpt><trkpt lat="44.5394074" lon="8.5752424"><ele>420.0</ele><time>2026-04-04T10:26:20.504Z</time></trkpt><trkpt lat="44.539468" lon="8.5751676"><ele>422.6</ele><time>2026-04-04T10:26:22.519Z</time></trkpt><trkpt lat="44.5394918" lon="8.5750589"><ele>425.2</ele><time>2026-04-04T10:26:47.519Z</time></trkpt><trkpt lat="44.5395842" lon="8.5747967"><ele>427.79999999999995</ele><time>2026-04-04T10:26:50.516Z</time></trkpt><trkpt lat="44.5396159" lon="8.5746895"><ele>430.4</ele><time>2026-04-04T10:26:51.513Z</time></trkpt><trkpt lat="44.5396402" lon="8.5745962"><ele>433.0</ele><time>2026-04-04T10:26:52.504Z</time></trkpt><trkpt lat="44.5396964" lon="8.5744659"><ele>433.59999999999997</ele><time>2026-04-04T10:26:54.513Z</time></trkpt><trkpt lat="44.5397923" lon="8.57443"><ele>434.19999999999993</ele><time>2026-04-04T10:26:56.514Z</time></trkpt><trkpt lat="44.5398659" lon="8.5744287"><ele>434.8</ele><time>2026-04-04T10:26:57.517Z</time></trkpt><trkpt lat="44.5399518" lon="8.5744343"><ele>435.4</ele><time>2026-04-04T10:26:58.507Z</time></trkpt><trkpt lat="44.5400551" lon="8.5744729"><ele>436.0</ele><time>2026-04-04T10:26:59.507Z</time></trkpt><trkpt lat="44.5401637" lon="8.5745506"><ele>436.0</ele><time>2026-04-04T10:27:00.516Z</time></trkpt><trkpt lat="44.5402675" lon="8.5746469"><ele>436.0</ele><time>2026-04-04T10:27:01.515Z</time></trkpt><trkpt lat="44.5403576" lon="8.5747381"><ele>436.0</ele><time>2026-04-04T10:27:02.525Z</time></trkpt><trkpt lat="44.5404301" lon="8.5748278"><ele>436.0</ele><time>2026-04-04T10:27:03.509Z</time></trkpt><trkpt lat="44.5404889" lon="8.5749674"><ele>436.0</ele><time>2026-04-04T10:27:04.509Z</time></trkpt><trkpt lat="44.5405451" lon="8.5751124"><ele>438.5</ele><time>2026-04-04T10:27:05.513Z</time></trkpt><trkpt lat="44.5406048" lon="8.5752541"><ele>441.0</ele><time>2026-04-04T10:27:06.51Z</time></trkpt><trkpt lat="44.5406665" lon="8.5753809"><ele>443.5</ele><time>2026-04-04T10:27:07.518Z</time></trkpt><trkpt lat="44.5407213" lon="8.5755042"><ele>446.0</ele><time>2026-04-04T10:27:08.521Z</time></trkpt><trkpt lat="44.5408048" lon="8.5758202"><ele>446.0</ele><time>2026-04-04T10:27:10.511Z</time></trkpt><trkpt lat="44.5408491" lon="8.575963"><ele>446.0</ele><time>2026-04-04T10:27:11.519Z</time></trkpt><trkpt lat="44.5408898" lon="8.5760812"><ele>446.0</ele><time>2026-04-04T10:27:12.514Z</time></trkpt><trkpt lat="44.5409353" lon="8.5761579"><ele>446.0</ele><time>2026-04-04T10:27:13.512Z</time></trkpt><trkpt lat="44.54106" lon="8.5761555"><ele>446.0</ele><time>2026-04-04T10:27:15.514Z</time></trkpt><trkpt lat="44.5411306" lon="8.5761055"><ele>446.0</ele><time>2026-04-04T10:27:16.52Z</time></trkpt><trkpt lat="44.541188" lon="8.5760255"><ele>446.0</ele><time>2026-04-04T10:27:17.506Z</time></trkpt><trkpt lat="44.5412121" lon="8.5759106"><ele>446.0</ele><time>2026-04-04T10:27:18.509Z</time></trkpt><trkpt lat="44.5412144" lon="8.5757601"><ele>446.0</ele><time>2026-04-04T10:27:19.51Z</time></trkpt><trkpt lat="44.5412042" lon="8.5755945"><ele>446.0</ele><time>2026-04-04T10:27:20.512Z</time></trkpt><trkpt lat="44.5411825" lon="8.5754281"><ele>447.0</ele><time>2026-04-04T10:27:21.517Z</time></trkpt><trkpt lat="44.541137" lon="8.5752591"><ele>448.0</ele><time>2026-04-04T10:27:22.52Z</time></trkpt><trkpt lat="44.5410825" lon="8.5750853"><ele>449.0</ele><time>2026-04-04T10:27:23.514Z</time></trkpt><trkpt lat="44.541023" lon="8.5749182"><ele>450.0</ele><time>2026-04-04T10:27:24.505Z</time></trkpt><trkpt lat="44.5409689" lon="8.5747733"><ele>450.0</ele><time>2026-04-04T10:27:25.513Z</time></trkpt><trkpt lat="44.5409251" lon="8.5746492"><ele>450.0</ele><time>2026-04-04T10:27:26.517Z</time></trkpt><trkpt lat="44.5408856" lon="8.5745313"><ele>450.0</ele><time>2026-04-04T10:27:27.507Z</time></trkpt><trkpt lat="44.5408494" lon="8.5743979"><ele>450.0</ele><time>2026-04-04T10:27:28.515Z</time></trkpt><trkpt lat="44.5408232" lon="8.574253"><ele>450.0</ele><time>2026-04-04T10:27:29.517Z</time></trkpt><trkpt lat="44.5408228" lon="8.5739261"><ele>450.8</ele><time>2026-04-04T10:27:31.511Z</time></trkpt><trkpt lat="44.5408327" lon="8.573781"><ele>451.6</ele><time>2026-04-04T10:27:32.514Z</time></trkpt><trkpt lat="44.540839" lon="8.5736564"><ele>452.4</ele><time>2026-04-04T10:27:33.522Z</time></trkpt><trkpt lat="44.5408377" lon="8.5735506"><ele>453.2</ele><time>2026-04-04T10:27:34.513Z</time></trkpt><trkpt lat="44.5408344" lon="8.5734527"><ele>454.0</ele><time>2026-04-04T10:27:35.517Z</time></trkpt><trkpt lat="44.5408347" lon="8.5732872"><ele>455.6666666666667</ele><time>2026-04-04T10:27:37.509Z</time></trkpt><trkpt lat="44.5408433" lon="8.5731971"><ele>457.33333333333337</ele><time>2026-04-04T10:27:38.514Z</time></trkpt><trkpt lat="44.5408716" lon="8.5730399"><ele>459.0</ele><time>2026-04-04T10:27:40.517Z</time></trkpt><trkpt lat="44.5408911" lon="8.5729498"><ele>460.66666666666663</ele><time>2026-04-04T10:27:41.51Z</time></trkpt><trkpt lat="44.5409154" lon="8.572848"><ele>462.3333333333333</ele><time>2026-04-04T10:27:42.51Z</time></trkpt><trkpt lat="44.5409401" lon="8.5727459"><ele>464.0</ele><time>2026-04-04T10:27:43.507Z</time></trkpt><trkpt lat="44.5409698" lon="8.5726493"><ele>466.8333333333333</ele><time>2026-04-04T10:27:44.52Z</time></trkpt><trkpt lat="44.5410012" lon="8.5725596"><ele>469.66666666666663</ele><time>2026-04-04T10:27:45.517Z</time></trkpt><trkpt lat="44.5410434" lon="8.5724689"><ele>472.5</ele><time>2026-04-04T10:27:46.505Z</time></trkpt><trkpt lat="44.5411188" lon="8.5723545"><ele>475.33333333333337</ele><time>2026-04-04T10:27:47.526Z</time></trkpt><trkpt lat="44.5411732" lon="8.5722531"><ele>478.1666666666667</ele><time>2026-04-04T10:27:48.519Z</time></trkpt><trkpt lat="44.5412197" lon="8.5721559"><ele>481.0</ele><time>2026-04-04T10:27:49.505Z</time></trkpt><trkpt lat="44.5412527" lon="8.5720586"><ele>478.0</ele><time>2026-04-04T10:27:50.509Z</time></trkpt><trkpt lat="44.5413426" lon="8.571846"><ele>475.0</ele><time>2026-04-04T10:27:52.511Z</time></trkpt><trkpt lat="44.5413936" lon="8.5717584"><ele>472.0</ele><time>2026-04-04T10:27:53.512Z</time></trkpt><trkpt lat="44.5414481" lon="8.5716982"><ele>469.0</ele><time>2026-04-04T10:27:54.512Z</time></trkpt><trkpt lat="44.5415169" lon="8.5716654"><ele>466.0</ele><time>2026-04-04T10:27:55.505Z</time></trkpt><trkpt lat="44.5415564" lon="8.5715763"><ele>466.00000000000006</ele><time>2026-04-04T10:27:56.514Z</time></trkpt><trkpt lat="44.5415773" lon="8.5714732"><ele>466.0</ele><time>2026-04-04T10:27:57.509Z</time></trkpt><trkpt lat="44.5415805" lon="8.5713573"><ele>466.0</ele><time>2026-04-04T10:27:58.518Z</time></trkpt><trkpt lat="44.5415578" lon="8.571239"><ele>466.0</ele><time>2026-04-04T10:27:59.514Z</time></trkpt><trkpt lat="44.5415144" lon="8.5711262"><ele>466.00000000000006</ele><time>2026-04-04T10:28:00.512Z</time></trkpt><trkpt lat="44.5414557" lon="8.5710214"><ele>466.0</ele><time>2026-04-04T10:28:01.507Z</time></trkpt><trkpt lat="44.5414014" lon="8.5709126"><ele>467.8</ele><time>2026-04-04T10:28:02.518Z</time></trkpt><trkpt lat="44.5413654" lon="8.5708179"><ele>469.6</ele><time>2026-04-04T10:28:03.504Z</time></trkpt><trkpt lat="44.5413726" lon="8.5706615"><ele>471.4</ele><time>2026-04-04T10:28:05.524Z</time></trkpt><trkpt lat="44.5414197" lon="8.5705705"><ele>473.2</ele><time>2026-04-04T10:28:06.514Z</time></trkpt><trkpt lat="44.5414717" lon="8.5704686"><ele>475.0</ele><time>2026-04-04T10:28:07.508Z</time></trkpt><trkpt lat="44.5415079" lon="8.570335"><ele>476.25</ele><time>2026-04-04T10:28:08.514Z</time></trkpt><trkpt lat="44.5415377" lon="8.5702016"><ele>477.5</ele><time>2026-04-04T10:28:09.51Z</time></trkpt><trkpt lat="44.5415553" lon="8.5700576"><ele>478.75</ele><time>2026-04-04T10:28:10.513Z</time></trkpt><trkpt lat="44.541548" lon="8.5699193"><ele>480.0</ele><time>2026-04-04T10:28:11.51Z</time></trkpt><trkpt lat="44.5414868" lon="8.5696635"><ele>480.0</ele><time>2026-04-04T10:28:13.506Z</time></trkpt><trkpt lat="44.5414459" lon="8.5695478"><ele>480.0</ele><time>2026-04-04T10:28:14.518Z</time></trkpt><trkpt lat="44.5413994" lon="8.5694544"><ele>480.0</ele><time>2026-04-04T10:28:15.519Z</time></trkpt><trkpt lat="44.5413329" lon="8.5693722"><ele>480.0</ele><time>2026-04-04T10:28:16.513Z</time></trkpt><trkpt lat="44.5412687" lon="8.5692943"><ele>480.0</ele><time>2026-04-04T10:28:17.513Z</time></trkpt><trkpt lat="44.5412291" lon="8.5692114"><ele>480.0</ele><time>2026-04-04T10:28:18.516Z</time></trkpt><trkpt lat="44.5412253" lon="8.5691224"><ele>481.1666666666667</ele><time>2026-04-04T10:28:19.517Z</time></trkpt><trkpt lat="44.541245" lon="8.5690257"><ele>482.33333333333337</ele><time>2026-04-04T10:28:20.508Z</time></trkpt><trkpt lat="44.5412849" lon="8.5689177"><ele>483.5</ele><time>2026-04-04T10:28:21.502Z</time></trkpt><trkpt lat="44.5413533" lon="8.5688286"><ele>484.6666666666667</ele><time>2026-04-04T10:28:22.519Z</time></trkpt><trkpt lat="44.5414048" lon="8.5687528"><ele>485.83333333333337</ele><time>2026-04-04T10:28:23.517Z</time></trkpt><trkpt lat="44.5414252" lon="8.5686464"><ele>487.0</ele><time>2026-04-04T10:28:24.507Z</time></trkpt><trkpt lat="44.5414301" lon="8.5685147"><ele>489.0</ele><time>2026-04-04T10:28:25.516Z</time></trkpt><trkpt lat="44.5414326" lon="8.5683721"><ele>491.0</ele><time>2026-04-04T10:28:26.513Z</time></trkpt><trkpt lat="44.5414263" lon="8.5682186"><ele>493.0</ele><time>2026-04-04T10:28:27.507Z</time></trkpt><trkpt lat="44.5414115" lon="8.5680478"><ele>495.0</ele><time>2026-04-04T10:28:28.513Z</time></trkpt><trkpt lat="44.5413952" lon="8.5678703"><ele>497.25</ele><time>2026-04-04T10:28:29.514Z</time></trkpt><trkpt lat="44.5413752" lon="8.5676919"><ele>499.5</ele><time>2026-04-04T10:28:30.524Z</time></trkpt><trkpt lat="44.5413456" lon="8.5675016"><ele>501.75</ele><time>2026-04-04T10:28:31.517Z</time></trkpt><trkpt lat="44.5413117" lon="8.567301"><ele>504.0</ele><time>2026-04-04T10:28:32.505Z</time></trkpt><trkpt lat="44.5412824" lon="8.5669867"><ele>507.4</ele><time>2026-04-04T10:28:34.513Z</time></trkpt><trkpt lat="44.5412587" lon="8.5668574"><ele>510.79999999999995</ele><time>2026-04-04T10:28:35.512Z</time></trkpt><trkpt lat="44.541211" lon="8.5667407"><ele>514.2</ele><time>2026-04-04T10:28:36.509Z</time></trkpt><trkpt lat="44.5411766" lon="8.5666424"><ele>517.6</ele><time>2026-04-04T10:28:37.507Z</time></trkpt><trkpt lat="44.5411652" lon="8.5665373"><ele>521.0</ele><time>2026-04-04T10:28:38.51Z</time></trkpt><trkpt lat="44.5412089" lon="8.5663975"><ele>521.0</ele><time>2026-04-04T10:28:39.515Z</time></trkpt><trkpt lat="44.5412662" lon="8.5662365"><ele>521.0</ele><time>2026-04-04T10:28:40.511Z</time></trkpt><trkpt lat="44.5413262" lon="8.5660678"><ele>521.0</ele><time>2026-04-04T10:28:41.512Z</time></trkpt><trkpt lat="44.5413808" lon="8.5659301"><ele>521.0</ele><time>2026-04-04T10:28:42.512Z</time></trkpt><trkpt lat="44.5414339" lon="8.5658413"><ele>523.5</ele><time>2026-04-04T10:28:43.515Z</time></trkpt><trkpt lat="44.5414794" lon="8.5657799"><ele>526.0</ele><time>2026-04-04T10:28:44.52Z</time></trkpt><trkpt lat="44.5415112" lon="8.5656741"><ele>528.5</ele><time>2026-04-04T10:28:46.52Z</time></trkpt><trkpt lat="44.5414625" lon="8.5655598"><ele>531.0</ele><time>2026-04-04T10:28:48.513Z</time></trkpt><trkpt lat="44.5414181" lon="8.5653982"><ele>533.5</ele><time>2026-04-04T10:28:50.506Z</time></trkpt><trkpt lat="44.5413979" lon="8.5653016"><ele>536.0</ele><time>2026-04-04T10:28:51.516Z</time></trkpt><trkpt lat="44.5413791" lon="8.5651855"><ele>537.4</ele><time>2026-04-04T10:28:52.514Z</time></trkpt><trkpt lat="44.5413785" lon="8.5650789"><ele>538.8</ele><time>2026-04-04T10:28:53.508Z</time></trkpt><trkpt lat="44.5414236" lon="8.5648767"><ele>540.1999999999999</ele><time>2026-04-04T10:28:55.509Z</time></trkpt><trkpt lat="44.5414495" lon="8.5647751"><ele>541.6</ele><time>2026-04-04T10:28:56.508Z</time></trkpt><trkpt lat="44.5414547" lon="8.5646839"><ele>543.0</ele><time>2026-04-04T10:28:57.511Z</time></trkpt><trkpt lat="44.5413937" lon="8.5645556"><ele>544.0</ele><time>2026-04-04T10:28:59.514Z</time></trkpt><trkpt lat="44.5413291" lon="8.5644899"><ele>545.0</ele><time>2026-04-04T10:29:00.505Z</time></trkpt><trkpt lat="44.541268" lon="8.5644185"><ele>546.0</ele><time>2026-04-04T10:29:01.523Z</time></trkpt><trkpt lat="44.5412166" lon="8.5643276"><ele>547.0</ele><time>2026-04-04T10:29:02.507Z</time></trkpt><trkpt lat="44.5411813" lon="8.5642044"><ele>548.0</ele><time>2026-04-04T10:29:03.515Z</time></trkpt><trkpt lat="44.5411484" lon="8.5640909"><ele>549.0</ele><time>2026-04-04T10:29:04.515Z</time></trkpt><trkpt lat="44.5410511" lon="8.5640005"><ele>553.2</ele><time>2026-04-04T10:29:06.507Z</time></trkpt><trkpt lat="44.5409356" lon="8.5640571"><ele>557.4</ele><time>2026-04-04T10:29:08.51Z</time></trkpt><trkpt lat="44.5408446" lon="8.5641546"><ele>561.6</ele><time>2026-04-04T10:29:10.51Z</time></trkpt><trkpt lat="44.5407297" lon="8.5641244"><ele>565.8</ele><time>2026-04-04T10:29:12.51Z</time></trkpt><trkpt lat="44.5406743" lon="8.5640557"><ele>570.0</ele><time>2026-04-04T10:29:13.505Z</time></trkpt><trkpt lat="44.5406391" lon="8.5639448"><ele>571.25</ele><time>2026-04-04T10:29:14.501Z</time></trkpt><trkpt lat="44.5405809" lon="8.5636527"><ele>572.5</ele><time>2026-04-04T10:29:16.506Z</time></trkpt><trkpt lat="44.5405512" lon="8.5635259"><ele>573.75</ele><time>2026-04-04T10:29:17.505Z</time></trkpt><trkpt lat="44.5405406" lon="8.5634166"><ele>575.0</ele><time>2026-04-04T10:29:18.505Z</time></trkpt><trkpt lat="44.5405522" lon="8.5633206"><ele>575.0</ele><time>2026-04-04T10:29:19.507Z</time></trkpt><trkpt lat="44.5406003" lon="8.5632516"><ele>575.0</ele><time>2026-04-04T10:29:20.51Z</time></trkpt><trkpt lat="44.5406581" lon="8.5631896"><ele>575.0</ele><time>2026-04-04T10:29:21.518Z</time></trkpt><trkpt lat="44.5407421" lon="8.5631138"><ele>575.0</ele><time>2026-04-04T10:29:22.513Z</time></trkpt><trkpt lat="44.5408065" lon="8.5630465"><ele>575.0</ele><time>2026-04-04T10:29:23.517Z</time></trkpt><trkpt lat="44.5408456" lon="8.5629048"><ele>575.0</ele><time>2026-04-04T10:29:25.508Z</time></trkpt><trkpt lat="44.5407605" lon="8.5627672"><ele>577.1666666666666</ele><time>2026-04-04T10:29:27.517Z</time></trkpt><trkpt lat="44.5407008" lon="8.5626948"><ele>579.3333333333333</ele><time>2026-04-04T10:29:28.504Z</time></trkpt><trkpt lat="44.5406308" lon="8.5626202"><ele>581.5</ele><time>2026-04-04T10:29:29.504Z</time></trkpt><trkpt lat="44.5405597" lon="8.5625418"><ele>583.6666666666666</ele><time>2026-04-04T10:29:30.512Z</time></trkpt><trkpt lat="44.5405018" lon="8.5624527"><ele>585.8333333333334</ele><time>2026-04-04T10:29:31.515Z</time></trkpt><trkpt lat="44.5404628" lon="8.5623409"><ele>588.0</ele><time>2026-04-04T10:29:32.506Z</time></trkpt><trkpt lat="44.5404333" lon="8.5622115"><ele>588.0</ele><time>2026-04-04T10:29:33.505Z</time></trkpt><trkpt lat="44.5403956" lon="8.5620727"><ele>588.0</ele><time>2026-04-04T10:29:34.511Z</time></trkpt><trkpt lat="44.5403504" lon="8.5619465"><ele>588.0</ele><time>2026-04-04T10:29:35.503Z</time></trkpt><trkpt lat="44.5402289" lon="8.5617281"><ele>588.0</ele><time>2026-04-04T10:29:37.505Z</time></trkpt><trkpt lat="44.5401829" lon="8.5616235"><ele>595.6</ele><time>2026-04-04T10:29:38.502Z</time></trkpt><trkpt lat="44.5401566" lon="8.5615249"><ele>603.1999999999999</ele><time>2026-04-04T10:29:39.508Z</time></trkpt><trkpt lat="44.5401492" lon="8.5614064"><ele>610.8</ele><time>2026-04-04T10:29:40.506Z</time></trkpt><trkpt lat="44.540143" lon="8.561268"><ele>618.4</ele><time>2026-04-04T10:29:41.516Z</time></trkpt><trkpt lat="44.5401267" lon="8.5611402"><ele>626.0</ele><time>2026-04-04T10:29:42.513Z</time></trkpt><trkpt lat="44.5401105" lon="8.5610012"><ele>627.8</ele><time>2026-04-04T10:29:43.507Z</time></trkpt><trkpt lat="44.5400887" lon="8.5608534"><ele>629.6</ele><time>2026-04-04T10:29:44.511Z</time></trkpt><trkpt lat="44.5400591" lon="8.5607123"><ele>631.4</ele><time>2026-04-04T10:29:45.507Z</time></trkpt><trkpt lat="44.5400134" lon="8.5605696"><ele>633.2</ele><time>2026-04-04T10:29:46.507Z</time></trkpt><trkpt lat="44.5399541" lon="8.5604186"><ele>635.0</ele><time>2026-04-04T10:29:47.507Z</time></trkpt><trkpt lat="44.5398906" lon="8.5602573"><ele>636.0</ele><time>2026-04-04T10:29:48.514Z</time></trkpt><trkpt lat="44.5398142" lon="8.5601136"><ele>637.0</ele><time>2026-04-04T10:29:49.503Z</time></trkpt><trkpt lat="44.5397233" lon="8.5600121"><ele>638.0</ele><time>2026-04-04T10:29:50.513Z</time></trkpt><trkpt lat="44.5396397" lon="8.5599171"><ele>639.0</ele><time>2026-04-04T10:29:51.513Z</time></trkpt><trkpt lat="44.539568" lon="8.5598137"><ele>644.0</ele><time>2026-04-04T10:29:52.507Z</time></trkpt><trkpt lat="44.5395197" lon="8.5596958"><ele>649.0</ele><time>2026-04-04T10:29:53.511Z</time></trkpt><trkpt lat="44.5395027" lon="8.5595763"><ele>654.0</ele><time>2026-04-04T10:29:54.507Z</time></trkpt><trkpt lat="44.5395118" lon="8.5594683"><ele>659.0</ele><time>2026-04-04T10:29:55.509Z</time></trkpt><trkpt lat="44.5394887" lon="8.5593339"><ele>664.0</ele><time>2026-04-04T10:29:57.509Z</time></trkpt><trkpt lat="44.5393145" lon="8.5591782"><ele>665.0</ele><time>2026-04-04T10:30:00.506Z</time></trkpt><trkpt lat="44.5392362" lon="8.5590558"><ele>666.0</ele><time>2026-04-04T10:30:01.514Z</time></trkpt><trkpt lat="44.5391517" lon="8.5588991"><ele>667.0</ele><time>2026-04-04T10:30:02.511Z</time></trkpt><trkpt lat="44.5390642" lon="8.5587374"><ele>668.0</ele><time>2026-04-04T10:30:03.504Z</time></trkpt><trkpt lat="44.5389924" lon="8.5586147"><ele>668.5</ele><time>2026-04-04T10:30:04.514Z</time></trkpt><trkpt lat="44.5389318" lon="8.5585245"><ele>669.0</ele><time>2026-04-04T10:30:05.512Z</time></trkpt><trkpt lat="44.5388671" lon="8.5584617"><ele>669.5</ele><time>2026-04-04T10:30:06.506Z</time></trkpt><trkpt lat="44.53879" lon="8.5583923"><ele>670.0</ele><time>2026-04-04T10:30:07.511Z</time></trkpt><trkpt lat="44.5387122" lon="8.5583139"><ele>670.5</ele><time>2026-04-04T10:30:08.514Z</time></trkpt><trkpt lat="44.538648" lon="8.5582408"><ele>671.0</ele><time>2026-04-04T10:30:09.504Z</time></trkpt><trkpt lat="44.5386059" lon="8.5581472"><ele>671.8333333333333</ele><time>2026-04-04T10:30:10.518Z</time></trkpt><trkpt lat="44.5385693" lon="8.5580219"><ele>672.6666666666666</ele><time>2026-04-04T10:30:11.51Z</time></trkpt><trkpt lat="44.5385369" lon="8.5578913"><ele>673.5</ele><time>2026-04-04T10:30:12.504Z</time></trkpt><trkpt lat="44.5385106" lon="8.557774"><ele>674.3333333333334</ele><time>2026-04-04T10:30:13.514Z</time></trkpt><trkpt lat="44.5385212" lon="8.5576724"><ele>675.1666666666667</ele><time>2026-04-04T10:30:14.51Z</time></trkpt><trkpt lat="44.5385552" lon="8.5575581"><ele>676.0</ele><time>2026-04-04T10:30:15.515Z</time></trkpt><trkpt lat="44.5385895" lon="8.5574541"><ele>678.25</ele><time>2026-04-04T10:30:16.519Z</time></trkpt><trkpt lat="44.5385953" lon="8.5573418"><ele>680.5</ele><time>2026-04-04T10:30:18.509Z</time></trkpt><trkpt lat="44.5383927" lon="8.5574271"><ele>682.75</ele><time>2026-04-04T10:30:23.504Z</time></trkpt><trkpt lat="44.5383562" lon="8.5573381"><ele>685.0</ele><time>2026-04-04T10:30:25.51Z</time></trkpt><trkpt lat="44.5384181" lon="8.557249"><ele>685.0</ele><time>2026-04-04T10:30:27.509Z</time></trkpt><trkpt lat="44.5384969" lon="8.5571431"><ele>685.0</ele><time>2026-04-04T10:30:40.513Z</time></trkpt><trkpt lat="44.5385182" lon="8.5569623"><ele>685.0</ele><time>2026-04-04T10:30:42.516Z</time></trkpt><trkpt lat="44.5385049" lon="8.556862"><ele>685.0</ele><time>2026-04-04T10:30:43.514Z</time></trkpt><trkpt lat="44.5384711" lon="8.5567607"><ele>685.0</ele><time>2026-04-04T10:30:44.513Z</time></trkpt><trkpt lat="44.5384339" lon="8.5566504"><ele>685.5714285714286</ele><time>2026-04-04T10:30:45.507Z</time></trkpt><trkpt lat="44.5383989" lon="8.5565402"><ele>686.1428571428572</ele><time>2026-04-04T10:30:46.514Z</time></trkpt><trkpt lat="44.5383761" lon="8.5564427"><ele>686.7142857142858</ele><time>2026-04-04T10:30:47.508Z</time></trkpt><trkpt lat="44.5383812" lon="8.556341"><ele>687.2857142857142</ele><time>2026-04-04T10:30:48.511Z</time></trkpt><trkpt lat="44.5384097" lon="8.5562438"><ele>687.8571428571429</ele><time>2026-04-04T10:30:49.512Z</time></trkpt><trkpt lat="44.5384494" lon="8.5561642"><ele>688.4285714285714</ele><time>2026-04-04T10:30:50.509Z</time></trkpt><trkpt lat="44.5385013" lon="8.5561095"><ele>689.0</ele><time>2026-04-04T10:30:51.512Z</time></trkpt><trkpt lat="44.5385722" lon="8.556086"><ele>689.0</ele><time>2026-04-04T10:30:52.514Z</time></trkpt><trkpt lat="44.5386539" lon="8.5560616"><ele>689.0</ele><time>2026-04-04T10:30:53.514Z</time></trkpt><trkpt lat="44.5387381" lon="8.5560525"><ele>689.0</ele><time>2026-04-04T10:30:54.508Z</time></trkpt><trkpt lat="44.5388208" lon="8.5560542"><ele>689.0</ele><time>2026-04-04T10:30:55.513Z</time></trkpt><trkpt lat="44.5388819" lon="8.5560853"><ele>689.0</ele><time>2026-04-04T10:30:56.514Z</time></trkpt><trkpt lat="44.5389242" lon="8.5562385"><ele>689.0</ele><time>2026-04-04T10:30:58.508Z</time></trkpt><trkpt lat="44.5389182" lon="8.5563274"><ele>693.6666666666666</ele><time>2026-04-04T10:30:59.52Z</time></trkpt><trkpt lat="44.5389591" lon="8.5564217"><ele>698.3333333333334</ele><time>2026-04-04T10:31:01.52Z</time></trkpt><trkpt lat="44.5392386" lon="8.5564349"><ele>703.0</ele><time>2026-04-04T10:31:04.505Z</time></trkpt><trkpt lat="44.5393685" lon="8.5564516"><ele>703.0</ele><time>2026-04-04T10:31:05.504Z</time></trkpt><trkpt lat="44.5394853" lon="8.5564637"><ele>703.0</ele><time>2026-04-04T10:31:06.505Z</time></trkpt><trkpt lat="44.5395886" lon="8.5564785"><ele>703.0</ele><time>2026-04-04T10:31:07.517Z</time></trkpt><trkpt lat="44.539699" lon="8.5565145"><ele>703.0</ele><time>2026-04-04T10:31:08.513Z</time></trkpt><trkpt lat="44.5398209" lon="8.5565783"><ele>706.2</ele><time>2026-04-04T10:31:09.502Z</time></trkpt><trkpt lat="44.5399361" lon="8.5566489"><ele>709.4</ele><time>2026-04-04T10:31:10.513Z</time></trkpt><trkpt lat="44.5400403" lon="8.5567156"><ele>712.6</ele><time>2026-04-04T10:31:11.51Z</time></trkpt><trkpt lat="44.5401146" lon="8.5567498"><ele>715.8000000000001</ele><time>2026-04-04T10:31:12.517Z</time></trkpt><trkpt lat="44.5401813" lon="8.5567252"><ele>719.0</ele><time>2026-04-04T10:31:14.514Z</time></trkpt><trkpt lat="44.540144" lon="8.5565965"><ele>719.0</ele><time>2026-04-04T10:31:16.512Z</time></trkpt><trkpt lat="44.5401053" lon="8.556509"><ele>719.0</ele><time>2026-04-04T10:31:17.51Z</time></trkpt><trkpt lat="44.540073" lon="8.5564247"><ele>719.0</ele><time>2026-04-04T10:31:18.52Z</time></trkpt><trkpt lat="44.5400852" lon="8.556246"><ele>719.0</ele><time>2026-04-04T10:31:20.512Z</time></trkpt><trkpt lat="44.5401287" lon="8.5561434"><ele>719.0</ele><time>2026-04-04T10:31:21.505Z</time></trkpt><trkpt lat="44.5401944" lon="8.5560563"><ele>719.0</ele><time>2026-04-04T10:31:22.51Z</time></trkpt><trkpt lat="44.5403885" lon="8.5559457"><ele>723.5</ele><time>2026-04-04T10:31:24.505Z</time></trkpt><trkpt lat="44.540495" lon="8.5558974"><ele>728.0</ele><time>2026-04-04T10:31:25.502Z</time></trkpt><trkpt lat="44.5405925" lon="8.5558375"><ele>732.5</ele><time>2026-04-04T10:31:26.505Z</time></trkpt><trkpt lat="44.5406847" lon="8.5557469"><ele>737.0</ele><time>2026-04-04T10:31:27.509Z</time></trkpt><trkpt lat="44.5407803" lon="8.55564"><ele>737.0</ele><time>2026-04-04T10:31:28.506Z</time></trkpt><trkpt lat="44.5408942" lon="8.5555254"><ele>737.0</ele><time>2026-04-04T10:31:29.505Z</time></trkpt><trkpt lat="44.541022" lon="8.5554207"><ele>737.0</ele><time>2026-04-04T10:31:30.505Z</time></trkpt><trkpt lat="44.5411417" lon="8.5553285"><ele>737.0</ele><time>2026-04-04T10:31:31.515Z</time></trkpt><trkpt lat="44.5412466" lon="8.5552436"><ele>736.6</ele><time>2026-04-04T10:31:32.514Z</time></trkpt><trkpt lat="44.5413438" lon="8.5551632"><ele>736.2</ele><time>2026-04-04T10:31:33.533Z</time></trkpt><trkpt lat="44.541434" lon="8.5550845"><ele>735.8</ele><time>2026-04-04T10:31:34.512Z</time></trkpt><trkpt lat="44.5415186" lon="8.5550008"><ele>735.4</ele><time>2026-04-04T10:31:35.511Z</time></trkpt><trkpt lat="44.541598" lon="8.5549172"><ele>735.0</ele><time>2026-04-04T10:31:36.512Z</time></trkpt><trkpt lat="44.5416853" lon="8.5548352"><ele>735.0</ele><time>2026-04-04T10:31:37.504Z</time></trkpt><trkpt lat="44.5418065" lon="8.5547663"><ele>735.0</ele><time>2026-04-04T10:31:38.505Z</time></trkpt><trkpt lat="44.5419399" lon="8.5546902"><ele>735.0</ele><time>2026-04-04T10:31:39.513Z</time></trkpt><trkpt lat="44.542071" lon="8.554606"><ele>735.0</ele><time>2026-04-04T10:31:40.509Z</time></trkpt><trkpt lat="44.5421789" lon="8.5545064"><ele>735.25</ele><time>2026-04-04T10:31:41.513Z</time></trkpt><trkpt lat="44.5422688" lon="8.5544169"><ele>735.5</ele><time>2026-04-04T10:31:42.514Z</time></trkpt><trkpt lat="44.5423469" lon="8.5543388"><ele>735.75</ele><time>2026-04-04T10:31:43.508Z</time></trkpt><trkpt lat="44.5424877" lon="8.5541988"><ele>736.0</ele><time>2026-04-04T10:31:45.506Z</time></trkpt><trkpt lat="44.5425533" lon="8.5541491"><ele>736.0</ele><time>2026-04-04T10:31:46.509Z</time></trkpt><trkpt lat="44.5426221" lon="8.5541003"><ele>736.0</ele><time>2026-04-04T10:31:47.517Z</time></trkpt><trkpt lat="44.5426941" lon="8.554049"><ele>736.0</ele><time>2026-04-04T10:31:48.508Z</time></trkpt><trkpt lat="44.542767" lon="8.5539981"><ele>736.0</ele><time>2026-04-04T10:31:49.512Z</time></trkpt><trkpt lat="44.5428376" lon="8.5539488"><ele>736.0</ele><time>2026-04-04T10:31:50.505Z</time></trkpt><trkpt lat="44.5429136" lon="8.5539046"><ele>736.0</ele><time>2026-04-04T10:31:51.507Z</time></trkpt><trkpt lat="44.5429999" lon="8.5538724"><ele>738.0</ele><time>2026-04-04T10:31:52.505Z</time></trkpt><trkpt lat="44.543089" lon="8.5538561"><ele>740.0</ele><time>2026-04-04T10:31:53.513Z</time></trkpt><trkpt lat="44.5431735" lon="8.5538639"><ele>742.0</ele><time>2026-04-04T10:31:54.508Z</time></trkpt><trkpt lat="44.54325" lon="8.5538896"><ele>744.0</ele><time>2026-04-04T10:31:55.514Z</time></trkpt><trkpt lat="44.5433288" lon="8.5539394"><ele>746.0</ele><time>2026-04-04T10:31:56.509Z</time></trkpt><trkpt lat="44.5434142" lon="8.5539609"><ele>748.0</ele><time>2026-04-04T10:31:57.513Z</time></trkpt><trkpt lat="44.5434962" lon="8.5539694"><ele>748.0</ele><time>2026-04-04T10:31:58.507Z</time></trkpt><trkpt lat="44.5435826" lon="8.5539615"><ele>748.0</ele><time>2026-04-04T10:31:59.518Z</time></trkpt><trkpt lat="44.5436879" lon="8.5539548"><ele>748.0</ele><time>2026-04-04T10:32:00.512Z</time></trkpt><trkpt lat="44.5438091" lon="8.5539415"><ele>748.0</ele><time>2026-04-04T10:32:01.508Z</time></trkpt><trkpt lat="44.5439095" lon="8.553916"><ele>748.0</ele><time>2026-04-04T10:32:02.52Z</time></trkpt><trkpt lat="44.5439826" lon="8.5538528"><ele>749.25</ele><time>2026-04-04T10:32:03.509Z</time></trkpt><trkpt lat="44.5440609" lon="8.5537708"><ele>750.5</ele><time>2026-04-04T10:32:04.51Z</time></trkpt><trkpt lat="44.5441799" lon="8.5535745"><ele>751.75</ele><time>2026-04-04T10:32:06.512Z</time></trkpt><trkpt lat="44.5442622" lon="8.5535122"><ele>753.0</ele><time>2026-04-04T10:32:07.511Z</time></trkpt><trkpt lat="44.5443612" lon="8.5534497"><ele>754.0</ele><time>2026-04-04T10:32:08.52Z</time></trkpt><trkpt lat="44.5444537" lon="8.5533829"><ele>755.0</ele><time>2026-04-04T10:32:09.518Z</time></trkpt><trkpt lat="44.5445394" lon="8.5533356"><ele>756.0</ele><time>2026-04-04T10:32:10.521Z</time></trkpt><trkpt lat="44.544604" lon="8.5532967"><ele>757.0</ele><time>2026-04-04T10:32:11.507Z</time></trkpt><trkpt lat="44.544659" lon="8.5531772"><ele>758.0</ele><time>2026-04-04T10:32:13.52Z</time></trkpt><trkpt lat="44.5446673" lon="8.553087"><ele>759.0</ele><time>2026-04-04T10:32:14.512Z</time></trkpt><trkpt lat="44.5446471" lon="8.5529834"><ele>760.6666666666666</ele><time>2026-04-04T10:32:15.511Z</time></trkpt><trkpt lat="44.5446297" lon="8.552875"><ele>762.3333333333333</ele><time>2026-04-04T10:32:16.511Z</time></trkpt><trkpt lat="44.5446378" lon="8.5527653"><ele>764.0</ele><time>2026-04-04T10:32:17.511Z</time></trkpt><trkpt lat="44.5446681" lon="8.5526573"><ele>765.6666666666666</ele><time>2026-04-04T10:32:18.509Z</time></trkpt><trkpt lat="44.5447235" lon="8.5525594"><ele>767.3333333333333</ele><time>2026-04-04T10:32:19.521Z</time></trkpt><trkpt lat="44.5447827" lon="8.5524654"><ele>769.0</ele><time>2026-04-04T10:32:20.515Z</time></trkpt><trkpt lat="44.5448337" lon="8.5523752"><ele>771.2</ele><time>2026-04-04T10:32:21.513Z</time></trkpt><trkpt lat="44.5448542" lon="8.5522763"><ele>773.4000000000001</ele><time>2026-04-04T10:32:22.502Z</time></trkpt><trkpt lat="44.5448502" lon="8.5521617"><ele>775.6</ele><time>2026-04-04T10:32:23.512Z</time></trkpt><trkpt lat="44.544859" lon="8.5520405"><ele>777.8</ele><time>2026-04-04T10:32:24.504Z</time></trkpt><trkpt lat="44.544892" lon="8.551915"><ele>780.0</ele><time>2026-04-04T10:32:25.513Z</time></trkpt><trkpt lat="44.5449612" lon="8.5516655"><ele>780.4</ele><time>2026-04-04T10:32:27.516Z</time></trkpt><trkpt lat="44.5449643" lon="8.5515729"><ele>780.8</ele><time>2026-04-04T10:32:28.521Z</time></trkpt><trkpt lat="44.5449438" lon="8.5514799"><ele>781.2</ele><time>2026-04-04T10:32:30.512Z</time></trkpt><trkpt lat="44.5449935" lon="8.5515844"><ele>781.6</ele><time>2026-04-04T10:32:57.507Z</time></trkpt><trkpt lat="44.5450666" lon="8.5517782"><ele>782.0</ele><time>2026-04-04T10:32:59.51Z</time></trkpt><trkpt lat="44.5451089" lon="8.551875"><ele>782.0000000000001</ele><time>2026-04-04T10:33:00.514Z</time></trkpt><trkpt lat="44.5451661" lon="8.5519771"><ele>782.0</ele><time>2026-04-04T10:33:01.513Z</time></trkpt><trkpt lat="44.5452193" lon="8.5520747"><ele>782.0</ele><time>2026-04-04T10:33:02.509Z</time></trkpt><trkpt lat="44.5452645" lon="8.5521571"><ele>782.0</ele><time>2026-04-04T10:33:03.521Z</time></trkpt><trkpt lat="44.5453356" lon="8.5522931"><ele>782.0000000000001</ele><time>2026-04-04T10:33:05.517Z</time></trkpt><trkpt lat="44.5453792" lon="8.5523727"><ele>782.0</ele><time>2026-04-04T10:33:06.517Z</time></trkpt><trkpt lat="44.5454155" lon="8.5524563"><ele>780.8</ele><time>2026-04-04T10:33:07.519Z</time></trkpt><trkpt lat="44.545479" lon="8.5525972"><ele>779.6</ele><time>2026-04-04T10:33:09.511Z</time></trkpt><trkpt lat="44.5455323" lon="8.5526753"><ele>778.4</ele><time>2026-04-04T10:33:10.515Z</time></trkpt><trkpt lat="44.5456171" lon="8.5527527"><ele>777.1999999999999</ele><time>2026-04-04T10:33:11.516Z</time></trkpt><trkpt lat="44.5457073" lon="8.5528182"><ele>776.0</ele><time>2026-04-04T10:33:12.52Z</time></trkpt><trkpt lat="44.5457907" lon="8.5528783"><ele>776.0</ele><time>2026-04-04T10:33:13.522Z</time></trkpt><trkpt lat="44.5458687" lon="8.5529505"><ele>776.0</ele><time>2026-04-04T10:33:14.511Z</time></trkpt><trkpt lat="44.5459441" lon="8.5530412"><ele>776.0</ele><time>2026-04-04T10:33:15.522Z</time></trkpt><trkpt lat="44.5460169" lon="8.5531317"><ele>776.0</ele><time>2026-04-04T10:33:16.52Z</time></trkpt><trkpt lat="44.5460923" lon="8.553196"><ele>776.0</ele><time>2026-04-04T10:33:17.517Z</time></trkpt><trkpt lat="44.5461718" lon="8.5532337"><ele>777.1999999999999</ele><time>2026-04-04T10:33:18.515Z</time></trkpt><trkpt lat="44.5463176" lon="8.553287"><ele>778.4</ele><time>2026-04-04T10:33:20.533Z</time></trkpt><trkpt lat="44.5463817" lon="8.5533427"><ele>779.6</ele><time>2026-04-04T10:33:21.513Z</time></trkpt><trkpt lat="44.5464293" lon="8.5534222"><ele>780.8</ele><time>2026-04-04T10:33:22.519Z</time></trkpt><trkpt lat="44.5464553" lon="8.5535247"><ele>782.0</ele><time>2026-04-04T10:33:23.516Z</time></trkpt><trkpt lat="44.5464744" lon="8.5536353"><ele>782.3333333333334</ele><time>2026-04-04T10:33:24.514Z</time></trkpt><trkpt lat="44.5464918" lon="8.553744"><ele>782.6666666666667</ele><time>2026-04-04T10:33:25.508Z</time></trkpt><trkpt lat="44.5465179" lon="8.5538254"><ele>783.0</ele><time>2026-04-04T10:33:26.512Z</time></trkpt><trkpt lat="44.5465473" lon="8.553917"><ele>783.3333333333333</ele><time>2026-04-04T10:33:27.512Z</time></trkpt><trkpt lat="44.5465816" lon="8.5540338"><ele>783.6666666666666</ele><time>2026-04-04T10:33:28.526Z</time></trkpt><trkpt lat="44.5466208" lon="8.554167"><ele>784.0</ele><time>2026-04-04T10:33:29.516Z</time></trkpt><trkpt lat="44.5466527" lon="8.554291"><ele>783.9999999999999</ele><time>2026-04-04T10:33:30.519Z</time></trkpt><trkpt lat="44.5466838" lon="8.5543952"><ele>784.0</ele><time>2026-04-04T10:33:31.516Z</time></trkpt><trkpt lat="44.5467148" lon="8.5544986"><ele>784.0</ele><time>2026-04-04T10:33:32.513Z</time></trkpt><trkpt lat="44.5467531" lon="8.5545971"><ele>784.0</ele><time>2026-04-04T10:33:33.52Z</time></trkpt><trkpt lat="44.5468008" lon="8.5546889"><ele>783.9999999999999</ele><time>2026-04-04T10:33:34.52Z</time></trkpt><trkpt lat="44.5468464" lon="8.5547725"><ele>784.0</ele><time>2026-04-04T10:33:35.52Z</time></trkpt><trkpt lat="44.5469527" lon="8.5548281"><ele>785.0</ele><time>2026-04-04T10:33:37.517Z</time></trkpt><trkpt lat="44.547083" lon="8.5548203"><ele>786.0</ele><time>2026-04-04T10:33:39.507Z</time></trkpt><trkpt lat="44.5472655" lon="8.5547806"><ele>787.0</ele><time>2026-04-04T10:33:41.516Z</time></trkpt><trkpt lat="44.5473623" lon="8.5547453"><ele>788.0</ele><time>2026-04-04T10:33:42.526Z</time></trkpt><trkpt lat="44.5474581" lon="8.5547096"><ele>788.0000000000001</ele><time>2026-04-04T10:33:43.511Z</time></trkpt><trkpt lat="44.5475447" lon="8.5546832"><ele>788.0</ele><time>2026-04-04T10:33:44.518Z</time></trkpt><trkpt lat="44.547618" lon="8.5546738"><ele>788.0</ele><time>2026-04-04T10:33:45.513Z</time></trkpt><trkpt lat="44.5476846" lon="8.5546789"><ele>788.0</ele><time>2026-04-04T10:33:46.521Z</time></trkpt><trkpt lat="44.5478001" lon="8.5547305"><ele>788.0000000000001</ele><time>2026-04-04T10:33:48.519Z</time></trkpt><trkpt lat="44.5478356" lon="8.5548185"><ele>788.0</ele><time>2026-04-04T10:33:49.518Z</time></trkpt><trkpt lat="44.5478626" lon="8.5549167"><ele>783.5999999999999</ele><time>2026-04-04T10:33:50.519Z</time></trkpt><trkpt lat="44.5478851" lon="8.5550141"><ele>779.1999999999999</ele><time>2026-04-04T10:33:51.518Z</time></trkpt><trkpt lat="44.5479403" lon="8.5551102"><ele>774.8</ele><time>2026-04-04T10:33:53.527Z</time></trkpt><trkpt lat="44.5480215" lon="8.5551223"><ele>770.4</ele><time>2026-04-04T10:33:55.506Z</time></trkpt><trkpt lat="44.5481127" lon="8.5551809"><ele>766.0</ele><time>2026-04-04T10:33:57.516Z</time></trkpt><trkpt lat="44.5482014" lon="8.5552965"><ele>767.8</ele><time>2026-04-04T10:33:59.509Z</time></trkpt><trkpt lat="44.5482663" lon="8.5554479"><ele>769.5999999999999</ele><time>2026-04-04T10:34:01.517Z</time></trkpt><trkpt lat="44.5483723" lon="8.5556201"><ele>771.4</ele><time>2026-04-04T10:34:03.514Z</time></trkpt><trkpt lat="44.5484281" lon="8.5556895"><ele>773.2</ele><time>2026-04-04T10:34:04.512Z</time></trkpt><trkpt lat="44.5484789" lon="8.5557508"><ele>775.0</ele><time>2026-04-04T10:34:05.505Z</time></trkpt><trkpt lat="44.5485342" lon="8.5558187"><ele>775.0</ele><time>2026-04-04T10:34:06.519Z</time></trkpt><trkpt lat="44.5485987" lon="8.5559002"><ele>775.0</ele><time>2026-04-04T10:34:07.515Z</time></trkpt><trkpt lat="44.5486686" lon="8.5559901"><ele>775.0</ele><time>2026-04-04T10:34:08.506Z</time></trkpt><trkpt lat="44.5487423" lon="8.5560782"><ele>775.0</ele><time>2026-04-04T10:34:09.509Z</time></trkpt><trkpt lat="44.5488124" lon="8.5561571"><ele>775.0</ele><time>2026-04-04T10:34:10.515Z</time></trkpt><trkpt lat="44.5488933" lon="8.5562243"><ele>774.8333333333333</ele><time>2026-04-04T10:34:11.52Z</time></trkpt><trkpt lat="44.5489788" lon="8.556293"><ele>774.6666666666666</ele><time>2026-04-04T10:34:12.513Z</time></trkpt><trkpt lat="44.5490545" lon="8.5563769"><ele>774.5</ele><time>2026-04-04T10:34:13.512Z</time></trkpt><trkpt lat="44.5491189" lon="8.5564537"><ele>774.3333333333333</ele><time>2026-04-04T10:34:14.519Z</time></trkpt><trkpt lat="44.5491643" lon="8.5565307"><ele>774.1666666666666</ele><time>2026-04-04T10:34:15.51Z</time></trkpt><trkpt lat="44.5491919" lon="8.5566146"><ele>774.0</ele><time>2026-04-04T10:34:16.513Z</time></trkpt><trkpt lat="44.5492093" lon="8.5567103"><ele>774.0</ele><time>2026-04-04T10:34:17.522Z</time></trkpt><trkpt lat="44.5492256" lon="8.5568529"><ele>774.0</ele><time>2026-04-04T10:34:19.508Z</time></trkpt><trkpt lat="44.5492204" lon="8.5569572"><ele>774.0</ele><time>2026-04-04T10:34:33.52Z</time></trkpt><trkpt lat="44.5491689" lon="8.5572037"><ele>774.0</ele><time>2026-04-04T10:34:36.521Z</time></trkpt><trkpt lat="44.5491311" lon="8.5573098"><ele>774.0</ele><time>2026-04-04T10:34:38.51Z</time></trkpt><trkpt lat="44.5491889" lon="8.5572179"><ele>774.0</ele><time>2026-04-04T10:34:51.513Z</time></trkpt><trkpt lat="44.549197" lon="8.5570986"><ele>774.0</ele><time>2026-04-04T10:34:53.519Z</time></trkpt><trkpt lat="44.5492122" lon="8.5569401"><ele>774.0</ele><time>2026-04-04T10:34:55.522Z</time></trkpt><trkpt lat="44.5491702" lon="8.5566176"><ele>774.0</ele><time>2026-04-04T10:34:59.516Z</time></trkpt><trkpt lat="44.5491257" lon="8.5564628"><ele>774.0</ele><time>2026-04-04T10:35:01.515Z</time></trkpt><trkpt lat="44.5490707" lon="8.5563505"><ele>774.0</ele><time>2026-04-04T10:35:03.513Z</time></trkpt><trkpt lat="44.5489887" lon="8.5562679"><ele>774.0</ele><time>2026-04-04T10:35:05.519Z</time></trkpt><trkpt lat="44.5489323" lon="8.5562202"><ele>774.0</ele><time>2026-04-04T10:35:06.52Z</time></trkpt><trkpt lat="44.5488683" lon="8.5561688"><ele>774.0</ele><time>2026-04-04T10:35:07.521Z</time></trkpt><trkpt lat="44.5487954" lon="8.5561169"><ele>774.0</ele><time>2026-04-04T10:35:08.53Z</time></trkpt><trkpt lat="44.5487245" lon="8.5560548"><ele>774.1666666666666</ele><time>2026-04-04T10:35:09.513Z</time></trkpt><trkpt lat="44.5486571" lon="8.5559749"><ele>774.3333333333333</ele><time>2026-04-04T10:35:10.519Z</time></trkpt><trkpt lat="44.5485883" lon="8.555887"><ele>774.5</ele><time>2026-04-04T10:35:11.521Z</time></trkpt><trkpt lat="44.5485179" lon="8.5557999"><ele>774.6666666666666</ele><time>2026-04-04T10:35:12.513Z</time></trkpt><trkpt lat="44.5484485" lon="8.555717"><ele>774.8333333333333</ele><time>2026-04-04T10:35:13.521Z</time></trkpt><trkpt lat="44.5483874" lon="8.5556459"><ele>775.0</ele><time>2026-04-04T10:35:14.525Z</time></trkpt><trkpt lat="44.5483291" lon="8.5555804"><ele>774.9999999999999</ele><time>2026-04-04T10:35:15.519Z</time></trkpt><trkpt lat="44.5482674" lon="8.55551"><ele>775.0</ele><time>2026-04-04T10:35:16.514Z</time></trkpt><trkpt lat="44.5481729" lon="8.5553324"><ele>775.0</ele><time>2026-04-04T10:35:18.529Z</time></trkpt><trkpt lat="44.5481387" lon="8.5552378"><ele>775.0</ele><time>2026-04-04T10:35:19.519Z</time></trkpt><trkpt lat="44.5481027" lon="8.5551493"><ele>774.9999999999999</ele><time>2026-04-04T10:35:20.507Z</time></trkpt><trkpt lat="44.5480591" lon="8.5550847"><ele>775.0</ele><time>2026-04-04T10:35:21.521Z</time></trkpt><trkpt lat="44.5479463" lon="8.5550595"><ele>777.6</ele><time>2026-04-04T10:35:23.518Z</time></trkpt><trkpt lat="44.5478439" lon="8.554979"><ele>780.2</ele><time>2026-04-04T10:35:25.515Z</time></trkpt><trkpt lat="44.5478099" lon="8.5549016"><ele>782.8</ele><time>2026-04-04T10:35:26.515Z</time></trkpt><trkpt lat="44.5477868" lon="8.5547987"><ele>785.4</ele><time>2026-04-04T10:35:27.518Z</time></trkpt><trkpt lat="44.5477542" lon="8.5547149"><ele>788.0</ele><time>2026-04-04T10:35:28.523Z</time></trkpt><trkpt lat="44.5476326" lon="8.5546593"><ele>788.0</ele><time>2026-04-04T10:35:30.516Z</time></trkpt><trkpt lat="44.5475438" lon="8.5546701"><ele>788.0</ele><time>2026-04-04T10:35:31.512Z</time></trkpt><trkpt lat="44.5474424" lon="8.5547037"><ele>788.0</ele><time>2026-04-04T10:35:32.513Z</time></trkpt><trkpt lat="44.5473437" lon="8.5547396"><ele>788.0</ele><time>2026-04-04T10:35:33.507Z</time></trkpt><trkpt lat="44.5472535" lon="8.5547724"><ele>788.0</ele><time>2026-04-04T10:35:34.522Z</time></trkpt><trkpt lat="44.547175" lon="8.5547951"><ele>788.0</ele><time>2026-04-04T10:35:35.513Z</time></trkpt><trkpt lat="44.5471018" lon="8.5548068"><ele>788.0</ele><time>2026-04-04T10:35:36.512Z</time></trkpt><trkpt lat="44.5470324" lon="8.5548154"><ele>788.0</ele><time>2026-04-04T10:35:37.513Z</time></trkpt><trkpt lat="44.5468067" lon="8.5547736"><ele>788.0</ele><time>2026-04-04T10:35:41.509Z</time></trkpt><trkpt lat="44.546744" lon="8.5546718"><ele>787.2</ele><time>2026-04-04T10:35:43.511Z</time></trkpt><trkpt lat="44.5466831" lon="8.5545098"><ele>786.4</ele><time>2026-04-04T10:35:45.522Z</time></trkpt><trkpt lat="44.5466482" lon="8.5544017"><ele>785.6</ele><time>2026-04-04T10:35:46.515Z</time></trkpt><trkpt lat="44.5466146" lon="8.5542909"><ele>784.8000000000001</ele><time>2026-04-04T10:35:47.513Z</time></trkpt><trkpt lat="44.5465875" lon="8.554176"><ele>784.0</ele><time>2026-04-04T10:35:48.52Z</time></trkpt><trkpt lat="44.546561" lon="8.5540502"><ele>783.9999999999999</ele><time>2026-04-04T10:35:49.525Z</time></trkpt><trkpt lat="44.546536" lon="8.5539342"><ele>784.0</ele><time>2026-04-04T10:35:50.517Z</time></trkpt><trkpt lat="44.546515" lon="8.5538395"><ele>784.0</ele><time>2026-04-04T10:35:51.522Z</time></trkpt><trkpt lat="44.5464677" lon="8.5536746"><ele>784.0</ele><time>2026-04-04T10:35:53.513Z</time></trkpt><trkpt lat="44.5464428" lon="8.5535832"><ele>783.9999999999999</ele><time>2026-04-04T10:35:54.514Z</time></trkpt><trkpt lat="44.5464153" lon="8.5534774"><ele>784.0</ele><time>2026-04-04T10:35:55.515Z</time></trkpt><trkpt lat="44.5463783" lon="8.5533826"><ele>783.6</ele><time>2026-04-04T10:35:56.515Z</time></trkpt><trkpt lat="44.5463279" lon="8.5533077"><ele>783.2</ele><time>2026-04-04T10:35:57.509Z</time></trkpt><trkpt lat="44.5462719" lon="8.5532448"><ele>782.8000000000001</ele><time>2026-04-04T10:35:58.51Z</time></trkpt><trkpt lat="44.5461384" lon="8.5532058"><ele>782.4000000000001</ele><time>2026-04-04T10:36:00.519Z</time></trkpt><trkpt lat="44.5460659" lon="8.5531639"><ele>782.0</ele><time>2026-04-04T10:36:01.51Z</time></trkpt><trkpt lat="44.5459868" lon="8.553085"><ele>780.8</ele><time>2026-04-04T10:36:02.514Z</time></trkpt><trkpt lat="44.5459086" lon="8.552993"><ele>779.6</ele><time>2026-04-04T10:36:03.515Z</time></trkpt><trkpt lat="44.5458313" lon="8.5529045"><ele>778.4</ele><time>2026-04-04T10:36:04.512Z</time></trkpt><trkpt lat="44.5457414" lon="8.5528305"><ele>777.1999999999999</ele><time>2026-04-04T10:36:05.508Z</time></trkpt><trkpt lat="44.5456382" lon="8.5527567"><ele>776.0</ele><time>2026-04-04T10:36:06.511Z</time></trkpt><trkpt lat="44.5455421" lon="8.5526822"><ele>775.8333333333334</ele><time>2026-04-04T10:36:07.514Z</time></trkpt><trkpt lat="44.5454656" lon="8.5526112"><ele>775.6666666666667</ele><time>2026-04-04T10:36:08.514Z</time></trkpt><trkpt lat="44.5454135" lon="8.5525448"><ele>775.5</ele><time>2026-04-04T10:36:09.519Z</time></trkpt><trkpt lat="44.545359" lon="8.5523938"><ele>775.3333333333333</ele><time>2026-04-04T10:36:11.527Z</time></trkpt><trkpt lat="44.5453283" lon="8.552296"><ele>775.1666666666666</ele><time>2026-04-04T10:36:12.521Z</time></trkpt><trkpt lat="44.5452751" lon="8.5521938"><ele>775.0</ele><time>2026-04-04T10:36:13.512Z</time></trkpt><trkpt lat="44.5452192" lon="8.5520833"><ele>776.1666666666666</ele><time>2026-04-04T10:36:14.512Z</time></trkpt><trkpt lat="44.5451645" lon="8.5519807"><ele>777.3333333333333</ele><time>2026-04-04T10:36:15.519Z</time></trkpt><trkpt lat="44.5451078" lon="8.5518934"><ele>778.5</ele><time>2026-04-04T10:36:16.513Z</time></trkpt><trkpt lat="44.5450595" lon="8.5518107"><ele>779.6666666666667</ele><time>2026-04-04T10:36:17.508Z</time></trkpt><trkpt lat="44.5450197" lon="8.551734"><ele>780.8333333333334</ele><time>2026-04-04T10:36:18.521Z</time></trkpt><trkpt lat="44.5449722" lon="8.5515959"><ele>782.0</ele><time>2026-04-04T10:36:20.513Z</time></trkpt><trkpt lat="44.5448234" lon="8.551379"><ele>782.0</ele><time>2026-04-04T10:36:23.522Z</time></trkpt><trkpt lat="44.5447552" lon="8.5512996"><ele>782.0</ele><time>2026-04-04T10:36:24.513Z</time></trkpt><trkpt lat="44.544685" lon="8.5512102"><ele>782.0</ele><time>2026-04-04T10:36:25.52Z</time></trkpt><trkpt lat="44.5446153" lon="8.5510985"><ele>782.0</ele><time>2026-04-04T10:36:26.516Z</time></trkpt><trkpt lat="44.5445433" lon="8.5509694"><ele>782.0</ele><time>2026-04-04T10:36:27.505Z</time></trkpt><trkpt lat="44.544477" lon="8.5508455"><ele>782.2</ele><time>2026-04-04T10:36:28.527Z</time></trkpt><trkpt lat="44.5444181" lon="8.550739"><ele>782.4000000000001</ele><time>2026-04-04T10:36:29.523Z</time></trkpt><trkpt lat="44.5443619" lon="8.5506581"><ele>782.5999999999999</ele><time>2026-04-04T10:36:30.516Z</time></trkpt><trkpt lat="44.5442968" lon="8.550593"><ele>782.8</ele><time>2026-04-04T10:36:31.515Z</time></trkpt><trkpt lat="44.5442169" lon="8.5505262"><ele>783.0</ele><time>2026-04-04T10:36:32.514Z</time></trkpt><trkpt lat="44.5441227" lon="8.5504547"><ele>783.0</ele><time>2026-04-04T10:36:33.51Z</time></trkpt><trkpt lat="44.5440272" lon="8.5503979"><ele>783.0</ele><time>2026-04-04T10:36:34.518Z</time></trkpt><trkpt lat="44.54394" lon="8.5503628"><ele>783.0</ele><time>2026-04-04T10:36:35.508Z</time></trkpt><trkpt lat="44.5438642" lon="8.5503274"><ele>783.0</ele><time>2026-04-04T10:36:36.51Z</time></trkpt><trkpt lat="44.5437992" lon="8.5502656"><ele>783.0</ele><time>2026-04-04T10:36:37.512Z</time></trkpt><trkpt lat="44.5437416" lon="8.5501705"><ele>783.0</ele><time>2026-04-04T10:36:38.51Z</time></trkpt><trkpt lat="44.5436983" lon="8.5500458"><ele>782.8333333333334</ele><time>2026-04-04T10:36:39.511Z</time></trkpt><trkpt lat="44.5436609" lon="8.5499234"><ele>782.6666666666667</ele><time>2026-04-04T10:36:40.51Z</time></trkpt><trkpt lat="44.5436298" lon="8.5498199"><ele>782.5</ele><time>2026-04-04T10:36:41.517Z</time></trkpt><trkpt lat="44.5435634" lon="8.5496577"><ele>782.3333333333334</ele><time>2026-04-04T10:36:43.514Z</time></trkpt><trkpt lat="44.5435294" lon="8.5495833"><ele>782.1666666666667</ele><time>2026-04-04T10:36:44.513Z</time></trkpt><trkpt lat="44.543494" lon="8.5495079"><ele>782.0</ele><time>2026-04-04T10:36:45.511Z</time></trkpt><trkpt lat="44.5434549" lon="8.549433"><ele>781.9999999999999</ele><time>2026-04-04T10:36:46.507Z</time></trkpt><trkpt lat="44.5434115" lon="8.5493589"><ele>782.0</ele><time>2026-04-04T10:36:47.517Z</time></trkpt><trkpt lat="44.5433664" lon="8.5492828"><ele>782.0</ele><time>2026-04-04T10:36:48.515Z</time></trkpt><trkpt lat="44.5433216" lon="8.5492048"><ele>782.0</ele><time>2026-04-04T10:36:49.511Z</time></trkpt><trkpt lat="44.5432762" lon="8.5491257"><ele>782.0</ele><time>2026-04-04T10:36:50.519Z</time></trkpt><trkpt lat="44.5432303" lon="8.5490415"><ele>781.9999999999999</ele><time>2026-04-04T10:36:51.517Z</time></trkpt><trkpt lat="44.5431865" lon="8.5489538"><ele>782.0</ele><time>2026-04-04T10:36:52.514Z</time></trkpt><trkpt lat="44.5431551" lon="8.5488489"><ele>782.0000000000001</ele><time>2026-04-04T10:36:53.521Z</time></trkpt><trkpt lat="44.5431309" lon="8.5487388"><ele>782.0</ele><time>2026-04-04T10:36:54.513Z</time></trkpt><trkpt lat="44.5431078" lon="8.548631"><ele>782.0</ele><time>2026-04-04T10:36:55.509Z</time></trkpt><trkpt lat="44.5430835" lon="8.5485229"><ele>782.0</ele><time>2026-04-04T10:36:56.515Z</time></trkpt><trkpt lat="44.5430661" lon="8.5484153"><ele>782.0000000000001</ele><time>2026-04-04T10:36:57.514Z</time></trkpt><trkpt lat="44.5430554" lon="8.5483059"><ele>782.0</ele><time>2026-04-04T10:36:58.51Z</time></trkpt><trkpt lat="44.5430524" lon="8.5481979"><ele>780.5000000000001</ele><time>2026-04-04T10:36:59.504Z</time></trkpt><trkpt lat="44.5430558" lon="8.5480957"><ele>779.0</ele><time>2026-04-04T10:37:00.522Z</time></trkpt><trkpt lat="44.543053" lon="8.5480016"><ele>777.5</ele><time>2026-04-04T10:37:01.517Z</time></trkpt><trkpt lat="44.5430401" lon="8.5479107"><ele>776.0</ele><time>2026-04-04T10:37:02.517Z</time></trkpt><trkpt lat="44.5429813" lon="8.5477245"><ele>774.5000000000001</ele><time>2026-04-04T10:37:04.515Z</time></trkpt><trkpt lat="44.5429298" lon="8.5476357"><ele>773.0</ele><time>2026-04-04T10:37:05.509Z</time></trkpt><trkpt lat="44.5428607" lon="8.5475352"><ele>772.8</ele><time>2026-04-04T10:37:06.515Z</time></trkpt><trkpt lat="44.5427884" lon="8.547431"><ele>772.5999999999999</ele><time>2026-04-04T10:37:07.509Z</time></trkpt><trkpt lat="44.5427125" lon="8.5473222"><ele>772.4000000000001</ele><time>2026-04-04T10:37:08.51Z</time></trkpt><trkpt lat="44.5426328" lon="8.5472107"><ele>772.2</ele><time>2026-04-04T10:37:09.53Z</time></trkpt><trkpt lat="44.5425601" lon="8.5471077"><ele>772.0</ele><time>2026-04-04T10:37:10.526Z</time></trkpt><trkpt lat="44.5424897" lon="8.5470074"><ele>774.0</ele><time>2026-04-04T10:37:11.509Z</time></trkpt><trkpt lat="44.5424157" lon="8.5469034"><ele>776.0</ele><time>2026-04-04T10:37:12.515Z</time></trkpt><trkpt lat="44.5423418" lon="8.5468027"><ele>778.0</ele><time>2026-04-04T10:37:13.52Z</time></trkpt><trkpt lat="44.5422767" lon="8.5467178"><ele>780.0</ele><time>2026-04-04T10:37:14.519Z</time></trkpt><trkpt lat="44.5422218" lon="8.5466354"><ele>782.0</ele><time>2026-04-04T10:37:15.525Z</time></trkpt><trkpt lat="44.542179" lon="8.5465508"><ele>782.0000000000001</ele><time>2026-04-04T10:37:16.516Z</time></trkpt><trkpt lat="44.5421492" lon="8.546462"><ele>782.0</ele><time>2026-04-04T10:37:17.511Z</time></trkpt><trkpt lat="44.5421353" lon="8.5463657"><ele>782.0</ele><time>2026-04-04T10:37:18.515Z</time></trkpt><trkpt lat="44.5421263" lon="8.5462656"><ele>782.0</ele><time>2026-04-04T10:37:19.523Z</time></trkpt><trkpt lat="44.5420981" lon="8.5461349"><ele>782.0000000000001</ele><time>2026-04-04T10:37:21.512Z</time></trkpt><trkpt lat="44.5420097" lon="8.546175"><ele>782.0</ele><time>2026-04-04T10:37:23.506Z</time></trkpt><trkpt lat="44.541875" lon="8.5462725"><ele>779.6666666666667</ele><time>2026-04-04T10:37:25.52Z</time></trkpt><trkpt lat="44.5417964" lon="8.5463121"><ele>777.3333333333334</ele><time>2026-04-04T10:37:26.522Z</time></trkpt><trkpt lat="44.5417183" lon="8.5463483"><ele>775.0</ele><time>2026-04-04T10:37:27.511Z</time></trkpt><trkpt lat="44.5416399" lon="8.5463766"><ele>772.6666666666667</ele><time>2026-04-04T10:37:28.505Z</time></trkpt><trkpt lat="44.5415674" lon="8.5464026"><ele>770.3333333333334</ele><time>2026-04-04T10:37:29.514Z</time></trkpt><trkpt lat="44.541479" lon="8.5464976"><ele>768.0</ele><time>2026-04-04T10:37:31.507Z</time></trkpt><trkpt lat="44.5414064" lon="8.5466343"><ele>767.9999999999999</ele><time>2026-04-04T10:37:33.518Z</time></trkpt><trkpt lat="44.5413597" lon="8.5466937"><ele>768.0</ele><time>2026-04-04T10:37:34.514Z</time></trkpt><trkpt lat="44.5413079" lon="8.5467523"><ele>768.0</ele><time>2026-04-04T10:37:35.528Z</time></trkpt><trkpt lat="44.5412402" lon="8.5467873"><ele>768.0</ele><time>2026-04-04T10:37:36.519Z</time></trkpt><trkpt lat="44.5411722" lon="8.5468013"><ele>768.0</ele><time>2026-04-04T10:37:37.508Z</time></trkpt><trkpt lat="44.5411076" lon="8.5467938"><ele>767.9999999999999</ele><time>2026-04-04T10:37:38.519Z</time></trkpt><trkpt lat="44.5410173" lon="8.5466984"><ele>768.0</ele><time>2026-04-04T10:37:40.512Z</time></trkpt><trkpt lat="44.5410057" lon="8.5465993"><ele>766.2</ele><time>2026-04-04T10:37:41.518Z</time></trkpt><trkpt lat="44.5409881" lon="8.5464808"><ele>764.4</ele><time>2026-04-04T10:37:42.518Z</time></trkpt><trkpt lat="44.5409592" lon="8.5463607"><ele>762.6</ele><time>2026-04-04T10:37:43.517Z</time></trkpt><trkpt lat="44.5409244" lon="8.5462444"><ele>760.8000000000001</ele><time>2026-04-04T10:37:44.51Z</time></trkpt><trkpt lat="44.5408579" lon="8.5460294"><ele>759.0</ele><time>2026-04-04T10:37:46.514Z</time></trkpt><trkpt lat="44.5408106" lon="8.5459515"><ele>759.0</ele><time>2026-04-04T10:37:47.511Z</time></trkpt><trkpt lat="44.5407502" lon="8.5458942"><ele>759.0</ele><time>2026-04-04T10:37:48.511Z</time></trkpt><trkpt lat="44.5406919" lon="8.5458399"><ele>759.0</ele><time>2026-04-04T10:37:49.513Z</time></trkpt><trkpt lat="44.5406548" lon="8.5457544"><ele>759.0</ele><time>2026-04-04T10:37:50.516Z</time></trkpt><trkpt lat="44.5406271" lon="8.5456624"><ele>759.0</ele><time>2026-04-04T10:37:51.51Z</time></trkpt><trkpt lat="44.540622" lon="8.5455515"><ele>759.0</ele><time>2026-04-04T10:37:52.51Z</time></trkpt><trkpt lat="44.5406098" lon="8.5454286"><ele>758.0</ele><time>2026-04-04T10:37:53.51Z</time></trkpt><trkpt lat="44.5405831" lon="8.5453083"><ele>757.0</ele><time>2026-04-04T10:37:54.507Z</time></trkpt><trkpt lat="44.5405348" lon="8.5452059"><ele>756.0</ele><time>2026-04-04T10:37:55.509Z</time></trkpt><trkpt lat="44.5404771" lon="8.5451008"><ele>755.0</ele><time>2026-04-04T10:37:56.514Z</time></trkpt><trkpt lat="44.5404248" lon="8.544988"><ele>754.0</ele><time>2026-04-04T10:37:57.518Z</time></trkpt><trkpt lat="44.5403764" lon="8.5448671"><ele>753.1666666666667</ele><time>2026-04-04T10:37:58.512Z</time></trkpt><trkpt lat="44.5403343" lon="8.5447474"><ele>752.3333333333334</ele><time>2026-04-04T10:37:59.508Z</time></trkpt><trkpt lat="44.5402958" lon="8.5446409"><ele>751.5</ele><time>2026-04-04T10:38:00.512Z</time></trkpt><trkpt lat="44.540252" lon="8.5445457"><ele>750.6666666666666</ele><time>2026-04-04T10:38:01.509Z</time></trkpt><trkpt lat="44.5402075" lon="8.5444527"><ele>749.8333333333333</ele><time>2026-04-04T10:38:02.513Z</time></trkpt><trkpt lat="44.5401658" lon="8.5443653"><ele>749.0</ele><time>2026-04-04T10:38:03.511Z</time></trkpt><trkpt lat="44.5401273" lon="8.5442817"><ele>748.2</ele><time>2026-04-04T10:38:04.507Z</time></trkpt><trkpt lat="44.5400975" lon="8.5441933"><ele>747.4000000000001</ele><time>2026-04-04T10:38:05.506Z</time></trkpt><trkpt lat="44.5401056" lon="8.5439587"><ele>746.6</ele><time>2026-04-04T10:38:07.506Z</time></trkpt><trkpt lat="44.5401427" lon="8.5438376"><ele>745.8</ele><time>2026-04-04T10:38:08.505Z</time></trkpt><trkpt lat="44.5401979" lon="8.5437182"><ele>745.0</ele><time>2026-04-04T10:38:09.516Z</time></trkpt><trkpt lat="44.5402577" lon="8.5436102"><ele>744.3333333333334</ele><time>2026-04-04T10:38:10.516Z</time></trkpt><trkpt lat="44.5403132" lon="8.5435062"><ele>743.6666666666667</ele><time>2026-04-04T10:38:11.505Z</time></trkpt><trkpt lat="44.540367" lon="8.5434063"><ele>743.0</ele><time>2026-04-04T10:38:12.508Z</time></trkpt><trkpt lat="44.5404283" lon="8.5433221"><ele>742.3333333333334</ele><time>2026-04-04T10:38:13.518Z</time></trkpt><trkpt lat="44.5404915" lon="8.5432705"><ele>741.6666666666666</ele><time>2026-04-04T10:38:14.509Z</time></trkpt><trkpt lat="44.5405651" lon="8.5432423"><ele>741.0</ele><time>2026-04-04T10:38:15.506Z</time></trkpt><trkpt lat="44.5406442" lon="8.5432136"><ele>741.0</ele><time>2026-04-04T10:38:16.505Z</time></trkpt><trkpt lat="44.5407138" lon="8.5431604"><ele>741.0</ele><time>2026-04-04T10:38:17.511Z</time></trkpt><trkpt lat="44.5407557" lon="8.543067"><ele>741.0</ele><time>2026-04-04T10:38:18.506Z</time></trkpt><trkpt lat="44.5407696" lon="8.5429513"><ele>741.0</ele><time>2026-04-04T10:38:19.512Z</time></trkpt><trkpt lat="44.540768" lon="8.5428112"><ele>741.0</ele><time>2026-04-04T10:38:20.504Z</time></trkpt><trkpt lat="44.540756" lon="8.542664"><ele>741.0</ele><time>2026-04-04T10:38:21.503Z</time></trkpt><trkpt lat="44.540744" lon="8.5425265"><ele>740.5999999999999</ele><time>2026-04-04T10:38:22.518Z</time></trkpt><trkpt lat="44.5407331" lon="8.5424066"><ele>740.2</ele><time>2026-04-04T10:38:23.507Z</time></trkpt><trkpt lat="44.5407156" lon="8.5422916"><ele>739.8</ele><time>2026-04-04T10:38:24.523Z</time></trkpt><trkpt lat="44.5406962" lon="8.5421746"><ele>739.4000000000001</ele><time>2026-04-04T10:38:25.516Z</time></trkpt><trkpt lat="44.5406822" lon="8.542049"><ele>739.0</ele><time>2026-04-04T10:38:26.505Z</time></trkpt><trkpt lat="44.5406889" lon="8.5417941"><ele>738.4000000000001</ele><time>2026-04-04T10:38:28.517Z</time></trkpt><trkpt lat="44.5407256" lon="8.5416659"><ele>737.8</ele><time>2026-04-04T10:38:29.512Z</time></trkpt><trkpt lat="44.5407675" lon="8.5415293"><ele>737.2</ele><time>2026-04-04T10:38:30.506Z</time></trkpt><trkpt lat="44.5408133" lon="8.5413867"><ele>736.5999999999999</ele><time>2026-04-04T10:38:31.516Z</time></trkpt><trkpt lat="44.5408627" lon="8.5412561"><ele>736.0</ele><time>2026-04-04T10:38:32.506Z</time></trkpt><trkpt lat="44.5409139" lon="8.5411447"><ele>734.6666666666667</ele><time>2026-04-04T10:38:33.511Z</time></trkpt><trkpt lat="44.5409539" lon="8.5410456"><ele>733.3333333333334</ele><time>2026-04-04T10:38:34.506Z</time></trkpt><trkpt lat="44.5409887" lon="8.5409482"><ele>732.0</ele><time>2026-04-04T10:38:35.511Z</time></trkpt><trkpt lat="44.5409882" lon="8.5408341"><ele>730.6666666666666</ele><time>2026-04-04T10:38:36.509Z</time></trkpt><trkpt lat="44.5409635" lon="8.5407133"><ele>729.3333333333333</ele><time>2026-04-04T10:38:37.511Z</time></trkpt><trkpt lat="44.5409482" lon="8.5405956"><ele>728.0</ele><time>2026-04-04T10:38:38.519Z</time></trkpt><trkpt lat="44.5409555" lon="8.5404935"><ele>728.0</ele><time>2026-04-04T10:38:39.51Z</time></trkpt><trkpt lat="44.5409912" lon="8.5404171"><ele>728.0</ele><time>2026-04-04T10:38:40.519Z</time></trkpt><trkpt lat="44.5410488" lon="8.5403743"><ele>728.0</ele><time>2026-04-04T10:38:41.509Z</time></trkpt><trkpt lat="44.5411338" lon="8.540364"><ele>728.0</ele><time>2026-04-04T10:38:42.513Z</time></trkpt><trkpt lat="44.5412175" lon="8.5403808"><ele>728.0</ele><time>2026-04-04T10:38:43.508Z</time></trkpt><trkpt lat="44.5412983" lon="8.5403728"><ele>728.0</ele><time>2026-04-04T10:38:44.522Z</time></trkpt><trkpt lat="44.5413692" lon="8.5403553"><ele>726.75</ele><time>2026-04-04T10:38:45.511Z</time></trkpt><trkpt lat="44.5413558" lon="8.5402046"><ele>725.5</ele><time>2026-04-04T10:38:47.519Z</time></trkpt><trkpt lat="44.5412299" lon="8.5400458"><ele>724.25</ele><time>2026-04-04T10:38:49.507Z</time></trkpt><trkpt lat="44.541174" lon="8.5399447"><ele>723.0</ele><time>2026-04-04T10:38:50.504Z</time></trkpt><trkpt lat="44.5411417" lon="8.5398276"><ele>723.0</ele><time>2026-04-04T10:38:51.512Z</time></trkpt><trkpt lat="44.541133" lon="8.5396906"><ele>723.0</ele><time>2026-04-04T10:38:52.529Z</time></trkpt><trkpt lat="44.5411489" lon="8.5395392"><ele>723.0</ele><time>2026-04-04T10:38:53.507Z</time></trkpt><trkpt lat="44.5411776" lon="8.5393858"><ele>723.0</ele><time>2026-04-04T10:38:54.506Z</time></trkpt><trkpt lat="44.5412089" lon="8.5392466"><ele>723.0</ele><time>2026-04-04T10:38:55.522Z</time></trkpt><trkpt lat="44.5412312" lon="8.5391245"><ele>721.8</ele><time>2026-04-04T10:38:56.505Z</time></trkpt><trkpt lat="44.5412218" lon="8.5390056"><ele>720.5999999999999</ele><time>2026-04-04T10:38:57.514Z</time></trkpt><trkpt lat="44.5412029" lon="8.5388884"><ele>719.4000000000001</ele><time>2026-04-04T10:38:58.527Z</time></trkpt><trkpt lat="44.5412021" lon="8.5387617"><ele>718.2</ele><time>2026-04-04T10:38:59.51Z</time></trkpt><trkpt lat="44.5412163" lon="8.5386192"><ele>717.0</ele><time>2026-04-04T10:39:00.507Z</time></trkpt><trkpt lat="44.5412298" lon="8.5384561"><ele>721.0</ele><time>2026-04-04T10:39:01.534Z</time></trkpt><trkpt lat="44.5412362" lon="8.5382906"><ele>725.0</ele><time>2026-04-04T10:39:02.522Z</time></trkpt><trkpt lat="44.5412452" lon="8.5381299"><ele>729.0</ele><time>2026-04-04T10:39:03.513Z</time></trkpt><trkpt lat="44.5412699" lon="8.5379855"><ele>733.0</ele><time>2026-04-04T10:39:04.528Z</time></trkpt><trkpt lat="44.5413162" lon="8.5378646"><ele>737.0</ele><time>2026-04-04T10:39:05.522Z</time></trkpt><trkpt lat="44.5413793" lon="8.5377641"><ele>737.0</ele><time>2026-04-04T10:39:06.504Z</time></trkpt><trkpt lat="44.5414372" lon="8.5376673"><ele>737.0</ele><time>2026-04-04T10:39:07.52Z</time></trkpt><trkpt lat="44.5414599" lon="8.5375588"><ele>737.0</ele><time>2026-04-04T10:39:08.522Z</time></trkpt><trkpt lat="44.5414114" lon="8.5373622"><ele>737.0</ele><time>2026-04-04T10:39:10.516Z</time></trkpt><trkpt lat="44.5413456" lon="8.5372944"><ele>737.0</ele><time>2026-04-04T10:39:11.516Z</time></trkpt><trkpt lat="44.5412491" lon="8.5372768"><ele>734.4000000000001</ele><time>2026-04-04T10:39:12.503Z</time></trkpt><trkpt lat="44.5411427" lon="8.5372779"><ele>731.8000000000001</ele><time>2026-04-04T10:39:13.506Z</time></trkpt><trkpt lat="44.5410367" lon="8.5372718"><ele>729.2</ele><time>2026-04-04T10:39:14.508Z</time></trkpt><trkpt lat="44.5409359" lon="8.5372623"><ele>726.6</ele><time>2026-04-04T10:39:15.516Z</time></trkpt><trkpt lat="44.5408475" lon="8.5372363"><ele>724.0</ele><time>2026-04-04T10:39:16.514Z</time></trkpt><trkpt lat="44.5407821" lon="8.5371957"><ele>724.0</ele><time>2026-04-04T10:39:17.515Z</time></trkpt><trkpt lat="44.5407301" lon="8.537137"><ele>724.0</ele><time>2026-04-04T10:39:18.51Z</time></trkpt><trkpt lat="44.5406489" lon="8.5370213"><ele>724.0</ele><time>2026-04-04T10:39:20.513Z</time></trkpt><trkpt lat="44.5405906" lon="8.5369268"><ele>724.0</ele><time>2026-04-04T10:39:22.502Z</time></trkpt><trkpt lat="44.5405275" lon="8.5368306"><ele>724.0</ele><time>2026-04-04T10:39:25.518Z</time></trkpt><trkpt lat="44.5403995" lon="8.5367799"><ele>724.25</ele><time>2026-04-04T10:39:27.509Z</time></trkpt><trkpt lat="44.5403067" lon="8.5367632"><ele>724.5</ele><time>2026-04-04T10:39:28.512Z</time></trkpt><trkpt lat="44.5402019" lon="8.5367468"><ele>724.75</ele><time>2026-04-04T10:39:29.508Z</time></trkpt><trkpt lat="44.5399824" lon="8.5367052"><ele>725.0</ele><time>2026-04-04T10:39:31.506Z</time></trkpt><trkpt lat="44.5398654" lon="8.5366816"><ele>725.0</ele><time>2026-04-04T10:39:32.509Z</time></trkpt><trkpt lat="44.5397511" lon="8.5366389"><ele>725.0</ele><time>2026-04-04T10:39:33.509Z</time></trkpt><trkpt lat="44.5396478" lon="8.5365629"><ele>725.0</ele><time>2026-04-04T10:39:34.512Z</time></trkpt><trkpt lat="44.5395546" lon="8.5364563"><ele>725.0</ele><time>2026-04-04T10:39:35.521Z</time></trkpt><trkpt lat="44.5394632" lon="8.5363351"><ele>726.2</ele><time>2026-04-04T10:39:36.519Z</time></trkpt><trkpt lat="44.5393636" lon="8.5362142"><ele>727.4</ele><time>2026-04-04T10:39:37.517Z</time></trkpt><trkpt lat="44.5392624" lon="8.5361168"><ele>728.5999999999999</ele><time>2026-04-04T10:39:38.51Z</time></trkpt><trkpt lat="44.5391735" lon="8.5360573"><ele>729.8</ele><time>2026-04-04T10:39:39.515Z</time></trkpt><trkpt lat="44.5391056" lon="8.5360339"><ele>731.0</ele><time>2026-04-04T10:39:40.518Z</time></trkpt><trkpt lat="44.5390249" lon="8.5360817"><ele>731.0</ele><time>2026-04-04T10:39:42.511Z</time></trkpt><trkpt lat="44.5389461" lon="8.5361858"><ele>731.0</ele><time>2026-04-04T10:39:44.514Z</time></trkpt><trkpt lat="44.5388674" lon="8.5362498"><ele>731.0</ele><time>2026-04-04T10:39:45.515Z</time></trkpt><trkpt lat="44.5387664" lon="8.536309"><ele>731.0</ele><time>2026-04-04T10:39:46.513Z</time></trkpt><trkpt lat="44.5386402" lon="8.5363815"><ele>731.0</ele><time>2026-04-04T10:39:47.519Z</time></trkpt><trkpt lat="44.5385218" lon="8.5364411"><ele>730.25</ele><time>2026-04-04T10:39:48.513Z</time></trkpt><trkpt lat="44.5384157" lon="8.5364852"><ele>729.5</ele><time>2026-04-04T10:39:49.514Z</time></trkpt><trkpt lat="44.5383121" lon="8.5364956"><ele>728.75</ele><time>2026-04-04T10:39:50.515Z</time></trkpt><trkpt lat="44.5381135" lon="8.53639"><ele>728.0</ele><time>2026-04-04T10:39:52.515Z</time></trkpt><trkpt lat="44.5380231" lon="8.5362362"><ele>729.0</ele><time>2026-04-04T10:39:53.506Z</time></trkpt><trkpt lat="44.5379235" lon="8.5360793"><ele>730.0</ele><time>2026-04-04T10:39:54.506Z</time></trkpt><trkpt lat="44.5378177" lon="8.5359146"><ele>731.0</ele><time>2026-04-04T10:39:55.516Z</time></trkpt><trkpt lat="44.5377126" lon="8.5357579"><ele>732.0</ele><time>2026-04-04T10:39:56.512Z</time></trkpt><trkpt lat="44.5376118" lon="8.5356279"><ele>733.0</ele><time>2026-04-04T10:39:57.505Z</time></trkpt><trkpt lat="44.5375048" lon="8.5355317"><ele>734.0</ele><time>2026-04-04T10:39:58.515Z</time></trkpt><trkpt lat="44.5373848" lon="8.53547"><ele>735.0</ele><time>2026-04-04T10:39:59.518Z</time></trkpt><trkpt lat="44.5372564" lon="8.5354551"><ele>735.0</ele><time>2026-04-04T10:40:00.513Z</time></trkpt><trkpt lat="44.5371315" lon="8.5354361"><ele>735.0</ele><time>2026-04-04T10:40:01.512Z</time></trkpt><trkpt lat="44.5370144" lon="8.535392"><ele>735.0</ele><time>2026-04-04T10:40:02.516Z</time></trkpt><trkpt lat="44.5369029" lon="8.5353097"><ele>735.0</ele><time>2026-04-04T10:40:03.52Z</time></trkpt><trkpt lat="44.5367937" lon="8.5352004"><ele>737.0</ele><time>2026-04-04T10:40:04.51Z</time></trkpt><trkpt lat="44.5366786" lon="8.5350664"><ele>739.0</ele><time>2026-04-04T10:40:05.509Z</time></trkpt><trkpt lat="44.536561" lon="8.5349104"><ele>741.0</ele><time>2026-04-04T10:40:06.509Z</time></trkpt><trkpt lat="44.5364417" lon="8.5347485"><ele>741.0</ele><time>2026-04-04T10:40:07.514Z</time></trkpt><trkpt lat="44.5363154" lon="8.53459"><ele>741.0</ele><time>2026-04-04T10:40:08.515Z</time></trkpt><trkpt lat="44.5361746" lon="8.5344374"><ele>741.0</ele><time>2026-04-04T10:40:09.509Z</time></trkpt><trkpt lat="44.5360196" lon="8.5342931"><ele>740.5</ele><time>2026-04-04T10:40:10.521Z</time></trkpt><trkpt lat="44.5358544" lon="8.53416"><ele>740.0</ele><time>2026-04-04T10:40:11.524Z</time></trkpt><trkpt lat="44.5355006" lon="8.5339464"><ele>739.6666666666666</ele><time>2026-04-04T10:40:13.522Z</time></trkpt><trkpt lat="44.5353197" lon="8.5338633"><ele>739.3333333333334</ele><time>2026-04-04T10:40:14.517Z</time></trkpt><trkpt lat="44.5351359" lon="8.5337991"><ele>739.0</ele><time>2026-04-04T10:40:15.509Z</time></trkpt><trkpt lat="44.5349473" lon="8.5337607"><ele>739.0</ele><time>2026-04-04T10:40:16.518Z</time></trkpt><trkpt lat="44.534755" lon="8.5337423"><ele>739.0</ele><time>2026-04-04T10:40:17.513Z</time></trkpt><trkpt lat="44.5345586" lon="8.5337271"><ele>739.0</ele><time>2026-04-04T10:40:18.506Z</time></trkpt><trkpt lat="44.5343609" lon="8.5337078"><ele>737.6666666666667</ele><time>2026-04-04T10:40:19.513Z</time></trkpt><trkpt lat="44.5341724" lon="8.5336884"><ele>736.3333333333334</ele><time>2026-04-04T10:40:20.512Z</time></trkpt><trkpt lat="44.5339976" lon="8.5336722"><ele>735.0</ele><time>2026-04-04T10:40:21.511Z</time></trkpt><trkpt lat="44.533835" lon="8.5336597"><ele>736.0</ele><time>2026-04-04T10:40:22.518Z</time></trkpt><trkpt lat="44.5336784" lon="8.5336426"><ele>737.0</ele><time>2026-04-04T10:40:23.505Z</time></trkpt><trkpt lat="44.5335234" lon="8.5336158"><ele>738.0</ele><time>2026-04-04T10:40:24.508Z</time></trkpt><trkpt lat="44.5333777" lon="8.5335805"><ele>738.0</ele><time>2026-04-04T10:40:25.506Z</time></trkpt><trkpt lat="44.5332397" lon="8.5335355"><ele>738.0</ele><time>2026-04-04T10:40:26.505Z</time></trkpt><trkpt lat="44.533101" lon="8.5334829"><ele>738.0</ele><time>2026-04-04T10:40:27.51Z</time></trkpt><trkpt lat="44.5329612" lon="8.5334312"><ele>738.0</ele><time>2026-04-04T10:40:28.508Z</time></trkpt><trkpt lat="44.5328224" lon="8.5333839"><ele>738.75</ele><time>2026-04-04T10:40:29.505Z</time></trkpt><trkpt lat="44.5326858" lon="8.5333391"><ele>739.5</ele><time>2026-04-04T10:40:30.507Z</time></trkpt><trkpt lat="44.5325457" lon="8.5333023"><ele>740.25</ele><time>2026-04-04T10:40:31.51Z</time></trkpt><trkpt lat="44.5324109" lon="8.5332722"><ele>741.0</ele><time>2026-04-04T10:40:32.51Z</time></trkpt><trkpt lat="44.5321441" lon="8.5332039"><ele>738.75</ele><time>2026-04-04T10:40:34.507Z</time></trkpt><trkpt lat="44.5320069" lon="8.5331696"><ele>736.5</ele><time>2026-04-04T10:40:35.514Z</time></trkpt><trkpt lat="44.5318709" lon="8.5331363"><ele>734.25</ele><time>2026-04-04T10:40:36.512Z</time></trkpt><trkpt lat="44.5317373" lon="8.5331024"><ele>732.0</ele><time>2026-04-04T10:40:37.509Z</time></trkpt><trkpt lat="44.5316078" lon="8.5330705"><ele>732.0</ele><time>2026-04-04T10:40:38.513Z</time></trkpt><trkpt lat="44.5314779" lon="8.5330323"><ele>732.0</ele><time>2026-04-04T10:40:39.509Z</time></trkpt><trkpt lat="44.5313424" lon="8.5329805"><ele>732.0</ele><time>2026-04-04T10:40:40.516Z</time></trkpt><trkpt lat="44.5312063" lon="8.5329114"><ele>732.0</ele><time>2026-04-04T10:40:41.514Z</time></trkpt><trkpt lat="44.5310745" lon="8.5328262"><ele>729.5</ele><time>2026-04-04T10:40:42.517Z</time></trkpt><trkpt lat="44.5309503" lon="8.5327354"><ele>727.0</ele><time>2026-04-04T10:40:43.516Z</time></trkpt><trkpt lat="44.5308354" lon="8.5326499"><ele>724.5</ele><time>2026-04-04T10:40:44.513Z</time></trkpt><trkpt lat="44.5307273" lon="8.5325852"><ele>722.0</ele><time>2026-04-04T10:40:45.524Z</time></trkpt><trkpt lat="44.5306217" lon="8.5325619"><ele>722.0</ele><time>2026-04-04T10:40:46.518Z</time></trkpt><trkpt lat="44.5305127" lon="8.5325728"><ele>722.0</ele><time>2026-04-04T10:40:47.51Z</time></trkpt><trkpt lat="44.5303883" lon="8.5326104"><ele>722.0</ele><time>2026-04-04T10:40:48.511Z</time></trkpt><trkpt lat="44.5302508" lon="8.5326388"><ele>722.0</ele><time>2026-04-04T10:40:49.532Z</time></trkpt><trkpt lat="44.5301102" lon="8.5326678"><ele>720.75</ele><time>2026-04-04T10:40:50.513Z</time></trkpt><trkpt lat="44.5299676" lon="8.5327091"><ele>719.5</ele><time>2026-04-04T10:40:51.527Z</time></trkpt><trkpt lat="44.5298332" lon="8.532777"><ele>718.25</ele><time>2026-04-04T10:40:52.511Z</time></trkpt><trkpt lat="44.5297145" lon="8.5328619"><ele>717.0</ele><time>2026-04-04T10:40:53.513Z</time></trkpt><trkpt lat="44.5294887" lon="8.5330112"><ele>717.0</ele><time>2026-04-04T10:40:55.514Z</time></trkpt><trkpt lat="44.529369" lon="8.5330768"><ele>717.0</ele><time>2026-04-04T10:40:56.515Z</time></trkpt><trkpt lat="44.5292346" lon="8.5331329"><ele>717.0</ele><time>2026-04-04T10:40:57.518Z</time></trkpt><trkpt lat="44.5290899" lon="8.5331653"><ele>717.0</ele><time>2026-04-04T10:40:58.516Z</time></trkpt><trkpt lat="44.5289302" lon="8.5331682"><ele>717.0</ele><time>2026-04-04T10:40:59.505Z</time></trkpt><trkpt lat="44.5287607" lon="8.5331402"><ele>717.0</ele><time>2026-04-04T10:41:00.519Z</time></trkpt><trkpt lat="44.5285835" lon="8.5330995"><ele>717.0</ele><time>2026-04-04T10:41:01.512Z</time></trkpt><trkpt lat="44.528403" lon="8.5330605"><ele>714.3333333333334</ele><time>2026-04-04T10:41:02.505Z</time></trkpt><trkpt lat="44.5282291" lon="8.5330305"><ele>711.6666666666667</ele><time>2026-04-04T10:41:03.52Z</time></trkpt><trkpt lat="44.5280675" lon="8.5330099"><ele>709.0</ele><time>2026-04-04T10:41:04.52Z</time></trkpt><trkpt lat="44.5279092" lon="8.5329913"><ele>708.3333333333334</ele><time>2026-04-04T10:41:05.512Z</time></trkpt><trkpt lat="44.5277463" lon="8.5329602"><ele>707.6666666666666</ele><time>2026-04-04T10:41:06.514Z</time></trkpt><trkpt lat="44.5275789" lon="8.5329037"><ele>707.0</ele><time>2026-04-04T10:41:07.514Z</time></trkpt><trkpt lat="44.5273987" lon="8.5328174"><ele>707.0</ele><time>2026-04-04T10:41:08.516Z</time></trkpt><trkpt lat="44.5272025" lon="8.532703"><ele>707.0</ele><time>2026-04-04T10:41:09.513Z</time></trkpt><trkpt lat="44.5270115" lon="8.5325757"><ele>707.0</ele><time>2026-04-04T10:41:10.506Z</time></trkpt><trkpt lat="44.5268423" lon="8.5324429"><ele>703.0</ele><time>2026-04-04T10:41:11.511Z</time></trkpt><trkpt lat="44.5266915" lon="8.5323118"><ele>699.0</ele><time>2026-04-04T10:41:12.515Z</time></trkpt><trkpt lat="44.5265404" lon="8.5321994"><ele>695.0</ele><time>2026-04-04T10:41:13.511Z</time></trkpt><trkpt lat="44.5263667" lon="8.5321193"><ele>693.0</ele><time>2026-04-04T10:41:14.508Z</time></trkpt><trkpt lat="44.5259658" lon="8.5320095"><ele>691.0</ele><time>2026-04-04T10:41:16.511Z</time></trkpt><trkpt lat="44.5257908" lon="8.5319639"><ele>691.0</ele><time>2026-04-04T10:41:17.502Z</time></trkpt><trkpt lat="44.5256348" lon="8.5319296"><ele>691.0</ele><time>2026-04-04T10:41:18.513Z</time></trkpt><trkpt lat="44.5254919" lon="8.5319178"><ele>691.0</ele><time>2026-04-04T10:41:19.511Z</time></trkpt><trkpt lat="44.5253464" lon="8.5319258"><ele>691.0</ele><time>2026-04-04T10:41:20.506Z</time></trkpt><trkpt lat="44.5251933" lon="8.5319713"><ele>690.25</ele><time>2026-04-04T10:41:21.509Z</time></trkpt><trkpt lat="44.5250446" lon="8.532019"><ele>689.5</ele><time>2026-04-04T10:41:22.513Z</time></trkpt><trkpt lat="44.5249023" lon="8.5320388"><ele>688.75</ele><time>2026-04-04T10:41:23.512Z</time></trkpt><trkpt lat="44.5247586" lon="8.5320237"><ele>688.0</ele><time>2026-04-04T10:41:24.509Z</time></trkpt><trkpt lat="44.524622" lon="8.5319917"><ele>687.8</ele><time>2026-04-04T10:41:25.505Z</time></trkpt><trkpt lat="44.5245028" lon="8.5319664"><ele>687.5999999999999</ele><time>2026-04-04T10:41:26.508Z</time></trkpt><trkpt lat="44.5243983" lon="8.5319646"><ele>687.4000000000001</ele><time>2026-04-04T10:41:27.513Z</time></trkpt><trkpt lat="44.524298" lon="8.5319978"><ele>687.2</ele><time>2026-04-04T10:41:28.505Z</time></trkpt><trkpt lat="44.5242135" lon="8.5321031"><ele>687.0</ele><time>2026-04-04T10:41:29.505Z</time></trkpt><trkpt lat="44.5241315" lon="8.5322411"><ele>687.0</ele><time>2026-04-04T10:41:30.508Z</time></trkpt><trkpt lat="44.5240581" lon="8.5323878"><ele>687.0</ele><time>2026-04-04T10:41:31.504Z</time></trkpt><trkpt lat="44.5239811" lon="8.5325171"><ele>687.0</ele><time>2026-04-04T10:41:32.513Z</time></trkpt><trkpt lat="44.5238888" lon="8.5326067"><ele>687.0</ele><time>2026-04-04T10:41:33.508Z</time></trkpt><trkpt lat="44.5237815" lon="8.5326228"><ele>683.6666666666666</ele><time>2026-04-04T10:41:34.502Z</time></trkpt><trkpt lat="44.5236651" lon="8.5325708"><ele>680.3333333333333</ele><time>2026-04-04T10:41:35.514Z</time></trkpt><trkpt lat="44.5234048" lon="8.5323645"><ele>677.0</ele><time>2026-04-04T10:41:37.508Z</time></trkpt><trkpt lat="44.5232568" lon="8.5322629"><ele>677.0</ele><time>2026-04-04T10:41:38.513Z</time></trkpt><trkpt lat="44.5230977" lon="8.5321685"><ele>677.0</ele><time>2026-04-04T10:41:39.512Z</time></trkpt><trkpt lat="44.5229311" lon="8.5320756"><ele>677.0</ele><time>2026-04-04T10:41:40.497Z</time></trkpt><trkpt lat="44.5227588" lon="8.5319797"><ele>679.0</ele><time>2026-04-04T10:41:41.51Z</time></trkpt><trkpt lat="44.5225882" lon="8.5318861"><ele>681.0</ele><time>2026-04-04T10:41:42.504Z</time></trkpt><trkpt lat="44.5224215" lon="8.5318056"><ele>683.0</ele><time>2026-04-04T10:41:43.514Z</time></trkpt><trkpt lat="44.5222578" lon="8.5317605"><ele>683.0</ele><time>2026-04-04T10:41:44.504Z</time></trkpt><trkpt lat="44.5221029" lon="8.5317479"><ele>683.0</ele><time>2026-04-04T10:41:45.5Z</time></trkpt><trkpt lat="44.5219647" lon="8.531747"><ele>683.0</ele><time>2026-04-04T10:41:46.502Z</time></trkpt><trkpt lat="44.5218409" lon="8.531727"><ele>683.0</ele><time>2026-04-04T10:41:47.5Z</time></trkpt><trkpt lat="44.5217245" lon="8.5316753"><ele>687.0</ele><time>2026-04-04T10:41:48.505Z</time></trkpt><trkpt lat="44.5216275" lon="8.5315925"><ele>691.0</ele><time>2026-04-04T10:41:49.515Z</time></trkpt><trkpt lat="44.5215453" lon="8.5315112"><ele>695.0</ele><time>2026-04-04T10:41:50.507Z</time></trkpt><trkpt lat="44.5214768" lon="8.5314897"><ele>699.0</ele><time>2026-04-04T10:41:51.507Z</time></trkpt><trkpt lat="44.5213928" lon="8.5316285"><ele>703.0</ele><time>2026-04-04T10:41:53.508Z</time></trkpt><trkpt lat="44.5213807" lon="8.5317607"><ele>703.0</ele><time>2026-04-04T10:41:54.497Z</time></trkpt><trkpt lat="44.5213875" lon="8.5319176"><ele>703.0</ele><time>2026-04-04T10:41:55.51Z</time></trkpt><trkpt lat="44.5214233" lon="8.5320906"><ele>703.0</ele><time>2026-04-04T10:41:56.518Z</time></trkpt><trkpt lat="44.5215413" lon="8.5323918"><ele>704.0</ele><time>2026-04-04T10:41:58.501Z</time></trkpt><trkpt lat="44.5216345" lon="8.5325273"><ele>705.0</ele><time>2026-04-04T10:41:59.506Z</time></trkpt><trkpt lat="44.5217269" lon="8.5326781"><ele>706.0</ele><time>2026-04-04T10:42:00.502Z</time></trkpt><trkpt lat="44.5218025" lon="8.532855"><ele>707.0</ele><time>2026-04-04T10:42:01.51Z</time></trkpt><trkpt lat="44.5218687" lon="8.5330105"><ele>708.6</ele><time>2026-04-04T10:42:02.522Z</time></trkpt><trkpt lat="44.521915" lon="8.5331295"><ele>710.2</ele><time>2026-04-04T10:42:03.509Z</time></trkpt><trkpt lat="44.5219284" lon="8.5332227"><ele>711.8</ele><time>2026-04-04T10:42:04.5Z</time></trkpt><trkpt lat="44.5218497" lon="8.5333221"><ele>713.4</ele><time>2026-04-04T10:42:06.501Z</time></trkpt><trkpt lat="44.5217529" lon="8.5331892"><ele>715.0</ele><time>2026-04-04T10:42:08.504Z</time></trkpt><trkpt lat="44.5217206" lon="8.5330695"><ele>715.0</ele><time>2026-04-04T10:42:09.514Z</time></trkpt><trkpt lat="44.5216778" lon="8.5329215"><ele>715.0</ele><time>2026-04-04T10:42:10.504Z</time></trkpt><trkpt lat="44.5216294" lon="8.5327634"><ele>715.0</ele><time>2026-04-04T10:42:11.516Z</time></trkpt><trkpt lat="44.5215582" lon="8.5326258"><ele>715.0</ele><time>2026-04-04T10:42:12.516Z</time></trkpt><trkpt lat="44.5214521" lon="8.5325252"><ele>716.0</ele><time>2026-04-04T10:42:13.508Z</time></trkpt><trkpt lat="44.5213455" lon="8.5324282"><ele>717.0</ele><time>2026-04-04T10:42:14.517Z</time></trkpt><trkpt lat="44.5212694" lon="8.532296"><ele>718.0</ele><time>2026-04-04T10:42:15.505Z</time></trkpt><trkpt lat="44.5212246" lon="8.5321262"><ele>719.0</ele><time>2026-04-04T10:42:16.499Z</time></trkpt><trkpt lat="44.5211916" lon="8.5319407"><ele>719.0</ele><time>2026-04-04T10:42:17.509Z</time></trkpt><trkpt lat="44.521105" lon="8.5316748"><ele>719.0</ele><time>2026-04-04T10:42:19.502Z</time></trkpt><trkpt lat="44.5210383" lon="8.5316322"><ele>719.0</ele><time>2026-04-04T10:42:20.506Z</time></trkpt><trkpt lat="44.5209664" lon="8.5316622"><ele>719.0</ele><time>2026-04-04T10:42:21.514Z</time></trkpt><trkpt lat="44.5208997" lon="8.5317563"><ele>719.0</ele><time>2026-04-04T10:42:22.501Z</time></trkpt><trkpt lat="44.5208127" lon="8.5318905"><ele>719.0</ele><time>2026-04-04T10:42:23.514Z</time></trkpt><trkpt lat="44.5207096" lon="8.5320178"><ele>719.0</ele><time>2026-04-04T10:42:24.51Z</time></trkpt><trkpt lat="44.5205878" lon="8.5321367"><ele>719.0</ele><time>2026-04-04T10:42:25.514Z</time></trkpt><trkpt lat="44.520466" lon="8.5322294"><ele>721.0</ele><time>2026-04-04T10:42:26.504Z</time></trkpt><trkpt lat="44.5203582" lon="8.5323146"><ele>723.0</ele><time>2026-04-04T10:42:27.514Z</time></trkpt><trkpt lat="44.5202727" lon="8.5324318"><ele>725.0</ele><time>2026-04-04T10:42:28.519Z</time></trkpt><trkpt lat="44.520217" lon="8.5325899"><ele>727.0</ele><time>2026-04-04T10:42:29.503Z</time></trkpt><trkpt lat="44.5201774" lon="8.5327742"><ele>728.0</ele><time>2026-04-04T10:42:30.512Z</time></trkpt><trkpt lat="44.5201191" lon="8.532946"><ele>729.0</ele><time>2026-04-04T10:42:31.511Z</time></trkpt><trkpt lat="44.5200253" lon="8.5330869"><ele>730.0</ele><time>2026-04-04T10:42:32.506Z</time></trkpt><trkpt lat="44.5199306" lon="8.5332101"><ele>731.0</ele><time>2026-04-04T10:42:33.511Z</time></trkpt><trkpt lat="44.5198698" lon="8.5333301"><ele>731.0</ele><time>2026-04-04T10:42:34.512Z</time></trkpt><trkpt lat="44.5198586" lon="8.5334653"><ele>731.0</ele><time>2026-04-04T10:42:35.505Z</time></trkpt><trkpt lat="44.5198833" lon="8.5336109"><ele>731.0</ele><time>2026-04-04T10:42:36.501Z</time></trkpt><trkpt lat="44.51992" lon="8.5337654"><ele>731.0</ele><time>2026-04-04T10:42:37.515Z</time></trkpt><trkpt lat="44.5199206" lon="8.5339139"><ele>731.0</ele><time>2026-04-04T10:42:38.512Z</time></trkpt><trkpt lat="44.5197863" lon="8.5341258"><ele>730.75</ele><time>2026-04-04T10:42:40.507Z</time></trkpt><trkpt lat="44.5196656" lon="8.5341747"><ele>730.5</ele><time>2026-04-04T10:42:41.506Z</time></trkpt><trkpt lat="44.5195418" lon="8.5341912"><ele>730.25</ele><time>2026-04-04T10:42:42.516Z</time></trkpt><trkpt lat="44.519429" lon="8.5342262"><ele>730.0</ele><time>2026-04-04T10:42:43.507Z</time></trkpt><trkpt lat="44.5193584" lon="8.5343269"><ele>730.0</ele><time>2026-04-04T10:42:44.509Z</time></trkpt><trkpt lat="44.5193097" lon="8.5344557"><ele>730.0</ele><time>2026-04-04T10:42:45.502Z</time></trkpt><trkpt lat="44.5193208" lon="8.5346328"><ele>730.0</ele><time>2026-04-04T10:42:46.51Z</time></trkpt><trkpt lat="44.5193563" lon="8.534848"><ele>730.0</ele><time>2026-04-04T10:42:47.512Z</time></trkpt><trkpt lat="44.519401" lon="8.5350698"><ele>730.6666666666667</ele><time>2026-04-04T10:42:48.503Z</time></trkpt><trkpt lat="44.5194331" lon="8.5352878"><ele>731.3333333333334</ele><time>2026-04-04T10:42:49.506Z</time></trkpt><trkpt lat="44.5194502" lon="8.5354982"><ele>732.0</ele><time>2026-04-04T10:42:50.505Z</time></trkpt><trkpt lat="44.5194444" lon="8.5357033"><ele>734.25</ele><time>2026-04-04T10:42:51.512Z</time></trkpt><trkpt lat="44.5194137" lon="8.5359123"><ele>736.5</ele><time>2026-04-04T10:42:52.512Z</time></trkpt><trkpt lat="44.5193718" lon="8.5361216"><ele>738.75</ele><time>2026-04-04T10:42:53.505Z</time></trkpt><trkpt lat="44.5193257" lon="8.5363089"><ele>741.0</ele><time>2026-04-04T10:42:54.506Z</time></trkpt><trkpt lat="44.5192698" lon="8.5364701"><ele>742.25</ele><time>2026-04-04T10:42:55.513Z</time></trkpt><trkpt lat="44.5192006" lon="8.5365968"><ele>743.5</ele><time>2026-04-04T10:42:56.502Z</time></trkpt><trkpt lat="44.519124" lon="8.5366907"><ele>744.75</ele><time>2026-04-04T10:42:57.519Z</time></trkpt><trkpt lat="44.5190111" lon="8.5367055"><ele>746.0</ele><time>2026-04-04T10:42:58.511Z</time></trkpt><trkpt lat="44.5188862" lon="8.536689"><ele>749.5</ele><time>2026-04-04T10:42:59.511Z</time></trkpt><trkpt lat="44.5186584" lon="8.5366583"><ele>753.0</ele><time>2026-04-04T10:43:01.513Z</time></trkpt><trkpt lat="44.5185627" lon="8.5365974"><ele>756.5</ele><time>2026-04-04T10:43:02.509Z</time></trkpt><trkpt lat="44.5184918" lon="8.5364806"><ele>760.0</ele><time>2026-04-04T10:43:03.506Z</time></trkpt><trkpt lat="44.518451" lon="8.5363121"><ele>758.4</ele><time>2026-04-04T10:43:04.512Z</time></trkpt><trkpt lat="44.5184287" lon="8.5361542"><ele>756.8</ele><time>2026-04-04T10:43:05.517Z</time></trkpt><trkpt lat="44.5183759" lon="8.536034"><ele>755.2</ele><time>2026-04-04T10:43:06.523Z</time></trkpt><trkpt lat="44.518286" lon="8.5359573"><ele>753.6</ele><time>2026-04-04T10:43:07.526Z</time></trkpt><trkpt lat="44.5181752" lon="8.5359376"><ele>752.0</ele><time>2026-04-04T10:43:08.514Z</time></trkpt><trkpt lat="44.5180682" lon="8.5359638"><ele>752.0</ele><time>2026-04-04T10:43:09.501Z</time></trkpt><trkpt lat="44.5179763" lon="8.5360262"><ele>752.0</ele><time>2026-04-04T10:43:10.518Z</time></trkpt><trkpt lat="44.5178988" lon="8.5361625"><ele>752.0</ele><time>2026-04-04T10:43:11.518Z</time></trkpt><trkpt lat="44.5178269" lon="8.5363471"><ele>752.0</ele><time>2026-04-04T10:43:12.506Z</time></trkpt><trkpt lat="44.5177667" lon="8.5365189"><ele>753.5</ele><time>2026-04-04T10:43:13.511Z</time></trkpt><trkpt lat="44.5177387" lon="8.536693"><ele>755.0</ele><time>2026-04-04T10:43:14.511Z</time></trkpt><trkpt lat="44.5177182" lon="8.5368752"><ele>756.5</ele><time>2026-04-04T10:43:15.508Z</time></trkpt><trkpt lat="44.5177364" lon="8.5370702"><ele>758.0</ele><time>2026-04-04T10:43:16.514Z</time></trkpt><trkpt lat="44.5177525" lon="8.5372457"><ele>758.25</ele><time>2026-04-04T10:43:17.509Z</time></trkpt><trkpt lat="44.5177359" lon="8.5374073"><ele>758.5</ele><time>2026-04-04T10:43:18.51Z</time></trkpt><trkpt lat="44.5176748" lon="8.5375715"><ele>758.75</ele><time>2026-04-04T10:43:19.522Z</time></trkpt><trkpt lat="44.5175831" lon="8.5377109"><ele>759.0</ele><time>2026-04-04T10:43:20.516Z</time></trkpt><trkpt lat="44.5173341" lon="8.538005"><ele>760.6666666666666</ele><time>2026-04-04T10:43:22.517Z</time></trkpt><trkpt lat="44.5172021" lon="8.5381551"><ele>762.3333333333333</ele><time>2026-04-04T10:43:23.525Z</time></trkpt><trkpt lat="44.5170808" lon="8.5382977"><ele>764.0</ele><time>2026-04-04T10:43:24.522Z</time></trkpt><trkpt lat="44.5169682" lon="8.5384291"><ele>763.5</ele><time>2026-04-04T10:43:25.507Z</time></trkpt><trkpt lat="44.5168569" lon="8.5385483"><ele>763.0</ele><time>2026-04-04T10:43:26.509Z</time></trkpt><trkpt lat="44.5167338" lon="8.5386528"><ele>762.5</ele><time>2026-04-04T10:43:27.516Z</time></trkpt><trkpt lat="44.5165881" lon="8.538724"><ele>762.0</ele><time>2026-04-04T10:43:28.51Z</time></trkpt><trkpt lat="44.5164404" lon="8.5387698"><ele>762.0</ele><time>2026-04-04T10:43:29.508Z</time></trkpt><trkpt lat="44.5163082" lon="8.5388056"><ele>762.0</ele><time>2026-04-04T10:43:30.515Z</time></trkpt><trkpt lat="44.5162006" lon="8.5388494"><ele>762.0</ele><time>2026-04-04T10:43:31.505Z</time></trkpt><trkpt lat="44.5161189" lon="8.5389169"><ele>762.0</ele><time>2026-04-04T10:43:32.502Z</time></trkpt><trkpt lat="44.5160718" lon="8.5390147"><ele>762.0</ele><time>2026-04-04T10:43:33.505Z</time></trkpt><trkpt lat="44.5160616" lon="8.5391369"><ele>760.0</ele><time>2026-04-04T10:43:34.504Z</time></trkpt><trkpt lat="44.5160863" lon="8.539277"><ele>758.0</ele><time>2026-04-04T10:43:35.508Z</time></trkpt><trkpt lat="44.5161043" lon="8.539438"><ele>756.0</ele><time>2026-04-04T10:43:36.511Z</time></trkpt><trkpt lat="44.5160963" lon="8.5396169"><ele>754.0</ele><time>2026-04-04T10:43:37.51Z</time></trkpt><trkpt lat="44.5160578" lon="8.539801"><ele>754.0</ele><time>2026-04-04T10:43:38.509Z</time></trkpt><trkpt lat="44.5159916" lon="8.5399757"><ele>754.0</ele><time>2026-04-04T10:43:39.506Z</time></trkpt><trkpt lat="44.5158966" lon="8.5401274"><ele>754.0</ele><time>2026-04-04T10:43:40.509Z</time></trkpt><trkpt lat="44.5158005" lon="8.5402583"><ele>754.0</ele><time>2026-04-04T10:43:41.512Z</time></trkpt><trkpt lat="44.5155854" lon="8.5404284"><ele>753.25</ele><time>2026-04-04T10:43:43.506Z</time></trkpt><trkpt lat="44.5154515" lon="8.5404513"><ele>752.5</ele><time>2026-04-04T10:43:44.508Z</time></trkpt><trkpt lat="44.5153029" lon="8.5404357"><ele>751.75</ele><time>2026-04-04T10:43:45.508Z</time></trkpt><trkpt lat="44.5151459" lon="8.5403826"><ele>751.0</ele><time>2026-04-04T10:43:46.503Z</time></trkpt><trkpt lat="44.5149815" lon="8.5403082"><ele>750.3333333333334</ele><time>2026-04-04T10:43:47.507Z</time></trkpt><trkpt lat="44.5148108" lon="8.5402286"><ele>749.6666666666666</ele><time>2026-04-04T10:43:48.508Z</time></trkpt><trkpt lat="44.5146414" lon="8.5401511"><ele>749.0</ele><time>2026-04-04T10:43:49.509Z</time></trkpt><trkpt lat="44.5144833" lon="8.5400832"><ele>748.75</ele><time>2026-04-04T10:43:50.51Z</time></trkpt><trkpt lat="44.5143377" lon="8.5400257"><ele>748.5</ele><time>2026-04-04T10:43:51.506Z</time></trkpt><trkpt lat="44.5142026" lon="8.539971"><ele>748.25</ele><time>2026-04-04T10:43:52.506Z</time></trkpt><trkpt lat="44.5140795" lon="8.5399061"><ele>748.0</ele><time>2026-04-04T10:43:53.512Z</time></trkpt><trkpt lat="44.51398" lon="8.5397952"><ele>748.0</ele><time>2026-04-04T10:43:54.511Z</time></trkpt><trkpt lat="44.5138912" lon="8.5396449"><ele>748.0</ele><time>2026-04-04T10:43:55.512Z</time></trkpt><trkpt lat="44.5138083" lon="8.5394592"><ele>748.0</ele><time>2026-04-04T10:43:56.517Z</time></trkpt><trkpt lat="44.5137062" lon="8.539275"><ele>746.0</ele><time>2026-04-04T10:43:57.505Z</time></trkpt><trkpt lat="44.5135719" lon="8.5391028"><ele>744.0</ele><time>2026-04-04T10:43:58.512Z</time></trkpt><trkpt lat="44.5134203" lon="8.5389433"><ele>742.0</ele><time>2026-04-04T10:43:59.513Z</time></trkpt><trkpt lat="44.5132725" lon="8.5387918"><ele>740.3333333333334</ele><time>2026-04-04T10:44:00.512Z</time></trkpt><trkpt lat="44.5131403" lon="8.5386525"><ele>738.6666666666666</ele><time>2026-04-04T10:44:01.509Z</time></trkpt><trkpt lat="44.5130185" lon="8.5385293"><ele>737.0</ele><time>2026-04-04T10:44:02.503Z</time></trkpt><trkpt lat="44.5127583" lon="8.5383754"><ele>737.0</ele><time>2026-04-04T10:44:04.504Z</time></trkpt><trkpt lat="44.5125962" lon="8.5383722"><ele>737.0</ele><time>2026-04-04T10:44:05.507Z</time></trkpt><trkpt lat="44.5124168" lon="8.5384154"><ele>737.0</ele><time>2026-04-04T10:44:06.505Z</time></trkpt><trkpt lat="44.5122264" lon="8.5384804"><ele>736.6666666666666</ele><time>2026-04-04T10:44:07.504Z</time></trkpt><trkpt lat="44.5120235" lon="8.5385417"><ele>736.3333333333334</ele><time>2026-04-04T10:44:08.517Z</time></trkpt><trkpt lat="44.5118287" lon="8.5385803"><ele>736.0</ele><time>2026-04-04T10:44:09.511Z</time></trkpt><trkpt lat="44.5116489" lon="8.5385985"><ele>736.0</ele><time>2026-04-04T10:44:10.505Z</time></trkpt><trkpt lat="44.5114744" lon="8.5386266"><ele>736.0</ele><time>2026-04-04T10:44:11.51Z</time></trkpt><trkpt lat="44.5113091" lon="8.538687"><ele>736.0</ele><time>2026-04-04T10:44:12.503Z</time></trkpt><trkpt lat="44.5111643" lon="8.5387761"><ele>737.0</ele><time>2026-04-04T10:44:13.522Z</time></trkpt><trkpt lat="44.5110344" lon="8.5388682"><ele>738.0</ele><time>2026-04-04T10:44:14.505Z</time></trkpt><trkpt lat="44.5108864" lon="8.5389249"><ele>739.0</ele><time>2026-04-04T10:44:15.502Z</time></trkpt><trkpt lat="44.5107168" lon="8.5389584"><ele>739.0</ele><time>2026-04-04T10:44:16.508Z</time></trkpt><trkpt lat="44.510553" lon="8.5389732"><ele>739.0</ele><time>2026-04-04T10:44:17.506Z</time></trkpt><trkpt lat="44.5104017" lon="8.5389858"><ele>739.0</ele><time>2026-04-04T10:44:18.502Z</time></trkpt><trkpt lat="44.5102502" lon="8.5389966"><ele>738.0</ele><time>2026-04-04T10:44:19.516Z</time></trkpt><trkpt lat="44.5101017" lon="8.5390083"><ele>737.0</ele><time>2026-04-04T10:44:20.51Z</time></trkpt><trkpt lat="44.5099548" lon="8.5390277"><ele>736.0</ele><time>2026-04-04T10:44:21.504Z</time></trkpt><trkpt lat="44.5098025" lon="8.5390578"><ele>736.0</ele><time>2026-04-04T10:44:22.504Z</time></trkpt><trkpt lat="44.5096442" lon="8.539101"><ele>736.0</ele><time>2026-04-04T10:44:23.509Z</time></trkpt><trkpt lat="44.5093378" lon="8.5392129"><ele>734.75</ele><time>2026-04-04T10:44:25.509Z</time></trkpt><trkpt lat="44.5091945" lon="8.5392564"><ele>733.5</ele><time>2026-04-04T10:44:26.504Z</time></trkpt><trkpt lat="44.5090539" lon="8.5392744"><ele>732.25</ele><time>2026-04-04T10:44:27.51Z</time></trkpt><trkpt lat="44.5089173" lon="8.5392616"><ele>731.0</ele><time>2026-04-04T10:44:28.507Z</time></trkpt><trkpt lat="44.5087811" lon="8.5392142"><ele>728.3333333333333</ele><time>2026-04-04T10:44:29.51Z</time></trkpt><trkpt lat="44.5086432" lon="8.5391339"><ele>725.6666666666666</ele><time>2026-04-04T10:44:30.519Z</time></trkpt><trkpt lat="44.5085059" lon="8.53902"><ele>723.0</ele><time>2026-04-04T10:44:31.507Z</time></trkpt><trkpt lat="44.508367" lon="8.5388829"><ele>723.0</ele><time>2026-04-04T10:44:32.51Z</time></trkpt><trkpt lat="44.5082279" lon="8.5387275"><ele>723.0</ele><time>2026-04-04T10:44:33.506Z</time></trkpt><trkpt lat="44.5080895" lon="8.5385685"><ele>723.0</ele><time>2026-04-04T10:44:34.508Z</time></trkpt><trkpt lat="44.5079545" lon="8.5384016"><ele>719.0</ele><time>2026-04-04T10:44:35.521Z</time></trkpt><trkpt lat="44.5078299" lon="8.5382228"><ele>715.0</ele><time>2026-04-04T10:44:36.515Z</time></trkpt><trkpt lat="44.5077174" lon="8.5380305"><ele>711.0</ele><time>2026-04-04T10:44:37.511Z</time></trkpt><trkpt lat="44.5076156" lon="8.5378346"><ele>710.3333333333334</ele><time>2026-04-04T10:44:38.519Z</time></trkpt><trkpt lat="44.5075249" lon="8.5376464"><ele>709.6666666666667</ele><time>2026-04-04T10:44:39.516Z</time></trkpt><trkpt lat="44.5074414" lon="8.5374696"><ele>709.0</ele><time>2026-04-04T10:44:40.516Z</time></trkpt><trkpt lat="44.50736" lon="8.5373053"><ele>709.0</ele><time>2026-04-04T10:44:41.504Z</time></trkpt><trkpt lat="44.5072732" lon="8.5371549"><ele>709.0</ele><time>2026-04-04T10:44:42.512Z</time></trkpt><trkpt lat="44.5071722" lon="8.5370221"><ele>709.0</ele><time>2026-04-04T10:44:43.51Z</time></trkpt><trkpt lat="44.507055" lon="8.5369091"><ele>709.0</ele><time>2026-04-04T10:44:44.511Z</time></trkpt><trkpt lat="44.5067966" lon="8.5367758"><ele>707.5</ele><time>2026-04-04T10:44:46.507Z</time></trkpt><trkpt lat="44.5066682" lon="8.53674"><ele>706.0</ele><time>2026-04-04T10:44:47.507Z</time></trkpt><trkpt lat="44.5065473" lon="8.5366904"><ele>704.5</ele><time>2026-04-04T10:44:48.503Z</time></trkpt><trkpt lat="44.5064354" lon="8.5366099"><ele>703.0</ele><time>2026-04-04T10:44:49.509Z</time></trkpt><trkpt lat="44.5063324" lon="8.5364878"><ele>700.75</ele><time>2026-04-04T10:44:50.508Z</time></trkpt><trkpt lat="44.5062378" lon="8.536328"><ele>698.5</ele><time>2026-04-04T10:44:51.504Z</time></trkpt><trkpt lat="44.5061505" lon="8.5361535"><ele>696.25</ele><time>2026-04-04T10:44:52.508Z</time></trkpt><trkpt lat="44.5060687" lon="8.5359875"><ele>694.0</ele><time>2026-04-04T10:44:53.508Z</time></trkpt><trkpt lat="44.5059877" lon="8.5358363"><ele>694.0</ele><time>2026-04-04T10:44:54.506Z</time></trkpt><trkpt lat="44.505897" lon="8.535713"><ele>694.0</ele><time>2026-04-04T10:44:55.505Z</time></trkpt><trkpt lat="44.5057941" lon="8.5356281"><ele>694.0</ele><time>2026-04-04T10:44:56.509Z</time></trkpt><trkpt lat="44.5056787" lon="8.5355783"><ele>694.0</ele><time>2026-04-04T10:44:57.505Z</time></trkpt><trkpt lat="44.5055447" lon="8.5355864"><ele>691.6666666666667</ele><time>2026-04-04T10:44:58.507Z</time></trkpt><trkpt lat="44.5054041" lon="8.5356482"><ele>689.3333333333334</ele><time>2026-04-04T10:44:59.515Z</time></trkpt><trkpt lat="44.5052549" lon="8.5357351"><ele>687.0</ele><time>2026-04-04T10:45:00.51Z</time></trkpt><trkpt lat="44.5050994" lon="8.535814"><ele>687.0</ele><time>2026-04-04T10:45:01.498Z</time></trkpt><trkpt lat="44.504949" lon="8.5358816"><ele>687.0</ele><time>2026-04-04T10:45:02.513Z</time></trkpt><trkpt lat="44.5048054" lon="8.5359479"><ele>687.0</ele><time>2026-04-04T10:45:03.505Z</time></trkpt><trkpt lat="44.5046664" lon="8.5360127"><ele>683.0</ele><time>2026-04-04T10:45:04.504Z</time></trkpt><trkpt lat="44.5045357" lon="8.5360728"><ele>679.0</ele><time>2026-04-04T10:45:05.505Z</time></trkpt><trkpt lat="44.5043205" lon="8.5362005"><ele>675.0</ele><time>2026-04-04T10:45:07.517Z</time></trkpt><trkpt lat="44.5042475" lon="8.5363052"><ele>675.0</ele><time>2026-04-04T10:45:08.511Z</time></trkpt><trkpt lat="44.5042028" lon="8.5364499"><ele>675.0</ele><time>2026-04-04T10:45:09.501Z</time></trkpt><trkpt lat="44.5041746" lon="8.5366118"><ele>675.0</ele><time>2026-04-04T10:45:10.514Z</time></trkpt><trkpt lat="44.5041495" lon="8.5367602"><ele>675.0</ele><time>2026-04-04T10:45:11.504Z</time></trkpt><trkpt lat="44.5041153" lon="8.5368903"><ele>675.0</ele><time>2026-04-04T10:45:12.501Z</time></trkpt><trkpt lat="44.5040592" lon="8.5369876"><ele>675.0</ele><time>2026-04-04T10:45:13.512Z</time></trkpt><trkpt lat="44.5039822" lon="8.5370373"><ele>675.0</ele><time>2026-04-04T10:45:14.504Z</time></trkpt><trkpt lat="44.5038874" lon="8.5370414"><ele>675.0</ele><time>2026-04-04T10:45:15.5Z</time></trkpt><trkpt lat="44.503783" lon="8.5370142"><ele>675.0</ele><time>2026-04-04T10:45:16.5Z</time></trkpt><trkpt lat="44.50368" lon="8.5370157"><ele>675.0</ele><time>2026-04-04T10:45:17.501Z</time></trkpt><trkpt lat="44.5035906" lon="8.537064"><ele>669.75</ele><time>2026-04-04T10:45:18.508Z</time></trkpt><trkpt lat="44.5035241" lon="8.5371547"><ele>664.5</ele><time>2026-04-04T10:45:19.513Z</time></trkpt><trkpt lat="44.5034818" lon="8.5372934"><ele>659.25</ele><time>2026-04-04T10:45:20.508Z</time></trkpt><trkpt lat="44.503466" lon="8.5374921"><ele>654.0</ele><time>2026-04-04T10:45:21.504Z</time></trkpt><trkpt lat="44.5034601" lon="8.5377073"><ele>652.6666666666666</ele><time>2026-04-04T10:45:22.501Z</time></trkpt><trkpt lat="44.5034371" lon="8.5379363"><ele>651.3333333333333</ele><time>2026-04-04T10:45:23.509Z</time></trkpt><trkpt lat="44.5033988" lon="8.5381737"><ele>650.0</ele><time>2026-04-04T10:45:24.505Z</time></trkpt><trkpt lat="44.5033516" lon="8.5384294"><ele>650.0</ele><time>2026-04-04T10:45:25.505Z</time></trkpt><trkpt lat="44.5033102" lon="8.5386961"><ele>650.0</ele><time>2026-04-04T10:45:26.519Z</time></trkpt><trkpt lat="44.5032571" lon="8.5392047"><ele>649.3333333333333</ele><time>2026-04-04T10:45:28.505Z</time></trkpt><trkpt lat="44.5032343" lon="8.539455"><ele>648.6666666666666</ele><time>2026-04-04T10:45:29.515Z</time></trkpt><trkpt lat="44.5032096" lon="8.539704"><ele>648.0</ele><time>2026-04-04T10:45:30.511Z</time></trkpt><trkpt lat="44.5031814" lon="8.539953"><ele>647.6666666666666</ele><time>2026-04-04T10:45:31.507Z</time></trkpt><trkpt lat="44.5031486" lon="8.5402027"><ele>647.3333333333333</ele><time>2026-04-04T10:45:32.508Z</time></trkpt><trkpt lat="44.5031081" lon="8.5404579"><ele>647.0</ele><time>2026-04-04T10:45:33.506Z</time></trkpt><trkpt lat="44.5030512" lon="8.5407262"><ele>646.6666666666666</ele><time>2026-04-04T10:45:34.508Z</time></trkpt><trkpt lat="44.5029787" lon="8.541003"><ele>646.3333333333334</ele><time>2026-04-04T10:45:35.511Z</time></trkpt><trkpt lat="44.502903" lon="8.5412692"><ele>646.0</ele><time>2026-04-04T10:45:36.507Z</time></trkpt><trkpt lat="44.5028334" lon="8.5415249"><ele>636.6666666666667</ele><time>2026-04-04T10:45:37.504Z</time></trkpt><trkpt lat="44.5027714" lon="8.5417809"><ele>627.3333333333334</ele><time>2026-04-04T10:45:38.505Z</time></trkpt><trkpt lat="44.5027149" lon="8.5420331"><ele>618.0</ele><time>2026-04-04T10:45:39.516Z</time></trkpt><trkpt lat="44.502662" lon="8.5422739"><ele>618.0</ele><time>2026-04-04T10:45:40.507Z</time></trkpt><trkpt lat="44.5026104" lon="8.5425056"><ele>618.0</ele><time>2026-04-04T10:45:41.506Z</time></trkpt><trkpt lat="44.5025551" lon="8.5427274"><ele>618.0</ele><time>2026-04-04T10:45:42.51Z</time></trkpt><trkpt lat="44.5024875" lon="8.5429335"><ele>621.3333333333334</ele><time>2026-04-04T10:45:43.513Z</time></trkpt><trkpt lat="44.5024061" lon="8.5431233"><ele>624.6666666666667</ele><time>2026-04-04T10:45:44.51Z</time></trkpt><trkpt lat="44.5023094" lon="8.5432958"><ele>628.0</ele><time>2026-04-04T10:45:45.505Z</time></trkpt><trkpt lat="44.5021973" lon="8.5434499"><ele>624.3333333333334</ele><time>2026-04-04T10:45:46.508Z</time></trkpt><trkpt lat="44.5020761" lon="8.5435777"><ele>620.6666666666666</ele><time>2026-04-04T10:45:47.509Z</time></trkpt><trkpt lat="44.5018225" lon="8.5437054"><ele>617.0</ele><time>2026-04-04T10:45:49.505Z</time></trkpt><trkpt lat="44.5016975" lon="8.5437414"><ele>617.0</ele><time>2026-04-04T10:45:50.513Z</time></trkpt><trkpt lat="44.5015799" lon="8.543772"><ele>617.0</ele><time>2026-04-04T10:45:51.523Z</time></trkpt><trkpt lat="44.5014575" lon="8.5438914"><ele>617.0</ele><time>2026-04-04T10:45:52.511Z</time></trkpt><trkpt lat="44.5013266" lon="8.544056"><ele>617.0</ele><time>2026-04-04T10:45:53.513Z</time></trkpt><trkpt lat="44.501186" lon="8.5442513"><ele>611.3333333333333</ele><time>2026-04-04T10:45:54.52Z</time></trkpt><trkpt lat="44.5010206" lon="8.544443"><ele>605.6666666666666</ele><time>2026-04-04T10:45:55.509Z</time></trkpt><trkpt lat="44.5008407" lon="8.5446342"><ele>600.0</ele><time>2026-04-04T10:45:56.513Z</time></trkpt><trkpt lat="44.500657" lon="8.5448213"><ele>600.0</ele><time>2026-04-04T10:45:57.514Z</time></trkpt><trkpt lat="44.5004785" lon="8.5450014"><ele>600.0</ele><time>2026-04-04T10:45:58.52Z</time></trkpt><trkpt lat="44.5003216" lon="8.5451772"><ele>600.0</ele><time>2026-04-04T10:45:59.513Z</time></trkpt><trkpt lat="44.500191" lon="8.5453525"><ele>599.75</ele><time>2026-04-04T10:46:00.514Z</time></trkpt><trkpt lat="44.5000824" lon="8.5455178"><ele>599.5</ele><time>2026-04-04T10:46:01.509Z</time></trkpt><trkpt lat="44.4999789" lon="8.5456557"><ele>599.25</ele><time>2026-04-04T10:46:02.512Z</time></trkpt><trkpt lat="44.4998677" lon="8.5457563"><ele>599.0</ele><time>2026-04-04T10:46:03.501Z</time></trkpt><trkpt lat="44.4997431" lon="8.5458258"><ele>599.0</ele><time>2026-04-04T10:46:04.503Z</time></trkpt><trkpt lat="44.4996079" lon="8.545853"><ele>599.0</ele><time>2026-04-04T10:46:05.524Z</time></trkpt><trkpt lat="44.4994662" lon="8.5458399"><ele>599.0</ele><time>2026-04-04T10:46:06.512Z</time></trkpt><trkpt lat="44.4993166" lon="8.5457732"><ele>599.0</ele><time>2026-04-04T10:46:07.509Z</time></trkpt><trkpt lat="44.4991567" lon="8.545675"><ele>599.5</ele><time>2026-04-04T10:46:08.508Z</time></trkpt><trkpt lat="44.4988416" lon="8.545475"><ele>600.0</ele><time>2026-04-04T10:46:10.512Z</time></trkpt><trkpt lat="44.4987057" lon="8.5453944"><ele>600.0</ele><time>2026-04-04T10:46:11.511Z</time></trkpt><trkpt lat="44.4985715" lon="8.5453396"><ele>600.0</ele><time>2026-04-04T10:46:12.502Z</time></trkpt><trkpt lat="44.4984355" lon="8.5453245"><ele>600.0</ele><time>2026-04-04T10:46:13.514Z</time></trkpt><trkpt lat="44.4983085" lon="8.5453514"><ele>600.0</ele><time>2026-04-04T10:46:14.516Z</time></trkpt><trkpt lat="44.4981906" lon="8.5453991"><ele>600.0</ele><time>2026-04-04T10:46:15.511Z</time></trkpt><trkpt lat="44.4980856" lon="8.5454543"><ele>600.0</ele><time>2026-04-04T10:46:16.507Z</time></trkpt><trkpt lat="44.4979886" lon="8.5455018"><ele>600.0</ele><time>2026-04-04T10:46:17.51Z</time></trkpt><trkpt lat="44.4979093" lon="8.545535"><ele>600.0</ele><time>2026-04-04T10:46:18.513Z</time></trkpt><trkpt lat="44.4978111" lon="8.5455608"><ele>600.0</ele><time>2026-04-04T10:46:20.501Z</time></trkpt><trkpt lat="44.4977326" lon="8.5455541"><ele>599.5</ele><time>2026-04-04T10:46:33.507Z</time></trkpt><trkpt lat="44.4975642" lon="8.5456396"><ele>599.0</ele><time>2026-04-04T10:46:35.506Z</time></trkpt><trkpt lat="44.4974545" lon="8.5456909"><ele>598.5</ele><time>2026-04-04T10:46:36.51Z</time></trkpt><trkpt lat="44.4973339" lon="8.545731"><ele>598.0</ele><time>2026-04-04T10:46:37.506Z</time></trkpt><trkpt lat="44.4972065" lon="8.5457457"><ele>599.75</ele><time>2026-04-04T10:46:38.51Z</time></trkpt><trkpt lat="44.4970781" lon="8.5457172"><ele>601.5</ele><time>2026-04-04T10:46:39.502Z</time></trkpt><trkpt lat="44.4969505" lon="8.5456411"><ele>603.25</ele><time>2026-04-04T10:46:40.511Z</time></trkpt><trkpt lat="44.4968297" lon="8.5455439"><ele>605.0</ele><time>2026-04-04T10:46:41.509Z</time></trkpt><trkpt lat="44.4967203" lon="8.5454455"><ele>605.0</ele><time>2026-04-04T10:46:42.51Z</time></trkpt><trkpt lat="44.4966154" lon="8.5453876"><ele>605.0</ele><time>2026-04-04T10:46:43.502Z</time></trkpt><trkpt lat="44.4965149" lon="8.5453972"><ele>605.0</ele><time>2026-04-04T10:46:44.515Z</time></trkpt><trkpt lat="44.4964268" lon="8.5454696"><ele>605.0</ele><time>2026-04-04T10:46:45.52Z</time></trkpt><trkpt lat="44.4963742" lon="8.545605"><ele>605.0</ele><time>2026-04-04T10:46:46.51Z</time></trkpt><trkpt lat="44.496356" lon="8.5458194"><ele>605.0</ele><time>2026-04-04T10:46:47.511Z</time></trkpt><trkpt lat="44.4963645" lon="8.5460273"><ele>605.0</ele><time>2026-04-04T10:46:48.522Z</time></trkpt><trkpt lat="44.4963705" lon="8.5462505"><ele>605.0</ele><time>2026-04-04T10:46:49.53Z</time></trkpt><trkpt lat="44.4963742" lon="8.5464822"><ele>605.0</ele><time>2026-04-04T10:46:50.524Z</time></trkpt><trkpt lat="44.4963768" lon="8.5467139"><ele>605.0</ele><time>2026-04-04T10:46:51.524Z</time></trkpt><trkpt lat="44.4963731" lon="8.5469266"><ele>605.0</ele><time>2026-04-04T10:46:52.519Z</time></trkpt><trkpt lat="44.4963515" lon="8.5471192"><ele>605.0</ele><time>2026-04-04T10:46:53.512Z</time></trkpt><trkpt lat="44.4963017" lon="8.5472996"><ele>605.0</ele><time>2026-04-04T10:46:54.505Z</time></trkpt><trkpt lat="44.4960828" lon="8.5476166"><ele>608.6666666666666</ele><time>2026-04-04T10:46:56.521Z</time></trkpt><trkpt lat="44.4959423" lon="8.5477755"><ele>612.3333333333334</ele><time>2026-04-04T10:46:57.508Z</time></trkpt><trkpt lat="44.495785" lon="8.5479294"><ele>616.0</ele><time>2026-04-04T10:46:58.512Z</time></trkpt><trkpt lat="44.4956444" lon="8.5480677"><ele>616.0</ele><time>2026-04-04T10:46:59.514Z</time></trkpt><trkpt lat="44.4955264" lon="8.5481811"><ele>616.0</ele><time>2026-04-04T10:47:00.501Z</time></trkpt><trkpt lat="44.4954177" lon="8.548259"><ele>616.0</ele><time>2026-04-04T10:47:01.516Z</time></trkpt><trkpt lat="44.4953079" lon="8.5482978"><ele>616.0</ele><time>2026-04-04T10:47:02.514Z</time></trkpt><trkpt lat="44.4951899" lon="8.5482856"><ele>616.6666666666667</ele><time>2026-04-04T10:47:03.512Z</time></trkpt><trkpt lat="44.4950728" lon="8.5482173"><ele>617.3333333333334</ele><time>2026-04-04T10:47:04.51Z</time></trkpt><trkpt lat="44.4949435" lon="8.5480654"><ele>618.0</ele><time>2026-04-04T10:47:05.514Z</time></trkpt><trkpt lat="44.4948061" lon="8.5479118"><ele>617.3333333333334</ele><time>2026-04-04T10:47:06.514Z</time></trkpt><trkpt lat="44.4946526" lon="8.5477555"><ele>616.6666666666667</ele><time>2026-04-04T10:47:07.515Z</time></trkpt><trkpt lat="44.4945018" lon="8.5476035"><ele>616.0</ele><time>2026-04-04T10:47:08.515Z</time></trkpt><trkpt lat="44.4943598" lon="8.5474624"><ele>616.0</ele><time>2026-04-04T10:47:09.511Z</time></trkpt><trkpt lat="44.4942374" lon="8.5473311"><ele>616.0</ele><time>2026-04-04T10:47:10.517Z</time></trkpt><trkpt lat="44.4941138" lon="8.5472111"><ele>616.0</ele><time>2026-04-04T10:47:11.508Z</time></trkpt><trkpt lat="44.4939936" lon="8.5470978"><ele>616.0</ele><time>2026-04-04T10:47:12.504Z</time></trkpt><trkpt lat="44.4938765" lon="8.5470067"><ele>616.0</ele><time>2026-04-04T10:47:13.508Z</time></trkpt><trkpt lat="44.4937553" lon="8.5469586"><ele>616.0</ele><time>2026-04-04T10:47:14.509Z</time></trkpt><trkpt lat="44.4936234" lon="8.546972"><ele>616.0</ele><time>2026-04-04T10:47:15.518Z</time></trkpt><trkpt lat="44.4933594" lon="8.5471981"><ele>615.3333333333334</ele><time>2026-04-04T10:47:17.509Z</time></trkpt><trkpt lat="44.4932157" lon="8.5473164"><ele>614.6666666666666</ele><time>2026-04-04T10:47:18.515Z</time></trkpt><trkpt lat="44.4930668" lon="8.5474155"><ele>614.0</ele><time>2026-04-04T10:47:19.513Z</time></trkpt><trkpt lat="44.4929094" lon="8.5474676"><ele>616.0</ele><time>2026-04-04T10:47:20.506Z</time></trkpt><trkpt lat="44.492754" lon="8.5474805"><ele>618.0</ele><time>2026-04-04T10:47:21.507Z</time></trkpt><trkpt lat="44.4926054" lon="8.5474665"><ele>620.0</ele><time>2026-04-04T10:47:22.523Z</time></trkpt><trkpt lat="44.4924627" lon="8.5473985"><ele>620.0</ele><time>2026-04-04T10:47:23.506Z</time></trkpt><trkpt lat="44.4923269" lon="8.5472787"><ele>620.0</ele><time>2026-04-04T10:47:24.503Z</time></trkpt><trkpt lat="44.4921977" lon="8.5471033"><ele>620.0</ele><time>2026-04-04T10:47:25.507Z</time></trkpt><trkpt lat="44.4920655" lon="8.5469484"><ele>622.75</ele><time>2026-04-04T10:47:26.502Z</time></trkpt><trkpt lat="44.491926" lon="8.5468322"><ele>625.5</ele><time>2026-04-04T10:47:27.524Z</time></trkpt><trkpt lat="44.4917995" lon="8.5467434"><ele>628.25</ele><time>2026-04-04T10:47:28.505Z</time></trkpt><trkpt lat="44.4916868" lon="8.546623"><ele>631.0</ele><time>2026-04-04T10:47:29.501Z</time></trkpt><trkpt lat="44.4915785" lon="8.5464739"><ele>631.0</ele><time>2026-04-04T10:47:30.507Z</time></trkpt><trkpt lat="44.4914706" lon="8.5463192"><ele>631.0</ele><time>2026-04-04T10:47:31.504Z</time></trkpt><trkpt lat="44.491334" lon="8.5461736"><ele>631.0</ele><time>2026-04-04T10:47:32.512Z</time></trkpt><trkpt lat="44.4911761" lon="8.5460467"><ele>631.0</ele><time>2026-04-04T10:47:33.506Z</time></trkpt><trkpt lat="44.4910353" lon="8.5459593"><ele>631.0</ele><time>2026-04-04T10:47:34.506Z</time></trkpt><trkpt lat="44.4909052" lon="8.5459021"><ele>631.0</ele><time>2026-04-04T10:47:35.505Z</time></trkpt><trkpt lat="44.4907856" lon="8.5458787"><ele>631.0</ele><time>2026-04-04T10:47:36.517Z</time></trkpt><trkpt lat="44.4905517" lon="8.5460393"><ele>631.0</ele><time>2026-04-04T10:47:38.524Z</time></trkpt><trkpt lat="44.4904374" lon="8.5461596"><ele>631.0</ele><time>2026-04-04T10:47:39.506Z</time></trkpt><trkpt lat="44.4903306" lon="8.5462979"><ele>631.0</ele><time>2026-04-04T10:47:40.513Z</time></trkpt><trkpt lat="44.4902455" lon="8.5464259"><ele>631.0</ele><time>2026-04-04T10:47:41.512Z</time></trkpt><trkpt lat="44.4901638" lon="8.5465479"><ele>633.2</ele><time>2026-04-04T10:47:42.513Z</time></trkpt><trkpt lat="44.4900889" lon="8.5466637"><ele>635.4000000000001</ele><time>2026-04-04T10:47:43.514Z</time></trkpt><trkpt lat="44.4900195" lon="8.5467827"><ele>637.6</ele><time>2026-04-04T10:47:44.509Z</time></trkpt><trkpt lat="44.4899452" lon="8.546903"><ele>639.8000000000001</ele><time>2026-04-04T10:47:45.513Z</time></trkpt><trkpt lat="44.4898718" lon="8.5470195"><ele>642.0</ele><time>2026-04-04T10:47:46.525Z</time></trkpt><trkpt lat="44.4897998" lon="8.547134"><ele>643.2</ele><time>2026-04-04T10:47:47.505Z</time></trkpt><trkpt lat="44.4897288" lon="8.5472488"><ele>644.4000000000001</ele><time>2026-04-04T10:47:48.516Z</time></trkpt><trkpt lat="44.4896576" lon="8.5473596"><ele>645.5999999999999</ele><time>2026-04-04T10:47:49.513Z</time></trkpt><trkpt lat="44.4895841" lon="8.5474698"><ele>646.8</ele><time>2026-04-04T10:47:50.504Z</time></trkpt><trkpt lat="44.4895058" lon="8.5475784"><ele>648.0</ele><time>2026-04-04T10:47:51.519Z</time></trkpt><trkpt lat="44.4894245" lon="8.5476833"><ele>648.0</ele><time>2026-04-04T10:47:52.524Z</time></trkpt><trkpt lat="44.4893373" lon="8.5477871"><ele>648.0</ele><time>2026-04-04T10:47:53.509Z</time></trkpt><trkpt lat="44.4892509" lon="8.5478921"><ele>648.0</ele><time>2026-04-04T10:47:54.505Z</time></trkpt><trkpt lat="44.4891703" lon="8.5479932"><ele>648.0</ele><time>2026-04-04T10:47:55.513Z</time></trkpt><trkpt lat="44.4890942" lon="8.5480899"><ele>648.0</ele><time>2026-04-04T10:47:56.52Z</time></trkpt><trkpt lat="44.4890164" lon="8.548186"><ele>648.75</ele><time>2026-04-04T10:47:57.529Z</time></trkpt><trkpt lat="44.4888408" lon="8.5483551"><ele>649.5</ele><time>2026-04-04T10:47:59.516Z</time></trkpt><trkpt lat="44.4887378" lon="8.5484249"><ele>650.25</ele><time>2026-04-04T10:48:00.511Z</time></trkpt><trkpt lat="44.4886271" lon="8.5484813"><ele>651.0</ele><time>2026-04-04T10:48:01.513Z</time></trkpt><trkpt lat="44.4885125" lon="8.5485295"><ele>651.25</ele><time>2026-04-04T10:48:02.512Z</time></trkpt><trkpt lat="44.4883959" lon="8.5485728"><ele>651.5</ele><time>2026-04-04T10:48:03.513Z</time></trkpt><trkpt lat="44.4882732" lon="8.5486267"><ele>651.75</ele><time>2026-04-04T10:48:04.513Z</time></trkpt><trkpt lat="44.4881493" lon="8.5486843"><ele>652.0</ele><time>2026-04-04T10:48:05.512Z</time></trkpt><trkpt lat="44.4880184" lon="8.5487484"><ele>653.5</ele><time>2026-04-04T10:48:06.507Z</time></trkpt><trkpt lat="44.4878791" lon="8.5488141"><ele>655.0</ele><time>2026-04-04T10:48:07.509Z</time></trkpt><trkpt lat="44.487745" lon="8.5488709"><ele>656.5</ele><time>2026-04-04T10:48:08.509Z</time></trkpt><trkpt lat="44.4876299" lon="8.5489191"><ele>658.0</ele><time>2026-04-04T10:48:09.507Z</time></trkpt><trkpt lat="44.4875237" lon="8.5489652"><ele>658.0</ele><time>2026-04-04T10:48:10.506Z</time></trkpt><trkpt lat="44.4874372" lon="8.5489921"><ele>658.0</ele><time>2026-04-04T10:48:11.507Z</time></trkpt><trkpt lat="44.4873664" lon="8.5489958"><ele>658.0</ele><time>2026-04-04T10:48:12.516Z</time></trkpt><trkpt lat="44.4872664" lon="8.5489439"><ele>658.0</ele><time>2026-04-04T10:48:14.521Z</time></trkpt><trkpt lat="44.4871727" lon="8.5488459"><ele>658.0</ele><time>2026-04-04T10:48:16.518Z</time></trkpt><trkpt lat="44.4871168" lon="8.5487834"><ele>658.5</ele><time>2026-04-04T10:48:17.517Z</time></trkpt><trkpt lat="44.4870666" lon="8.5487191"><ele>659.0</ele><time>2026-04-04T10:48:18.506Z</time></trkpt><trkpt lat="44.4868909" lon="8.5484537"><ele>659.5</ele><time>2026-04-04T10:48:22.528Z</time></trkpt><trkpt lat="44.4868294" lon="8.5483542"><ele>660.0</ele><time>2026-04-04T10:48:23.536Z</time></trkpt><trkpt lat="44.4867639" lon="8.5482387"><ele>660.0</ele><time>2026-04-04T10:48:24.511Z</time></trkpt><trkpt lat="44.4866946" lon="8.5481151"><ele>660.0</ele><time>2026-04-04T10:48:25.525Z</time></trkpt><trkpt lat="44.4866239" lon="8.5479867"><ele>660.0</ele><time>2026-04-04T10:48:26.523Z</time></trkpt><trkpt lat="44.486565" lon="8.547853"><ele>660.0</ele><time>2026-04-04T10:48:27.506Z</time></trkpt><trkpt lat="44.4865178" lon="8.5477091"><ele>661.2</ele><time>2026-04-04T10:48:28.522Z</time></trkpt><trkpt lat="44.4864761" lon="8.5475667"><ele>662.4</ele><time>2026-04-04T10:48:29.517Z</time></trkpt><trkpt lat="44.4864394" lon="8.5474314"><ele>663.5999999999999</ele><time>2026-04-04T10:48:30.505Z</time></trkpt><trkpt lat="44.4864134" lon="8.5473082"><ele>664.8</ele><time>2026-04-04T10:48:31.513Z</time></trkpt><trkpt lat="44.4863981" lon="8.5472004"><ele>666.0</ele><time>2026-04-04T10:48:32.507Z</time></trkpt><trkpt lat="44.4863778" lon="8.5471001"><ele>665.8333333333334</ele><time>2026-04-04T10:48:33.505Z</time></trkpt><trkpt lat="44.4863484" lon="8.5469991"><ele>665.6666666666666</ele><time>2026-04-04T10:48:34.518Z</time></trkpt><trkpt lat="44.4862985" lon="8.5469017"><ele>665.5</ele><time>2026-04-04T10:48:35.516Z</time></trkpt><trkpt lat="44.486242" lon="8.5467956"><ele>665.3333333333333</ele><time>2026-04-04T10:48:36.52Z</time></trkpt><trkpt lat="44.4861835" lon="8.5466944"><ele>665.1666666666666</ele><time>2026-04-04T10:48:37.505Z</time></trkpt><trkpt lat="44.4861167" lon="8.546613"><ele>665.0</ele><time>2026-04-04T10:48:38.508Z</time></trkpt><trkpt lat="44.4860476" lon="8.5465277"><ele>668.25</ele><time>2026-04-04T10:48:39.51Z</time></trkpt><trkpt lat="44.4858795" lon="8.5463898"><ele>671.5</ele><time>2026-04-04T10:48:41.504Z</time></trkpt><trkpt lat="44.485789" lon="8.5463301"><ele>674.75</ele><time>2026-04-04T10:48:42.514Z</time></trkpt><trkpt lat="44.4857012" lon="8.5462542"><ele>678.0</ele><time>2026-04-04T10:48:43.51Z</time></trkpt><trkpt lat="44.4856309" lon="8.5461486"><ele>678.0</ele><time>2026-04-04T10:48:44.515Z</time></trkpt><trkpt lat="44.4855697" lon="8.5460631"><ele>678.0</ele><time>2026-04-04T10:48:45.515Z</time></trkpt><trkpt lat="44.4854976" lon="8.5459919"><ele>678.0</ele><time>2026-04-04T10:48:46.499Z</time></trkpt><trkpt lat="44.4854185" lon="8.5459272"><ele>678.0</ele><time>2026-04-04T10:48:47.506Z</time></trkpt><trkpt lat="44.4853311" lon="8.5458692"><ele>678.0</ele><time>2026-04-04T10:48:48.512Z</time></trkpt><trkpt lat="44.4852414" lon="8.5458044"><ele>678.5</ele><time>2026-04-04T10:48:49.506Z</time></trkpt><trkpt lat="44.4851597" lon="8.5457179"><ele>679.0</ele><time>2026-04-04T10:48:50.5Z</time></trkpt><trkpt lat="44.4850834" lon="8.5456009"><ele>679.5</ele><time>2026-04-04T10:48:51.508Z</time></trkpt><trkpt lat="44.4850107" lon="8.5454663"><ele>680.0</ele><time>2026-04-04T10:48:52.506Z</time></trkpt><trkpt lat="44.4849426" lon="8.5453127"><ele>680.0</ele><time>2026-04-04T10:48:53.508Z</time></trkpt><trkpt lat="44.4848771" lon="8.5451622"><ele>680.0</ele><time>2026-04-04T10:48:54.503Z</time></trkpt><trkpt lat="44.4848069" lon="8.5450368"><ele>680.0</ele><time>2026-04-04T10:48:55.509Z</time></trkpt><trkpt lat="44.4847323" lon="8.5449374"><ele>680.0</ele><time>2026-04-04T10:48:56.51Z</time></trkpt><trkpt lat="44.4846712" lon="8.5448342"><ele>680.0</ele><time>2026-04-04T10:48:57.501Z</time></trkpt><trkpt lat="44.4846349" lon="8.544716"><ele>680.0</ele><time>2026-04-04T10:48:58.502Z</time></trkpt><trkpt lat="44.4846189" lon="8.5446094"><ele>680.0</ele><time>2026-04-04T10:48:59.508Z</time></trkpt><trkpt lat="44.4845944" lon="8.5445151"><ele>680.0</ele><time>2026-04-04T10:49:14.518Z</time></trkpt><trkpt lat="44.4844735" lon="8.5443433"><ele>680.0</ele><time>2026-04-04T10:49:17.512Z</time></trkpt><trkpt lat="44.4844336" lon="8.5442625"><ele>680.0</ele><time>2026-04-04T10:49:18.508Z</time></trkpt><trkpt lat="44.4843947" lon="8.5441858"><ele>684.6</ele><time>2026-04-04T10:49:19.516Z</time></trkpt><trkpt lat="44.484327" lon="8.5441086"><ele>689.2</ele><time>2026-04-04T10:49:21.504Z</time></trkpt><trkpt lat="44.4842532" lon="8.5441686"><ele>693.8</ele><time>2026-04-04T10:49:23.504Z</time></trkpt><trkpt lat="44.484206" lon="8.5442513"><ele>698.4</ele><time>2026-04-04T10:49:25.505Z</time></trkpt><trkpt lat="44.4842733" lon="8.5441913"><ele>703.0</ele><time>2026-04-04T10:49:55.509Z</time></trkpt><trkpt lat="44.4844131" lon="8.5442115"><ele>703.0</ele><time>2026-04-04T10:49:59.512Z</time></trkpt><trkpt lat="44.4844722" lon="8.5443353"><ele>703.0</ele><time>2026-04-04T10:50:01.508Z</time></trkpt><trkpt lat="44.48453" lon="8.5444514"><ele>703.0</ele><time>2026-04-04T10:50:03.506Z</time></trkpt><trkpt lat="44.4845773" lon="8.5445418"><ele>703.0</ele><time>2026-04-04T10:50:05.506Z</time></trkpt><trkpt lat="44.4846455" lon="8.5445912"><ele>703.0</ele><time>2026-04-04T10:50:08.524Z</time></trkpt><trkpt lat="44.4846945" lon="8.5444978"><ele>703.0</ele><time>2026-04-04T10:50:23.515Z</time></trkpt><trkpt lat="44.4847068" lon="8.5442349"><ele>700.8333333333334</ele><time>2026-04-04T10:50:26.513Z</time></trkpt><trkpt lat="44.4847029" lon="8.5441097"><ele>698.6666666666667</ele><time>2026-04-04T10:50:27.512Z</time></trkpt><trkpt lat="44.4847051" lon="8.5439836"><ele>696.5</ele><time>2026-04-04T10:50:28.513Z</time></trkpt><trkpt lat="44.4847207" lon="8.5438664"><ele>694.3333333333334</ele><time>2026-04-04T10:50:29.508Z</time></trkpt><trkpt lat="44.4847443" lon="8.5437626"><ele>692.1666666666666</ele><time>2026-04-04T10:50:30.504Z</time></trkpt><trkpt lat="44.4847939" lon="8.5437002"><ele>690.0</ele><time>2026-04-04T10:50:31.508Z</time></trkpt><trkpt lat="44.4848617" lon="8.5436517"><ele>690.0</ele><time>2026-04-04T10:50:32.508Z</time></trkpt><trkpt lat="44.4849379" lon="8.5435998"><ele>690.0</ele><time>2026-04-04T10:50:33.517Z</time></trkpt><trkpt lat="44.4850217" lon="8.5435429"><ele>690.0</ele><time>2026-04-04T10:50:34.504Z</time></trkpt><trkpt lat="44.4850934" lon="8.5434815"><ele>690.0</ele><time>2026-04-04T10:50:35.508Z</time></trkpt><trkpt lat="44.4851444" lon="8.5434126"><ele>690.0</ele><time>2026-04-04T10:50:36.512Z</time></trkpt><trkpt lat="44.4851897" lon="8.5432464"><ele>690.0</ele><time>2026-04-04T10:50:38.509Z</time></trkpt><trkpt lat="44.4851998" lon="8.5431465"><ele>690.0</ele><time>2026-04-04T10:50:39.505Z</time></trkpt><trkpt lat="44.4852076" lon="8.5430255"><ele>690.0</ele><time>2026-04-04T10:50:40.508Z</time></trkpt><trkpt lat="44.4852229" lon="8.5428966"><ele>690.0</ele><time>2026-04-04T10:50:41.503Z</time></trkpt><trkpt lat="44.4852372" lon="8.5427766"><ele>690.0</ele><time>2026-04-04T10:50:42.513Z</time></trkpt><trkpt lat="44.4852363" lon="8.5426785"><ele>690.0</ele><time>2026-04-04T10:50:43.502Z</time></trkpt><trkpt lat="44.4852203" lon="8.5425841"><ele>690.0</ele><time>2026-04-04T10:50:44.503Z</time></trkpt><trkpt lat="44.4851339" lon="8.5423758"><ele>690.0</ele><time>2026-04-04T10:50:46.507Z</time></trkpt><trkpt lat="44.4850685" lon="8.5422596"><ele>690.0</ele><time>2026-04-04T10:50:47.517Z</time></trkpt><trkpt lat="44.4849896" lon="8.5421339"><ele>690.0</ele><time>2026-04-04T10:50:48.518Z</time></trkpt><trkpt lat="44.4849201" lon="8.5420143"><ele>689.6666666666666</ele><time>2026-04-04T10:50:49.499Z</time></trkpt><trkpt lat="44.4848658" lon="8.5419085"><ele>689.3333333333334</ele><time>2026-04-04T10:50:50.505Z</time></trkpt><trkpt lat="44.4848249" lon="8.541816"><ele>689.0</ele><time>2026-04-04T10:50:51.504Z</time></trkpt><trkpt lat="44.4848032" lon="8.5417229"><ele>688.6666666666667</ele><time>2026-04-04T10:50:52.498Z</time></trkpt><trkpt lat="44.4848018" lon="8.5416046"><ele>688.3333333333334</ele><time>2026-04-04T10:50:53.511Z</time></trkpt><trkpt lat="44.4848264" lon="8.5414862"><ele>688.0</ele><time>2026-04-04T10:50:54.506Z</time></trkpt><trkpt lat="44.4848915" lon="8.5413764"><ele>688.0</ele><time>2026-04-04T10:50:55.505Z</time></trkpt><trkpt lat="44.4849651" lon="8.5412519"><ele>688.0</ele><time>2026-04-04T10:50:56.512Z</time></trkpt><trkpt lat="44.4850227" lon="8.5411308"><ele>688.0</ele><time>2026-04-04T10:50:57.498Z</time></trkpt><trkpt lat="44.4850576" lon="8.5409943"><ele>688.0</ele><time>2026-04-04T10:50:58.509Z</time></trkpt><trkpt lat="44.4850502" lon="8.5408523"><ele>688.0</ele><time>2026-04-04T10:50:59.502Z</time></trkpt><trkpt lat="44.4850396" lon="8.5407062"><ele>689.3333333333334</ele><time>2026-04-04T10:51:00.502Z</time></trkpt><trkpt lat="44.4850421" lon="8.540576"><ele>690.6666666666667</ele><time>2026-04-04T10:51:01.509Z</time></trkpt><trkpt lat="44.4850764" lon="8.5404743"><ele>692.0</ele><time>2026-04-04T10:51:02.499Z</time></trkpt><trkpt lat="44.4851286" lon="8.5403944"><ele>693.3333333333334</ele><time>2026-04-04T10:51:03.504Z</time></trkpt><trkpt lat="44.48519" lon="8.5403337"><ele>694.6666666666666</ele><time>2026-04-04T10:51:04.513Z</time></trkpt><trkpt lat="44.4852695" lon="8.5402918"><ele>696.0</ele><time>2026-04-04T10:51:05.51Z</time></trkpt><trkpt lat="44.4854195" lon="8.5401591"><ele>696.8333333333334</ele><time>2026-04-04T10:51:07.509Z</time></trkpt><trkpt lat="44.4854627" lon="8.540059"><ele>697.6666666666666</ele><time>2026-04-04T10:51:08.506Z</time></trkpt><trkpt lat="44.4854733" lon="8.539948"><ele>698.5</ele><time>2026-04-04T10:51:09.501Z</time></trkpt><trkpt lat="44.4854556" lon="8.5398276"><ele>699.3333333333333</ele><time>2026-04-04T10:51:10.506Z</time></trkpt><trkpt lat="44.4854128" lon="8.5397004"><ele>700.1666666666666</ele><time>2026-04-04T10:51:11.509Z</time></trkpt><trkpt lat="44.485371" lon="8.5395792"><ele>701.0</ele><time>2026-04-04T10:51:12.504Z</time></trkpt><trkpt lat="44.4853401" lon="8.5394696"><ele>700.3333333333333</ele><time>2026-04-04T10:51:13.498Z</time></trkpt><trkpt lat="44.4853248" lon="8.5393645"><ele>699.6666666666666</ele><time>2026-04-04T10:51:14.504Z</time></trkpt><trkpt lat="44.4853462" lon="8.5392664"><ele>699.0</ele><time>2026-04-04T10:51:15.515Z</time></trkpt><trkpt lat="44.4853988" lon="8.5391756"><ele>698.3333333333334</ele><time>2026-04-04T10:51:16.501Z</time></trkpt><trkpt lat="44.4854878" lon="8.5391226"><ele>697.6666666666667</ele><time>2026-04-04T10:51:17.498Z</time></trkpt><trkpt lat="44.4855987" lon="8.5390788"><ele>697.0</ele><time>2026-04-04T10:51:18.508Z</time></trkpt><trkpt lat="44.4857077" lon="8.5390262"><ele>697.0</ele><time>2026-04-04T10:51:19.502Z</time></trkpt><trkpt lat="44.4858124" lon="8.5389851"><ele>697.0</ele><time>2026-04-04T10:51:20.51Z</time></trkpt><trkpt lat="44.4859141" lon="8.5389729"><ele>697.0</ele><time>2026-04-04T10:51:21.501Z</time></trkpt><trkpt lat="44.4860111" lon="8.5390176"><ele>697.0</ele><time>2026-04-04T10:51:22.506Z</time></trkpt><trkpt lat="44.4861091" lon="8.539075"><ele>697.0</ele><time>2026-04-04T10:51:23.509Z</time></trkpt><trkpt lat="44.4861968" lon="8.5391033"><ele>694.5</ele><time>2026-04-04T10:51:24.509Z</time></trkpt><trkpt lat="44.4862725" lon="8.5391141"><ele>692.0</ele><time>2026-04-04T10:51:25.518Z</time></trkpt><trkpt lat="44.4863427" lon="8.5390769"><ele>689.5</ele><time>2026-04-04T10:51:26.503Z</time></trkpt><trkpt lat="44.4864641" lon="8.5388713"><ele>687.0</ele><time>2026-04-04T10:51:28.514Z</time></trkpt><trkpt lat="44.4865199" lon="8.5387409"><ele>689.5</ele><time>2026-04-04T10:51:29.509Z</time></trkpt><trkpt lat="44.4865727" lon="8.5385699"><ele>692.0</ele><time>2026-04-04T10:51:30.508Z</time></trkpt><trkpt lat="44.4866215" lon="8.5384195"><ele>694.5</ele><time>2026-04-04T10:51:31.505Z</time></trkpt><trkpt lat="44.4866717" lon="8.5382866"><ele>697.0</ele><time>2026-04-04T10:51:32.505Z</time></trkpt><trkpt lat="44.4867186" lon="8.5381723"><ele>697.0</ele><time>2026-04-04T10:51:33.509Z</time></trkpt><trkpt lat="44.4867566" lon="8.5380637"><ele>697.0</ele><time>2026-04-04T10:51:34.5Z</time></trkpt><trkpt lat="44.486767" lon="8.5379546"><ele>697.0</ele><time>2026-04-04T10:51:35.5Z</time></trkpt><trkpt lat="44.4867468" lon="8.5378309"><ele>697.0</ele><time>2026-04-04T10:51:36.503Z</time></trkpt><trkpt lat="44.4867023" lon="8.537679"><ele>697.0</ele><time>2026-04-04T10:51:37.502Z</time></trkpt><trkpt lat="44.4866551" lon="8.537515"><ele>695.8</ele><time>2026-04-04T10:51:38.504Z</time></trkpt><trkpt lat="44.4866195" lon="8.5373652"><ele>694.6</ele><time>2026-04-04T10:51:39.504Z</time></trkpt><trkpt lat="44.4865786" lon="8.5372166"><ele>693.4</ele><time>2026-04-04T10:51:40.506Z</time></trkpt><trkpt lat="44.4865381" lon="8.5370959"><ele>692.1999999999999</ele><time>2026-04-04T10:51:41.507Z</time></trkpt><trkpt lat="44.4864971" lon="8.5370028"><ele>691.0</ele><time>2026-04-04T10:51:42.513Z</time></trkpt><trkpt lat="44.4863908" lon="8.5369963"><ele>691.0</ele><time>2026-04-04T10:51:44.508Z</time></trkpt><trkpt lat="44.4863383" lon="8.5370678"><ele>691.0</ele><time>2026-04-04T10:51:45.513Z</time></trkpt><trkpt lat="44.4863022" lon="8.5371549"><ele>691.0</ele><time>2026-04-04T10:51:46.514Z</time></trkpt><trkpt lat="44.486271" lon="8.5372376"><ele>691.0</ele><time>2026-04-04T10:51:47.497Z</time></trkpt><trkpt lat="44.4862105" lon="8.5374004"><ele>691.0</ele><time>2026-04-04T10:51:49.506Z</time></trkpt><trkpt lat="44.4861671" lon="8.5374828"><ele>691.0</ele><time>2026-04-04T10:51:50.505Z</time></trkpt><trkpt lat="44.4860979" lon="8.5375576"><ele>691.5999999999999</ele><time>2026-04-04T10:51:51.502Z</time></trkpt><trkpt lat="44.4860197" lon="8.5376311"><ele>692.2</ele><time>2026-04-04T10:51:52.506Z</time></trkpt><trkpt lat="44.4859384" lon="8.5376953"><ele>692.8</ele><time>2026-04-04T10:51:53.507Z</time></trkpt><trkpt lat="44.485858" lon="8.5377478"><ele>693.4000000000001</ele><time>2026-04-04T10:51:54.511Z</time></trkpt><trkpt lat="44.485781" lon="8.5377938"><ele>694.0</ele><time>2026-04-04T10:51:55.507Z</time></trkpt><trkpt lat="44.4856637" lon="8.5378381"><ele>694.0</ele><time>2026-04-04T10:51:57.502Z</time></trkpt><trkpt lat="44.4855902" lon="8.5378232"><ele>694.0</ele><time>2026-04-04T10:51:58.511Z</time></trkpt><trkpt lat="44.4855247" lon="8.5377741"><ele>694.0</ele><time>2026-04-04T10:51:59.511Z</time></trkpt><trkpt lat="44.4854825" lon="8.5376971"><ele>694.0</ele><time>2026-04-04T10:52:00.498Z</time></trkpt><trkpt lat="44.4854681" lon="8.5375775"><ele>694.0</ele><time>2026-04-04T10:52:01.5Z</time></trkpt><trkpt lat="44.4854673" lon="8.5374491"><ele>694.0</ele><time>2026-04-04T10:52:02.503Z</time></trkpt><trkpt lat="44.485486" lon="8.5373215"><ele>694.0</ele><time>2026-04-04T10:52:03.501Z</time></trkpt><trkpt lat="44.4855317" lon="8.5371924"><ele>694.0</ele><time>2026-04-04T10:52:04.5Z</time></trkpt><trkpt lat="44.4855802" lon="8.5370487"><ele>694.0</ele><time>2026-04-04T10:52:05.504Z</time></trkpt><trkpt lat="44.4856183" lon="8.5368974"><ele>694.0</ele><time>2026-04-04T10:52:06.512Z</time></trkpt><trkpt lat="44.4856422" lon="8.5367511"><ele>694.0</ele><time>2026-04-04T10:52:07.501Z</time></trkpt><trkpt lat="44.4856521" lon="8.5366026"><ele>691.75</ele><time>2026-04-04T10:52:08.5Z</time></trkpt><trkpt lat="44.4856606" lon="8.5362951"><ele>689.5</ele><time>2026-04-04T10:52:10.513Z</time></trkpt><trkpt lat="44.4856575" lon="8.5361496"><ele>687.25</ele><time>2026-04-04T10:52:11.5Z</time></trkpt><trkpt lat="44.4856458" lon="8.5360144"><ele>685.0</ele><time>2026-04-04T10:52:12.507Z</time></trkpt><trkpt lat="44.4856355" lon="8.5358795"><ele>684.0</ele><time>2026-04-04T10:52:13.502Z</time></trkpt><trkpt lat="44.4856294" lon="8.5357318"><ele>683.0</ele><time>2026-04-04T10:52:14.508Z</time></trkpt><trkpt lat="44.4856339" lon="8.5355666"><ele>682.0</ele><time>2026-04-04T10:52:15.509Z</time></trkpt><trkpt lat="44.4856512" lon="8.5353903"><ele>681.0</ele><time>2026-04-04T10:52:16.499Z</time></trkpt><trkpt lat="44.4856867" lon="8.5352097"><ele>679.4</ele><time>2026-04-04T10:52:17.503Z</time></trkpt><trkpt lat="44.4857217" lon="8.5350418"><ele>677.8</ele><time>2026-04-04T10:52:18.499Z</time></trkpt><trkpt lat="44.4857481" lon="8.5348986"><ele>676.1999999999999</ele><time>2026-04-04T10:52:19.499Z</time></trkpt><trkpt lat="44.4857498" lon="8.5347929"><ele>674.5999999999999</ele><time>2026-04-04T10:52:20.512Z</time></trkpt><trkpt lat="44.4857165" lon="8.5346508"><ele>673.0</ele><time>2026-04-04T10:52:22.503Z</time></trkpt><trkpt lat="44.4856617" lon="8.5346051"><ele>672.1666666666667</ele><time>2026-04-04T10:52:23.5Z</time></trkpt><trkpt lat="44.4855993" lon="8.5345441"><ele>671.3333333333334</ele><time>2026-04-04T10:52:24.5Z</time></trkpt><trkpt lat="44.4855458" lon="8.5344622"><ele>670.5</ele><time>2026-04-04T10:52:25.497Z</time></trkpt><trkpt lat="44.4855138" lon="8.5343564"><ele>669.6666666666666</ele><time>2026-04-04T10:52:26.504Z</time></trkpt><trkpt lat="44.4854974" lon="8.5342454"><ele>668.8333333333333</ele><time>2026-04-04T10:52:27.508Z</time></trkpt><trkpt lat="44.4855333" lon="8.5341457"><ele>668.0</ele><time>2026-04-04T10:52:28.499Z</time></trkpt><trkpt lat="44.4855996" lon="8.5340691"><ele>668.0</ele><time>2026-04-04T10:52:29.501Z</time></trkpt><trkpt lat="44.4857465" lon="8.5338647"><ele>668.0</ele><time>2026-04-04T10:52:31.5Z</time></trkpt><trkpt lat="44.4857935" lon="8.5337415"><ele>668.0</ele><time>2026-04-04T10:52:32.506Z</time></trkpt><trkpt lat="44.4858109" lon="8.5336269"><ele>668.0</ele><time>2026-04-04T10:52:33.514Z</time></trkpt><trkpt lat="44.4858141" lon="8.5335349"><ele>668.1666666666666</ele><time>2026-04-04T10:52:34.501Z</time></trkpt><trkpt lat="44.4857883" lon="8.533452"><ele>668.3333333333333</ele><time>2026-04-04T10:52:35.5Z</time></trkpt><trkpt lat="44.4857432" lon="8.5333464"><ele>668.5</ele><time>2026-04-04T10:52:36.517Z</time></trkpt><trkpt lat="44.4856996" lon="8.5332323"><ele>668.6666666666666</ele><time>2026-04-04T10:52:37.505Z</time></trkpt><trkpt lat="44.4856929" lon="8.5330949"><ele>668.8333333333334</ele><time>2026-04-04T10:52:38.502Z</time></trkpt><trkpt lat="44.4856989" lon="8.5329554"><ele>669.0</ele><time>2026-04-04T10:52:39.506Z</time></trkpt><trkpt lat="44.4857031" lon="8.5328188"><ele>667.8333333333334</ele><time>2026-04-04T10:52:40.515Z</time></trkpt><trkpt lat="44.4856906" lon="8.532699"><ele>666.6666666666666</ele><time>2026-04-04T10:52:41.507Z</time></trkpt><trkpt lat="44.4856598" lon="8.5325883"><ele>665.5</ele><time>2026-04-04T10:52:42.508Z</time></trkpt><trkpt lat="44.4856153" lon="8.5324961"><ele>664.3333333333333</ele><time>2026-04-04T10:52:43.507Z</time></trkpt><trkpt lat="44.4855573" lon="8.5324084"><ele>663.1666666666666</ele><time>2026-04-04T10:52:44.5Z</time></trkpt><trkpt lat="44.4854981" lon="8.5323139"><ele>662.0</ele><time>2026-04-04T10:52:45.501Z</time></trkpt><trkpt lat="44.4854605" lon="8.5322145"><ele>662.0</ele><time>2026-04-04T10:52:46.499Z</time></trkpt><trkpt lat="44.4854371" lon="8.5320908"><ele>662.0</ele><time>2026-04-04T10:52:47.514Z</time></trkpt><trkpt lat="44.4854465" lon="8.5319702"><ele>662.0</ele><time>2026-04-04T10:52:48.51Z</time></trkpt><trkpt lat="44.4854463" lon="8.5318478"><ele>662.0</ele><time>2026-04-04T10:52:49.509Z</time></trkpt><trkpt lat="44.4854258" lon="8.5317466"><ele>662.0</ele><time>2026-04-04T10:52:50.514Z</time></trkpt><trkpt lat="44.4853057" lon="8.5316217"><ele>665.5</ele><time>2026-04-04T10:52:52.503Z</time></trkpt><trkpt lat="44.4852439" lon="8.5315506"><ele>669.0</ele><time>2026-04-04T10:52:53.507Z</time></trkpt><trkpt lat="44.4852085" lon="8.5314487"><ele>672.5</ele><time>2026-04-04T10:52:54.513Z</time></trkpt><trkpt lat="44.4851943" lon="8.5313253"><ele>676.0</ele><time>2026-04-04T10:52:55.504Z</time></trkpt><trkpt lat="44.4851782" lon="8.5312014"><ele>679.5</ele><time>2026-04-04T10:52:56.499Z</time></trkpt><trkpt lat="44.4851618" lon="8.5310809"><ele>683.0</ele><time>2026-04-04T10:52:57.507Z</time></trkpt><trkpt lat="44.4851597" lon="8.5309551"><ele>683.0</ele><time>2026-04-04T10:52:58.507Z</time></trkpt><trkpt lat="44.4851852" lon="8.530836"><ele>683.0</ele><time>2026-04-04T10:52:59.517Z</time></trkpt><trkpt lat="44.4852406" lon="8.5307422"><ele>683.0</ele><time>2026-04-04T10:53:00.506Z</time></trkpt><trkpt lat="44.4853117" lon="8.530655"><ele>683.0</ele><time>2026-04-04T10:53:01.507Z</time></trkpt><trkpt lat="44.4853691" lon="8.5305694"><ele>683.0</ele><time>2026-04-04T10:53:02.507Z</time></trkpt><trkpt lat="44.4853634" lon="8.5303979"><ele>681.2</ele><time>2026-04-04T10:53:04.511Z</time></trkpt><trkpt lat="44.4853114" lon="8.530309"><ele>679.4</ele><time>2026-04-04T10:53:05.51Z</time></trkpt><trkpt lat="44.4852418" lon="8.5302087"><ele>677.6</ele><time>2026-04-04T10:53:06.503Z</time></trkpt><trkpt lat="44.4851773" lon="8.5300861"><ele>675.8000000000001</ele><time>2026-04-04T10:53:07.504Z</time></trkpt><trkpt lat="44.485122" lon="8.529953"><ele>674.0</ele><time>2026-04-04T10:53:08.512Z</time></trkpt><trkpt lat="44.4850728" lon="8.5298129"><ele>674.0</ele><time>2026-04-04T10:53:09.505Z</time></trkpt><trkpt lat="44.4850182" lon="8.5296975"><ele>674.0</ele><time>2026-04-04T10:53:10.51Z</time></trkpt><trkpt lat="44.4849494" lon="8.5296095"><ele>674.0</ele><time>2026-04-04T10:53:11.512Z</time></trkpt><trkpt lat="44.4847913" lon="8.5294641"><ele>674.0</ele><time>2026-04-04T10:53:13.513Z</time></trkpt><trkpt lat="44.4847234" lon="8.5293625"><ele>674.2</ele><time>2026-04-04T10:53:14.512Z</time></trkpt><trkpt lat="44.4846686" lon="8.5292372"><ele>674.4000000000001</ele><time>2026-04-04T10:53:15.506Z</time></trkpt><trkpt lat="44.4846219" lon="8.5290995"><ele>674.6</ele><time>2026-04-04T10:53:16.51Z</time></trkpt><trkpt lat="44.4845698" lon="8.5289513"><ele>674.8</ele><time>2026-04-04T10:53:17.503Z</time></trkpt><trkpt lat="44.4845137" lon="8.5288176"><ele>675.0</ele><time>2026-04-04T10:53:18.513Z</time></trkpt><trkpt lat="44.4844559" lon="8.5287003"><ele>672.8</ele><time>2026-04-04T10:53:19.509Z</time></trkpt><trkpt lat="44.4844055" lon="8.5285885"><ele>670.6</ele><time>2026-04-04T10:53:20.513Z</time></trkpt><trkpt lat="44.4843732" lon="8.5284743"><ele>668.4000000000001</ele><time>2026-04-04T10:53:21.511Z</time></trkpt><trkpt lat="44.4843508" lon="8.5283534"><ele>666.2</ele><time>2026-04-04T10:53:22.512Z</time></trkpt><trkpt lat="44.4843477" lon="8.5282119"><ele>664.0</ele><time>2026-04-04T10:53:23.513Z</time></trkpt><trkpt lat="44.4843482" lon="8.5280592"><ele>663.5</ele><time>2026-04-04T10:53:24.511Z</time></trkpt><trkpt lat="44.4843272" lon="8.5278825"><ele>663.0</ele><time>2026-04-04T10:53:25.508Z</time></trkpt><trkpt lat="44.484289" lon="8.5276859"><ele>662.5</ele><time>2026-04-04T10:53:26.508Z</time></trkpt><trkpt lat="44.4842512" lon="8.5274999"><ele>662.0</ele><time>2026-04-04T10:53:27.511Z</time></trkpt><trkpt lat="44.4842149" lon="8.5273341"><ele>662.0</ele><time>2026-04-04T10:53:28.524Z</time></trkpt><trkpt lat="44.4841838" lon="8.5271811"><ele>662.0</ele><time>2026-04-04T10:53:29.502Z</time></trkpt><trkpt lat="44.4841699" lon="8.5270408"><ele>662.0</ele><time>2026-04-04T10:53:30.508Z</time></trkpt><trkpt lat="44.484178" lon="8.5269221"><ele>662.0</ele><time>2026-04-04T10:53:31.509Z</time></trkpt><trkpt lat="44.4842164" lon="8.5268199"><ele>662.0</ele><time>2026-04-04T10:53:32.506Z</time></trkpt><trkpt lat="44.4843912" lon="8.5265928"><ele>661.5</ele><time>2026-04-04T10:53:34.5Z</time></trkpt><trkpt lat="44.4844962" lon="8.5264453"><ele>661.0</ele><time>2026-04-04T10:53:35.508Z</time></trkpt><trkpt lat="44.4845871" lon="8.5263005"><ele>660.5</ele><time>2026-04-04T10:53:36.511Z</time></trkpt><trkpt lat="44.4846654" lon="8.5261546"><ele>660.0</ele><time>2026-04-04T10:53:37.503Z</time></trkpt><trkpt lat="44.4847299" lon="8.5259971"><ele>661.25</ele><time>2026-04-04T10:53:38.503Z</time></trkpt><trkpt lat="44.4847853" lon="8.5258462"><ele>662.5</ele><time>2026-04-04T10:53:39.517Z</time></trkpt><trkpt lat="44.4848424" lon="8.5257085"><ele>663.75</ele><time>2026-04-04T10:53:40.506Z</time></trkpt><trkpt lat="44.484911" lon="8.5255721"><ele>665.0</ele><time>2026-04-04T10:53:41.506Z</time></trkpt><trkpt lat="44.4849854" lon="8.5254486"><ele>664.0</ele><time>2026-04-04T10:53:42.505Z</time></trkpt><trkpt lat="44.4850545" lon="8.5253376"><ele>663.0</ele><time>2026-04-04T10:53:43.503Z</time></trkpt><trkpt lat="44.4851094" lon="8.5252265"><ele>662.0</ele><time>2026-04-04T10:53:44.504Z</time></trkpt><trkpt lat="44.4851446" lon="8.5250857"><ele>661.0</ele><time>2026-04-04T10:53:45.508Z</time></trkpt><trkpt lat="44.4851529" lon="8.5249304"><ele>660.0</ele><time>2026-04-04T10:53:46.506Z</time></trkpt><trkpt lat="44.4851594" lon="8.5247808"><ele>660.0</ele><time>2026-04-04T10:53:47.509Z</time></trkpt><trkpt lat="44.485185" lon="8.5246458"><ele>660.0</ele><time>2026-04-04T10:53:48.509Z</time></trkpt><trkpt lat="44.4852184" lon="8.5245106"><ele>660.0</ele><time>2026-04-04T10:53:49.507Z</time></trkpt><trkpt lat="44.4852524" lon="8.5243759"><ele>660.0</ele><time>2026-04-04T10:53:50.51Z</time></trkpt><trkpt lat="44.485282" lon="8.5242415"><ele>660.0</ele><time>2026-04-04T10:53:51.51Z</time></trkpt><trkpt lat="44.4852977" lon="8.5241073"><ele>661.25</ele><time>2026-04-04T10:53:52.509Z</time></trkpt><trkpt lat="44.48531" lon="8.5239784"><ele>662.5</ele><time>2026-04-04T10:53:53.512Z</time></trkpt><trkpt lat="44.4853912" lon="8.5237495"><ele>663.75</ele><time>2026-04-04T10:53:55.504Z</time></trkpt><trkpt lat="44.4854617" lon="8.5236323"><ele>665.0</ele><time>2026-04-04T10:53:56.511Z</time></trkpt><trkpt lat="44.4855307" lon="8.5235154"><ele>662.0</ele><time>2026-04-04T10:53:57.513Z</time></trkpt><trkpt lat="44.4855983" lon="8.5233995"><ele>659.0</ele><time>2026-04-04T10:53:58.511Z</time></trkpt><trkpt lat="44.4856586" lon="8.523282"><ele>656.0</ele><time>2026-04-04T10:53:59.513Z</time></trkpt><trkpt lat="44.4857098" lon="8.5231602"><ele>653.0</ele><time>2026-04-04T10:54:00.503Z</time></trkpt><trkpt lat="44.4857516" lon="8.5230476"><ele>650.0</ele><time>2026-04-04T10:54:01.507Z</time></trkpt><trkpt lat="44.4857816" lon="8.5229479"><ele>648.3333333333333</ele><time>2026-04-04T10:54:02.508Z</time></trkpt><trkpt lat="44.4857951" lon="8.5228535"><ele>646.6666666666666</ele><time>2026-04-04T10:54:03.513Z</time></trkpt><trkpt lat="44.4857768" lon="8.5227601"><ele>645.0</ele><time>2026-04-04T10:54:04.521Z</time></trkpt><trkpt lat="44.4857321" lon="8.5226881"><ele>643.3333333333334</ele><time>2026-04-04T10:54:05.51Z</time></trkpt><trkpt lat="44.4856675" lon="8.5226225"><ele>641.6666666666667</ele><time>2026-04-04T10:54:06.519Z</time></trkpt><trkpt lat="44.4855978" lon="8.5225633"><ele>640.0</ele><time>2026-04-04T10:54:07.51Z</time></trkpt><trkpt lat="44.4855349" lon="8.5224871"><ele>640.0</ele><time>2026-04-04T10:54:08.506Z</time></trkpt><trkpt lat="44.4854821" lon="8.5223828"><ele>640.0</ele><time>2026-04-04T10:54:09.51Z</time></trkpt><trkpt lat="44.4854359" lon="8.52226"><ele>640.0</ele><time>2026-04-04T10:54:10.513Z</time></trkpt><trkpt lat="44.4853946" lon="8.5221377"><ele>640.0</ele><time>2026-04-04T10:54:11.503Z</time></trkpt><trkpt lat="44.4853774" lon="8.5219764"><ele>640.0</ele><time>2026-04-04T10:54:12.519Z</time></trkpt><trkpt lat="44.4853777" lon="8.521823"><ele>639.25</ele><time>2026-04-04T10:54:13.506Z</time></trkpt><trkpt lat="44.4853725" lon="8.5216646"><ele>638.5</ele><time>2026-04-04T10:54:14.503Z</time></trkpt><trkpt lat="44.4853594" lon="8.5213624"><ele>637.75</ele><time>2026-04-04T10:54:16.512Z</time></trkpt><trkpt lat="44.4853884" lon="8.5212096"><ele>637.0</ele><time>2026-04-04T10:54:17.497Z</time></trkpt><trkpt lat="44.4854279" lon="8.5210467"><ele>632.75</ele><time>2026-04-04T10:54:18.509Z</time></trkpt><trkpt lat="44.4854664" lon="8.5208817"><ele>628.5</ele><time>2026-04-04T10:54:19.511Z</time></trkpt><trkpt lat="44.4855022" lon="8.5207316"><ele>624.25</ele><time>2026-04-04T10:54:20.503Z</time></trkpt><trkpt lat="44.485545" lon="8.5205792"><ele>620.0</ele><time>2026-04-04T10:54:21.511Z</time></trkpt><trkpt lat="44.4855907" lon="8.5204247"><ele>620.2</ele><time>2026-04-04T10:54:22.516Z</time></trkpt><trkpt lat="44.4856285" lon="8.5202781"><ele>620.4</ele><time>2026-04-04T10:54:23.511Z</time></trkpt><trkpt lat="44.4856617" lon="8.5201416"><ele>620.6</ele><time>2026-04-04T10:54:24.509Z</time></trkpt><trkpt lat="44.4856905" lon="8.5200179"><ele>620.8</ele><time>2026-04-04T10:54:25.515Z</time></trkpt><trkpt lat="44.4857238" lon="8.5199"><ele>621.0</ele><time>2026-04-04T10:54:26.514Z</time></trkpt><trkpt lat="44.4857676" lon="8.5197831"><ele>621.0</ele><time>2026-04-04T10:54:27.513Z</time></trkpt><trkpt lat="44.485823" lon="8.5196552"><ele>621.0</ele><time>2026-04-04T10:54:28.511Z</time></trkpt><trkpt lat="44.4859012" lon="8.5195009"><ele>621.0</ele><time>2026-04-04T10:54:29.512Z</time></trkpt><trkpt lat="44.4859868" lon="8.5193385"><ele>621.0</ele><time>2026-04-04T10:54:30.504Z</time></trkpt><trkpt lat="44.4860619" lon="8.5191879"><ele>620.25</ele><time>2026-04-04T10:54:31.511Z</time></trkpt><trkpt lat="44.4861204" lon="8.5190453"><ele>619.5</ele><time>2026-04-04T10:54:32.506Z</time></trkpt><trkpt lat="44.4861654" lon="8.518899"><ele>618.75</ele><time>2026-04-04T10:54:33.517Z</time></trkpt><trkpt lat="44.4862083" lon="8.5187482"><ele>618.0</ele><time>2026-04-04T10:54:34.52Z</time></trkpt><trkpt lat="44.4862574" lon="8.5185907"><ele>617.3333333333334</ele><time>2026-04-04T10:54:35.512Z</time></trkpt><trkpt lat="44.4863517" lon="8.5182819"><ele>616.6666666666667</ele><time>2026-04-04T10:54:37.512Z</time></trkpt><trkpt lat="44.4863937" lon="8.5181404"><ele>616.0</ele><time>2026-04-04T10:54:38.505Z</time></trkpt><trkpt lat="44.4864303" lon="8.5180006"><ele>615.4</ele><time>2026-04-04T10:54:39.505Z</time></trkpt><trkpt lat="44.4864677" lon="8.5178651"><ele>614.8</ele><time>2026-04-04T10:54:40.512Z</time></trkpt><trkpt lat="44.4865033" lon="8.5177365"><ele>614.1999999999999</ele><time>2026-04-04T10:54:41.509Z</time></trkpt><trkpt lat="44.4865378" lon="8.517611"><ele>613.6</ele><time>2026-04-04T10:54:42.51Z</time></trkpt><trkpt lat="44.4865725" lon="8.5174893"><ele>613.0</ele><time>2026-04-04T10:54:43.512Z</time></trkpt><trkpt lat="44.4866042" lon="8.5173674"><ele>613.0</ele><time>2026-04-04T10:54:44.509Z</time></trkpt><trkpt lat="44.4866356" lon="8.5172486"><ele>613.0</ele><time>2026-04-04T10:54:45.516Z</time></trkpt><trkpt lat="44.4866656" lon="8.5171401"><ele>613.0</ele><time>2026-04-04T10:54:46.512Z</time></trkpt><trkpt lat="44.4866975" lon="8.5170318"><ele>613.0</ele><time>2026-04-04T10:54:47.518Z</time></trkpt><trkpt lat="44.4867349" lon="8.5169032"><ele>613.0</ele><time>2026-04-04T10:54:48.508Z</time></trkpt><trkpt lat="44.486773" lon="8.5167668"><ele>611.6</ele><time>2026-04-04T10:54:49.508Z</time></trkpt><trkpt lat="44.4868083" lon="8.516626"><ele>610.1999999999999</ele><time>2026-04-04T10:54:50.512Z</time></trkpt><trkpt lat="44.4868447" lon="8.5164857"><ele>608.8</ele><time>2026-04-04T10:54:51.504Z</time></trkpt><trkpt lat="44.4868793" lon="8.5163515"><ele>607.4</ele><time>2026-04-04T10:54:52.507Z</time></trkpt><trkpt lat="44.4869062" lon="8.5162168"><ele>606.0</ele><time>2026-04-04T10:54:53.506Z</time></trkpt><trkpt lat="44.4869284" lon="8.516088"><ele>603.25</ele><time>2026-04-04T10:54:54.511Z</time></trkpt><trkpt lat="44.4869309" lon="8.5159597"><ele>600.5</ele><time>2026-04-04T10:54:55.502Z</time></trkpt><trkpt lat="44.4869128" lon="8.5158257"><ele>597.75</ele><time>2026-04-04T10:54:56.522Z</time></trkpt><trkpt lat="44.4868617" lon="8.5155652"><ele>595.0</ele><time>2026-04-04T10:54:58.513Z</time></trkpt><trkpt lat="44.4868331" lon="8.5154399"><ele>593.6</ele><time>2026-04-04T10:54:59.506Z</time></trkpt><trkpt lat="44.4868052" lon="8.5153166"><ele>592.2</ele><time>2026-04-04T10:55:00.525Z</time></trkpt><trkpt lat="44.4867761" lon="8.5151958"><ele>590.8</ele><time>2026-04-04T10:55:01.516Z</time></trkpt><trkpt lat="44.4867493" lon="8.5150726"><ele>589.4</ele><time>2026-04-04T10:55:02.512Z</time></trkpt><trkpt lat="44.4867228" lon="8.5149479"><ele>588.0</ele><time>2026-04-04T10:55:03.511Z</time></trkpt><trkpt lat="44.4866951" lon="8.5148251"><ele>588.0</ele><time>2026-04-04T10:55:04.51Z</time></trkpt><trkpt lat="44.4866693" lon="8.5147008"><ele>588.0</ele><time>2026-04-04T10:55:05.501Z</time></trkpt><trkpt lat="44.4866481" lon="8.5145702"><ele>588.0</ele><time>2026-04-04T10:55:06.508Z</time></trkpt><trkpt lat="44.486639" lon="8.5144297"><ele>588.0</ele><time>2026-04-04T10:55:07.503Z</time></trkpt><trkpt lat="44.4866395" lon="8.5142883"><ele>588.0</ele><time>2026-04-04T10:55:08.506Z</time></trkpt><trkpt lat="44.4866442" lon="8.5141515"><ele>586.1999999999999</ele><time>2026-04-04T10:55:09.504Z</time></trkpt><trkpt lat="44.4866494" lon="8.5140157"><ele>584.4</ele><time>2026-04-04T10:55:10.514Z</time></trkpt><trkpt lat="44.4866534" lon="8.5138835"><ele>582.5999999999999</ele><time>2026-04-04T10:55:11.506Z</time></trkpt><trkpt lat="44.4866556" lon="8.5137542"><ele>580.8</ele><time>2026-04-04T10:55:12.512Z</time></trkpt><trkpt lat="44.4866569" lon="8.5136301"><ele>579.0</ele><time>2026-04-04T10:55:13.505Z</time></trkpt><trkpt lat="44.4866478" lon="8.5135118"><ele>577.0</ele><time>2026-04-04T10:55:14.506Z</time></trkpt><trkpt lat="44.4866177" lon="8.5133969"><ele>575.0</ele><time>2026-04-04T10:55:15.509Z</time></trkpt><trkpt lat="44.4865723" lon="8.5132894"><ele>573.0</ele><time>2026-04-04T10:55:16.518Z</time></trkpt><trkpt lat="44.4865208" lon="8.5131871"><ele>571.0</ele><time>2026-04-04T10:55:17.504Z</time></trkpt><trkpt lat="44.4864136" lon="8.5129803"><ele>569.0</ele><time>2026-04-04T10:55:19.513Z</time></trkpt><trkpt lat="44.4863571" lon="8.512881"><ele>566.2</ele><time>2026-04-04T10:55:20.507Z</time></trkpt><trkpt lat="44.4862969" lon="8.5127835"><ele>563.4</ele><time>2026-04-04T10:55:21.511Z</time></trkpt><trkpt lat="44.4862397" lon="8.512683"><ele>560.6</ele><time>2026-04-04T10:55:22.509Z</time></trkpt><trkpt lat="44.4861649" lon="8.5125983"><ele>557.8</ele><time>2026-04-04T10:55:23.513Z</time></trkpt><trkpt lat="44.4860847" lon="8.5125235"><ele>555.0</ele><time>2026-04-04T10:55:24.509Z</time></trkpt><trkpt lat="44.4859877" lon="8.5124704"><ele>555.0</ele><time>2026-04-04T10:55:25.503Z</time></trkpt><trkpt lat="44.4858912" lon="8.5124336"><ele>555.0</ele><time>2026-04-04T10:55:26.513Z</time></trkpt><trkpt lat="44.485791" lon="8.5124309"><ele>555.0</ele><time>2026-04-04T10:55:27.505Z</time></trkpt><trkpt lat="44.4856907" lon="8.5124524"><ele>555.0</ele><time>2026-04-04T10:55:28.501Z</time></trkpt><trkpt lat="44.4855949" lon="8.51247"><ele>555.0</ele><time>2026-04-04T10:55:29.502Z</time></trkpt><trkpt lat="44.4855038" lon="8.5124897"><ele>553.0</ele><time>2026-04-04T10:55:30.506Z</time></trkpt><trkpt lat="44.4854169" lon="8.5125071"><ele>551.0</ele><time>2026-04-04T10:55:31.501Z</time></trkpt><trkpt lat="44.48533" lon="8.5125128"><ele>549.0</ele><time>2026-04-04T10:55:32.505Z</time></trkpt><trkpt lat="44.4852442" lon="8.5124945"><ele>547.0</ele><time>2026-04-04T10:55:33.5Z</time></trkpt><trkpt lat="44.4851647" lon="8.512448"><ele>545.0</ele><time>2026-04-04T10:55:34.501Z</time></trkpt><trkpt lat="44.4850921" lon="8.5123736"><ele>543.0</ele><time>2026-04-04T10:55:35.509Z</time></trkpt><trkpt lat="44.4850226" lon="8.5122895"><ele>543.0</ele><time>2026-04-04T10:55:36.508Z</time></trkpt><trkpt lat="44.4849529" lon="8.5122056"><ele>543.0</ele><time>2026-04-04T10:55:37.504Z</time></trkpt><trkpt lat="44.4848757" lon="8.5121368"><ele>543.0</ele><time>2026-04-04T10:55:38.504Z</time></trkpt><trkpt lat="44.4847053" lon="8.5120879"><ele>543.0</ele><time>2026-04-04T10:55:40.503Z</time></trkpt><trkpt lat="44.4846145" lon="8.5120875"><ele>543.0</ele><time>2026-04-04T10:55:41.506Z</time></trkpt><trkpt lat="44.484517" lon="8.5120824"><ele>540.6</ele><time>2026-04-04T10:55:42.51Z</time></trkpt><trkpt lat="44.4844163" lon="8.5120576"><ele>538.1999999999999</ele><time>2026-04-04T10:55:43.506Z</time></trkpt><trkpt lat="44.4843144" lon="8.5120129"><ele>535.8</ele><time>2026-04-04T10:55:44.518Z</time></trkpt><trkpt lat="44.4842171" lon="8.5119412"><ele>533.4</ele><time>2026-04-04T10:55:45.51Z</time></trkpt><trkpt lat="44.484123" lon="8.5118705"><ele>531.0</ele><time>2026-04-04T10:55:46.505Z</time></trkpt><trkpt lat="44.4840352" lon="8.5118053"><ele>531.0</ele><time>2026-04-04T10:55:47.512Z</time></trkpt><trkpt lat="44.4839494" lon="8.5117443"><ele>531.0</ele><time>2026-04-04T10:55:48.515Z</time></trkpt><trkpt lat="44.4838675" lon="8.5116843"><ele>531.0</ele><time>2026-04-04T10:55:49.505Z</time></trkpt><trkpt lat="44.4837858" lon="8.5116206"><ele>531.0</ele><time>2026-04-04T10:55:50.515Z</time></trkpt><trkpt lat="44.4837107" lon="8.5115495"><ele>531.0</ele><time>2026-04-04T10:55:51.512Z</time></trkpt><trkpt lat="44.4836526" lon="8.5114606"><ele>529.0</ele><time>2026-04-04T10:55:52.499Z</time></trkpt><trkpt lat="44.4836184" lon="8.5113594"><ele>527.0</ele><time>2026-04-04T10:55:53.511Z</time></trkpt><trkpt lat="44.4836135" lon="8.5112459"><ele>525.0</ele><time>2026-04-04T10:55:54.513Z</time></trkpt><trkpt lat="44.4836322" lon="8.5111315"><ele>523.0</ele><time>2026-04-04T10:55:55.51Z</time></trkpt><trkpt lat="44.4836641" lon="8.5110136"><ele>521.0</ele><time>2026-04-04T10:55:56.504Z</time></trkpt><trkpt lat="44.483693" lon="8.5108935"><ele>519.0</ele><time>2026-04-04T10:55:57.51Z</time></trkpt><trkpt lat="44.4837028" lon="8.5107765"><ele>519.0</ele><time>2026-04-04T10:55:58.512Z</time></trkpt><trkpt lat="44.4836835" lon="8.5106619"><ele>519.0</ele><time>2026-04-04T10:55:59.505Z</time></trkpt><trkpt lat="44.4835358" lon="8.5104725"><ele>519.0</ele><time>2026-04-04T10:56:01.522Z</time></trkpt><trkpt lat="44.4834649" lon="8.5103787"><ele>519.0</ele><time>2026-04-04T10:56:02.505Z</time></trkpt><trkpt lat="44.4834056" lon="8.5102793"><ele>518.1666666666666</ele><time>2026-04-04T10:56:03.517Z</time></trkpt><trkpt lat="44.483363" lon="8.5101759"><ele>517.3333333333334</ele><time>2026-04-04T10:56:04.512Z</time></trkpt><trkpt lat="44.4833413" lon="8.5100582"><ele>516.5</ele><time>2026-04-04T10:56:05.503Z</time></trkpt><trkpt lat="44.4833314" lon="8.5099432"><ele>515.6666666666667</ele><time>2026-04-04T10:56:06.513Z</time></trkpt><trkpt lat="44.483369" lon="8.5098261"><ele>514.8333333333334</ele><time>2026-04-04T10:56:07.513Z</time></trkpt><trkpt lat="44.4834107" lon="8.5097134"><ele>514.0</ele><time>2026-04-04T10:56:08.504Z</time></trkpt><trkpt lat="44.4834357" lon="8.5095929"><ele>512.6666666666667</ele><time>2026-04-04T10:56:09.513Z</time></trkpt><trkpt lat="44.4834132" lon="8.5094828"><ele>511.33333333333337</ele><time>2026-04-04T10:56:10.506Z</time></trkpt><trkpt lat="44.4833642" lon="8.5093869"><ele>510.0</ele><time>2026-04-04T10:56:11.503Z</time></trkpt><trkpt lat="44.4832985" lon="8.5093039"><ele>508.66666666666663</ele><time>2026-04-04T10:56:12.514Z</time></trkpt><trkpt lat="44.4832144" lon="8.5092451"><ele>507.3333333333333</ele><time>2026-04-04T10:56:13.518Z</time></trkpt><trkpt lat="44.4831326" lon="8.5091946"><ele>506.0</ele><time>2026-04-04T10:56:14.504Z</time></trkpt><trkpt lat="44.4830581" lon="8.50915"><ele>506.0</ele><time>2026-04-04T10:56:15.515Z</time></trkpt><trkpt lat="44.4829995" lon="8.5091103"><ele>506.0</ele><time>2026-04-04T10:56:16.509Z</time></trkpt><trkpt lat="44.4829563" lon="8.5089529"><ele>506.0</ele><time>2026-04-04T10:56:18.517Z</time></trkpt><trkpt lat="44.4829972" lon="8.5088465"><ele>506.0</ele><time>2026-04-04T10:56:19.511Z</time></trkpt><trkpt lat="44.4830649" lon="8.5087322"><ele>506.0</ele><time>2026-04-04T10:56:20.517Z</time></trkpt><trkpt lat="44.483193" lon="8.5085085"><ele>503.3333333333333</ele><time>2026-04-04T10:56:22.502Z</time></trkpt><trkpt lat="44.4832304" lon="8.5083843"><ele>500.66666666666663</ele><time>2026-04-04T10:56:23.509Z</time></trkpt><trkpt lat="44.48324" lon="8.5082599"><ele>498.0</ele><time>2026-04-04T10:56:24.515Z</time></trkpt><trkpt lat="44.4832095" lon="8.5081546"><ele>495.33333333333337</ele><time>2026-04-04T10:56:25.516Z</time></trkpt><trkpt lat="44.4831615" lon="8.5080649"><ele>492.6666666666667</ele><time>2026-04-04T10:56:26.504Z</time></trkpt><trkpt lat="44.4830912" lon="8.5080161"><ele>490.0</ele><time>2026-04-04T10:56:27.518Z</time></trkpt><trkpt lat="44.4830059" lon="8.5079788"><ele>491.6666666666667</ele><time>2026-04-04T10:56:28.507Z</time></trkpt><trkpt lat="44.4829244" lon="8.507935"><ele>493.33333333333337</ele><time>2026-04-04T10:56:29.516Z</time></trkpt><trkpt lat="44.4828681" lon="8.5078589"><ele>495.0</ele><time>2026-04-04T10:56:30.508Z</time></trkpt><trkpt lat="44.4828471" lon="8.5077532"><ele>496.66666666666663</ele><time>2026-04-04T10:56:31.508Z</time></trkpt><trkpt lat="44.4828537" lon="8.5076409"><ele>498.3333333333333</ele><time>2026-04-04T10:56:32.51Z</time></trkpt><trkpt lat="44.4828665" lon="8.507508"><ele>500.0</ele><time>2026-04-04T10:56:33.506Z</time></trkpt><trkpt lat="44.4828825" lon="8.5073681"><ele>496.0</ele><time>2026-04-04T10:56:34.503Z</time></trkpt><trkpt lat="44.4828959" lon="8.5072294"><ele>492.0</ele><time>2026-04-04T10:56:35.505Z</time></trkpt><trkpt lat="44.4829012" lon="8.507093"><ele>488.0</ele><time>2026-04-04T10:56:36.508Z</time></trkpt><trkpt lat="44.4828989" lon="8.506959"><ele>484.0</ele><time>2026-04-04T10:56:37.502Z</time></trkpt><trkpt lat="44.4829001" lon="8.5068265"><ele>480.0</ele><time>2026-04-04T10:56:38.507Z</time></trkpt><trkpt lat="44.4829024" lon="8.506693"><ele>478.2</ele><time>2026-04-04T10:56:39.507Z</time></trkpt><trkpt lat="44.4829006" lon="8.5065618"><ele>476.4</ele><time>2026-04-04T10:56:40.505Z</time></trkpt><trkpt lat="44.4828892" lon="8.5064419"><ele>474.6</ele><time>2026-04-04T10:56:41.506Z</time></trkpt><trkpt lat="44.4828112" lon="8.5062424"><ele>472.8</ele><time>2026-04-04T10:56:43.508Z</time></trkpt><trkpt lat="44.4827583" lon="8.5061519"><ele>471.0</ele><time>2026-04-04T10:56:44.509Z</time></trkpt><trkpt lat="44.4827047" lon="8.5060578"><ele>469.5</ele><time>2026-04-04T10:56:45.501Z</time></trkpt><trkpt lat="44.4826531" lon="8.5059587"><ele>468.0</ele><time>2026-04-04T10:56:46.507Z</time></trkpt><trkpt lat="44.482605" lon="8.5058567"><ele>466.5</ele><time>2026-04-04T10:56:47.505Z</time></trkpt><trkpt lat="44.4825574" lon="8.5057508"><ele>465.0</ele><time>2026-04-04T10:56:48.512Z</time></trkpt><trkpt lat="44.482508" lon="8.5056463"><ele>463.5</ele><time>2026-04-04T10:56:49.512Z</time></trkpt><trkpt lat="44.4824538" lon="8.5055444"><ele>462.0</ele><time>2026-04-04T10:56:50.511Z</time></trkpt><trkpt lat="44.4823908" lon="8.505449"><ele>459.8333333333333</ele><time>2026-04-04T10:56:51.516Z</time></trkpt><trkpt lat="44.4823187" lon="8.5053655"><ele>457.66666666666663</ele><time>2026-04-04T10:56:52.513Z</time></trkpt><trkpt lat="44.4822431" lon="8.5052923"><ele>455.5</ele><time>2026-04-04T10:56:53.509Z</time></trkpt><trkpt lat="44.4821653" lon="8.5052251"><ele>453.3333333333333</ele><time>2026-04-04T10:56:54.504Z</time></trkpt><trkpt lat="44.4820877" lon="8.505163"><ele>451.16666666666663</ele><time>2026-04-04T10:56:55.507Z</time></trkpt><trkpt lat="44.4820163" lon="8.5051058"><ele>449.0</ele><time>2026-04-04T10:56:56.503Z</time></trkpt><trkpt lat="44.481952" lon="8.5050497"><ele>448.66666666666663</ele><time>2026-04-04T10:56:57.503Z</time></trkpt><trkpt lat="44.4818982" lon="8.5049805"><ele>448.3333333333333</ele><time>2026-04-04T10:56:58.502Z</time></trkpt><trkpt lat="44.4818538" lon="8.5048905"><ele>448.0</ele><time>2026-04-04T10:56:59.505Z</time></trkpt><trkpt lat="44.4818107" lon="8.5047879"><ele>447.66666666666663</ele><time>2026-04-04T10:57:00.502Z</time></trkpt><trkpt lat="44.4817593" lon="8.5046802"><ele>447.3333333333333</ele><time>2026-04-04T10:57:01.502Z</time></trkpt><trkpt lat="44.4816912" lon="8.5045862"><ele>447.0</ele><time>2026-04-04T10:57:02.508Z</time></trkpt><trkpt lat="44.4815249" lon="8.5044632"><ele>447.20000000000005</ele><time>2026-04-04T10:57:04.502Z</time></trkpt><trkpt lat="44.4814356" lon="8.5044128"><ele>447.40000000000003</ele><time>2026-04-04T10:57:05.501Z</time></trkpt><trkpt lat="44.4813458" lon="8.5043505"><ele>447.59999999999997</ele><time>2026-04-04T10:57:06.508Z</time></trkpt><trkpt lat="44.4812609" lon="8.5042795"><ele>447.79999999999995</ele><time>2026-04-04T10:57:07.509Z</time></trkpt><trkpt lat="44.4811857" lon="8.5042017"><ele>448.0</ele><time>2026-04-04T10:57:08.506Z</time></trkpt><trkpt lat="44.4811217" lon="8.5041158"><ele>448.00000000000006</ele><time>2026-04-04T10:57:09.5Z</time></trkpt><trkpt lat="44.4810729" lon="8.5040191"><ele>448.0</ele><time>2026-04-04T10:57:10.502Z</time></trkpt><trkpt lat="44.4810438" lon="8.5039068"><ele>448.0</ele><time>2026-04-04T10:57:11.503Z</time></trkpt><trkpt lat="44.4810245" lon="8.5037873"><ele>448.0</ele><time>2026-04-04T10:57:12.507Z</time></trkpt><trkpt lat="44.4810318" lon="8.5036605"><ele>448.00000000000006</ele><time>2026-04-04T10:57:13.505Z</time></trkpt><trkpt lat="44.4810437" lon="8.5035405"><ele>448.0</ele><time>2026-04-04T10:57:14.501Z</time></trkpt><trkpt lat="44.4810464" lon="8.5034379"><ele>447.83333333333337</ele><time>2026-04-04T10:57:15.503Z</time></trkpt><trkpt lat="44.4810297" lon="8.5033472"><ele>447.6666666666667</ele><time>2026-04-04T10:57:16.523Z</time></trkpt><trkpt lat="44.4809894" lon="8.5032692"><ele>447.5</ele><time>2026-04-04T10:57:17.519Z</time></trkpt><trkpt lat="44.4809351" lon="8.5031865"><ele>447.33333333333337</ele><time>2026-04-04T10:57:18.515Z</time></trkpt><trkpt lat="44.480876" lon="8.5031061"><ele>447.1666666666667</ele><time>2026-04-04T10:57:19.507Z</time></trkpt><trkpt lat="44.4808357" lon="8.5030038"><ele>447.0</ele><time>2026-04-04T10:57:20.504Z</time></trkpt><trkpt lat="44.4808022" lon="8.5029017"><ele>445.5</ele><time>2026-04-04T10:57:21.501Z</time></trkpt><trkpt lat="44.4807936" lon="8.5027809"><ele>444.0</ele><time>2026-04-04T10:57:22.511Z</time></trkpt><trkpt lat="44.480795" lon="8.5026504"><ele>442.5</ele><time>2026-04-04T10:57:23.507Z</time></trkpt><trkpt lat="44.4808516" lon="8.5023938"><ele>441.0</ele><time>2026-04-04T10:57:25.502Z</time></trkpt><trkpt lat="44.4808839" lon="8.5022661"><ele>441.0</ele><time>2026-04-04T10:57:26.511Z</time></trkpt><trkpt lat="44.4809011" lon="8.5021416"><ele>441.0</ele><time>2026-04-04T10:57:27.503Z</time></trkpt><trkpt lat="44.4808996" lon="8.502016"><ele>441.0</ele><time>2026-04-04T10:57:28.507Z</time></trkpt><trkpt lat="44.4808813" lon="8.5018967"><ele>441.0</ele><time>2026-04-04T10:57:29.505Z</time></trkpt><trkpt lat="44.4808574" lon="8.5017835"><ele>441.0</ele><time>2026-04-04T10:57:30.509Z</time></trkpt><trkpt lat="44.480842" lon="8.5016627"><ele>441.0</ele><time>2026-04-04T10:57:31.515Z</time></trkpt><trkpt lat="44.4808444" lon="8.5015361"><ele>440.3333333333333</ele><time>2026-04-04T10:57:32.516Z</time></trkpt><trkpt lat="44.4808579" lon="8.5014161"><ele>439.66666666666663</ele><time>2026-04-04T10:57:33.513Z</time></trkpt><trkpt lat="44.4808973" lon="8.501313"><ele>439.0</ele><time>2026-04-04T10:57:34.511Z</time></trkpt><trkpt lat="44.4809413" lon="8.501217"><ele>438.3333333333333</ele><time>2026-04-04T10:57:35.505Z</time></trkpt><trkpt lat="44.4809742" lon="8.5011171"><ele>437.66666666666663</ele><time>2026-04-04T10:57:36.509Z</time></trkpt><trkpt lat="44.480989" lon="8.5009996"><ele>437.0</ele><time>2026-04-04T10:57:37.505Z</time></trkpt><trkpt lat="44.4809805" lon="8.5008564"><ele>436.5</ele><time>2026-04-04T10:57:38.519Z</time></trkpt><trkpt lat="44.4809627" lon="8.5006984"><ele>436.0</ele><time>2026-04-04T10:57:39.506Z</time></trkpt><trkpt lat="44.4809392" lon="8.5005332"><ele>435.5</ele><time>2026-04-04T10:57:40.502Z</time></trkpt><trkpt lat="44.4809179" lon="8.5003617"><ele>435.0</ele><time>2026-04-04T10:57:41.506Z</time></trkpt><trkpt lat="44.4808953" lon="8.5002026"><ele>434.2</ele><time>2026-04-04T10:57:42.51Z</time></trkpt><trkpt lat="44.4808718" lon="8.5000748"><ele>433.4</ele><time>2026-04-04T10:57:43.51Z</time></trkpt><trkpt lat="44.4808534" lon="8.4999755"><ele>432.6</ele><time>2026-04-04T10:57:44.5Z</time></trkpt><trkpt lat="44.4808332" lon="8.49976"><ele>431.8</ele><time>2026-04-04T10:57:46.506Z</time></trkpt><trkpt lat="44.4808255" lon="8.4996273"><ele>431.0</ele><time>2026-04-04T10:57:47.506Z</time></trkpt><trkpt lat="44.4808181" lon="8.4994741"><ele>431.0</ele><time>2026-04-04T10:57:48.509Z</time></trkpt><trkpt lat="44.4808091" lon="8.4993103"><ele>431.0</ele><time>2026-04-04T10:57:49.508Z</time></trkpt><trkpt lat="44.480798" lon="8.499138"><ele>431.0</ele><time>2026-04-04T10:57:50.508Z</time></trkpt><trkpt lat="44.480786" lon="8.4989608"><ele>431.0</ele><time>2026-04-04T10:57:51.505Z</time></trkpt><trkpt lat="44.4807762" lon="8.4987797"><ele>429.75</ele><time>2026-04-04T10:57:52.508Z</time></trkpt><trkpt lat="44.4807666" lon="8.4985953"><ele>428.5</ele><time>2026-04-04T10:57:53.507Z</time></trkpt><trkpt lat="44.4807561" lon="8.4984145"><ele>427.25</ele><time>2026-04-04T10:57:54.506Z</time></trkpt><trkpt lat="44.4807463" lon="8.4982409"><ele>426.0</ele><time>2026-04-04T10:57:55.514Z</time></trkpt><trkpt lat="44.4807317" lon="8.4980827"><ele>425.5</ele><time>2026-04-04T10:57:56.507Z</time></trkpt><trkpt lat="44.4806919" lon="8.4979151"><ele>425.0</ele><time>2026-04-04T10:57:57.503Z</time></trkpt><trkpt lat="44.4806458" lon="8.4977296"><ele>424.5</ele><time>2026-04-04T10:57:58.506Z</time></trkpt><trkpt lat="44.4806" lon="8.4975381"><ele>424.0</ele><time>2026-04-04T10:57:59.507Z</time></trkpt><trkpt lat="44.4805569" lon="8.4973565"><ele>424.0</ele><time>2026-04-04T10:58:00.508Z</time></trkpt><trkpt lat="44.4805163" lon="8.4971857"><ele>424.0</ele><time>2026-04-04T10:58:01.507Z</time></trkpt><trkpt lat="44.4804788" lon="8.4970162"><ele>424.0</ele><time>2026-04-04T10:58:02.507Z</time></trkpt><trkpt lat="44.4804423" lon="8.4968475"><ele>424.0</ele><time>2026-04-04T10:58:03.505Z</time></trkpt><trkpt lat="44.4804005" lon="8.4966857"><ele>423.0</ele><time>2026-04-04T10:58:04.507Z</time></trkpt><trkpt lat="44.480362" lon="8.4965372"><ele>422.0</ele><time>2026-04-04T10:58:05.506Z</time></trkpt><trkpt lat="44.4802896" lon="8.4962575"><ele>421.0</ele><time>2026-04-04T10:58:07.506Z</time></trkpt><trkpt lat="44.4802606" lon="8.4960993"><ele>420.0</ele><time>2026-04-04T10:58:08.507Z</time></trkpt><trkpt lat="44.4802318" lon="8.4959342"><ele>420.0</ele><time>2026-04-04T10:58:09.511Z</time></trkpt><trkpt lat="44.4802035" lon="8.4957703"><ele>420.0</ele><time>2026-04-04T10:58:10.506Z</time></trkpt><trkpt lat="44.480177" lon="8.4956104"><ele>420.0</ele><time>2026-04-04T10:58:11.511Z</time></trkpt><trkpt lat="44.4801486" lon="8.4954518"><ele>420.0</ele><time>2026-04-04T10:58:12.51Z</time></trkpt><trkpt lat="44.4801201" lon="8.4952939"><ele>418.25</ele><time>2026-04-04T10:58:13.504Z</time></trkpt><trkpt lat="44.4800927" lon="8.4951321"><ele>416.5</ele><time>2026-04-04T10:58:14.504Z</time></trkpt><trkpt lat="44.4800662" lon="8.4949675"><ele>414.75</ele><time>2026-04-04T10:58:15.505Z</time></trkpt><trkpt lat="44.4800402" lon="8.4948063"><ele>413.0</ele><time>2026-04-04T10:58:16.512Z</time></trkpt><trkpt lat="44.4800079" lon="8.4946486"><ele>410.0</ele><time>2026-04-04T10:58:17.51Z</time></trkpt><trkpt lat="44.4799667" lon="8.4944948"><ele>407.0</ele><time>2026-04-04T10:58:18.505Z</time></trkpt><trkpt lat="44.4799133" lon="8.4943479"><ele>404.0</ele><time>2026-04-04T10:58:19.509Z</time></trkpt><trkpt lat="44.4798525" lon="8.4942033"><ele>401.0</ele><time>2026-04-04T10:58:20.509Z</time></trkpt><trkpt lat="44.4797887" lon="8.4940629"><ele>401.0</ele><time>2026-04-04T10:58:21.504Z</time></trkpt><trkpt lat="44.4797254" lon="8.4939293"><ele>401.0</ele><time>2026-04-04T10:58:22.51Z</time></trkpt><trkpt lat="44.4796643" lon="8.4938008"><ele>401.0</ele><time>2026-04-04T10:58:23.509Z</time></trkpt><trkpt lat="44.4796141" lon="8.4936736"><ele>401.0</ele><time>2026-04-04T10:58:24.511Z</time></trkpt><trkpt lat="44.4795704" lon="8.49354"><ele>401.0</ele><time>2026-04-04T10:58:25.512Z</time></trkpt><trkpt lat="44.4795349" lon="8.493387"><ele>401.0</ele><time>2026-04-04T10:58:26.505Z</time></trkpt><trkpt lat="44.4794856" lon="8.4930474"><ele>401.0</ele><time>2026-04-04T10:58:28.513Z</time></trkpt><trkpt lat="44.4794675" lon="8.4928805"><ele>401.0</ele><time>2026-04-04T10:58:29.507Z</time></trkpt><trkpt lat="44.4794484" lon="8.4927185"><ele>399.8</ele><time>2026-04-04T10:58:30.502Z</time></trkpt><trkpt lat="44.4794297" lon="8.4925602"><ele>398.6</ele><time>2026-04-04T10:58:31.509Z</time></trkpt><trkpt lat="44.4794108" lon="8.4924063"><ele>397.4</ele><time>2026-04-04T10:58:32.51Z</time></trkpt><trkpt lat="44.4793927" lon="8.4922531"><ele>396.2</ele><time>2026-04-04T10:58:33.507Z</time></trkpt><trkpt lat="44.4793749" lon="8.492104"><ele>395.0</ele><time>2026-04-04T10:58:34.508Z</time></trkpt><trkpt lat="44.4793585" lon="8.4919622"><ele>393.99999999999994</ele><time>2026-04-04T10:58:35.509Z</time></trkpt><trkpt lat="44.4793427" lon="8.4918256"><ele>393.0</ele><time>2026-04-04T10:58:36.512Z</time></trkpt><trkpt lat="44.4793291" lon="8.4916999"><ele>392.0</ele><time>2026-04-04T10:58:37.507Z</time></trkpt><trkpt lat="44.4793164" lon="8.4915959"><ele>391.0</ele><time>2026-04-04T10:58:38.509Z</time></trkpt><trkpt lat="44.4792973" lon="8.4914538"><ele>389.99999999999994</ele><time>2026-04-04T10:58:40.504Z</time></trkpt><trkpt lat="44.479269" lon="8.4913585"><ele>389.0</ele><time>2026-04-04T10:58:42.513Z</time></trkpt><trkpt lat="44.4791912" lon="8.4913209"><ele>389.0</ele><time>2026-04-04T10:58:45.505Z</time></trkpt><trkpt lat="44.4791016" lon="8.4913613"><ele>389.0</ele><time>2026-04-04T10:58:59.517Z</time></trkpt><trkpt lat="44.4788956" lon="8.4913586"><ele>389.0</ele><time>2026-04-04T10:59:03.513Z</time></trkpt><trkpt lat="44.4788314" lon="8.491309"><ele>389.0</ele><time>2026-04-04T10:59:11.508Z</time></trkpt><trkpt lat="44.4788398" lon="8.4911921"><ele>388.99999999999994</ele><time>2026-04-04T10:59:13.513Z</time></trkpt><trkpt lat="44.4788739" lon="8.491111"><ele>389.0</ele><time>2026-04-04T10:59:15.505Z</time></trkpt><trkpt lat="44.4789262" lon="8.4910567"><ele>389.0</ele><time>2026-04-04T10:59:18.526Z</time></trkpt><trkpt lat="44.4788939" lon="8.4911407"><ele>389.0</ele><time>2026-04-04T10:59:29.508Z</time></trkpt><trkpt lat="44.4788496" lon="8.4913491"><ele>388.99999999999994</ele><time>2026-04-04T10:59:35.514Z</time></trkpt><trkpt lat="44.4789178" lon="8.4913715"><ele>389.0</ele><time>2026-04-04T10:59:37.509Z</time></trkpt><trkpt lat="44.4790311" lon="8.491385"><ele>388.99999999999994</ele><time>2026-04-04T10:59:39.513Z</time></trkpt><trkpt lat="44.4791349" lon="8.4913905"><ele>389.0</ele><time>2026-04-04T10:59:41.51Z</time></trkpt><trkpt lat="44.4792198" lon="8.4913783"><ele>389.0</ele><time>2026-04-04T10:59:43.511Z</time></trkpt><trkpt lat="44.4792926" lon="8.4914216"><ele>389.0</ele><time>2026-04-04T10:59:47.521Z</time></trkpt><trkpt lat="44.4793378" lon="8.491552"><ele>388.99999999999994</ele><time>2026-04-04T10:59:49.508Z</time></trkpt><trkpt lat="44.4793598" lon="8.491651"><ele>389.0</ele><time>2026-04-04T10:59:50.512Z</time></trkpt><trkpt lat="44.4794085" lon="8.4918813"><ele>389.0</ele><time>2026-04-04T10:59:52.518Z</time></trkpt><trkpt lat="44.4794387" lon="8.4919951"><ele>389.0</ele><time>2026-04-04T10:59:53.524Z</time></trkpt><trkpt lat="44.4794758" lon="8.4921164"><ele>389.0</ele><time>2026-04-04T10:59:54.51Z</time></trkpt><trkpt lat="44.4795186" lon="8.4922471"><ele>389.0</ele><time>2026-04-04T10:59:55.508Z</time></trkpt><trkpt lat="44.479563" lon="8.4923794"><ele>389.0</ele><time>2026-04-04T10:59:56.505Z</time></trkpt><trkpt lat="44.4796088" lon="8.4925125"><ele>389.2</ele><time>2026-04-04T10:59:57.509Z</time></trkpt><trkpt lat="44.4796564" lon="8.4926471"><ele>389.4</ele><time>2026-04-04T10:59:58.505Z</time></trkpt><trkpt lat="44.4797062" lon="8.4927836"><ele>389.6</ele><time>2026-04-04T10:59:59.511Z</time></trkpt><trkpt lat="44.4797545" lon="8.4929198"><ele>389.8</ele><time>2026-04-04T11:00:00.521Z</time></trkpt><trkpt lat="44.4797994" lon="8.4930531"><ele>390.0</ele><time>2026-04-04T11:00:01.511Z</time></trkpt><trkpt lat="44.4798418" lon="8.4931855"><ele>390.0</ele><time>2026-04-04T11:00:02.506Z</time></trkpt><trkpt lat="44.4798826" lon="8.4933154"><ele>390.0</ele><time>2026-04-04T11:00:03.51Z</time></trkpt><trkpt lat="44.4799211" lon="8.4934396"><ele>390.0</ele><time>2026-04-04T11:00:04.501Z</time></trkpt><trkpt lat="44.4799595" lon="8.4935551"><ele>390.0</ele><time>2026-04-04T11:00:05.515Z</time></trkpt><trkpt lat="44.4799974" lon="8.4936556"><ele>390.0</ele><time>2026-04-04T11:00:06.501Z</time></trkpt><trkpt lat="44.4800368" lon="8.4937319"><ele>390.0</ele><time>2026-04-04T11:00:07.516Z</time></trkpt><trkpt lat="44.4801043" lon="8.4938272"><ele>390.0</ele><time>2026-04-04T11:00:09.504Z</time></trkpt><trkpt lat="44.4801685" lon="8.4938135"><ele>390.0</ele><time>2026-04-04T11:00:12.507Z</time></trkpt><trkpt lat="44.4800949" lon="8.4935917"><ele>390.0</ele><time>2026-04-04T11:00:16.509Z</time></trkpt><trkpt lat="44.4800598" lon="8.4934911"><ele>390.0</ele><time>2026-04-04T11:00:17.505Z</time></trkpt><trkpt lat="44.48002" lon="8.493366"><ele>390.0</ele><time>2026-04-04T11:00:18.505Z</time></trkpt><trkpt lat="44.4799759" lon="8.4932239"><ele>390.0</ele><time>2026-04-04T11:00:19.508Z</time></trkpt><trkpt lat="44.4799336" lon="8.4930839"><ele>390.0</ele><time>2026-04-04T11:00:20.505Z</time></trkpt><trkpt lat="44.4798945" lon="8.4929509"><ele>390.0</ele><time>2026-04-04T11:00:21.504Z</time></trkpt><trkpt lat="44.4798603" lon="8.4928212"><ele>390.0</ele><time>2026-04-04T11:00:22.507Z</time></trkpt><trkpt lat="44.4798272" lon="8.4926924"><ele>390.0</ele><time>2026-04-04T11:00:23.515Z</time></trkpt><trkpt lat="44.4797942" lon="8.4925614"><ele>388.8</ele><time>2026-04-04T11:00:24.503Z</time></trkpt><trkpt lat="44.4797618" lon="8.4924272"><ele>387.6</ele><time>2026-04-04T11:00:25.509Z</time></trkpt><trkpt lat="44.4797286" lon="8.4922962"><ele>386.4</ele><time>2026-04-04T11:00:26.505Z</time></trkpt><trkpt lat="44.4796949" lon="8.4921653"><ele>385.2</ele><time>2026-04-04T11:00:27.506Z</time></trkpt><trkpt lat="44.479661" lon="8.4920346"><ele>384.0</ele><time>2026-04-04T11:00:28.51Z</time></trkpt><trkpt lat="44.4796284" lon="8.4919039"><ele>384.79999999999995</ele><time>2026-04-04T11:00:29.504Z</time></trkpt><trkpt lat="44.4795987" lon="8.4917724"><ele>385.59999999999997</ele><time>2026-04-04T11:00:30.508Z</time></trkpt><trkpt lat="44.4795711" lon="8.4916366"><ele>386.4</ele><time>2026-04-04T11:00:31.514Z</time></trkpt><trkpt lat="44.4795473" lon="8.4914988"><ele>387.2</ele><time>2026-04-04T11:00:32.506Z</time></trkpt><trkpt lat="44.4795241" lon="8.4913615"><ele>388.0</ele><time>2026-04-04T11:00:33.516Z</time></trkpt><trkpt lat="44.4794929" lon="8.4911291"><ele>388.00000000000006</ele><time>2026-04-04T11:00:35.501Z</time></trkpt><trkpt lat="44.4794802" lon="8.491024"><ele>388.0</ele><time>2026-04-04T11:00:36.512Z</time></trkpt><trkpt lat="44.4794679" lon="8.4909236"><ele>388.0</ele><time>2026-04-04T11:00:37.51Z</time></trkpt><trkpt lat="44.4794562" lon="8.4907732"><ele>388.0</ele><time>2026-04-04T11:00:39.514Z</time></trkpt><trkpt lat="44.4794493" lon="8.490664"><ele>388.00000000000006</ele><time>2026-04-04T11:00:41.505Z</time></trkpt><trkpt lat="44.479431" lon="8.4905318"><ele>388.0</ele><time>2026-04-04T11:00:43.504Z</time></trkpt><trkpt lat="44.4794202" lon="8.4904418"><ele>388.1666666666667</ele><time>2026-04-04T11:00:44.508Z</time></trkpt><trkpt lat="44.4794349" lon="8.490287"><ele>388.33333333333337</ele><time>2026-04-04T11:00:46.509Z</time></trkpt><trkpt lat="44.4795032" lon="8.4902208"><ele>388.5</ele><time>2026-04-04T11:00:48.509Z</time></trkpt><trkpt lat="44.4795923" lon="8.49021"><ele>388.66666666666663</ele><time>2026-04-04T11:00:50.507Z</time></trkpt><trkpt lat="44.4796599" lon="8.4902357"><ele>388.8333333333333</ele><time>2026-04-04T11:00:52.515Z</time></trkpt><trkpt lat="44.4796872" lon="8.4903546"><ele>389.0</ele><time>2026-04-04T11:00:55.512Z</time></trkpt><trkpt lat="44.4796781" lon="8.490525"><ele>573.0</ele><time>2026-04-04T11:19:13.285Z</time></trkpt><trkpt lat="44.4108938" lon="8.4140254"><ele>573.0</ele><time>2026-04-04T13:12:17.896Z</time></trkpt><trkpt lat="44.4109739" lon="8.4140007"><ele>573.0</ele><time>2026-04-04T13:13:57.897Z</time></trkpt><trkpt lat="44.4110902" lon="8.4138089"><ele>573.0</ele><time>2026-04-04T13:14:01.916Z</time></trkpt><trkpt lat="44.4111543" lon="8.4137551"><ele>573.0</ele><time>2026-04-04T13:14:02.916Z</time></trkpt><trkpt lat="44.4112368" lon="8.4137032"><ele>573.0</ele><time>2026-04-04T13:14:03.919Z</time></trkpt><trkpt lat="44.4113337" lon="8.4136448"><ele>571.4</ele><time>2026-04-04T13:14:04.93Z</time></trkpt><trkpt lat="44.411427" lon="8.4135866"><ele>569.8</ele><time>2026-04-04T13:14:05.923Z</time></trkpt><trkpt lat="44.4115211" lon="8.4135292"><ele>568.2</ele><time>2026-04-04T13:14:06.923Z</time></trkpt><trkpt lat="44.4116194" lon="8.4134657"><ele>566.6</ele><time>2026-04-04T13:14:07.913Z</time></trkpt><trkpt lat="44.4117202" lon="8.413409"><ele>565.0</ele><time>2026-04-04T13:14:08.925Z</time></trkpt><trkpt lat="44.4118168" lon="8.413365"><ele>565.0</ele><time>2026-04-04T13:14:09.914Z</time></trkpt><trkpt lat="44.4119092" lon="8.4133323"><ele>565.0</ele><time>2026-04-04T13:14:10.919Z</time></trkpt><trkpt lat="44.4119967" lon="8.4133093"><ele>565.0</ele><time>2026-04-04T13:14:11.944Z</time></trkpt><trkpt lat="44.4120823" lon="8.4132967"><ele>565.0</ele><time>2026-04-04T13:14:12.926Z</time></trkpt><trkpt lat="44.4121671" lon="8.4133037"><ele>565.0</ele><time>2026-04-04T13:14:13.918Z</time></trkpt><trkpt lat="44.4122489" lon="8.413328"><ele>565.0</ele><time>2026-04-04T13:14:14.915Z</time></trkpt><trkpt lat="44.4123251" lon="8.4133698"><ele>564.8</ele><time>2026-04-04T13:14:15.933Z</time></trkpt><trkpt lat="44.4123959" lon="8.4134318"><ele>564.6</ele><time>2026-04-04T13:14:16.935Z</time></trkpt><trkpt lat="44.4124695" lon="8.4134925"><ele>564.4</ele><time>2026-04-04T13:14:17.917Z</time></trkpt><trkpt lat="44.4125486" lon="8.4135534"><ele>564.2</ele><time>2026-04-04T13:14:18.925Z</time></trkpt><trkpt lat="44.4127169" lon="8.4136698"><ele>564.0</ele><time>2026-04-04T13:14:20.915Z</time></trkpt><trkpt lat="44.4127973" lon="8.4137244"><ele>564.0</ele><time>2026-04-04T13:14:21.909Z</time></trkpt><trkpt lat="44.4128788" lon="8.413778"><ele>564.0</ele><time>2026-04-04T13:14:22.919Z</time></trkpt><trkpt lat="44.4129612" lon="8.4138319"><ele>564.0</ele><time>2026-04-04T13:14:23.91Z</time></trkpt><trkpt lat="44.4130456" lon="8.4138864"><ele>564.0</ele><time>2026-04-04T13:14:24.914Z</time></trkpt><trkpt lat="44.4131322" lon="8.4139397"><ele>564.0</ele><time>2026-04-04T13:14:25.913Z</time></trkpt><trkpt lat="44.4132219" lon="8.4139947"><ele>563.8</ele><time>2026-04-04T13:14:26.913Z</time></trkpt><trkpt lat="44.4133131" lon="8.4140538"><ele>563.5999999999999</ele><time>2026-04-04T13:14:27.908Z</time></trkpt><trkpt lat="44.4134077" lon="8.414114"><ele>563.4</ele><time>2026-04-04T13:14:28.949Z</time></trkpt><trkpt lat="44.4134996" lon="8.4141739"><ele>563.1999999999999</ele><time>2026-04-04T13:14:29.908Z</time></trkpt><trkpt lat="44.4135944" lon="8.4142369"><ele>563.0</ele><time>2026-04-04T13:14:30.922Z</time></trkpt><trkpt lat="44.4136883" lon="8.4142973"><ele>563.0</ele><time>2026-04-04T13:14:31.92Z</time></trkpt><trkpt lat="44.4137825" lon="8.414356"><ele>563.0</ele><time>2026-04-04T13:14:32.913Z</time></trkpt><trkpt lat="44.4138752" lon="8.4144132"><ele>563.0</ele><time>2026-04-04T13:14:33.914Z</time></trkpt><trkpt lat="44.4139663" lon="8.4144696"><ele>563.0</ele><time>2026-04-04T13:14:34.917Z</time></trkpt><trkpt lat="44.4140561" lon="8.4145277"><ele>563.0</ele><time>2026-04-04T13:14:35.918Z</time></trkpt><trkpt lat="44.41415" lon="8.4145922"><ele>563.25</ele><time>2026-04-04T13:14:36.91Z</time></trkpt><trkpt lat="44.4142518" lon="8.4146667"><ele>563.5</ele><time>2026-04-04T13:14:37.911Z</time></trkpt><trkpt lat="44.4143672" lon="8.4147545"><ele>563.75</ele><time>2026-04-04T13:14:38.923Z</time></trkpt><trkpt lat="44.4144963" lon="8.4148578"><ele>564.0</ele><time>2026-04-04T13:14:39.914Z</time></trkpt><trkpt lat="44.414742" lon="8.4150545"><ele>566.75</ele><time>2026-04-04T13:14:41.913Z</time></trkpt><trkpt lat="44.4148608" lon="8.4151452"><ele>569.5</ele><time>2026-04-04T13:14:42.919Z</time></trkpt><trkpt lat="44.4149795" lon="8.4152345"><ele>572.25</ele><time>2026-04-04T13:14:43.913Z</time></trkpt><trkpt lat="44.4151182" lon="8.4153211"><ele>575.0</ele><time>2026-04-04T13:14:44.913Z</time></trkpt><trkpt lat="44.4152694" lon="8.4154047"><ele>571.6666666666666</ele><time>2026-04-04T13:14:45.917Z</time></trkpt><trkpt lat="44.4154181" lon="8.4154875"><ele>568.3333333333334</ele><time>2026-04-04T13:14:46.919Z</time></trkpt><trkpt lat="44.4155617" lon="8.415543"><ele>565.0</ele><time>2026-04-04T13:14:47.908Z</time></trkpt><trkpt lat="44.4157108" lon="8.4155702"><ele>565.0</ele><time>2026-04-04T13:14:48.913Z</time></trkpt><trkpt lat="44.4158507" lon="8.4155767"><ele>565.0</ele><time>2026-04-04T13:14:49.918Z</time></trkpt><trkpt lat="44.4159787" lon="8.4155775"><ele>565.0</ele><time>2026-04-04T13:14:50.925Z</time></trkpt><trkpt lat="44.4161028" lon="8.4155878"><ele>565.0</ele><time>2026-04-04T13:14:51.91Z</time></trkpt><trkpt lat="44.4162351" lon="8.4156036"><ele>567.6666666666667</ele><time>2026-04-04T13:14:52.917Z</time></trkpt><trkpt lat="44.4163807" lon="8.4156259"><ele>570.3333333333334</ele><time>2026-04-04T13:14:53.915Z</time></trkpt><trkpt lat="44.4165468" lon="8.4156876"><ele>573.0</ele><time>2026-04-04T13:14:54.914Z</time></trkpt><trkpt lat="44.4167045" lon="8.4157632"><ele>573.0</ele><time>2026-04-04T13:14:55.913Z</time></trkpt><trkpt lat="44.4168536" lon="8.415837"><ele>573.0</ele><time>2026-04-04T13:14:56.909Z</time></trkpt><trkpt lat="44.4169817" lon="8.4159155"><ele>573.0</ele><time>2026-04-04T13:14:57.916Z</time></trkpt><trkpt lat="44.4170939" lon="8.4160249"><ele>573.0</ele><time>2026-04-04T13:14:58.909Z</time></trkpt><trkpt lat="44.4171905" lon="8.4161595"><ele>574.5</ele><time>2026-04-04T13:14:59.908Z</time></trkpt><trkpt lat="44.4172669" lon="8.4162977"><ele>576.0</ele><time>2026-04-04T13:15:00.92Z</time></trkpt><trkpt lat="44.4173782" lon="8.4165362"><ele>577.5</ele><time>2026-04-04T13:15:02.908Z</time></trkpt><trkpt lat="44.4174372" lon="8.4166597"><ele>579.0</ele><time>2026-04-04T13:15:03.914Z</time></trkpt><trkpt lat="44.4175025" lon="8.4167961"><ele>579.0</ele><time>2026-04-04T13:15:04.911Z</time></trkpt><trkpt lat="44.4175768" lon="8.4169538"><ele>579.0</ele><time>2026-04-04T13:15:05.911Z</time></trkpt><trkpt lat="44.4176731" lon="8.4171653"><ele>579.0</ele><time>2026-04-04T13:15:06.913Z</time></trkpt><trkpt lat="44.417783" lon="8.4174119"><ele>580.3333333333334</ele><time>2026-04-04T13:15:07.911Z</time></trkpt><trkpt lat="44.4178919" lon="8.4176582"><ele>581.6666666666667</ele><time>2026-04-04T13:15:08.92Z</time></trkpt><trkpt lat="44.4180082" lon="8.4178813"><ele>583.0</ele><time>2026-04-04T13:15:09.911Z</time></trkpt><trkpt lat="44.4181498" lon="8.418088"><ele>583.0</ele><time>2026-04-04T13:15:10.918Z</time></trkpt><trkpt lat="44.4183005" lon="8.4182775"><ele>583.0</ele><time>2026-04-04T13:15:11.914Z</time></trkpt><trkpt lat="44.4184399" lon="8.418469"><ele>583.0</ele><time>2026-04-04T13:15:12.922Z</time></trkpt><trkpt lat="44.4185594" lon="8.4186855"><ele>580.0</ele><time>2026-04-04T13:15:13.909Z</time></trkpt><trkpt lat="44.4186708" lon="8.4189261"><ele>577.0</ele><time>2026-04-04T13:15:14.925Z</time></trkpt><trkpt lat="44.4187783" lon="8.419169"><ele>574.0</ele><time>2026-04-04T13:15:15.914Z</time></trkpt><trkpt lat="44.4188836" lon="8.4194198"><ele>578.3333333333334</ele><time>2026-04-04T13:15:16.911Z</time></trkpt><trkpt lat="44.4189851" lon="8.4196621"><ele>582.6666666666666</ele><time>2026-04-04T13:15:17.915Z</time></trkpt><trkpt lat="44.4190902" lon="8.4198861"><ele>587.0</ele><time>2026-04-04T13:15:18.918Z</time></trkpt><trkpt lat="44.4191927" lon="8.4200886"><ele>587.0</ele><time>2026-04-04T13:15:19.912Z</time></trkpt><trkpt lat="44.4192826" lon="8.4202677"><ele>587.0</ele><time>2026-04-04T13:15:20.913Z</time></trkpt><trkpt lat="44.4193582" lon="8.4204404"><ele>587.0</ele><time>2026-04-04T13:15:21.913Z</time></trkpt><trkpt lat="44.4195087" lon="8.4207145"><ele>586.0</ele><time>2026-04-04T13:15:23.91Z</time></trkpt><trkpt lat="44.4196153" lon="8.420788"><ele>585.0</ele><time>2026-04-04T13:15:24.913Z</time></trkpt><trkpt lat="44.4197412" lon="8.4207973"><ele>584.0</ele><time>2026-04-04T13:15:25.908Z</time></trkpt><trkpt lat="44.4198682" lon="8.4207506"><ele>583.0</ele><time>2026-04-04T13:15:26.918Z</time></trkpt><trkpt lat="44.4199799" lon="8.4206494"><ele>589.3333333333334</ele><time>2026-04-04T13:15:27.917Z</time></trkpt><trkpt lat="44.4200818" lon="8.4204813"><ele>595.6666666666666</ele><time>2026-04-04T13:15:28.917Z</time></trkpt><trkpt lat="44.4201793" lon="8.4202556"><ele>602.0</ele><time>2026-04-04T13:15:29.918Z</time></trkpt><trkpt lat="44.4202857" lon="8.4200423"><ele>602.0</ele><time>2026-04-04T13:15:30.917Z</time></trkpt><trkpt lat="44.4203976" lon="8.4198367"><ele>602.0</ele><time>2026-04-04T13:15:31.912Z</time></trkpt><trkpt lat="44.4204966" lon="8.4196369"><ele>602.0</ele><time>2026-04-04T13:15:32.918Z</time></trkpt><trkpt lat="44.4205713" lon="8.4194306"><ele>599.75</ele><time>2026-04-04T13:15:33.913Z</time></trkpt><trkpt lat="44.420612" lon="8.4192242"><ele>597.5</ele><time>2026-04-04T13:15:34.907Z</time></trkpt><trkpt lat="44.4206257" lon="8.4190429"><ele>595.25</ele><time>2026-04-04T13:15:35.922Z</time></trkpt><trkpt lat="44.4206239" lon="8.4188755"><ele>593.0</ele><time>2026-04-04T13:15:36.917Z</time></trkpt><trkpt lat="44.4205642" lon="8.4187249"><ele>596.0</ele><time>2026-04-04T13:15:37.92Z</time></trkpt><trkpt lat="44.4204628" lon="8.4185848"><ele>599.0</ele><time>2026-04-04T13:15:38.906Z</time></trkpt><trkpt lat="44.4203259" lon="8.4184543"><ele>602.0</ele><time>2026-04-04T13:15:39.907Z</time></trkpt><trkpt lat="44.4201831" lon="8.4183277"><ele>602.0</ele><time>2026-04-04T13:15:40.915Z</time></trkpt><trkpt lat="44.4200514" lon="8.4182112"><ele>602.0</ele><time>2026-04-04T13:15:41.92Z</time></trkpt><trkpt lat="44.4199325" lon="8.4180961"><ele>602.0</ele><time>2026-04-04T13:15:42.922Z</time></trkpt><trkpt lat="44.4197915" lon="8.417783"><ele>600.3333333333333</ele><time>2026-04-04T13:15:44.909Z</time></trkpt><trkpt lat="44.4197766" lon="8.4175742"><ele>598.6666666666666</ele><time>2026-04-04T13:15:45.923Z</time></trkpt><trkpt lat="44.419807" lon="8.4173627"><ele>597.0</ele><time>2026-04-04T13:15:46.917Z</time></trkpt><trkpt lat="44.4198792" lon="8.4171565"><ele>599.0</ele><time>2026-04-04T13:15:47.912Z</time></trkpt><trkpt lat="44.4200059" lon="8.4169455"><ele>601.0</ele><time>2026-04-04T13:15:48.912Z</time></trkpt><trkpt lat="44.420122" lon="8.4167157"><ele>603.0</ele><time>2026-04-04T13:15:49.914Z</time></trkpt><trkpt lat="44.4202139" lon="8.416469"><ele>605.3333333333334</ele><time>2026-04-04T13:15:50.911Z</time></trkpt><trkpt lat="44.4202937" lon="8.4162446"><ele>607.6666666666667</ele><time>2026-04-04T13:15:51.92Z</time></trkpt><trkpt lat="44.4203688" lon="8.4160358"><ele>610.0</ele><time>2026-04-04T13:15:52.916Z</time></trkpt><trkpt lat="44.4204609" lon="8.4158392"><ele>609.25</ele><time>2026-04-04T13:15:53.907Z</time></trkpt><trkpt lat="44.42057" lon="8.4156715"><ele>608.5</ele><time>2026-04-04T13:15:54.922Z</time></trkpt><trkpt lat="44.4206737" lon="8.4155289"><ele>607.75</ele><time>2026-04-04T13:15:55.919Z</time></trkpt><trkpt lat="44.4207819" lon="8.4154263"><ele>607.0</ele><time>2026-04-04T13:15:56.914Z</time></trkpt><trkpt lat="44.4208864" lon="8.4153421"><ele>607.0</ele><time>2026-04-04T13:15:57.918Z</time></trkpt><trkpt lat="44.4210136" lon="8.4152976"><ele>607.0</ele><time>2026-04-04T13:15:58.914Z</time></trkpt><trkpt lat="44.4211542" lon="8.4152661"><ele>607.0</ele><time>2026-04-04T13:15:59.918Z</time></trkpt><trkpt lat="44.4213041" lon="8.415226"><ele>607.0</ele><time>2026-04-04T13:16:00.913Z</time></trkpt><trkpt lat="44.4214492" lon="8.4151878"><ele>602.3333333333334</ele><time>2026-04-04T13:16:01.932Z</time></trkpt><trkpt lat="44.4215825" lon="8.4151551"><ele>597.6666666666666</ele><time>2026-04-04T13:16:02.916Z</time></trkpt><trkpt lat="44.4216978" lon="8.4151037"><ele>593.0</ele><time>2026-04-04T13:16:03.921Z</time></trkpt><trkpt lat="44.4218809" lon="8.4148841"><ele>593.0</ele><time>2026-04-04T13:16:05.92Z</time></trkpt><trkpt lat="44.42194" lon="8.4147073"><ele>593.0</ele><time>2026-04-04T13:16:06.906Z</time></trkpt><trkpt lat="44.4219808" lon="8.4145007"><ele>593.0</ele><time>2026-04-04T13:16:07.907Z</time></trkpt><trkpt lat="44.4220086" lon="8.4142893"><ele>593.0</ele><time>2026-04-04T13:16:08.909Z</time></trkpt><trkpt lat="44.4220352" lon="8.4140909"><ele>592.25</ele><time>2026-04-04T13:16:09.91Z</time></trkpt><trkpt lat="44.4220765" lon="8.4139107"><ele>591.5</ele><time>2026-04-04T13:16:10.909Z</time></trkpt><trkpt lat="44.4221415" lon="8.4137597"><ele>590.75</ele><time>2026-04-04T13:16:11.914Z</time></trkpt><trkpt lat="44.422218" lon="8.4136182"><ele>590.0</ele><time>2026-04-04T13:16:12.923Z</time></trkpt><trkpt lat="44.4223351" lon="8.4135524"><ele>590.0</ele><time>2026-04-04T13:16:13.917Z</time></trkpt><trkpt lat="44.4224651" lon="8.4135636"><ele>590.0</ele><time>2026-04-04T13:16:14.925Z</time></trkpt><trkpt lat="44.4226096" lon="8.4136048"><ele>590.0</ele><time>2026-04-04T13:16:15.91Z</time></trkpt><trkpt lat="44.4227779" lon="8.4136477"><ele>590.0</ele><time>2026-04-04T13:16:16.911Z</time></trkpt><trkpt lat="44.4229346" lon="8.4136531"><ele>589.3333333333333</ele><time>2026-04-04T13:16:17.912Z</time></trkpt><trkpt lat="44.4230744" lon="8.4135855"><ele>588.6666666666666</ele><time>2026-04-04T13:16:18.921Z</time></trkpt><trkpt lat="44.4232049" lon="8.4134758"><ele>588.0</ele><time>2026-04-04T13:16:19.916Z</time></trkpt><trkpt lat="44.4233339" lon="8.4133627"><ele>588.0</ele><time>2026-04-04T13:16:20.913Z</time></trkpt><trkpt lat="44.4234762" lon="8.4132741"><ele>588.0</ele><time>2026-04-04T13:16:21.915Z</time></trkpt><trkpt lat="44.4236231" lon="8.4132141"><ele>588.0</ele><time>2026-04-04T13:16:22.912Z</time></trkpt><trkpt lat="44.4237747" lon="8.4132064"><ele>585.5</ele><time>2026-04-04T13:16:23.922Z</time></trkpt><trkpt lat="44.4239266" lon="8.413221"><ele>583.0</ele><time>2026-04-04T13:16:24.909Z</time></trkpt><trkpt lat="44.4242135" lon="8.4133533"><ele>583.0</ele><time>2026-04-04T13:16:26.92Z</time></trkpt><trkpt lat="44.4243539" lon="8.4134077"><ele>583.0</ele><time>2026-04-04T13:16:27.923Z</time></trkpt><trkpt lat="44.4245002" lon="8.4134216"><ele>583.0</ele><time>2026-04-04T13:16:28.917Z</time></trkpt><trkpt lat="44.424663" lon="8.4133936"><ele>581.0</ele><time>2026-04-04T13:16:29.917Z</time></trkpt><trkpt lat="44.4248291" lon="8.4133329"><ele>579.0</ele><time>2026-04-04T13:16:30.908Z</time></trkpt><trkpt lat="44.4249946" lon="8.4132696"><ele>577.0</ele><time>2026-04-04T13:16:31.912Z</time></trkpt><trkpt lat="44.4251526" lon="8.4132261"><ele>577.0</ele><time>2026-04-04T13:16:32.916Z</time></trkpt><trkpt lat="44.4252985" lon="8.413202"><ele>577.0</ele><time>2026-04-04T13:16:33.918Z</time></trkpt><trkpt lat="44.4254292" lon="8.4131996"><ele>577.0</ele><time>2026-04-04T13:16:34.913Z</time></trkpt><trkpt lat="44.4255505" lon="8.4132335"><ele>577.0</ele><time>2026-04-04T13:16:35.91Z</time></trkpt><trkpt lat="44.4256737" lon="8.4132805"><ele>577.0</ele><time>2026-04-04T13:16:36.909Z</time></trkpt><trkpt lat="44.4257975" lon="8.4134103"><ele>577.0</ele><time>2026-04-04T13:16:37.909Z</time></trkpt><trkpt lat="44.425929" lon="8.4135685"><ele>577.0</ele><time>2026-04-04T13:16:38.907Z</time></trkpt><trkpt lat="44.4260719" lon="8.4137316"><ele>573.6666666666667</ele><time>2026-04-04T13:16:39.911Z</time></trkpt><trkpt lat="44.4262281" lon="8.4138866"><ele>570.3333333333334</ele><time>2026-04-04T13:16:40.913Z</time></trkpt><trkpt lat="44.426381" lon="8.4140264"><ele>567.0</ele><time>2026-04-04T13:16:41.92Z</time></trkpt><trkpt lat="44.4265258" lon="8.4141441"><ele>567.0</ele><time>2026-04-04T13:16:42.915Z</time></trkpt><trkpt lat="44.4266663" lon="8.4142391"><ele>567.0</ele><time>2026-04-04T13:16:43.912Z</time></trkpt><trkpt lat="44.4268019" lon="8.4143121"><ele>567.0</ele><time>2026-04-04T13:16:44.915Z</time></trkpt><trkpt lat="44.4269163" lon="8.4143923"><ele>567.0</ele><time>2026-04-04T13:16:45.91Z</time></trkpt><trkpt lat="44.4270434" lon="8.4146281"><ele>565.0</ele><time>2026-04-04T13:16:47.912Z</time></trkpt><trkpt lat="44.4270521" lon="8.414797"><ele>563.0</ele><time>2026-04-04T13:16:48.915Z</time></trkpt><trkpt lat="44.4270617" lon="8.4149781"><ele>561.0</ele><time>2026-04-04T13:16:49.915Z</time></trkpt><trkpt lat="44.4270764" lon="8.4151891"><ele>559.0</ele><time>2026-04-04T13:16:50.926Z</time></trkpt><trkpt lat="44.4270848" lon="8.4154152"><ele>558.0</ele><time>2026-04-04T13:16:51.92Z</time></trkpt><trkpt lat="44.4270836" lon="8.4156722"><ele>557.0</ele><time>2026-04-04T13:16:52.918Z</time></trkpt><trkpt lat="44.4270776" lon="8.4159415"><ele>556.0</ele><time>2026-04-04T13:16:53.917Z</time></trkpt><trkpt lat="44.4270738" lon="8.4162131"><ele>554.3333333333334</ele><time>2026-04-04T13:16:54.916Z</time></trkpt><trkpt lat="44.4270873" lon="8.4164825"><ele>552.6666666666666</ele><time>2026-04-04T13:16:55.931Z</time></trkpt><trkpt lat="44.4271064" lon="8.4167259"><ele>551.0</ele><time>2026-04-04T13:16:56.918Z</time></trkpt><trkpt lat="44.4271299" lon="8.4169356"><ele>553.0</ele><time>2026-04-04T13:16:57.924Z</time></trkpt><trkpt lat="44.4271701" lon="8.4171118"><ele>555.0</ele><time>2026-04-04T13:16:58.921Z</time></trkpt><trkpt lat="44.4272469" lon="8.4172541"><ele>557.0</ele><time>2026-04-04T13:16:59.938Z</time></trkpt><trkpt lat="44.4273573" lon="8.41736"><ele>559.0</ele><time>2026-04-04T13:17:00.918Z</time></trkpt><trkpt lat="44.4274998" lon="8.4174408"><ele>561.0</ele><time>2026-04-04T13:17:01.919Z</time></trkpt><trkpt lat="44.4276511" lon="8.4175009"><ele>563.0</ele><time>2026-04-04T13:17:02.924Z</time></trkpt><trkpt lat="44.4277883" lon="8.4175795"><ele>565.0</ele><time>2026-04-04T13:17:03.927Z</time></trkpt><trkpt lat="44.4278926" lon="8.4176964"><ele>567.0</ele><time>2026-04-04T13:17:04.916Z</time></trkpt><trkpt lat="44.4279564" lon="8.4178401"><ele>569.0</ele><time>2026-04-04T13:17:05.918Z</time></trkpt><trkpt lat="44.4279777" lon="8.4180086"><ele>571.0</ele><time>2026-04-04T13:17:06.926Z</time></trkpt><trkpt lat="44.42796" lon="8.4183876"><ele>573.0</ele><time>2026-04-04T13:17:08.916Z</time></trkpt><trkpt lat="44.4279481" lon="8.4186095"><ele>572.0</ele><time>2026-04-04T13:17:09.911Z</time></trkpt><trkpt lat="44.4279521" lon="8.4188424"><ele>571.0</ele><time>2026-04-04T13:17:10.929Z</time></trkpt><trkpt lat="44.4279885" lon="8.4190714"><ele>570.0</ele><time>2026-04-04T13:17:11.914Z</time></trkpt><trkpt lat="44.4280426" lon="8.4192891"><ele>569.75</ele><time>2026-04-04T13:17:12.935Z</time></trkpt><trkpt lat="44.428106" lon="8.4194762"><ele>569.5</ele><time>2026-04-04T13:17:13.901Z</time></trkpt><trkpt lat="44.4281883" lon="8.419635"><ele>569.25</ele><time>2026-04-04T13:17:14.907Z</time></trkpt><trkpt lat="44.4283008" lon="8.419759"><ele>569.0</ele><time>2026-04-04T13:17:15.918Z</time></trkpt><trkpt lat="44.4284486" lon="8.4198391"><ele>571.6666666666666</ele><time>2026-04-04T13:17:16.912Z</time></trkpt><trkpt lat="44.4286115" lon="8.4198742"><ele>574.3333333333334</ele><time>2026-04-04T13:17:17.912Z</time></trkpt><trkpt lat="44.4287587" lon="8.4199345"><ele>577.0</ele><time>2026-04-04T13:17:18.913Z</time></trkpt><trkpt lat="44.4288802" lon="8.4200133"><ele>577.0</ele><time>2026-04-04T13:17:19.908Z</time></trkpt><trkpt lat="44.4289913" lon="8.4200838"><ele>577.0</ele><time>2026-04-04T13:17:20.909Z</time></trkpt><trkpt lat="44.4291093" lon="8.4201051"><ele>577.0</ele><time>2026-04-04T13:17:21.907Z</time></trkpt><trkpt lat="44.4292393" lon="8.420038"><ele>577.0</ele><time>2026-04-04T13:17:22.917Z</time></trkpt><trkpt lat="44.4293795" lon="8.4199211"><ele>577.0</ele><time>2026-04-04T13:17:23.914Z</time></trkpt><trkpt lat="44.4295334" lon="8.4198"><ele>577.0</ele><time>2026-04-04T13:17:24.909Z</time></trkpt><trkpt lat="44.4296836" lon="8.4196862"><ele>577.0</ele><time>2026-04-04T13:17:25.918Z</time></trkpt><trkpt lat="44.4298217" lon="8.4196007"><ele>578.3333333333334</ele><time>2026-04-04T13:17:26.917Z</time></trkpt><trkpt lat="44.4299513" lon="8.4195417"><ele>579.6666666666666</ele><time>2026-04-04T13:17:27.929Z</time></trkpt><trkpt lat="44.4301589" lon="8.4196446"><ele>581.0</ele><time>2026-04-04T13:17:29.909Z</time></trkpt><trkpt lat="44.4302239" lon="8.4197809"><ele>581.0</ele><time>2026-04-04T13:17:30.914Z</time></trkpt><trkpt lat="44.4302668" lon="8.4199657"><ele>581.0</ele><time>2026-04-04T13:17:31.919Z</time></trkpt><trkpt lat="44.4302988" lon="8.4201848"><ele>581.0</ele><time>2026-04-04T13:17:32.919Z</time></trkpt><trkpt lat="44.4303279" lon="8.4204204"><ele>579.6666666666666</ele><time>2026-04-04T13:17:33.926Z</time></trkpt><trkpt lat="44.4303636" lon="8.420639"><ele>578.3333333333334</ele><time>2026-04-04T13:17:34.912Z</time></trkpt><trkpt lat="44.4304229" lon="8.4208388"><ele>577.0</ele><time>2026-04-04T13:17:35.909Z</time></trkpt><trkpt lat="44.4305161" lon="8.4210329"><ele>576.3333333333334</ele><time>2026-04-04T13:17:36.927Z</time></trkpt><trkpt lat="44.430648" lon="8.421215"><ele>575.6666666666666</ele><time>2026-04-04T13:17:37.914Z</time></trkpt><trkpt lat="44.4308096" lon="8.421396"><ele>575.0</ele><time>2026-04-04T13:17:38.912Z</time></trkpt><trkpt lat="44.4309797" lon="8.421559"><ele>574.6666666666666</ele><time>2026-04-04T13:17:39.926Z</time></trkpt><trkpt lat="44.4311388" lon="8.421696"><ele>574.3333333333334</ele><time>2026-04-04T13:17:40.913Z</time></trkpt><trkpt lat="44.4312759" lon="8.421836"><ele>574.0</ele><time>2026-04-04T13:17:41.918Z</time></trkpt><trkpt lat="44.4313864" lon="8.4220085"><ele>573.3333333333334</ele><time>2026-04-04T13:17:42.921Z</time></trkpt><trkpt lat="44.4314723" lon="8.4221982"><ele>572.6666666666666</ele><time>2026-04-04T13:17:43.916Z</time></trkpt><trkpt lat="44.4315399" lon="8.4223829"><ele>572.0</ele><time>2026-04-04T13:17:44.912Z</time></trkpt><trkpt lat="44.4316189" lon="8.4225607"><ele>572.0</ele><time>2026-04-04T13:17:45.915Z</time></trkpt><trkpt lat="44.4316921" lon="8.4226978"><ele>572.0</ele><time>2026-04-04T13:17:46.916Z</time></trkpt><trkpt lat="44.4317938" lon="8.4228005"><ele>572.0</ele><time>2026-04-04T13:17:47.928Z</time></trkpt><trkpt lat="44.4319282" lon="8.4228869"><ele>572.0</ele><time>2026-04-04T13:17:48.915Z</time></trkpt><trkpt lat="44.4322816" lon="8.4230448"><ele>571.3333333333333</ele><time>2026-04-04T13:17:50.909Z</time></trkpt><trkpt lat="44.4324774" lon="8.4231319"><ele>570.6666666666666</ele><time>2026-04-04T13:17:51.914Z</time></trkpt><trkpt lat="44.4326718" lon="8.4232317"><ele>570.0</ele><time>2026-04-04T13:17:52.911Z</time></trkpt><trkpt lat="44.4328609" lon="8.4233618"><ele>574.3333333333334</ele><time>2026-04-04T13:17:53.909Z</time></trkpt><trkpt lat="44.4330355" lon="8.423498"><ele>578.6666666666667</ele><time>2026-04-04T13:17:54.914Z</time></trkpt><trkpt lat="44.433197" lon="8.4236153"><ele>583.0</ele><time>2026-04-04T13:17:55.926Z</time></trkpt><trkpt lat="44.4333476" lon="8.423712"><ele>576.6666666666667</ele><time>2026-04-04T13:17:56.914Z</time></trkpt><trkpt lat="44.4334948" lon="8.4238271"><ele>570.3333333333334</ele><time>2026-04-04T13:17:57.91Z</time></trkpt><trkpt lat="44.4336367" lon="8.4239862"><ele>564.0</ele><time>2026-04-04T13:17:58.917Z</time></trkpt><trkpt lat="44.4337596" lon="8.4241712"><ele>570.0</ele><time>2026-04-04T13:17:59.919Z</time></trkpt><trkpt lat="44.4338706" lon="8.4243422"><ele>576.0</ele><time>2026-04-04T13:18:00.917Z</time></trkpt><trkpt lat="44.4339867" lon="8.4244937"><ele>582.0</ele><time>2026-04-04T13:18:01.922Z</time></trkpt><trkpt lat="44.4341192" lon="8.4246058"><ele>577.0</ele><time>2026-04-04T13:18:02.916Z</time></trkpt><trkpt lat="44.4342531" lon="8.4246998"><ele>572.0</ele><time>2026-04-04T13:18:03.918Z</time></trkpt><trkpt lat="44.4343779" lon="8.4248221"><ele>567.0</ele><time>2026-04-04T13:18:04.916Z</time></trkpt><trkpt lat="44.4344749" lon="8.4249964"><ele>567.0</ele><time>2026-04-04T13:18:05.916Z</time></trkpt><trkpt lat="44.4345433" lon="8.4251898"><ele>567.0</ele><time>2026-04-04T13:18:06.908Z</time></trkpt><trkpt lat="44.4346062" lon="8.4253734"><ele>567.0</ele><time>2026-04-04T13:18:07.914Z</time></trkpt><trkpt lat="44.4346949" lon="8.4255393"><ele>567.0</ele><time>2026-04-04T13:18:08.92Z</time></trkpt><trkpt lat="44.4348167" lon="8.4256887"><ele>570.5</ele><time>2026-04-04T13:18:09.907Z</time></trkpt><trkpt lat="44.4351043" lon="8.4259005"><ele>574.0</ele><time>2026-04-04T13:18:11.908Z</time></trkpt><trkpt lat="44.4352453" lon="8.4259929"><ele>574.0</ele><time>2026-04-04T13:18:12.919Z</time></trkpt><trkpt lat="44.4353725" lon="8.4261202"><ele>574.0</ele><time>2026-04-04T13:18:13.905Z</time></trkpt><trkpt lat="44.4354728" lon="8.4262903"><ele>574.0</ele><time>2026-04-04T13:18:14.914Z</time></trkpt><trkpt lat="44.4355469" lon="8.4264915"><ele>574.0</ele><time>2026-04-04T13:18:15.923Z</time></trkpt><trkpt lat="44.4355894" lon="8.4267272"><ele>574.0</ele><time>2026-04-04T13:18:16.926Z</time></trkpt><trkpt lat="44.4356255" lon="8.4269834"><ele>574.0</ele><time>2026-04-04T13:18:17.918Z</time></trkpt><trkpt lat="44.4356677" lon="8.4272466"><ele>575.3333333333334</ele><time>2026-04-04T13:18:18.913Z</time></trkpt><trkpt lat="44.4357095" lon="8.4274995"><ele>576.6666666666666</ele><time>2026-04-04T13:18:19.913Z</time></trkpt><trkpt lat="44.4357386" lon="8.4277245"><ele>578.0</ele><time>2026-04-04T13:18:20.923Z</time></trkpt><trkpt lat="44.4357668" lon="8.4279344"><ele>576.3333333333333</ele><time>2026-04-04T13:18:21.92Z</time></trkpt><trkpt lat="44.4358002" lon="8.4281402"><ele>574.6666666666666</ele><time>2026-04-04T13:18:22.921Z</time></trkpt><trkpt lat="44.4358439" lon="8.4283438"><ele>573.0</ele><time>2026-04-04T13:18:23.918Z</time></trkpt><trkpt lat="44.4359018" lon="8.4285458"><ele>573.0</ele><time>2026-04-04T13:18:24.909Z</time></trkpt><trkpt lat="44.4359751" lon="8.4287452"><ele>573.0</ele><time>2026-04-04T13:18:25.91Z</time></trkpt><trkpt lat="44.4360689" lon="8.4289367"><ele>573.0</ele><time>2026-04-04T13:18:26.92Z</time></trkpt><trkpt lat="44.4361757" lon="8.4291243"><ele>575.6666666666666</ele><time>2026-04-04T13:18:27.913Z</time></trkpt><trkpt lat="44.4363009" lon="8.429286"><ele>578.3333333333333</ele><time>2026-04-04T13:18:28.91Z</time></trkpt><trkpt lat="44.4364268" lon="8.4294314"><ele>581.0</ele><time>2026-04-04T13:18:29.913Z</time></trkpt><trkpt lat="44.43655" lon="8.4295639"><ele>570.5</ele><time>2026-04-04T13:18:30.906Z</time></trkpt><trkpt lat="44.436769" lon="8.4298473"><ele>560.0</ele><time>2026-04-04T13:18:32.91Z</time></trkpt><trkpt lat="44.4368615" lon="8.4300192"><ele>560.0</ele><time>2026-04-04T13:18:33.903Z</time></trkpt><trkpt lat="44.4369396" lon="8.4302151"><ele>560.0</ele><time>2026-04-04T13:18:34.907Z</time></trkpt><trkpt lat="44.4370035" lon="8.4304157"><ele>560.0</ele><time>2026-04-04T13:18:35.912Z</time></trkpt><trkpt lat="44.4370634" lon="8.4306075"><ele>561.5</ele><time>2026-04-04T13:18:36.909Z</time></trkpt><trkpt lat="44.4371134" lon="8.4307918"><ele>563.0</ele><time>2026-04-04T13:18:37.914Z</time></trkpt><trkpt lat="44.4371383" lon="8.4309748"><ele>564.5</ele><time>2026-04-04T13:18:38.914Z</time></trkpt><trkpt lat="44.4371417" lon="8.4311599"><ele>566.0</ele><time>2026-04-04T13:18:39.914Z</time></trkpt><trkpt lat="44.4371207" lon="8.4313504"><ele>556.0</ele><time>2026-04-04T13:18:40.909Z</time></trkpt><trkpt lat="44.4370856" lon="8.4315568"><ele>546.0</ele><time>2026-04-04T13:18:41.911Z</time></trkpt><trkpt lat="44.4370516" lon="8.4317845"><ele>536.0</ele><time>2026-04-04T13:18:42.926Z</time></trkpt><trkpt lat="44.4370223" lon="8.4320263"><ele>534.6666666666666</ele><time>2026-04-04T13:18:43.932Z</time></trkpt><trkpt lat="44.4369927" lon="8.4322592"><ele>533.3333333333334</ele><time>2026-04-04T13:18:44.912Z</time></trkpt><trkpt lat="44.4369586" lon="8.4324825"><ele>532.0</ele><time>2026-04-04T13:18:45.916Z</time></trkpt><trkpt lat="44.4369192" lon="8.4326966"><ele>532.0</ele><time>2026-04-04T13:18:46.918Z</time></trkpt><trkpt lat="44.4368762" lon="8.4329117"><ele>532.0</ele><time>2026-04-04T13:18:47.912Z</time></trkpt><trkpt lat="44.4368315" lon="8.4331409"><ele>532.0</ele><time>2026-04-04T13:18:48.917Z</time></trkpt><trkpt lat="44.4367879" lon="8.433375"><ele>532.0</ele><time>2026-04-04T13:18:49.914Z</time></trkpt><trkpt lat="44.4367461" lon="8.4336044"><ele>532.0</ele><time>2026-04-04T13:18:50.917Z</time></trkpt><trkpt lat="44.4367028" lon="8.433833"><ele>532.0</ele><time>2026-04-04T13:18:51.947Z</time></trkpt><trkpt lat="44.4366004" lon="8.4342433"><ele>11.0</ele><time>2026-04-04T13:18:53.893Z</time></trkpt><trkpt lat="44.3027172" lon="8.4695253"><ele>11.0</ele><time>2026-04-04T14:10:12.541Z</time></trkpt></trkseg></trk></gpx>